<?xml version="1.0" encoding="UTF-8" standalone="no" ?>
<gpx xmlns="http://www.topografix.com/GPX/1/1" xmlns:xsi="http://www.w3.org/2001/XMLSchema-instance" xsi:schemaLocation="http://www.topografix.com/GPX/1/1 http://www.topografix.com/GPX/1/1/gpx.xsd" version="1.1" creator="VisuGPX - https://www.visugpx.com">
  <metadata>
    <name>Ruhr - Day 4: Essen-Neuss</name>
  </metadata>
  <trk>
    <name><![CDATA[Ruhrpott-Tour - Tag 4: Essen-Neuss]]></name>
    <extensions>
      <line xmlns="http://www.topografix.com/GPX/gpx_style/0/2">
        <color>0000FF</color>
        <width>4</width>
      </line>
    </extensions>
    <trkseg>
      <trkpt lat="51.45782" lon="7.01382">
        <ele>119.728989</ele>
        <time>2023-04-30T07:58:44.150Z</time>
      </trkpt>
      <trkpt lat="51.45792" lon="7.01381">
        <ele>119.728989</ele>
        <time>2023-04-30T08:00:31.172Z</time>
      </trkpt>
      <trkpt lat="51.45795" lon="7.01366">
        <ele>119.728989</ele>
        <time>2023-04-30T08:00:39.166Z</time>
      </trkpt>
      <trkpt lat="51.458" lon="7.01363">
        <ele>119.728989</ele>
        <time>2023-04-30T08:01:03.872Z</time>
      </trkpt>
      <trkpt lat="51.458" lon="7.01348">
        <ele>119.728989</ele>
        <time>2023-04-30T08:01:43.179Z</time>
      </trkpt>
      <trkpt lat="51.45801" lon="7.01331">
        <ele>119.728989</ele>
        <time>2023-04-30T08:01:49.178Z</time>
      </trkpt>
      <trkpt lat="51.45804" lon="7.01315">
        <ele>119.728989</ele>
        <time>2023-04-30T08:01:54.174Z</time>
      </trkpt>
      <trkpt lat="51.45807" lon="7.013">
        <ele>119.728989</ele>
        <time>2023-04-30T08:01:59.183Z</time>
      </trkpt>
      <trkpt lat="51.45809" lon="7.01285">
        <ele>119.728989</ele>
        <time>2023-04-30T08:02:04.168Z</time>
      </trkpt>
      <trkpt lat="51.45814" lon="7.01269">
        <ele>119.728989</ele>
        <time>2023-04-30T08:02:09.179Z</time>
      </trkpt>
      <trkpt lat="51.45821" lon="7.01257">
        <ele>119.602994</ele>
        <time>2023-04-30T08:02:14.182Z</time>
      </trkpt>
      <trkpt lat="51.4583" lon="7.01245">
        <ele>119.391344</ele>
        <time>2023-04-30T08:02:19.190Z</time>
      </trkpt>
      <trkpt lat="51.45836" lon="7.01234">
        <ele>119.21672</ele>
        <time>2023-04-30T08:02:23.192Z</time>
      </trkpt>
      <trkpt lat="51.45843" lon="7.01222">
        <ele>119.034964</ele>
        <time>2023-04-30T08:02:28.181Z</time>
      </trkpt>
      <trkpt lat="51.45848" lon="7.01209">
        <ele>118.85288</ele>
        <time>2023-04-30T08:02:33.184Z</time>
      </trkpt>
      <trkpt lat="51.45861" lon="7.01211">
        <ele>118.597326</ele>
        <time>2023-04-30T08:03:06.166Z</time>
      </trkpt>
      <trkpt lat="51.45871" lon="7.01212">
        <ele>118.415632</ele>
        <time>2023-04-30T08:03:10.191Z</time>
      </trkpt>
      <trkpt lat="51.45883" lon="7.01211">
        <ele>118.196498</ele>
        <time>2023-04-30T08:03:14.193Z</time>
      </trkpt>
      <trkpt lat="51.45893" lon="7.01212">
        <ele>118.005344</ele>
        <time>2023-04-30T08:03:17.199Z</time>
      </trkpt>
      <trkpt lat="51.45903" lon="7.01215">
        <ele>117.808016</ele>
        <time>2023-04-30T08:03:20.180Z</time>
      </trkpt>
      <trkpt lat="51.45915" lon="7.01215">
        <ele>117.587099</ele>
        <time>2023-04-30T08:03:23.188Z</time>
      </trkpt>
      <trkpt lat="51.45926" lon="7.01204">
        <ele>117.345853</ele>
        <time>2023-04-30T08:03:26.242Z</time>
      </trkpt>
      <trkpt lat="51.4593" lon="7.0119">
        <ele>117.16888</ele>
        <time>2023-04-30T08:03:28.185Z</time>
      </trkpt>
      <trkpt lat="51.45932" lon="7.01175">
        <ele>116.987149</ele>
        <time>2023-04-30T08:03:30.171Z</time>
      </trkpt>
      <trkpt lat="51.45931" lon="7.0116">
        <ele>116.809772</ele>
        <time>2023-04-30T08:03:32.177Z</time>
      </trkpt>
      <trkpt lat="51.45931" lon="7.0114">
        <ele>116.575416</ele>
        <time>2023-04-30T08:03:35.189Z</time>
      </trkpt>
      <trkpt lat="51.45929" lon="7.0112">
        <ele>116.329605</ele>
        <time>2023-04-30T08:03:38.176Z</time>
      </trkpt>
      <trkpt lat="51.45928" lon="7.011">
        <ele>115.856438</ele>
        <time>2023-04-30T08:03:41.195Z</time>
      </trkpt>
      <trkpt lat="51.45929" lon="7.01085">
        <ele>115.503615</ele>
        <time>2023-04-30T08:03:44.196Z</time>
      </trkpt>
      <trkpt lat="51.45937" lon="7.01078">
        <ele>115.162582</ele>
        <time>2023-04-30T08:03:49.183Z</time>
      </trkpt>
      <trkpt lat="51.45947" lon="7.01079">
        <ele>114.769371</ele>
        <time>2023-04-30T08:03:53.265Z</time>
      </trkpt>
      <trkpt lat="51.45959" lon="7.01083">
        <ele>114.337837</ele>
        <time>2023-04-30T08:03:57.181Z</time>
      </trkpt>
      <trkpt lat="51.4597" lon="7.01082">
        <ele>113.910785</ele>
        <time>2023-04-30T08:04:00.176Z</time>
      </trkpt>
      <trkpt lat="51.45983" lon="7.01078">
        <ele>113.417701</ele>
        <time>2023-04-30T08:04:03.184Z</time>
      </trkpt>
      <trkpt lat="51.45993" lon="7.01079">
        <ele>113.039357</ele>
        <time>2023-04-30T08:04:05.184Z</time>
      </trkpt>
      <trkpt lat="51.46004" lon="7.0108">
        <ele>112.619783</ele>
        <time>2023-04-30T08:04:07.185Z</time>
      </trkpt>
      <trkpt lat="51.46014" lon="7.01082">
        <ele>112.249764</ele>
        <time>2023-04-30T08:04:09.211Z</time>
      </trkpt>
      <trkpt lat="51.46024" lon="7.01084">
        <ele>111.890205</ele>
        <time>2023-04-30T08:04:11.186Z</time>
      </trkpt>
      <trkpt lat="51.46034" lon="7.01086">
        <ele>111.508748</ele>
        <time>2023-04-30T08:04:14.182Z</time>
      </trkpt>
      <trkpt lat="51.46044" lon="7.01088">
        <ele>111.136127</ele>
        <time>2023-04-30T08:04:18.186Z</time>
      </trkpt>
      <trkpt lat="51.46053" lon="7.01084">
        <ele>110.755707</ele>
        <time>2023-04-30T08:04:21.178Z</time>
      </trkpt>
      <trkpt lat="51.46063" lon="7.01078">
        <ele>110.359744</ele>
        <time>2023-04-30T08:04:23.176Z</time>
      </trkpt>
      <trkpt lat="51.46073" lon="7.01073">
        <ele>109.984122</ele>
        <time>2023-04-30T08:04:25.183Z</time>
      </trkpt>
      <trkpt lat="51.46085" lon="7.01067">
        <ele>109.55524</ele>
        <time>2023-04-30T08:04:28.174Z</time>
      </trkpt>
      <trkpt lat="51.46102" lon="7.01059">
        <ele>109.102559</ele>
        <time>2023-04-30T08:05:27.219Z</time>
      </trkpt>
      <trkpt lat="51.46111" lon="7.0105">
        <ele>108.838506</ele>
        <time>2023-04-30T08:05:30.171Z</time>
      </trkpt>
      <trkpt lat="51.4612" lon="7.0104">
        <ele>108.54856</ele>
        <time>2023-04-30T08:05:33.180Z</time>
      </trkpt>
      <trkpt lat="51.46129" lon="7.01029">
        <ele>108.272738</ele>
        <time>2023-04-30T08:05:36.192Z</time>
      </trkpt>
      <trkpt lat="51.46139" lon="7.0102">
        <ele>107.983449</ele>
        <time>2023-04-30T08:05:39.191Z</time>
      </trkpt>
      <trkpt lat="51.46148" lon="7.01008">
        <ele>107.675124</ele>
        <time>2023-04-30T08:05:42.177Z</time>
      </trkpt>
      <trkpt lat="51.46156" lon="7.00996">
        <ele>107.406448</ele>
        <time>2023-04-30T08:05:45.177Z</time>
      </trkpt>
      <trkpt lat="51.46164" lon="7.00985">
        <ele>107.136414</ele>
        <time>2023-04-30T08:05:48.192Z</time>
      </trkpt>
      <trkpt lat="51.46168" lon="7.00968">
        <ele>106.845793</ele>
        <time>2023-04-30T08:05:51.183Z</time>
      </trkpt>
      <trkpt lat="51.46163" lon="7.00951">
        <ele>106.545391</ele>
        <time>2023-04-30T08:05:54.169Z</time>
      </trkpt>
      <trkpt lat="51.46155" lon="7.00934">
        <ele>106.202849</ele>
        <time>2023-04-30T08:05:57.182Z</time>
      </trkpt>
      <trkpt lat="51.46149" lon="7.00922">
        <ele>105.971174</ele>
        <time>2023-04-30T08:05:59.185Z</time>
      </trkpt>
      <trkpt lat="51.46143" lon="7.00911">
        <ele>105.738688</ele>
        <time>2023-04-30T08:06:01.195Z</time>
      </trkpt>
      <trkpt lat="51.46135" lon="7.00895">
        <ele>105.419511</ele>
        <time>2023-04-30T08:06:04.167Z</time>
      </trkpt>
      <trkpt lat="51.46128" lon="7.0088">
        <ele>105.115272</ele>
        <time>2023-04-30T08:06:07.185Z</time>
      </trkpt>
      <trkpt lat="51.46121" lon="7.00865">
        <ele>105.090967</ele>
        <time>2023-04-30T08:06:10.191Z</time>
      </trkpt>
      <trkpt lat="51.46114" lon="7.0085">
        <ele>105.11004</ele>
        <time>2023-04-30T08:06:13.183Z</time>
      </trkpt>
      <trkpt lat="51.46118" lon="7.00835">
        <ele>105.126464</ele>
        <time>2023-04-30T08:06:16.180Z</time>
      </trkpt>
      <trkpt lat="51.46127" lon="7.00827">
        <ele>105.144162</ele>
        <time>2023-04-30T08:06:19.192Z</time>
      </trkpt>
      <trkpt lat="51.46137" lon="7.00817">
        <ele>105.16289</ele>
        <time>2023-04-30T08:06:22.180Z</time>
      </trkpt>
      <trkpt lat="51.46146" lon="7.00805">
        <ele>105.181958</ele>
        <time>2023-04-30T08:06:25.165Z</time>
      </trkpt>
      <trkpt lat="51.46155" lon="7.00794">
        <ele>105.200418</ele>
        <time>2023-04-30T08:06:28.180Z</time>
      </trkpt>
      <trkpt lat="51.46166" lon="7.00784">
        <ele>105.221502</ele>
        <time>2023-04-30T08:06:31.187Z</time>
      </trkpt>
      <trkpt lat="51.46177" lon="7.00774">
        <ele>105.241997</ele>
        <time>2023-04-30T08:06:34.190Z</time>
      </trkpt>
      <trkpt lat="51.46186" lon="7.00765">
        <ele>105.259707</ele>
        <time>2023-04-30T08:06:37.187Z</time>
      </trkpt>
      <trkpt lat="51.46193" lon="7.00756">
        <ele>105.274877</ele>
        <time>2023-04-30T08:06:40.187Z</time>
      </trkpt>
      <trkpt lat="51.46202" lon="7.00748">
        <ele>105.291139</ele>
        <time>2023-04-30T08:06:43.202Z</time>
      </trkpt>
      <trkpt lat="51.46209" lon="7.00738">
        <ele>105.307071</ele>
        <time>2023-04-30T08:06:46.186Z</time>
      </trkpt>
      <trkpt lat="51.46217" lon="7.00729">
        <ele>105.32298</ele>
        <time>2023-04-30T08:06:49.171Z</time>
      </trkpt>
      <trkpt lat="51.46225" lon="7.00721">
        <ele>105.338235</ele>
        <time>2023-04-30T08:06:52.195Z</time>
      </trkpt>
      <trkpt lat="51.46233" lon="7.00712">
        <ele>105.353296</ele>
        <time>2023-04-30T08:06:55.192Z</time>
      </trkpt>
      <trkpt lat="51.46241" lon="7.00701">
        <ele>105.385176</ele>
        <time>2023-04-30T08:06:59.180Z</time>
      </trkpt>
      <trkpt lat="51.46243" lon="7.00683">
        <ele>105.486033</ele>
        <time>2023-04-30T08:07:02.175Z</time>
      </trkpt>
      <trkpt lat="51.46241" lon="7.00662">
        <ele>105.608543</ele>
        <time>2023-04-30T08:07:05.187Z</time>
      </trkpt>
      <trkpt lat="51.46238" lon="7.00648">
        <ele>105.693774</ele>
        <time>2023-04-30T08:07:07.207Z</time>
      </trkpt>
      <trkpt lat="51.46235" lon="7.00634">
        <ele>105.779493</ele>
        <time>2023-04-30T08:07:09.194Z</time>
      </trkpt>
      <trkpt lat="51.46233" lon="7.00618">
        <ele>105.869105</ele>
        <time>2023-04-30T08:07:11.187Z</time>
      </trkpt>
      <trkpt lat="51.46231" lon="7.00603">
        <ele>105.958967</ele>
        <time>2023-04-30T08:07:13.207Z</time>
      </trkpt>
      <trkpt lat="51.46229" lon="7.00587">
        <ele>106.049574</ele>
        <time>2023-04-30T08:07:15.177Z</time>
      </trkpt>
      <trkpt lat="51.46227" lon="7.00572">
        <ele>106.141303</ele>
        <time>2023-04-30T08:07:17.178Z</time>
      </trkpt>
      <trkpt lat="51.46224" lon="7.00557">
        <ele>106.230133</ele>
        <time>2023-04-30T08:07:19.193Z</time>
      </trkpt>
      <trkpt lat="51.46222" lon="7.00541">
        <ele>106.321666</ele>
        <time>2023-04-30T08:07:21.189Z</time>
      </trkpt>
      <trkpt lat="51.46221" lon="7.00525">
        <ele>106.413765</ele>
        <time>2023-04-30T08:07:23.189Z</time>
      </trkpt>
      <trkpt lat="51.46219" lon="7.00508">
        <ele>106.509024</ele>
        <time>2023-04-30T08:07:25.180Z</time>
      </trkpt>
      <trkpt lat="51.46216" lon="7.00491">
        <ele>106.612015</ele>
        <time>2023-04-30T08:07:27.199Z</time>
      </trkpt>
      <trkpt lat="51.46214" lon="7.00474">
        <ele>106.707765</ele>
        <time>2023-04-30T08:07:29.194Z</time>
      </trkpt>
      <trkpt lat="51.46213" lon="7.00457">
        <ele>106.80733</ele>
        <time>2023-04-30T08:07:31.201Z</time>
      </trkpt>
      <trkpt lat="51.46211" lon="7.00439">
        <ele>106.909979</ele>
        <time>2023-04-30T08:07:33.198Z</time>
      </trkpt>
      <trkpt lat="51.4621" lon="7.00421">
        <ele>107.012423</ele>
        <time>2023-04-30T08:07:35.193Z</time>
      </trkpt>
      <trkpt lat="51.4621" lon="7.00403">
        <ele>106.939162</ele>
        <time>2023-04-30T08:07:37.196Z</time>
      </trkpt>
      <trkpt lat="51.46211" lon="7.00386">
        <ele>106.864015</ele>
        <time>2023-04-30T08:07:39.188Z</time>
      </trkpt>
      <trkpt lat="51.46212" lon="7.00368">
        <ele>106.783899</ele>
        <time>2023-04-30T08:07:41.193Z</time>
      </trkpt>
      <trkpt lat="51.46213" lon="7.0035">
        <ele>106.706183</ele>
        <time>2023-04-30T08:07:43.193Z</time>
      </trkpt>
      <trkpt lat="51.46214" lon="7.00334">
        <ele>106.636127</ele>
        <time>2023-04-30T08:07:45.189Z</time>
      </trkpt>
      <trkpt lat="51.46214" lon="7.00317">
        <ele>106.564419</ele>
        <time>2023-04-30T08:07:47.183Z</time>
      </trkpt>
      <trkpt lat="51.46214" lon="7.003">
        <ele>106.489745</ele>
        <time>2023-04-30T08:07:49.210Z</time>
      </trkpt>
      <trkpt lat="51.46215" lon="7.00282">
        <ele>106.411846</ele>
        <time>2023-04-30T08:07:51.200Z</time>
      </trkpt>
      <trkpt lat="51.46217" lon="7.00265">
        <ele>106.333998</ele>
        <time>2023-04-30T08:07:53.186Z</time>
      </trkpt>
      <trkpt lat="51.46219" lon="7.00247">
        <ele>106.255785</ele>
        <time>2023-04-30T08:07:55.187Z</time>
      </trkpt>
      <trkpt lat="51.46222" lon="7.00229">
        <ele>106.176425</ele>
        <time>2023-04-30T08:07:57.236Z</time>
      </trkpt>
      <trkpt lat="51.46224" lon="7.00211">
        <ele>106.094103</ele>
        <time>2023-04-30T08:07:59.202Z</time>
      </trkpt>
      <trkpt lat="51.46226" lon="7.00192">
        <ele>106.013683</ele>
        <time>2023-04-30T08:08:01.200Z</time>
      </trkpt>
      <trkpt lat="51.46229" lon="7.00173">
        <ele>105.929514</ele>
        <time>2023-04-30T08:08:03.185Z</time>
      </trkpt>
      <trkpt lat="51.46232" lon="7.00154">
        <ele>105.844853</ele>
        <time>2023-04-30T08:08:05.193Z</time>
      </trkpt>
      <trkpt lat="51.46235" lon="7.00137">
        <ele>105.766103</ele>
        <time>2023-04-30T08:08:07.164Z</time>
      </trkpt>
      <trkpt lat="51.46238" lon="7.0012">
        <ele>105.659435</ele>
        <time>2023-04-30T08:08:09.180Z</time>
      </trkpt>
      <trkpt lat="51.46242" lon="7.00103">
        <ele>105.547811</ele>
        <time>2023-04-30T08:08:11.180Z</time>
      </trkpt>
      <trkpt lat="51.46246" lon="7.00085">
        <ele>105.43471</ele>
        <time>2023-04-30T08:08:13.187Z</time>
      </trkpt>
      <trkpt lat="51.46251" lon="7.00069">
        <ele>105.325237</ele>
        <time>2023-04-30T08:08:15.177Z</time>
      </trkpt>
      <trkpt lat="51.46256" lon="7.00053">
        <ele>105.215648</ele>
        <time>2023-04-30T08:08:17.186Z</time>
      </trkpt>
      <trkpt lat="51.46262" lon="7.00038">
        <ele>105.1048</ele>
        <time>2023-04-30T08:08:19.192Z</time>
      </trkpt>
      <trkpt lat="51.46268" lon="7.00022">
        <ele>104.991367</ele>
        <time>2023-04-30T08:08:21.162Z</time>
      </trkpt>
      <trkpt lat="51.46274" lon="7.00007">
        <ele>104.876795</ele>
        <time>2023-04-30T08:08:23.190Z</time>
      </trkpt>
      <trkpt lat="51.46282" lon="6.99992">
        <ele>104.762319</ele>
        <time>2023-04-30T08:08:25.188Z</time>
      </trkpt>
      <trkpt lat="51.46288" lon="6.99978">
        <ele>104.657466</ele>
        <time>2023-04-30T08:08:27.178Z</time>
      </trkpt>
      <trkpt lat="51.46295" lon="6.99965">
        <ele>104.55481</ele>
        <time>2023-04-30T08:08:29.195Z</time>
      </trkpt>
      <trkpt lat="51.46302" lon="6.99952">
        <ele>104.447554</ele>
        <time>2023-04-30T08:08:31.163Z</time>
      </trkpt>
      <trkpt lat="51.4631" lon="6.99941">
        <ele>104.343696</ele>
        <time>2023-04-30T08:08:33.183Z</time>
      </trkpt>
      <trkpt lat="51.46318" lon="6.99928">
        <ele>104.239102</ele>
        <time>2023-04-30T08:08:35.184Z</time>
      </trkpt>
      <trkpt lat="51.46325" lon="6.99917">
        <ele>104.134112</ele>
        <time>2023-04-30T08:08:37.199Z</time>
      </trkpt>
      <trkpt lat="51.46333" lon="6.99905">
        <ele>104.03054</ele>
        <time>2023-04-30T08:08:39.193Z</time>
      </trkpt>
      <trkpt lat="51.46341" lon="6.99893">
        <ele>103.939924</ele>
        <time>2023-04-30T08:08:41.195Z</time>
      </trkpt>
      <trkpt lat="51.46349" lon="6.99881">
        <ele>103.853372</ele>
        <time>2023-04-30T08:08:43.172Z</time>
      </trkpt>
      <trkpt lat="51.46357" lon="6.9987">
        <ele>103.769505</ele>
        <time>2023-04-30T08:08:45.196Z</time>
      </trkpt>
      <trkpt lat="51.46364" lon="6.99858">
        <ele>103.685639</ele>
        <time>2023-04-30T08:08:47.208Z</time>
      </trkpt>
      <trkpt lat="51.46372" lon="6.99846">
        <ele>103.59801</ele>
        <time>2023-04-30T08:08:49.197Z</time>
      </trkpt>
      <trkpt lat="51.4638" lon="6.99834">
        <ele>103.511976</ele>
        <time>2023-04-30T08:08:51.188Z</time>
      </trkpt>
      <trkpt lat="51.46387" lon="6.99822">
        <ele>103.432237</ele>
        <time>2023-04-30T08:08:53.182Z</time>
      </trkpt>
      <trkpt lat="51.46395" lon="6.99811">
        <ele>103.352152</ele>
        <time>2023-04-30T08:08:55.188Z</time>
      </trkpt>
      <trkpt lat="51.46402" lon="6.99799">
        <ele>103.27033</ele>
        <time>2023-04-30T08:08:57.179Z</time>
      </trkpt>
      <trkpt lat="51.46407" lon="6.99785">
        <ele>103.189381</ele>
        <time>2023-04-30T08:08:59.190Z</time>
      </trkpt>
      <trkpt lat="51.46412" lon="6.9977">
        <ele>103.105388</ele>
        <time>2023-04-30T08:09:01.182Z</time>
      </trkpt>
      <trkpt lat="51.46418" lon="6.99754">
        <ele>103.016051</ele>
        <time>2023-04-30T08:09:03.183Z</time>
      </trkpt>
      <trkpt lat="51.46424" lon="6.99739">
        <ele>102.927274</ele>
        <time>2023-04-30T08:09:05.194Z</time>
      </trkpt>
      <trkpt lat="51.4643" lon="6.99723">
        <ele>102.831388</ele>
        <time>2023-04-30T08:09:07.196Z</time>
      </trkpt>
      <trkpt lat="51.46436" lon="6.99706">
        <ele>102.736757</ele>
        <time>2023-04-30T08:09:09.186Z</time>
      </trkpt>
      <trkpt lat="51.46442" lon="6.9969">
        <ele>102.642865</ele>
        <time>2023-04-30T08:09:11.190Z</time>
      </trkpt>
      <trkpt lat="51.46446" lon="6.99671">
        <ele>102.550448</ele>
        <time>2023-04-30T08:09:13.202Z</time>
      </trkpt>
      <trkpt lat="51.46451" lon="6.99653">
        <ele>102.468173</ele>
        <time>2023-04-30T08:09:15.186Z</time>
      </trkpt>
      <trkpt lat="51.46456" lon="6.99635">
        <ele>102.384193</ele>
        <time>2023-04-30T08:09:17.200Z</time>
      </trkpt>
      <trkpt lat="51.46459" lon="6.99616">
        <ele>102.301212</ele>
        <time>2023-04-30T08:09:19.184Z</time>
      </trkpt>
      <trkpt lat="51.46463" lon="6.99597">
        <ele>102.217628</ele>
        <time>2023-04-30T08:09:21.187Z</time>
      </trkpt>
      <trkpt lat="51.46466" lon="6.99578">
        <ele>102.136681</ele>
        <time>2023-04-30T08:09:23.191Z</time>
      </trkpt>
      <trkpt lat="51.46468" lon="6.9956">
        <ele>102.056144</ele>
        <time>2023-04-30T08:09:25.197Z</time>
      </trkpt>
      <trkpt lat="51.46471" lon="6.9954">
        <ele>101.972175</ele>
        <time>2023-04-30T08:09:27.185Z</time>
      </trkpt>
      <trkpt lat="51.46474" lon="6.99521">
        <ele>101.890564</ele>
        <time>2023-04-30T08:09:29.187Z</time>
      </trkpt>
      <trkpt lat="51.46476" lon="6.99501">
        <ele>101.805914</ele>
        <time>2023-04-30T08:09:31.193Z</time>
      </trkpt>
      <trkpt lat="51.46479" lon="6.99483">
        <ele>101.725624</ele>
        <time>2023-04-30T08:09:33.187Z</time>
      </trkpt>
      <trkpt lat="51.46481" lon="6.99464">
        <ele>101.646353</ele>
        <time>2023-04-30T08:09:35.186Z</time>
      </trkpt>
      <trkpt lat="51.46483" lon="6.99446">
        <ele>101.569702</ele>
        <time>2023-04-30T08:09:37.204Z</time>
      </trkpt>
      <trkpt lat="51.46486" lon="6.99428">
        <ele>101.488429</ele>
        <time>2023-04-30T08:09:39.191Z</time>
      </trkpt>
      <trkpt lat="51.46489" lon="6.9941">
        <ele>101.412141</ele>
        <time>2023-04-30T08:09:41.189Z</time>
      </trkpt>
      <trkpt lat="51.46492" lon="6.99394">
        <ele>101.358871</ele>
        <time>2023-04-30T08:09:43.190Z</time>
      </trkpt>
      <trkpt lat="51.46493" lon="6.99375">
        <ele>101.351992</ele>
        <time>2023-04-30T08:09:45.194Z</time>
      </trkpt>
      <trkpt lat="51.46495" lon="6.99358">
        <ele>101.345305</ele>
        <time>2023-04-30T08:09:47.198Z</time>
      </trkpt>
      <trkpt lat="51.46496" lon="6.99341">
        <ele>101.33919</ele>
        <time>2023-04-30T08:09:49.170Z</time>
      </trkpt>
      <trkpt lat="51.46497" lon="6.99324">
        <ele>101.33277</ele>
        <time>2023-04-30T08:09:51.198Z</time>
      </trkpt>
      <trkpt lat="51.46499" lon="6.99308">
        <ele>101.326835</ele>
        <time>2023-04-30T08:09:53.171Z</time>
      </trkpt>
      <trkpt lat="51.46501" lon="6.99293">
        <ele>101.321093</ele>
        <time>2023-04-30T08:09:55.187Z</time>
      </trkpt>
      <trkpt lat="51.46504" lon="6.99277">
        <ele>101.315009</ele>
        <time>2023-04-30T08:09:57.187Z</time>
      </trkpt>
      <trkpt lat="51.46506" lon="6.9926">
        <ele>101.308713</ele>
        <time>2023-04-30T08:09:59.193Z</time>
      </trkpt>
      <trkpt lat="51.46508" lon="6.99243">
        <ele>101.302307</ele>
        <time>2023-04-30T08:10:01.184Z</time>
      </trkpt>
      <trkpt lat="51.46511" lon="6.99225">
        <ele>101.295554</ele>
        <time>2023-04-30T08:10:03.184Z</time>
      </trkpt>
      <trkpt lat="51.46513" lon="6.99207">
        <ele>101.288716</ele>
        <time>2023-04-30T08:10:05.181Z</time>
      </trkpt>
      <trkpt lat="51.46515" lon="6.99189">
        <ele>101.281878</ele>
        <time>2023-04-30T08:10:07.168Z</time>
      </trkpt>
      <trkpt lat="51.46517" lon="6.99171">
        <ele>101.275273</ele>
        <time>2023-04-30T08:10:09.226Z</time>
      </trkpt>
      <trkpt lat="51.46519" lon="6.99153">
        <ele>101.268472</ele>
        <time>2023-04-30T08:10:11.185Z</time>
      </trkpt>
      <trkpt lat="51.46522" lon="6.99135">
        <ele>101.261634</ele>
        <time>2023-04-30T08:10:13.196Z</time>
      </trkpt>
      <trkpt lat="51.46524" lon="6.99118">
        <ele>101.25511</ele>
        <time>2023-04-30T08:10:15.187Z</time>
      </trkpt>
      <trkpt lat="51.46526" lon="6.991">
        <ele>101.339644</ele>
        <time>2023-04-30T08:10:17.192Z</time>
      </trkpt>
      <trkpt lat="51.46529" lon="6.99084">
        <ele>101.435085</ele>
        <time>2023-04-30T08:10:19.197Z</time>
      </trkpt>
      <trkpt lat="51.46531" lon="6.99066">
        <ele>101.538908</ele>
        <time>2023-04-30T08:10:21.187Z</time>
      </trkpt>
      <trkpt lat="51.46532" lon="6.99049">
        <ele>101.639921</ele>
        <time>2023-04-30T08:10:23.193Z</time>
      </trkpt>
      <trkpt lat="51.46534" lon="6.99031">
        <ele>101.741615</ele>
        <time>2023-04-30T08:10:25.190Z</time>
      </trkpt>
      <trkpt lat="51.46535" lon="6.99014">
        <ele>101.842295</ele>
        <time>2023-04-30T08:10:27.184Z</time>
      </trkpt>
      <trkpt lat="51.46537" lon="6.98998">
        <ele>101.936611</ele>
        <time>2023-04-30T08:10:29.207Z</time>
      </trkpt>
      <trkpt lat="51.46539" lon="6.98981">
        <ele>102.036507</ele>
        <time>2023-04-30T08:10:31.197Z</time>
      </trkpt>
      <trkpt lat="51.46541" lon="6.98965">
        <ele>102.130101</ele>
        <time>2023-04-30T08:10:33.183Z</time>
      </trkpt>
      <trkpt lat="51.46542" lon="6.98948">
        <ele>102.227374</ele>
        <time>2023-04-30T08:10:35.190Z</time>
      </trkpt>
      <trkpt lat="51.46544" lon="6.98931">
        <ele>102.323835</ele>
        <time>2023-04-30T08:10:37.192Z</time>
      </trkpt>
      <trkpt lat="51.46544" lon="6.98914">
        <ele>102.420235</ele>
        <time>2023-04-30T08:10:39.195Z</time>
      </trkpt>
      <trkpt lat="51.46544" lon="6.98895">
        <ele>102.530285</ele>
        <time>2023-04-30T08:10:41.184Z</time>
      </trkpt>
      <trkpt lat="51.46545" lon="6.98876">
        <ele>102.641285</ele>
        <time>2023-04-30T08:10:43.204Z</time>
      </trkpt>
      <trkpt lat="51.46546" lon="6.98856">
        <ele>102.755643</ele>
        <time>2023-04-30T08:10:45.196Z</time>
      </trkpt>
      <trkpt lat="51.46548" lon="6.98836">
        <ele>102.870918</ele>
        <time>2023-04-30T08:10:47.176Z</time>
      </trkpt>
      <trkpt lat="51.4655" lon="6.98817">
        <ele>102.90206</ele>
        <time>2023-04-30T08:10:49.202Z</time>
      </trkpt>
      <trkpt lat="51.46553" lon="6.98799">
        <ele>102.891473</ele>
        <time>2023-04-30T08:10:51.202Z</time>
      </trkpt>
      <trkpt lat="51.46555" lon="6.98782">
        <ele>102.881994</ele>
        <time>2023-04-30T08:10:53.196Z</time>
      </trkpt>
      <trkpt lat="51.46556" lon="6.98767">
        <ele>102.873627</ele>
        <time>2023-04-30T08:10:55.173Z</time>
      </trkpt>
      <trkpt lat="51.46558" lon="6.98747">
        <ele>102.86268</ele>
        <time>2023-04-30T08:10:58.196Z</time>
      </trkpt>
      <trkpt lat="51.46559" lon="6.98731">
        <ele>102.853886</ele>
        <time>2023-04-30T08:11:01.192Z</time>
      </trkpt>
      <trkpt lat="51.46561" lon="6.98715">
        <ele>102.844874</ele>
        <time>2023-04-30T08:11:04.202Z</time>
      </trkpt>
      <trkpt lat="51.46562" lon="6.98696">
        <ele>102.834484</ele>
        <time>2023-04-30T08:11:07.188Z</time>
      </trkpt>
      <trkpt lat="51.46563" lon="6.98682">
        <ele>102.826439</ele>
        <time>2023-04-30T08:11:09.190Z</time>
      </trkpt>
      <trkpt lat="51.46563" lon="6.98666">
        <ele>102.817458</ele>
        <time>2023-04-30T08:11:11.216Z</time>
      </trkpt>
      <trkpt lat="51.46564" lon="6.98647">
        <ele>102.807408</ele>
        <time>2023-04-30T08:11:13.217Z</time>
      </trkpt>
      <trkpt lat="51.46566" lon="6.98628">
        <ele>102.79681</ele>
        <time>2023-04-30T08:11:15.197Z</time>
      </trkpt>
      <trkpt lat="51.46568" lon="6.9861">
        <ele>102.786301</ele>
        <time>2023-04-30T08:11:17.201Z</time>
      </trkpt>
      <trkpt lat="51.4657" lon="6.9859">
        <ele>102.775311</ele>
        <time>2023-04-30T08:11:19.190Z</time>
      </trkpt>
      <trkpt lat="51.46573" lon="6.9857">
        <ele>102.76407</ele>
        <time>2023-04-30T08:11:21.191Z</time>
      </trkpt>
      <trkpt lat="51.46575" lon="6.9855">
        <ele>102.752809</ele>
        <time>2023-04-30T08:11:23.202Z</time>
      </trkpt>
      <trkpt lat="51.46577" lon="6.98531">
        <ele>102.83251</ele>
        <time>2023-04-30T08:11:25.187Z</time>
      </trkpt>
      <trkpt lat="51.46579" lon="6.98512">
        <ele>102.947391</ele>
        <time>2023-04-30T08:11:27.187Z</time>
      </trkpt>
      <trkpt lat="51.4658" lon="6.98493">
        <ele>103.060824</ele>
        <time>2023-04-30T08:11:29.195Z</time>
      </trkpt>
      <trkpt lat="51.4658" lon="6.98475">
        <ele>103.169923</ele>
        <time>2023-04-30T08:11:31.187Z</time>
      </trkpt>
      <trkpt lat="51.46581" lon="6.98456">
        <ele>103.284214</ele>
        <time>2023-04-30T08:11:33.196Z</time>
      </trkpt>
      <trkpt lat="51.46583" lon="6.98438">
        <ele>103.395512</ele>
        <time>2023-04-30T08:11:35.191Z</time>
      </trkpt>
      <trkpt lat="51.46584" lon="6.9842">
        <ele>103.501233</ele>
        <time>2023-04-30T08:11:37.191Z</time>
      </trkpt>
      <trkpt lat="51.46585" lon="6.98401">
        <ele>103.61543</ele>
        <time>2023-04-30T08:11:39.184Z</time>
      </trkpt>
      <trkpt lat="51.46586" lon="6.98383">
        <ele>103.725532</ele>
        <time>2023-04-30T08:11:41.199Z</time>
      </trkpt>
      <trkpt lat="51.46586" lon="6.98365">
        <ele>103.837433</ele>
        <time>2023-04-30T08:11:43.195Z</time>
      </trkpt>
      <trkpt lat="51.46586" lon="6.98348">
        <ele>103.939709</ele>
        <time>2023-04-30T08:11:45.197Z</time>
      </trkpt>
      <trkpt lat="51.46586" lon="6.98332">
        <ele>104.036008</ele>
        <time>2023-04-30T08:11:47.198Z</time>
      </trkpt>
      <trkpt lat="51.46587" lon="6.98317">
        <ele>104.124968</ele>
        <time>2023-04-30T08:11:49.190Z</time>
      </trkpt>
      <trkpt lat="51.46588" lon="6.98296">
        <ele>104.250938</ele>
        <time>2023-04-30T08:11:52.187Z</time>
      </trkpt>
      <trkpt lat="51.46588" lon="6.98281">
        <ele>104.338792</ele>
        <time>2023-04-30T08:11:54.203Z</time>
      </trkpt>
      <trkpt lat="51.46589" lon="6.9826">
        <ele>104.470895</ele>
        <time>2023-04-30T08:11:57.186Z</time>
      </trkpt>
      <trkpt lat="51.4659" lon="6.98245">
        <ele>104.468794</ele>
        <time>2023-04-30T08:11:59.187Z</time>
      </trkpt>
      <trkpt lat="51.46592" lon="6.98229">
        <ele>104.446218</ele>
        <time>2023-04-30T08:12:01.159Z</time>
      </trkpt>
      <trkpt lat="51.46593" lon="6.98214">
        <ele>104.42434</ele>
        <time>2023-04-30T08:12:03.183Z</time>
      </trkpt>
      <trkpt lat="51.46593" lon="6.98198">
        <ele>104.400901</ele>
        <time>2023-04-30T08:12:05.205Z</time>
      </trkpt>
      <trkpt lat="51.46594" lon="6.98182">
        <ele>104.377592</ele>
        <time>2023-04-30T08:12:07.190Z</time>
      </trkpt>
      <trkpt lat="51.46594" lon="6.98166">
        <ele>104.354475</ele>
        <time>2023-04-30T08:12:09.183Z</time>
      </trkpt>
      <trkpt lat="51.46595" lon="6.9815">
        <ele>104.331073</ele>
        <time>2023-04-30T08:12:11.204Z</time>
      </trkpt>
      <trkpt lat="51.46595" lon="6.98134">
        <ele>104.307054</ele>
        <time>2023-04-30T08:12:13.181Z</time>
      </trkpt>
      <trkpt lat="51.46597" lon="6.98118">
        <ele>104.283972</ele>
        <time>2023-04-30T08:12:15.196Z</time>
      </trkpt>
      <trkpt lat="51.46598" lon="6.98103">
        <ele>104.261426</ele>
        <time>2023-04-30T08:12:17.211Z</time>
      </trkpt>
      <trkpt lat="51.466" lon="6.98088">
        <ele>104.239816</ele>
        <time>2023-04-30T08:12:19.202Z</time>
      </trkpt>
      <trkpt lat="51.466" lon="6.98073">
        <ele>104.217667</ele>
        <time>2023-04-30T08:12:21.183Z</time>
      </trkpt>
      <trkpt lat="51.46601" lon="6.98057">
        <ele>104.195064</ele>
        <time>2023-04-30T08:12:23.200Z</time>
      </trkpt>
      <trkpt lat="51.46602" lon="6.98042">
        <ele>104.172074</ele>
        <time>2023-04-30T08:12:25.195Z</time>
      </trkpt>
      <trkpt lat="51.46602" lon="6.98026">
        <ele>104.149954</ele>
        <time>2023-04-30T08:12:27.206Z</time>
      </trkpt>
      <trkpt lat="51.46604" lon="6.98011">
        <ele>104.12759</ele>
        <time>2023-04-30T08:12:29.199Z</time>
      </trkpt>
      <trkpt lat="51.46605" lon="6.97996">
        <ele>104.104471</ele>
        <time>2023-04-30T08:12:31.183Z</time>
      </trkpt>
      <trkpt lat="51.46607" lon="6.97981">
        <ele>104.082498</ele>
        <time>2023-04-30T08:12:33.230Z</time>
      </trkpt>
      <trkpt lat="51.46609" lon="6.97965">
        <ele>103.970345</ele>
        <time>2023-04-30T08:12:35.195Z</time>
      </trkpt>
      <trkpt lat="51.4661" lon="6.97951">
        <ele>103.680505</ele>
        <time>2023-04-30T08:12:37.192Z</time>
      </trkpt>
      <trkpt lat="51.46612" lon="6.9793">
        <ele>103.271904</ele>
        <time>2023-04-30T08:12:40.203Z</time>
      </trkpt>
      <trkpt lat="51.46613" lon="6.97915">
        <ele>102.987161</ele>
        <time>2023-04-30T08:12:42.181Z</time>
      </trkpt>
      <trkpt lat="51.46614" lon="6.97899">
        <ele>102.676668</ele>
        <time>2023-04-30T08:12:44.187Z</time>
      </trkpt>
      <trkpt lat="51.46615" lon="6.97884">
        <ele>102.378094</ele>
        <time>2023-04-30T08:12:46.188Z</time>
      </trkpt>
      <trkpt lat="51.46617" lon="6.97867">
        <ele>102.044913</ele>
        <time>2023-04-30T08:12:48.195Z</time>
      </trkpt>
      <trkpt lat="51.46618" lon="6.97848">
        <ele>101.670628</ele>
        <time>2023-04-30T08:12:50.199Z</time>
      </trkpt>
      <trkpt lat="51.46619" lon="6.97827">
        <ele>101.267136</ele>
        <time>2023-04-30T08:12:52.195Z</time>
      </trkpt>
      <trkpt lat="51.46621" lon="6.97805">
        <ele>100.849439</ele>
        <time>2023-04-30T08:12:54.190Z</time>
      </trkpt>
      <trkpt lat="51.46624" lon="6.97782">
        <ele>100.386452</ele>
        <time>2023-04-30T08:12:56.188Z</time>
      </trkpt>
      <trkpt lat="51.46626" lon="6.97759">
        <ele>99.936837</ele>
        <time>2023-04-30T08:12:58.211Z</time>
      </trkpt>
      <trkpt lat="51.46628" lon="6.97734">
        <ele>99.439424</ele>
        <time>2023-04-30T08:13:00.163Z</time>
      </trkpt>
      <trkpt lat="51.46629" lon="6.97708">
        <ele>98.936992</ele>
        <time>2023-04-30T08:13:02.198Z</time>
      </trkpt>
      <trkpt lat="51.4663" lon="6.97684">
        <ele>98.4773</ele>
        <time>2023-04-30T08:13:04.185Z</time>
      </trkpt>
      <trkpt lat="51.46632" lon="6.97661">
        <ele>98.511686</ele>
        <time>2023-04-30T08:13:06.183Z</time>
      </trkpt>
      <trkpt lat="51.46633" lon="6.97639">
        <ele>98.54592</ele>
        <time>2023-04-30T08:13:08.190Z</time>
      </trkpt>
      <trkpt lat="51.46635" lon="6.97618">
        <ele>98.577982</ele>
        <time>2023-04-30T08:13:10.182Z</time>
      </trkpt>
      <trkpt lat="51.46636" lon="6.97597">
        <ele>98.609573</ele>
        <time>2023-04-30T08:13:12.183Z</time>
      </trkpt>
      <trkpt lat="51.46636" lon="6.97577">
        <ele>98.640574</ele>
        <time>2023-04-30T08:13:14.194Z</time>
      </trkpt>
      <trkpt lat="51.46637" lon="6.97557">
        <ele>98.670501</ele>
        <time>2023-04-30T08:13:16.180Z</time>
      </trkpt>
      <trkpt lat="51.46639" lon="6.97538">
        <ele>98.699755</ele>
        <time>2023-04-30T08:13:18.181Z</time>
      </trkpt>
      <trkpt lat="51.46639" lon="6.97519">
        <ele>98.728479</ele>
        <time>2023-04-30T08:13:20.177Z</time>
      </trkpt>
      <trkpt lat="51.4664" lon="6.97501">
        <ele>98.75698</ele>
        <time>2023-04-30T08:13:22.186Z</time>
      </trkpt>
      <trkpt lat="51.46641" lon="6.97482">
        <ele>98.785047</ele>
        <time>2023-04-30T08:13:24.189Z</time>
      </trkpt>
      <trkpt lat="51.46641" lon="6.97464">
        <ele>98.811954</ele>
        <time>2023-04-30T08:13:26.192Z</time>
      </trkpt>
      <trkpt lat="51.46641" lon="6.97446">
        <ele>98.839316</ele>
        <time>2023-04-30T08:13:28.187Z</time>
      </trkpt>
      <trkpt lat="51.4664" lon="6.9743">
        <ele>98.86388</ele>
        <time>2023-04-30T08:13:30.176Z</time>
      </trkpt>
      <trkpt lat="51.46639" lon="6.97415">
        <ele>98.887175</ele>
        <time>2023-04-30T08:13:32.193Z</time>
      </trkpt>
      <trkpt lat="51.4664" lon="6.97398">
        <ele>98.912582</ele>
        <time>2023-04-30T08:13:34.193Z</time>
      </trkpt>
      <trkpt lat="51.4664" lon="6.97381">
        <ele>99.05271</ele>
        <time>2023-04-30T08:13:36.197Z</time>
      </trkpt>
      <trkpt lat="51.46638" lon="6.97365">
        <ele>99.201209</ele>
        <time>2023-04-30T08:13:38.190Z</time>
      </trkpt>
      <trkpt lat="51.46635" lon="6.97349">
        <ele>99.352294</ele>
        <time>2023-04-30T08:13:40.186Z</time>
      </trkpt>
      <trkpt lat="51.46632" lon="6.97334">
        <ele>99.497447</ele>
        <time>2023-04-30T08:13:42.193Z</time>
      </trkpt>
      <trkpt lat="51.46628" lon="6.9732">
        <ele>99.63703</ele>
        <time>2023-04-30T08:13:44.194Z</time>
      </trkpt>
      <trkpt lat="51.46625" lon="6.97305">
        <ele>99.773836</ele>
        <time>2023-04-30T08:13:46.179Z</time>
      </trkpt>
      <trkpt lat="51.4662" lon="6.97291">
        <ele>99.916436</ele>
        <time>2023-04-30T08:13:48.202Z</time>
      </trkpt>
      <trkpt lat="51.46617" lon="6.97277">
        <ele>100.054278</ele>
        <time>2023-04-30T08:13:50.189Z</time>
      </trkpt>
      <trkpt lat="51.46611" lon="6.9726">
        <ele>100.225627</ele>
        <time>2023-04-30T08:13:53.197Z</time>
      </trkpt>
      <trkpt lat="51.46607" lon="6.97246">
        <ele>100.367676</ele>
        <time>2023-04-30T08:13:56.186Z</time>
      </trkpt>
      <trkpt lat="51.46602" lon="6.97232">
        <ele>100.508684</ele>
        <time>2023-04-30T08:13:59.194Z</time>
      </trkpt>
      <trkpt lat="51.46598" lon="6.97218">
        <ele>100.648506</ele>
        <time>2023-04-30T08:14:02.186Z</time>
      </trkpt>
      <trkpt lat="51.46594" lon="6.97205">
        <ele>100.782199</ele>
        <time>2023-04-30T08:14:05.195Z</time>
      </trkpt>
      <trkpt lat="51.46588" lon="6.97188">
        <ele>100.956533</ele>
        <time>2023-04-30T08:14:09.193Z</time>
      </trkpt>
      <trkpt lat="51.46584" lon="6.97175">
        <ele>101.087552</ele>
        <time>2023-04-30T08:14:12.196Z</time>
      </trkpt>
      <trkpt lat="51.46578" lon="6.97159">
        <ele>101.255804</ele>
        <time>2023-04-30T08:14:16.191Z</time>
      </trkpt>
      <trkpt lat="51.46572" lon="6.97144">
        <ele>101.419538</ele>
        <time>2023-04-30T08:14:20.201Z</time>
      </trkpt>
      <trkpt lat="51.46566" lon="6.97131">
        <ele>101.571218</ele>
        <time>2023-04-30T08:14:23.188Z</time>
      </trkpt>
      <trkpt lat="51.4656" lon="6.97117">
        <ele>101.784822</ele>
        <time>2023-04-30T08:14:26.189Z</time>
      </trkpt>
      <trkpt lat="51.46554" lon="6.97105">
        <ele>101.98853</ele>
        <time>2023-04-30T08:14:29.192Z</time>
      </trkpt>
      <trkpt lat="51.46547" lon="6.97093">
        <ele>102.193202</ele>
        <time>2023-04-30T08:14:32.195Z</time>
      </trkpt>
      <trkpt lat="51.46541" lon="6.97078">
        <ele>102.415309</ele>
        <time>2023-04-30T08:14:35.190Z</time>
      </trkpt>
      <trkpt lat="51.46535" lon="6.97063">
        <ele>102.638327</ele>
        <time>2023-04-30T08:14:38.211Z</time>
      </trkpt>
      <trkpt lat="51.46529" lon="6.97052">
        <ele>102.820438</ele>
        <time>2023-04-30T08:14:40.195Z</time>
      </trkpt>
      <trkpt lat="51.46521" lon="6.97036">
        <ele>103.08282</ele>
        <time>2023-04-30T08:14:43.189Z</time>
      </trkpt>
      <trkpt lat="51.46513" lon="6.97019">
        <ele>103.339961</ele>
        <time>2023-04-30T08:14:46.181Z</time>
      </trkpt>
      <trkpt lat="51.46506" lon="6.97003">
        <ele>103.596101</ele>
        <time>2023-04-30T08:14:49.187Z</time>
      </trkpt>
      <trkpt lat="51.46498" lon="6.96987">
        <ele>103.856944</ele>
        <time>2023-04-30T08:14:52.183Z</time>
      </trkpt>
      <trkpt lat="51.4649" lon="6.96972">
        <ele>104.10176</ele>
        <time>2023-04-30T08:14:55.189Z</time>
      </trkpt>
      <trkpt lat="51.46481" lon="6.96957">
        <ele>104.360954</ele>
        <time>2023-04-30T08:14:58.186Z</time>
      </trkpt>
      <trkpt lat="51.46475" lon="6.96945">
        <ele>104.550643</ele>
        <time>2023-04-30T08:15:00.193Z</time>
      </trkpt>
      <trkpt lat="51.46469" lon="6.96933">
        <ele>104.742108</ele>
        <time>2023-04-30T08:15:02.188Z</time>
      </trkpt>
      <trkpt lat="51.46463" lon="6.96922">
        <ele>104.934084</ele>
        <time>2023-04-30T08:15:04.185Z</time>
      </trkpt>
      <trkpt lat="51.46456" lon="6.9691">
        <ele>105.136501</ele>
        <time>2023-04-30T08:15:06.175Z</time>
      </trkpt>
      <trkpt lat="51.4645" lon="6.96897">
        <ele>105.142158</ele>
        <time>2023-04-30T08:15:08.178Z</time>
      </trkpt>
      <trkpt lat="51.46443" lon="6.96884">
        <ele>105.137797</ele>
        <time>2023-04-30T08:15:10.173Z</time>
      </trkpt>
      <trkpt lat="51.46437" lon="6.96871">
        <ele>105.133505</ele>
        <time>2023-04-30T08:15:12.185Z</time>
      </trkpt>
      <trkpt lat="51.4643" lon="6.96857">
        <ele>105.129109</ele>
        <time>2023-04-30T08:15:14.196Z</time>
      </trkpt>
      <trkpt lat="51.46423" lon="6.96844">
        <ele>105.124854</ele>
        <time>2023-04-30T08:15:16.181Z</time>
      </trkpt>
      <trkpt lat="51.46417" lon="6.96832">
        <ele>105.120711</ele>
        <time>2023-04-30T08:15:18.186Z</time>
      </trkpt>
      <trkpt lat="51.46411" lon="6.96819">
        <ele>105.116451</ele>
        <time>2023-04-30T08:15:20.191Z</time>
      </trkpt>
      <trkpt lat="51.46404" lon="6.96804">
        <ele>105.111854</ele>
        <time>2023-04-30T08:15:22.201Z</time>
      </trkpt>
      <trkpt lat="51.46397" lon="6.9679">
        <ele>105.107326</ele>
        <time>2023-04-30T08:15:24.183Z</time>
      </trkpt>
      <trkpt lat="51.46391" lon="6.96775">
        <ele>105.102743</ele>
        <time>2023-04-30T08:15:26.186Z</time>
      </trkpt>
      <trkpt lat="51.46384" lon="6.96761">
        <ele>105.098078</ele>
        <time>2023-04-30T08:15:28.198Z</time>
      </trkpt>
      <trkpt lat="51.46377" lon="6.96747">
        <ele>105.093471</ele>
        <time>2023-04-30T08:15:30.187Z</time>
      </trkpt>
      <trkpt lat="51.46371" lon="6.96733">
        <ele>105.089095</ele>
        <time>2023-04-30T08:15:32.192Z</time>
      </trkpt>
      <trkpt lat="51.46365" lon="6.9672">
        <ele>105.084951</ele>
        <time>2023-04-30T08:15:34.202Z</time>
      </trkpt>
      <trkpt lat="51.46358" lon="6.96707">
        <ele>105.08062</ele>
        <time>2023-04-30T08:15:36.190Z</time>
      </trkpt>
      <trkpt lat="51.46351" lon="6.96693">
        <ele>105.076104</ele>
        <time>2023-04-30T08:15:38.201Z</time>
      </trkpt>
      <trkpt lat="51.46344" lon="6.96679">
        <ele>105.057706</ele>
        <time>2023-04-30T08:15:40.183Z</time>
      </trkpt>
      <trkpt lat="51.46337" lon="6.96666">
        <ele>104.963812</ele>
        <time>2023-04-30T08:15:42.190Z</time>
      </trkpt>
      <trkpt lat="51.4633" lon="6.96654">
        <ele>104.874558</ele>
        <time>2023-04-30T08:15:44.185Z</time>
      </trkpt>
      <trkpt lat="51.46323" lon="6.9664">
        <ele>104.784718</ele>
        <time>2023-04-30T08:15:46.185Z</time>
      </trkpt>
      <trkpt lat="51.46316" lon="6.96628">
        <ele>104.694127</ele>
        <time>2023-04-30T08:15:48.181Z</time>
      </trkpt>
      <trkpt lat="51.46308" lon="6.96616">
        <ele>104.602746</ele>
        <time>2023-04-30T08:15:50.181Z</time>
      </trkpt>
      <trkpt lat="51.46303" lon="6.96601">
        <ele>104.511897</ele>
        <time>2023-04-30T08:15:52.171Z</time>
      </trkpt>
      <trkpt lat="51.46297" lon="6.96586">
        <ele>104.419244</ele>
        <time>2023-04-30T08:15:54.200Z</time>
      </trkpt>
      <trkpt lat="51.46289" lon="6.96572">
        <ele>104.322303</ele>
        <time>2023-04-30T08:15:56.167Z</time>
      </trkpt>
      <trkpt lat="51.46282" lon="6.96558">
        <ele>104.225225</ele>
        <time>2023-04-30T08:15:58.175Z</time>
      </trkpt>
      <trkpt lat="51.46275" lon="6.96545">
        <ele>104.134748</ele>
        <time>2023-04-30T08:16:00.203Z</time>
      </trkpt>
      <trkpt lat="51.46267" lon="6.96531">
        <ele>104.035851</ele>
        <time>2023-04-30T08:16:02.188Z</time>
      </trkpt>
      <trkpt lat="51.4626" lon="6.96517">
        <ele>103.940796</ele>
        <time>2023-04-30T08:16:04.186Z</time>
      </trkpt>
      <trkpt lat="51.46253" lon="6.96503">
        <ele>103.846734</ele>
        <time>2023-04-30T08:16:06.171Z</time>
      </trkpt>
      <trkpt lat="51.46246" lon="6.96487">
        <ele>103.743785</ele>
        <time>2023-04-30T08:16:08.203Z</time>
      </trkpt>
      <trkpt lat="51.46239" lon="6.96471">
        <ele>103.642124</ele>
        <time>2023-04-30T08:16:10.190Z</time>
      </trkpt>
      <trkpt lat="51.46232" lon="6.96455">
        <ele>103.537439</ele>
        <time>2023-04-30T08:16:12.181Z</time>
      </trkpt>
      <trkpt lat="51.46225" lon="6.96442">
        <ele>103.440052</ele>
        <time>2023-04-30T08:16:14.184Z</time>
      </trkpt>
      <trkpt lat="51.46218" lon="6.96425">
        <ele>103.338109</ele>
        <time>2023-04-30T08:16:16.175Z</time>
      </trkpt>
      <trkpt lat="51.46212" lon="6.96411">
        <ele>103.240961</ele>
        <time>2023-04-30T08:16:18.197Z</time>
      </trkpt>
      <trkpt lat="51.46206" lon="6.96395">
        <ele>103.143563</ele>
        <time>2023-04-30T08:16:20.189Z</time>
      </trkpt>
      <trkpt lat="51.462" lon="6.96381">
        <ele>103.049336</ele>
        <time>2023-04-30T08:16:22.178Z</time>
      </trkpt>
      <trkpt lat="51.46194" lon="6.96368">
        <ele>102.964531</ele>
        <time>2023-04-30T08:16:24.213Z</time>
      </trkpt>
      <trkpt lat="51.46188" lon="6.96354">
        <ele>102.869979</ele>
        <time>2023-04-30T08:16:26.189Z</time>
      </trkpt>
      <trkpt lat="51.46181" lon="6.9634">
        <ele>102.775103</ele>
        <time>2023-04-30T08:16:28.167Z</time>
      </trkpt>
      <trkpt lat="51.46175" lon="6.96327">
        <ele>102.686857</ele>
        <time>2023-04-30T08:16:30.181Z</time>
      </trkpt>
      <trkpt lat="51.4617" lon="6.96311">
        <ele>102.595079</ele>
        <time>2023-04-30T08:16:32.174Z</time>
      </trkpt>
      <trkpt lat="51.46167" lon="6.96296">
        <ele>102.510234</ele>
        <time>2023-04-30T08:16:34.199Z</time>
      </trkpt>
      <trkpt lat="51.46163" lon="6.96284">
        <ele>102.431501</ele>
        <time>2023-04-30T08:16:36.172Z</time>
      </trkpt>
      <trkpt lat="51.46157" lon="6.96264">
        <ele>102.315336</ele>
        <time>2023-04-30T08:16:39.190Z</time>
      </trkpt>
      <trkpt lat="51.46153" lon="6.96251">
        <ele>102.235113</ele>
        <time>2023-04-30T08:16:41.177Z</time>
      </trkpt>
      <trkpt lat="51.46148" lon="6.96238">
        <ele>102.150968</ele>
        <time>2023-04-30T08:16:43.204Z</time>
      </trkpt>
      <trkpt lat="51.46143" lon="6.96224">
        <ele>102.065457</ele>
        <time>2023-04-30T08:16:45.196Z</time>
      </trkpt>
      <trkpt lat="51.46138" lon="6.96211">
        <ele>102.036652</ele>
        <time>2023-04-30T08:16:47.197Z</time>
      </trkpt>
      <trkpt lat="51.46132" lon="6.96198">
        <ele>102.23539</ele>
        <time>2023-04-30T08:16:49.179Z</time>
      </trkpt>
      <trkpt lat="51.46127" lon="6.96186">
        <ele>102.420151</ele>
        <time>2023-04-30T08:16:51.197Z</time>
      </trkpt>
      <trkpt lat="51.46123" lon="6.96171">
        <ele>102.628689</ele>
        <time>2023-04-30T08:16:53.169Z</time>
      </trkpt>
      <trkpt lat="51.46118" lon="6.96158">
        <ele>102.82658</ele>
        <time>2023-04-30T08:16:55.206Z</time>
      </trkpt>
      <trkpt lat="51.46113" lon="6.96145">
        <ele>103.01355</ele>
        <time>2023-04-30T08:16:57.186Z</time>
      </trkpt>
      <trkpt lat="51.46109" lon="6.96132">
        <ele>103.200858</ele>
        <time>2023-04-30T08:16:59.193Z</time>
      </trkpt>
      <trkpt lat="51.46104" lon="6.96119">
        <ele>103.396479</ele>
        <time>2023-04-30T08:17:01.203Z</time>
      </trkpt>
      <trkpt lat="51.46098" lon="6.96101">
        <ele>103.665423</ele>
        <time>2023-04-30T08:17:04.184Z</time>
      </trkpt>
      <trkpt lat="51.46091" lon="6.96083">
        <ele>103.92522</ele>
        <time>2023-04-30T08:17:07.187Z</time>
      </trkpt>
      <trkpt lat="51.46085" lon="6.96067">
        <ele>104.176237</ele>
        <time>2023-04-30T08:17:10.187Z</time>
      </trkpt>
      <trkpt lat="51.4608" lon="6.96055">
        <ele>104.364718</ele>
        <time>2023-04-30T08:17:12.203Z</time>
      </trkpt>
      <trkpt lat="51.46073" lon="6.96038">
        <ele>104.621176</ele>
        <time>2023-04-30T08:17:15.192Z</time>
      </trkpt>
      <trkpt lat="51.46066" lon="6.9602">
        <ele>104.879799</ele>
        <time>2023-04-30T08:17:18.192Z</time>
      </trkpt>
      <trkpt lat="51.46062" lon="6.96004">
        <ele>105.111558</ele>
        <time>2023-04-30T08:17:21.178Z</time>
      </trkpt>
      <trkpt lat="51.46056" lon="6.95986">
        <ele>105.367003</ele>
        <time>2023-04-30T08:17:24.187Z</time>
      </trkpt>
      <trkpt lat="51.46049" lon="6.95968">
        <ele>105.640966</ele>
        <time>2023-04-30T08:17:27.185Z</time>
      </trkpt>
      <trkpt lat="51.46042" lon="6.9595">
        <ele>105.747347</ele>
        <time>2023-04-30T08:17:30.192Z</time>
      </trkpt>
      <trkpt lat="51.46035" lon="6.95932">
        <ele>105.813066</ele>
        <time>2023-04-30T08:17:33.197Z</time>
      </trkpt>
      <trkpt lat="51.46028" lon="6.95915">
        <ele>105.876386</ele>
        <time>2023-04-30T08:17:36.179Z</time>
      </trkpt>
      <trkpt lat="51.46021" lon="6.95899">
        <ele>105.937332</ele>
        <time>2023-04-30T08:17:39.185Z</time>
      </trkpt>
      <trkpt lat="51.46015" lon="6.95882">
        <ele>105.99933</ele>
        <time>2023-04-30T08:17:42.184Z</time>
      </trkpt>
      <trkpt lat="51.46009" lon="6.95866">
        <ele>106.060253</ele>
        <time>2023-04-30T08:17:45.184Z</time>
      </trkpt>
      <trkpt lat="51.46003" lon="6.95849">
        <ele>106.12039</ele>
        <time>2023-04-30T08:17:48.195Z</time>
      </trkpt>
      <trkpt lat="51.45997" lon="6.95832">
        <ele>106.180816</ele>
        <time>2023-04-30T08:17:51.197Z</time>
      </trkpt>
      <trkpt lat="51.4599" lon="6.95816">
        <ele>106.242352</ele>
        <time>2023-04-30T08:17:54.189Z</time>
      </trkpt>
      <trkpt lat="51.45985" lon="6.958">
        <ele>106.298638</ele>
        <time>2023-04-30T08:17:57.166Z</time>
      </trkpt>
      <trkpt lat="51.4598" lon="6.95783">
        <ele>106.35789</ele>
        <time>2023-04-30T08:18:00.175Z</time>
      </trkpt>
      <trkpt lat="51.45974" lon="6.95766">
        <ele>106.418598</ele>
        <time>2023-04-30T08:18:03.198Z</time>
      </trkpt>
      <trkpt lat="51.45968" lon="6.95751">
        <ele>106.47367</ele>
        <time>2023-04-30T08:18:06.174Z</time>
      </trkpt>
      <trkpt lat="51.45963" lon="6.95733">
        <ele>106.537575</ele>
        <time>2023-04-30T08:18:09.204Z</time>
      </trkpt>
      <trkpt lat="51.45956" lon="6.95717">
        <ele>106.596908</ele>
        <time>2023-04-30T08:18:12.183Z</time>
      </trkpt>
      <trkpt lat="51.4595" lon="6.95701">
        <ele>106.750801</ele>
        <time>2023-04-30T08:18:15.191Z</time>
      </trkpt>
      <trkpt lat="51.45944" lon="6.95685">
        <ele>106.908352</ele>
        <time>2023-04-30T08:18:18.185Z</time>
      </trkpt>
      <trkpt lat="51.45938" lon="6.95667">
        <ele>107.078246</ele>
        <time>2023-04-30T08:18:21.190Z</time>
      </trkpt>
      <trkpt lat="51.45932" lon="6.9565">
        <ele>107.246606</ele>
        <time>2023-04-30T08:18:24.174Z</time>
      </trkpt>
      <trkpt lat="51.45925" lon="6.95633">
        <ele>107.418412</ele>
        <time>2023-04-30T08:18:27.208Z</time>
      </trkpt>
      <trkpt lat="51.45918" lon="6.95615">
        <ele>107.592355</ele>
        <time>2023-04-30T08:18:30.182Z</time>
      </trkpt>
      <trkpt lat="51.45912" lon="6.95598">
        <ele>107.763452</ele>
        <time>2023-04-30T08:18:33.188Z</time>
      </trkpt>
      <trkpt lat="51.45905" lon="6.95581">
        <ele>107.93457</ele>
        <time>2023-04-30T08:18:36.179Z</time>
      </trkpt>
      <trkpt lat="51.45899" lon="6.95562">
        <ele>108.105664</ele>
        <time>2023-04-30T08:18:39.190Z</time>
      </trkpt>
      <trkpt lat="51.45893" lon="6.95545">
        <ele>108.279008</ele>
        <time>2023-04-30T08:18:42.176Z</time>
      </trkpt>
      <trkpt lat="51.45885" lon="6.95529">
        <ele>108.44733</ele>
        <time>2023-04-30T08:18:45.189Z</time>
      </trkpt>
      <trkpt lat="51.45878" lon="6.95512">
        <ele>108.615938</ele>
        <time>2023-04-30T08:18:48.201Z</time>
      </trkpt>
      <trkpt lat="51.45869" lon="6.95497">
        <ele>108.78992</ele>
        <time>2023-04-30T08:18:51.186Z</time>
      </trkpt>
      <trkpt lat="51.45861" lon="6.9548">
        <ele>108.968604</ele>
        <time>2023-04-30T08:18:54.183Z</time>
      </trkpt>
      <trkpt lat="51.45854" lon="6.95462">
        <ele>109.111853</ele>
        <time>2023-04-30T08:18:57.200Z</time>
      </trkpt>
      <trkpt lat="51.45847" lon="6.9545">
        <ele>109.208406</ele>
        <time>2023-04-30T08:19:00.154Z</time>
      </trkpt>
      <trkpt lat="51.4584" lon="6.95439">
        <ele>109.304726</ele>
        <time>2023-04-30T08:19:03.183Z</time>
      </trkpt>
      <trkpt lat="51.45833" lon="6.95427">
        <ele>109.407225</ele>
        <time>2023-04-30T08:19:06.182Z</time>
      </trkpt>
      <trkpt lat="51.45824" lon="6.95414">
        <ele>109.524815</ele>
        <time>2023-04-30T08:19:09.188Z</time>
      </trkpt>
      <trkpt lat="51.45816" lon="6.95401">
        <ele>109.632358</ele>
        <time>2023-04-30T08:19:12.184Z</time>
      </trkpt>
      <trkpt lat="51.45808" lon="6.95389">
        <ele>109.737039</ele>
        <time>2023-04-30T08:19:15.203Z</time>
      </trkpt>
      <trkpt lat="51.45799" lon="6.95377">
        <ele>109.846749</ele>
        <time>2023-04-30T08:19:18.189Z</time>
      </trkpt>
      <trkpt lat="51.45791" lon="6.9537">
        <ele>109.94051</ele>
        <time>2023-04-30T08:19:20.184Z</time>
      </trkpt>
      <trkpt lat="51.4578" lon="6.95359">
        <ele>110.063566</ele>
        <time>2023-04-30T08:19:23.176Z</time>
      </trkpt>
      <trkpt lat="51.45769" lon="6.95353">
        <ele>110.176908</ele>
        <time>2023-04-30T08:19:26.181Z</time>
      </trkpt>
      <trkpt lat="51.45759" lon="6.95345">
        <ele>110.288077</ele>
        <time>2023-04-30T08:19:29.174Z</time>
      </trkpt>
      <trkpt lat="51.45748" lon="6.95334">
        <ele>110.409888</ele>
        <time>2023-04-30T08:19:32.199Z</time>
      </trkpt>
      <trkpt lat="51.45736" lon="6.95325">
        <ele>110.533726</ele>
        <time>2023-04-30T08:19:35.189Z</time>
      </trkpt>
      <trkpt lat="51.45725" lon="6.95318">
        <ele>110.652103</ele>
        <time>2023-04-30T08:19:38.182Z</time>
      </trkpt>
      <trkpt lat="51.45713" lon="6.95312">
        <ele>110.761356</ele>
        <time>2023-04-30T08:19:41.187Z</time>
      </trkpt>
      <trkpt lat="51.45701" lon="6.95304">
        <ele>110.766606</ele>
        <time>2023-04-30T08:19:44.186Z</time>
      </trkpt>
      <trkpt lat="51.45689" lon="6.95297">
        <ele>110.771981</ele>
        <time>2023-04-30T08:19:47.206Z</time>
      </trkpt>
      <trkpt lat="51.45676" lon="6.95291">
        <ele>110.777257</ele>
        <time>2023-04-30T08:19:50.205Z</time>
      </trkpt>
      <trkpt lat="51.45667" lon="6.95285">
        <ele>110.781178</ele>
        <time>2023-04-30T08:19:52.186Z</time>
      </trkpt>
      <trkpt lat="51.45659" lon="6.95281">
        <ele>110.784911</ele>
        <time>2023-04-30T08:19:54.186Z</time>
      </trkpt>
      <trkpt lat="51.4565" lon="6.95276">
        <ele>110.788662</ele>
        <time>2023-04-30T08:19:56.178Z</time>
      </trkpt>
      <trkpt lat="51.45638" lon="6.95266">
        <ele>110.794115</ele>
        <time>2023-04-30T08:19:59.202Z</time>
      </trkpt>
      <trkpt lat="51.45626" lon="6.9526">
        <ele>110.799398</ele>
        <time>2023-04-30T08:20:02.165Z</time>
      </trkpt>
      <trkpt lat="51.45617" lon="6.95255">
        <ele>110.803248</ele>
        <time>2023-04-30T08:20:04.262Z</time>
      </trkpt>
      <trkpt lat="51.45605" lon="6.95248">
        <ele>110.808385</ele>
        <time>2023-04-30T08:20:07.185Z</time>
      </trkpt>
      <trkpt lat="51.45592" lon="6.95243">
        <ele>110.813947</ele>
        <time>2023-04-30T08:20:10.184Z</time>
      </trkpt>
      <trkpt lat="51.45579" lon="6.95235">
        <ele>110.819428</ele>
        <time>2023-04-30T08:20:13.183Z</time>
      </trkpt>
      <trkpt lat="51.4557" lon="6.95231">
        <ele>110.823379</ele>
        <time>2023-04-30T08:20:15.185Z</time>
      </trkpt>
      <trkpt lat="51.45561" lon="6.95225">
        <ele>110.8274</ele>
        <time>2023-04-30T08:20:17.184Z</time>
      </trkpt>
      <trkpt lat="51.45552" lon="6.95219">
        <ele>110.831408</ele>
        <time>2023-04-30T08:20:19.162Z</time>
      </trkpt>
      <trkpt lat="51.45543" lon="6.95213">
        <ele>110.808642</ele>
        <time>2023-04-30T08:20:21.176Z</time>
      </trkpt>
      <trkpt lat="51.45532" lon="6.95208">
        <ele>110.71889</ele>
        <time>2023-04-30T08:20:23.204Z</time>
      </trkpt>
      <trkpt lat="51.45523" lon="6.95203">
        <ele>110.632719</ele>
        <time>2023-04-30T08:20:25.199Z</time>
      </trkpt>
      <trkpt lat="51.45513" lon="6.95198">
        <ele>110.548587</ele>
        <time>2023-04-30T08:20:27.182Z</time>
      </trkpt>
      <trkpt lat="51.45504" lon="6.95192">
        <ele>110.465749</ele>
        <time>2023-04-30T08:20:29.195Z</time>
      </trkpt>
      <trkpt lat="51.45495" lon="6.95186">
        <ele>110.382161</ele>
        <time>2023-04-30T08:20:31.184Z</time>
      </trkpt>
      <trkpt lat="51.45486" lon="6.95181">
        <ele>110.302016</ele>
        <time>2023-04-30T08:20:33.190Z</time>
      </trkpt>
      <trkpt lat="51.45477" lon="6.95175">
        <ele>110.219947</ele>
        <time>2023-04-30T08:20:35.202Z</time>
      </trkpt>
      <trkpt lat="51.45468" lon="6.9517">
        <ele>110.138835</ele>
        <time>2023-04-30T08:20:37.202Z</time>
      </trkpt>
      <trkpt lat="51.45459" lon="6.95165">
        <ele>110.057427</ele>
        <time>2023-04-30T08:20:39.198Z</time>
      </trkpt>
      <trkpt lat="51.45449" lon="6.9516">
        <ele>109.974892</ele>
        <time>2023-04-30T08:20:41.177Z</time>
      </trkpt>
      <trkpt lat="51.4544" lon="6.95154">
        <ele>109.887784</ele>
        <time>2023-04-30T08:20:43.194Z</time>
      </trkpt>
      <trkpt lat="51.45431" lon="6.95148">
        <ele>109.805594</ele>
        <time>2023-04-30T08:20:45.167Z</time>
      </trkpt>
      <trkpt lat="51.45421" lon="6.95143">
        <ele>109.722897</ele>
        <time>2023-04-30T08:20:47.185Z</time>
      </trkpt>
      <trkpt lat="51.45412" lon="6.95137">
        <ele>109.642259</ele>
        <time>2023-04-30T08:20:49.186Z</time>
      </trkpt>
      <trkpt lat="51.454" lon="6.95128">
        <ele>109.526175</ele>
        <time>2023-04-30T08:20:52.185Z</time>
      </trkpt>
      <trkpt lat="51.4539" lon="6.95123">
        <ele>109.441765</ele>
        <time>2023-04-30T08:20:54.181Z</time>
      </trkpt>
      <trkpt lat="51.45381" lon="6.95119">
        <ele>109.357893</ele>
        <time>2023-04-30T08:20:56.264Z</time>
      </trkpt>
      <trkpt lat="51.45371" lon="6.95114">
        <ele>109.217187</ele>
        <time>2023-04-30T08:20:58.191Z</time>
      </trkpt>
      <trkpt lat="51.4536" lon="6.95109">
        <ele>109.034427</ele>
        <time>2023-04-30T08:21:00.176Z</time>
      </trkpt>
      <trkpt lat="51.4535" lon="6.95103">
        <ele>108.857531</ele>
        <time>2023-04-30T08:21:02.188Z</time>
      </trkpt>
      <trkpt lat="51.45339" lon="6.95099">
        <ele>108.661283</ele>
        <time>2023-04-30T08:21:04.180Z</time>
      </trkpt>
      <trkpt lat="51.45328" lon="6.95094">
        <ele>108.475012</ele>
        <time>2023-04-30T08:21:06.202Z</time>
      </trkpt>
      <trkpt lat="51.45317" lon="6.95089">
        <ele>108.283566</ele>
        <time>2023-04-30T08:21:08.187Z</time>
      </trkpt>
      <trkpt lat="51.45306" lon="6.95085">
        <ele>108.085699</ele>
        <time>2023-04-30T08:21:10.175Z</time>
      </trkpt>
      <trkpt lat="51.45295" lon="6.9508">
        <ele>107.903975</ele>
        <time>2023-04-30T08:21:12.184Z</time>
      </trkpt>
      <trkpt lat="51.45285" lon="6.95076">
        <ele>107.720241</ele>
        <time>2023-04-30T08:21:14.185Z</time>
      </trkpt>
      <trkpt lat="51.45273" lon="6.95072">
        <ele>107.5238</ele>
        <time>2023-04-30T08:21:16.179Z</time>
      </trkpt>
      <trkpt lat="51.45262" lon="6.95069">
        <ele>107.333758</ele>
        <time>2023-04-30T08:21:18.195Z</time>
      </trkpt>
      <trkpt lat="51.45251" lon="6.95067">
        <ele>107.156482</ele>
        <time>2023-04-30T08:21:20.188Z</time>
      </trkpt>
      <trkpt lat="51.45241" lon="6.95064">
        <ele>106.984078</ele>
        <time>2023-04-30T08:21:22.181Z</time>
      </trkpt>
      <trkpt lat="51.45231" lon="6.95061">
        <ele>106.812479</ele>
        <time>2023-04-30T08:21:24.182Z</time>
      </trkpt>
      <trkpt lat="51.4522" lon="6.95058">
        <ele>106.625411</ele>
        <time>2023-04-30T08:21:26.167Z</time>
      </trkpt>
      <trkpt lat="51.4521" lon="6.95055">
        <ele>106.450263</ele>
        <time>2023-04-30T08:21:28.174Z</time>
      </trkpt>
      <trkpt lat="51.452" lon="6.95053">
        <ele>106.282013</ele>
        <time>2023-04-30T08:21:30.177Z</time>
      </trkpt>
      <trkpt lat="51.4519" lon="6.95051">
        <ele>106.16502</ele>
        <time>2023-04-30T08:21:32.179Z</time>
      </trkpt>
      <trkpt lat="51.4518" lon="6.95048">
        <ele>106.035788</ele>
        <time>2023-04-30T08:21:34.185Z</time>
      </trkpt>
      <trkpt lat="51.45168" lon="6.95047">
        <ele>105.896949</ele>
        <time>2023-04-30T08:21:36.167Z</time>
      </trkpt>
      <trkpt lat="51.45154" lon="6.95046">
        <ele>105.727857</ele>
        <time>2023-04-30T08:21:39.170Z</time>
      </trkpt>
      <trkpt lat="51.45137" lon="6.95037">
        <ele>105.507523</ele>
        <time>2023-04-30T08:21:41.157Z</time>
      </trkpt>
      <trkpt lat="51.45071" lon="6.95021">
        <ele>104.698743</ele>
        <time>2023-04-30T08:21:50.165Z</time>
      </trkpt>
      <trkpt lat="51.45064" lon="6.95031">
        <ele>104.58019</ele>
        <time>2023-04-30T08:21:51.164Z</time>
      </trkpt>
      <trkpt lat="51.4507" lon="6.95016">
        <ele>104.44904</ele>
        <time>2023-04-30T08:21:53.183Z</time>
      </trkpt>
      <trkpt lat="51.4506" lon="6.95019">
        <ele>104.32807</ele>
        <time>2023-04-30T08:21:58.182Z</time>
      </trkpt>
      <trkpt lat="51.45051" lon="6.95014">
        <ele>104.208384</ele>
        <time>2023-04-30T08:22:00.168Z</time>
      </trkpt>
      <trkpt lat="51.45042" lon="6.9501">
        <ele>104.180633</ele>
        <time>2023-04-30T08:22:02.176Z</time>
      </trkpt>
      <trkpt lat="51.45033" lon="6.95004">
        <ele>104.454155</ele>
        <time>2023-04-30T08:22:04.187Z</time>
      </trkpt>
      <trkpt lat="51.45024" lon="6.95">
        <ele>104.735802</ele>
        <time>2023-04-30T08:22:06.183Z</time>
      </trkpt>
      <trkpt lat="51.45015" lon="6.94994">
        <ele>105.016131</ele>
        <time>2023-04-30T08:22:08.185Z</time>
      </trkpt>
      <trkpt lat="51.45007" lon="6.94987">
        <ele>105.282163</ele>
        <time>2023-04-30T08:22:10.182Z</time>
      </trkpt>
      <trkpt lat="51.44998" lon="6.94981">
        <ele>105.561882</ele>
        <time>2023-04-30T08:22:12.183Z</time>
      </trkpt>
      <trkpt lat="51.44991" lon="6.94973">
        <ele>105.829783</ele>
        <time>2023-04-30T08:22:14.198Z</time>
      </trkpt>
      <trkpt lat="51.44982" lon="6.94966">
        <ele>106.105185</ele>
        <time>2023-04-30T08:22:16.187Z</time>
      </trkpt>
      <trkpt lat="51.44975" lon="6.94958">
        <ele>106.37465</ele>
        <time>2023-04-30T08:22:18.183Z</time>
      </trkpt>
      <trkpt lat="51.44964" lon="6.94947">
        <ele>106.75251</ele>
        <time>2023-04-30T08:22:21.197Z</time>
      </trkpt>
      <trkpt lat="51.44956" lon="6.94939">
        <ele>107.02377</ele>
        <time>2023-04-30T08:22:23.183Z</time>
      </trkpt>
      <trkpt lat="51.44948" lon="6.94931">
        <ele>107.296091</ele>
        <time>2023-04-30T08:22:25.158Z</time>
      </trkpt>
      <trkpt lat="51.44938" lon="6.94918">
        <ele>107.690275</ele>
        <time>2023-04-30T08:22:28.200Z</time>
      </trkpt>
      <trkpt lat="51.4493" lon="6.94909">
        <ele>107.965098</ele>
        <time>2023-04-30T08:22:30.186Z</time>
      </trkpt>
      <trkpt lat="51.44923" lon="6.949">
        <ele>108.238574</ele>
        <time>2023-04-30T08:22:32.184Z</time>
      </trkpt>
      <trkpt lat="51.44916" lon="6.9489">
        <ele>108.519634</ele>
        <time>2023-04-30T08:22:34.198Z</time>
      </trkpt>
      <trkpt lat="51.44909" lon="6.94879">
        <ele>108.792629</ele>
        <time>2023-04-30T08:22:36.172Z</time>
      </trkpt>
      <trkpt lat="51.44902" lon="6.94869">
        <ele>109.067792</ele>
        <time>2023-04-30T08:22:38.177Z</time>
      </trkpt>
      <trkpt lat="51.44896" lon="6.94859">
        <ele>109.335412</ele>
        <time>2023-04-30T08:22:40.183Z</time>
      </trkpt>
      <trkpt lat="51.44887" lon="6.94843">
        <ele>109.506141</ele>
        <time>2023-04-30T08:22:43.190Z</time>
      </trkpt>
      <trkpt lat="51.44879" lon="6.94827">
        <ele>109.619083</ele>
        <time>2023-04-30T08:22:46.169Z</time>
      </trkpt>
      <trkpt lat="51.44873" lon="6.94815">
        <ele>109.698068</ele>
        <time>2023-04-30T08:22:48.176Z</time>
      </trkpt>
      <trkpt lat="51.44867" lon="6.94804">
        <ele>109.775246</ele>
        <time>2023-04-30T08:22:50.179Z</time>
      </trkpt>
      <trkpt lat="51.44861" lon="6.94792">
        <ele>109.852162</ele>
        <time>2023-04-30T08:22:52.184Z</time>
      </trkpt>
      <trkpt lat="51.44852" lon="6.94776">
        <ele>109.967505</ele>
        <time>2023-04-30T08:22:55.209Z</time>
      </trkpt>
      <trkpt lat="51.44843" lon="6.9476">
        <ele>110.081949</ele>
        <time>2023-04-30T08:22:58.195Z</time>
      </trkpt>
      <trkpt lat="51.44835" lon="6.94743">
        <ele>110.193951</ele>
        <time>2023-04-30T08:23:01.182Z</time>
      </trkpt>
      <trkpt lat="51.44827" lon="6.94726">
        <ele>110.307602</ele>
        <time>2023-04-30T08:23:04.178Z</time>
      </trkpt>
      <trkpt lat="51.44821" lon="6.94715">
        <ele>110.386532</ele>
        <time>2023-04-30T08:23:06.170Z</time>
      </trkpt>
      <trkpt lat="51.44812" lon="6.94698">
        <ele>110.497595</ele>
        <time>2023-04-30T08:23:09.202Z</time>
      </trkpt>
      <trkpt lat="51.44803" lon="6.94682">
        <ele>110.609857</ele>
        <time>2023-04-30T08:23:12.179Z</time>
      </trkpt>
      <trkpt lat="51.44794" lon="6.94667">
        <ele>110.723377</ele>
        <time>2023-04-30T08:23:15.173Z</time>
      </trkpt>
      <trkpt lat="51.44785" lon="6.94652">
        <ele>110.832987</ele>
        <time>2023-04-30T08:23:18.189Z</time>
      </trkpt>
      <trkpt lat="51.44777" lon="6.94636">
        <ele>110.937147</ele>
        <time>2023-04-30T08:23:21.191Z</time>
      </trkpt>
      <trkpt lat="51.44769" lon="6.94622">
        <ele>111.117347</ele>
        <time>2023-04-30T08:23:24.173Z</time>
      </trkpt>
      <trkpt lat="51.4476" lon="6.94607">
        <ele>111.297339</ele>
        <time>2023-04-30T08:23:27.187Z</time>
      </trkpt>
      <trkpt lat="51.44751" lon="6.94592">
        <ele>111.489187</ele>
        <time>2023-04-30T08:23:30.202Z</time>
      </trkpt>
      <trkpt lat="51.44741" lon="6.94578">
        <ele>111.676912</ele>
        <time>2023-04-30T08:23:33.186Z</time>
      </trkpt>
      <trkpt lat="51.44733" lon="6.94563">
        <ele>111.861836</ele>
        <time>2023-04-30T08:23:36.175Z</time>
      </trkpt>
      <trkpt lat="51.44724" lon="6.9455">
        <ele>112.039952</ele>
        <time>2023-04-30T08:23:39.188Z</time>
      </trkpt>
      <trkpt lat="51.44715" lon="6.94535">
        <ele>112.222607</ele>
        <time>2023-04-30T08:23:42.194Z</time>
      </trkpt>
      <trkpt lat="51.44705" lon="6.94522">
        <ele>112.409057</ele>
        <time>2023-04-30T08:23:45.181Z</time>
      </trkpt>
      <trkpt lat="51.44699" lon="6.94512">
        <ele>112.538941</ele>
        <time>2023-04-30T08:23:47.206Z</time>
      </trkpt>
      <trkpt lat="51.44689" lon="6.94499">
        <ele>112.72307</ele>
        <time>2023-04-30T08:23:50.182Z</time>
      </trkpt>
      <trkpt lat="51.44679" lon="6.94486">
        <ele>112.910004</ele>
        <time>2023-04-30T08:23:53.190Z</time>
      </trkpt>
      <trkpt lat="51.4467" lon="6.94471">
        <ele>113.100316</ele>
        <time>2023-04-30T08:23:56.181Z</time>
      </trkpt>
      <trkpt lat="51.44662" lon="6.94462">
        <ele>113.234162</ele>
        <time>2023-04-30T08:23:58.193Z</time>
      </trkpt>
      <trkpt lat="51.44655" lon="6.94452">
        <ele>113.368688</ele>
        <time>2023-04-30T08:24:00.191Z</time>
      </trkpt>
      <trkpt lat="51.44645" lon="6.94438">
        <ele>113.553535</ele>
        <time>2023-04-30T08:24:03.201Z</time>
      </trkpt>
      <trkpt lat="51.44637" lon="6.94429">
        <ele>113.618329</ele>
        <time>2023-04-30T08:24:05.169Z</time>
      </trkpt>
      <trkpt lat="51.4463" lon="6.94421">
        <ele>113.681049</ele>
        <time>2023-04-30T08:24:07.202Z</time>
      </trkpt>
      <trkpt lat="51.44623" lon="6.94411">
        <ele>113.743807</ele>
        <time>2023-04-30T08:24:09.187Z</time>
      </trkpt>
      <trkpt lat="51.44613" lon="6.94397">
        <ele>113.836669</ele>
        <time>2023-04-30T08:24:12.198Z</time>
      </trkpt>
      <trkpt lat="51.44603" lon="6.94382">
        <ele>113.92979</ele>
        <time>2023-04-30T08:24:15.203Z</time>
      </trkpt>
      <trkpt lat="51.44593" lon="6.94368">
        <ele>114.02058</ele>
        <time>2023-04-30T08:24:18.185Z</time>
      </trkpt>
      <trkpt lat="51.44584" lon="6.94354">
        <ele>114.108395</ele>
        <time>2023-04-30T08:24:21.191Z</time>
      </trkpt>
      <trkpt lat="51.44574" lon="6.94342">
        <ele>114.195821</ele>
        <time>2023-04-30T08:24:24.203Z</time>
      </trkpt>
      <trkpt lat="51.44566" lon="6.94327">
        <ele>114.278697</ele>
        <time>2023-04-30T08:24:27.171Z</time>
      </trkpt>
      <trkpt lat="51.44558" lon="6.94311">
        <ele>114.364771</ele>
        <time>2023-04-30T08:24:30.171Z</time>
      </trkpt>
      <trkpt lat="51.4455" lon="6.94295">
        <ele>114.452011</ele>
        <time>2023-04-30T08:24:33.193Z</time>
      </trkpt>
      <trkpt lat="51.44542" lon="6.9428">
        <ele>114.539295</ele>
        <time>2023-04-30T08:24:36.202Z</time>
      </trkpt>
      <trkpt lat="51.44533" lon="6.94266">
        <ele>114.626253</ele>
        <time>2023-04-30T08:24:39.194Z</time>
      </trkpt>
      <trkpt lat="51.44524" lon="6.94251">
        <ele>114.715806</ele>
        <time>2023-04-30T08:24:42.180Z</time>
      </trkpt>
      <trkpt lat="51.44514" lon="6.94237">
        <ele>114.787907</ele>
        <time>2023-04-30T08:24:45.186Z</time>
      </trkpt>
      <trkpt lat="51.44505" lon="6.94221">
        <ele>114.808133</ele>
        <time>2023-04-30T08:24:48.197Z</time>
      </trkpt>
      <trkpt lat="51.44498" lon="6.94211">
        <ele>114.82212</ele>
        <time>2023-04-30T08:24:50.177Z</time>
      </trkpt>
      <trkpt lat="51.44491" lon="6.94201">
        <ele>114.835872</ele>
        <time>2023-04-30T08:24:52.187Z</time>
      </trkpt>
      <trkpt lat="51.44485" lon="6.9419">
        <ele>114.849547</ele>
        <time>2023-04-30T08:24:54.192Z</time>
      </trkpt>
      <trkpt lat="51.44478" lon="6.94179">
        <ele>114.863639</ele>
        <time>2023-04-30T08:24:56.189Z</time>
      </trkpt>
      <trkpt lat="51.44471" lon="6.94169">
        <ele>114.877677</ele>
        <time>2023-04-30T08:24:58.177Z</time>
      </trkpt>
      <trkpt lat="51.44464" lon="6.94159">
        <ele>114.892139</ele>
        <time>2023-04-30T08:25:00.201Z</time>
      </trkpt>
      <trkpt lat="51.44458" lon="6.94148">
        <ele>114.905972</ele>
        <time>2023-04-30T08:25:02.187Z</time>
      </trkpt>
      <trkpt lat="51.4445" lon="6.94139">
        <ele>114.920228</ele>
        <time>2023-04-30T08:25:04.175Z</time>
      </trkpt>
      <trkpt lat="51.44442" lon="6.94129">
        <ele>114.93536</ele>
        <time>2023-04-30T08:25:06.184Z</time>
      </trkpt>
      <trkpt lat="51.44435" lon="6.94119">
        <ele>114.950198</ele>
        <time>2023-04-30T08:25:08.184Z</time>
      </trkpt>
      <trkpt lat="51.44428" lon="6.94108">
        <ele>114.964678</ele>
        <time>2023-04-30T08:25:10.190Z</time>
      </trkpt>
      <trkpt lat="51.4442" lon="6.94098">
        <ele>114.979229</ele>
        <time>2023-04-30T08:25:12.194Z</time>
      </trkpt>
      <trkpt lat="51.44413" lon="6.94088">
        <ele>114.993143</ele>
        <time>2023-04-30T08:25:14.191Z</time>
      </trkpt>
      <trkpt lat="51.44406" lon="6.94078">
        <ele>115.00715</ele>
        <time>2023-04-30T08:25:16.171Z</time>
      </trkpt>
      <trkpt lat="51.444" lon="6.94067">
        <ele>115.020719</ele>
        <time>2023-04-30T08:25:18.177Z</time>
      </trkpt>
      <trkpt lat="51.44391" lon="6.94051">
        <ele>115.040978</ele>
        <time>2023-04-30T08:25:21.196Z</time>
      </trkpt>
      <trkpt lat="51.44385" lon="6.9404">
        <ele>115.042113</ele>
        <time>2023-04-30T08:25:23.184Z</time>
      </trkpt>
      <trkpt lat="51.44379" lon="6.94029">
        <ele>115.002844</ele>
        <time>2023-04-30T08:25:25.186Z</time>
      </trkpt>
      <trkpt lat="51.44373" lon="6.94017">
        <ele>114.962728</ele>
        <time>2023-04-30T08:25:27.189Z</time>
      </trkpt>
      <trkpt lat="51.44367" lon="6.94005">
        <ele>114.923292</ele>
        <time>2023-04-30T08:25:29.199Z</time>
      </trkpt>
      <trkpt lat="51.44362" lon="6.93993">
        <ele>114.883314</ele>
        <time>2023-04-30T08:25:31.188Z</time>
      </trkpt>
      <trkpt lat="51.44357" lon="6.9398">
        <ele>114.84399</ele>
        <time>2023-04-30T08:25:33.183Z</time>
      </trkpt>
      <trkpt lat="51.44351" lon="6.93968">
        <ele>114.802459</ele>
        <time>2023-04-30T08:25:35.194Z</time>
      </trkpt>
      <trkpt lat="51.44346" lon="6.93955">
        <ele>114.761155</ele>
        <time>2023-04-30T08:25:37.178Z</time>
      </trkpt>
      <trkpt lat="51.4434" lon="6.93942">
        <ele>114.719136</ele>
        <time>2023-04-30T08:25:39.201Z</time>
      </trkpt>
      <trkpt lat="51.44335" lon="6.9393">
        <ele>114.680534</ele>
        <time>2023-04-30T08:25:41.184Z</time>
      </trkpt>
      <trkpt lat="51.4433" lon="6.93917">
        <ele>114.64014</ele>
        <time>2023-04-30T08:25:43.196Z</time>
      </trkpt>
      <trkpt lat="51.44325" lon="6.93904">
        <ele>114.599632</ele>
        <time>2023-04-30T08:25:45.197Z</time>
      </trkpt>
      <trkpt lat="51.44321" lon="6.9389">
        <ele>114.558691</ele>
        <time>2023-04-30T08:25:47.186Z</time>
      </trkpt>
      <trkpt lat="51.44317" lon="6.93875">
        <ele>114.51485</ele>
        <time>2023-04-30T08:25:49.188Z</time>
      </trkpt>
      <trkpt lat="51.44312" lon="6.93861">
        <ele>114.472597</ele>
        <time>2023-04-30T08:25:51.191Z</time>
      </trkpt>
      <trkpt lat="51.44307" lon="6.93847">
        <ele>114.429179</ele>
        <time>2023-04-30T08:25:53.190Z</time>
      </trkpt>
      <trkpt lat="51.44303" lon="6.93831">
        <ele>114.384406</ele>
        <time>2023-04-30T08:25:55.198Z</time>
      </trkpt>
      <trkpt lat="51.44299" lon="6.93816">
        <ele>114.340382</ele>
        <time>2023-04-30T08:25:57.190Z</time>
      </trkpt>
      <trkpt lat="51.44295" lon="6.93801">
        <ele>114.297411</ele>
        <time>2023-04-30T08:25:59.186Z</time>
      </trkpt>
      <trkpt lat="51.44292" lon="6.93786">
        <ele>114.250938</ele>
        <time>2023-04-30T08:26:01.182Z</time>
      </trkpt>
      <trkpt lat="51.44289" lon="6.9377">
        <ele>114.202485</ele>
        <time>2023-04-30T08:26:03.187Z</time>
      </trkpt>
      <trkpt lat="51.44286" lon="6.93755">
        <ele>114.155286</ele>
        <time>2023-04-30T08:26:05.203Z</time>
      </trkpt>
      <trkpt lat="51.44283" lon="6.9374">
        <ele>114.109523</ele>
        <time>2023-04-30T08:26:07.187Z</time>
      </trkpt>
      <trkpt lat="51.4428" lon="6.93725">
        <ele>114.064319</ele>
        <time>2023-04-30T08:26:09.205Z</time>
      </trkpt>
      <trkpt lat="51.44278" lon="6.93711">
        <ele>114.021957</ele>
        <time>2023-04-30T08:26:11.206Z</time>
      </trkpt>
      <trkpt lat="51.44276" lon="6.93696">
        <ele>113.976186</ele>
        <time>2023-04-30T08:26:13.188Z</time>
      </trkpt>
      <trkpt lat="51.44274" lon="6.93681">
        <ele>113.931578</ele>
        <time>2023-04-30T08:26:15.192Z</time>
      </trkpt>
      <trkpt lat="51.44273" lon="6.93665">
        <ele>113.883105</ele>
        <time>2023-04-30T08:26:17.161Z</time>
      </trkpt>
      <trkpt lat="51.44272" lon="6.9365">
        <ele>113.836972</ele>
        <time>2023-04-30T08:26:19.199Z</time>
      </trkpt>
      <trkpt lat="51.44271" lon="6.93634">
        <ele>113.790663</ele>
        <time>2023-04-30T08:26:21.187Z</time>
      </trkpt>
      <trkpt lat="51.44269" lon="6.93619">
        <ele>113.745401</ele>
        <time>2023-04-30T08:26:23.200Z</time>
      </trkpt>
      <trkpt lat="51.44268" lon="6.93604">
        <ele>113.699971</ele>
        <time>2023-04-30T08:26:25.197Z</time>
      </trkpt>
      <trkpt lat="51.44267" lon="6.93588">
        <ele>113.653248</ele>
        <time>2023-04-30T08:26:27.181Z</time>
      </trkpt>
      <trkpt lat="51.44267" lon="6.93573">
        <ele>113.60835</ele>
        <time>2023-04-30T08:26:29.192Z</time>
      </trkpt>
      <trkpt lat="51.44266" lon="6.93558">
        <ele>113.564193</ele>
        <time>2023-04-30T08:26:31.199Z</time>
      </trkpt>
      <trkpt lat="51.44265" lon="6.93543">
        <ele>113.521692</ele>
        <time>2023-04-30T08:26:33.196Z</time>
      </trkpt>
      <trkpt lat="51.44263" lon="6.93522">
        <ele>113.457583</ele>
        <time>2023-04-30T08:26:36.184Z</time>
      </trkpt>
      <trkpt lat="51.44262" lon="6.93507">
        <ele>113.464932</ele>
        <time>2023-04-30T08:26:38.179Z</time>
      </trkpt>
      <trkpt lat="51.44261" lon="6.93492">
        <ele>113.537529</ele>
        <time>2023-04-30T08:26:40.183Z</time>
      </trkpt>
      <trkpt lat="51.4426" lon="6.93477">
        <ele>113.610695</ele>
        <time>2023-04-30T08:26:42.159Z</time>
      </trkpt>
      <trkpt lat="51.44259" lon="6.93463">
        <ele>113.680641</ele>
        <time>2023-04-30T08:26:44.162Z</time>
      </trkpt>
      <trkpt lat="51.44258" lon="6.93448">
        <ele>113.753325</ele>
        <time>2023-04-30T08:26:46.198Z</time>
      </trkpt>
      <trkpt lat="51.44257" lon="6.93433">
        <ele>113.825259</ele>
        <time>2023-04-30T08:26:48.180Z</time>
      </trkpt>
      <trkpt lat="51.44256" lon="6.93411">
        <ele>113.93324</ele>
        <time>2023-04-30T08:26:51.182Z</time>
      </trkpt>
      <trkpt lat="51.44255" lon="6.93395">
        <ele>114.009877</ele>
        <time>2023-04-30T08:26:53.182Z</time>
      </trkpt>
      <trkpt lat="51.44254" lon="6.9338">
        <ele>114.08162</ele>
        <time>2023-04-30T08:26:55.191Z</time>
      </trkpt>
      <trkpt lat="51.44253" lon="6.93366">
        <ele>114.1523</ele>
        <time>2023-04-30T08:26:57.200Z</time>
      </trkpt>
      <trkpt lat="51.44252" lon="6.93351">
        <ele>114.223602</ele>
        <time>2023-04-30T08:26:59.204Z</time>
      </trkpt>
      <trkpt lat="51.4425" lon="6.93329">
        <ele>114.32919</ele>
        <time>2023-04-30T08:27:02.179Z</time>
      </trkpt>
      <trkpt lat="51.44248" lon="6.93308">
        <ele>114.432576</ele>
        <time>2023-04-30T08:27:05.190Z</time>
      </trkpt>
      <trkpt lat="51.44247" lon="6.93294">
        <ele>114.50432</ele>
        <time>2023-04-30T08:27:07.188Z</time>
      </trkpt>
      <trkpt lat="51.44246" lon="6.93279">
        <ele>114.574902</ele>
        <time>2023-04-30T08:27:09.187Z</time>
      </trkpt>
      <trkpt lat="51.44245" lon="6.93264">
        <ele>114.646645</ele>
        <time>2023-04-30T08:27:11.182Z</time>
      </trkpt>
      <trkpt lat="51.44243" lon="6.9325">
        <ele>114.718284</ele>
        <time>2023-04-30T08:27:13.199Z</time>
      </trkpt>
      <trkpt lat="51.44242" lon="6.93235">
        <ele>114.788488</ele>
        <time>2023-04-30T08:27:15.193Z</time>
      </trkpt>
      <trkpt lat="51.4424" lon="6.93214">
        <ele>114.936097</ele>
        <time>2023-04-30T08:27:18.184Z</time>
      </trkpt>
      <trkpt lat="51.44237" lon="6.93193">
        <ele>115.113777</ele>
        <time>2023-04-30T08:27:21.190Z</time>
      </trkpt>
      <trkpt lat="51.44236" lon="6.93179">
        <ele>115.232216</ele>
        <time>2023-04-30T08:27:23.179Z</time>
      </trkpt>
      <trkpt lat="51.44233" lon="6.93158">
        <ele>115.408585</ele>
        <time>2023-04-30T08:27:26.177Z</time>
      </trkpt>
      <trkpt lat="51.44231" lon="6.93138">
        <ele>115.577393</ele>
        <time>2023-04-30T08:27:29.200Z</time>
      </trkpt>
      <trkpt lat="51.44228" lon="6.93117">
        <ele>115.748158</ele>
        <time>2023-04-30T08:27:32.176Z</time>
      </trkpt>
      <trkpt lat="51.44226" lon="6.93097">
        <ele>115.919128</ele>
        <time>2023-04-30T08:27:35.196Z</time>
      </trkpt>
      <trkpt lat="51.44224" lon="6.93076">
        <ele>116.093826</ele>
        <time>2023-04-30T08:27:38.185Z</time>
      </trkpt>
      <trkpt lat="51.44222" lon="6.93061">
        <ele>116.220593</ele>
        <time>2023-04-30T08:27:40.184Z</time>
      </trkpt>
      <trkpt lat="51.4422" lon="6.9304">
        <ele>116.3936</ele>
        <time>2023-04-30T08:27:43.168Z</time>
      </trkpt>
      <trkpt lat="51.4422" lon="6.93025">
        <ele>116.515885</ele>
        <time>2023-04-30T08:27:45.185Z</time>
      </trkpt>
      <trkpt lat="51.44218" lon="6.93004">
        <ele>116.691343</ele>
        <time>2023-04-30T08:27:48.200Z</time>
      </trkpt>
      <trkpt lat="51.44217" lon="6.92989">
        <ele>116.815068</ele>
        <time>2023-04-30T08:27:50.183Z</time>
      </trkpt>
      <trkpt lat="51.44216" lon="6.92975">
        <ele>116.934571</ele>
        <time>2023-04-30T08:27:52.184Z</time>
      </trkpt>
      <trkpt lat="51.44215" lon="6.9296">
        <ele>117.053411</ele>
        <time>2023-04-30T08:27:54.198Z</time>
      </trkpt>
      <trkpt lat="51.44213" lon="6.92946">
        <ele>117.17636</ele>
        <time>2023-04-30T08:27:56.193Z</time>
      </trkpt>
      <trkpt lat="51.44211" lon="6.9293">
        <ele>117.29482</ele>
        <time>2023-04-30T08:27:58.178Z</time>
      </trkpt>
      <trkpt lat="51.4421" lon="6.92916">
        <ele>117.405927</ele>
        <time>2023-04-30T08:28:00.184Z</time>
      </trkpt>
      <trkpt lat="51.44208" lon="6.92901">
        <ele>117.5175</ele>
        <time>2023-04-30T08:28:02.177Z</time>
      </trkpt>
      <trkpt lat="51.44205" lon="6.92886">
        <ele>117.630452</ele>
        <time>2023-04-30T08:28:04.196Z</time>
      </trkpt>
      <trkpt lat="51.44203" lon="6.92872">
        <ele>117.741083</ele>
        <time>2023-04-30T08:28:06.168Z</time>
      </trkpt>
      <trkpt lat="51.442" lon="6.92851">
        <ele>117.903252</ele>
        <time>2023-04-30T08:28:09.191Z</time>
      </trkpt>
      <trkpt lat="51.44197" lon="6.9283">
        <ele>118.062962</ele>
        <time>2023-04-30T08:28:12.194Z</time>
      </trkpt>
      <trkpt lat="51.44195" lon="6.92815">
        <ele>118.178698</ele>
        <time>2023-04-30T08:28:14.199Z</time>
      </trkpt>
      <trkpt lat="51.44192" lon="6.92794">
        <ele>118.336682</ele>
        <time>2023-04-30T08:28:17.199Z</time>
      </trkpt>
      <trkpt lat="51.44188" lon="6.92773">
        <ele>118.502419</ele>
        <time>2023-04-30T08:28:20.199Z</time>
      </trkpt>
      <trkpt lat="51.44186" lon="6.92759">
        <ele>118.613491</ele>
        <time>2023-04-30T08:28:22.199Z</time>
      </trkpt>
      <trkpt lat="51.44182" lon="6.9274">
        <ele>118.761445</ele>
        <time>2023-04-30T08:28:25.180Z</time>
      </trkpt>
      <trkpt lat="51.44179" lon="6.92721">
        <ele>118.910373</ele>
        <time>2023-04-30T08:28:28.189Z</time>
      </trkpt>
      <trkpt lat="51.44176" lon="6.92707">
        <ele>119.018937</ele>
        <time>2023-04-30T08:28:30.189Z</time>
      </trkpt>
      <trkpt lat="51.44173" lon="6.92687">
        <ele>119.175577</ele>
        <time>2023-04-30T08:28:33.179Z</time>
      </trkpt>
      <trkpt lat="51.4417" lon="6.92666">
        <ele>119.333138</ele>
        <time>2023-04-30T08:28:36.182Z</time>
      </trkpt>
      <trkpt lat="51.44166" lon="6.92646">
        <ele>119.415476</ele>
        <time>2023-04-30T08:28:39.182Z</time>
      </trkpt>
      <trkpt lat="51.44162" lon="6.92627">
        <ele>119.481452</ele>
        <time>2023-04-30T08:28:42.205Z</time>
      </trkpt>
      <trkpt lat="51.44158" lon="6.92608">
        <ele>119.549812</ele>
        <time>2023-04-30T08:28:45.209Z</time>
      </trkpt>
      <trkpt lat="51.44154" lon="6.92587">
        <ele>119.618767</ele>
        <time>2023-04-30T08:28:48.192Z</time>
      </trkpt>
      <trkpt lat="51.4415" lon="6.92567">
        <ele>119.687886</ele>
        <time>2023-04-30T08:28:51.195Z</time>
      </trkpt>
      <trkpt lat="51.44147" lon="6.92547">
        <ele>119.756552</ele>
        <time>2023-04-30T08:28:54.190Z</time>
      </trkpt>
      <trkpt lat="51.44144" lon="6.92527">
        <ele>119.825003</ele>
        <time>2023-04-30T08:28:57.187Z</time>
      </trkpt>
      <trkpt lat="51.44141" lon="6.92513">
        <ele>119.872532</ele>
        <time>2023-04-30T08:28:59.188Z</time>
      </trkpt>
      <trkpt lat="51.44137" lon="6.92493">
        <ele>119.941655</ele>
        <time>2023-04-30T08:29:02.193Z</time>
      </trkpt>
      <trkpt lat="51.44135" lon="6.92479">
        <ele>119.989037</ele>
        <time>2023-04-30T08:29:04.199Z</time>
      </trkpt>
      <trkpt lat="51.44133" lon="6.92465">
        <ele>120.037088</ele>
        <time>2023-04-30T08:29:06.192Z</time>
      </trkpt>
      <trkpt lat="51.44129" lon="6.92444">
        <ele>120.108103</ele>
        <time>2023-04-30T08:29:09.204Z</time>
      </trkpt>
      <trkpt lat="51.44126" lon="6.92423">
        <ele>120.176195</ele>
        <time>2023-04-30T08:29:12.182Z</time>
      </trkpt>
      <trkpt lat="51.44123" lon="6.92403">
        <ele>120.244646</ele>
        <time>2023-04-30T08:29:15.176Z</time>
      </trkpt>
      <trkpt lat="51.4412" lon="6.92381">
        <ele>120.342512</ele>
        <time>2023-04-30T08:29:18.171Z</time>
      </trkpt>
      <trkpt lat="51.44118" lon="6.92365">
        <ele>120.472653</ele>
        <time>2023-04-30T08:29:20.178Z</time>
      </trkpt>
      <trkpt lat="51.44117" lon="6.92348">
        <ele>120.614024</ele>
        <time>2023-04-30T08:29:22.185Z</time>
      </trkpt>
      <trkpt lat="51.44114" lon="6.92328">
        <ele>120.781819</ele>
        <time>2023-04-30T08:29:25.168Z</time>
      </trkpt>
      <trkpt lat="51.44114" lon="6.92313">
        <ele>120.902988</ele>
        <time>2023-04-30T08:29:27.169Z</time>
      </trkpt>
      <trkpt lat="51.44114" lon="6.92291">
        <ele>121.084032</ele>
        <time>2023-04-30T08:29:30.186Z</time>
      </trkpt>
      <trkpt lat="51.44112" lon="6.9227">
        <ele>121.257076</ele>
        <time>2023-04-30T08:29:33.187Z</time>
      </trkpt>
      <trkpt lat="51.44111" lon="6.92255">
        <ele>121.38114</ele>
        <time>2023-04-30T08:29:35.192Z</time>
      </trkpt>
      <trkpt lat="51.44111" lon="6.9224">
        <ele>121.503692</ele>
        <time>2023-04-30T08:29:37.180Z</time>
      </trkpt>
      <trkpt lat="51.4411" lon="6.92225">
        <ele>121.62415</ele>
        <time>2023-04-30T08:29:39.194Z</time>
      </trkpt>
      <trkpt lat="51.4411" lon="6.9221">
        <ele>121.748698</ele>
        <time>2023-04-30T08:29:41.202Z</time>
      </trkpt>
      <trkpt lat="51.44109" lon="6.92195">
        <ele>121.871841</ele>
        <time>2023-04-30T08:29:43.184Z</time>
      </trkpt>
      <trkpt lat="51.44109" lon="6.9218">
        <ele>121.99874</ele>
        <time>2023-04-30T08:29:45.186Z</time>
      </trkpt>
      <trkpt lat="51.44109" lon="6.92164">
        <ele>122.12564</ele>
        <time>2023-04-30T08:29:47.207Z</time>
      </trkpt>
      <trkpt lat="51.44109" lon="6.92148">
        <ele>122.256633</ele>
        <time>2023-04-30T08:29:49.184Z</time>
      </trkpt>
      <trkpt lat="51.44108" lon="6.92132">
        <ele>122.388758</ele>
        <time>2023-04-30T08:29:51.205Z</time>
      </trkpt>
      <trkpt lat="51.44108" lon="6.92116">
        <ele>122.522303</ele>
        <time>2023-04-30T08:29:53.191Z</time>
      </trkpt>
      <trkpt lat="51.44109" lon="6.921">
        <ele>122.651001</ele>
        <time>2023-04-30T08:29:55.168Z</time>
      </trkpt>
      <trkpt lat="51.44109" lon="6.92084">
        <ele>122.614413</ele>
        <time>2023-04-30T08:29:57.197Z</time>
      </trkpt>
      <trkpt lat="51.44108" lon="6.92069">
        <ele>122.555501</ele>
        <time>2023-04-30T08:29:59.202Z</time>
      </trkpt>
      <trkpt lat="51.44109" lon="6.92052">
        <ele>122.492462</ele>
        <time>2023-04-30T08:30:01.180Z</time>
      </trkpt>
      <trkpt lat="51.44107" lon="6.92035">
        <ele>122.427573</ele>
        <time>2023-04-30T08:30:03.176Z</time>
      </trkpt>
      <trkpt lat="51.44106" lon="6.92019">
        <ele>122.367152</ele>
        <time>2023-04-30T08:30:05.173Z</time>
      </trkpt>
      <trkpt lat="51.44103" lon="6.92002">
        <ele>122.301726</ele>
        <time>2023-04-30T08:30:07.184Z</time>
      </trkpt>
      <trkpt lat="51.44101" lon="6.91986">
        <ele>122.238159</ele>
        <time>2023-04-30T08:30:09.195Z</time>
      </trkpt>
      <trkpt lat="51.441" lon="6.91969">
        <ele>122.17583</ele>
        <time>2023-04-30T08:30:11.212Z</time>
      </trkpt>
      <trkpt lat="51.441" lon="6.91952">
        <ele>122.111273</ele>
        <time>2023-04-30T08:30:13.181Z</time>
      </trkpt>
      <trkpt lat="51.44101" lon="6.91934">
        <ele>122.044073</ele>
        <time>2023-04-30T08:30:15.187Z</time>
      </trkpt>
      <trkpt lat="51.44101" lon="6.91917">
        <ele>121.977881</ele>
        <time>2023-04-30T08:30:17.184Z</time>
      </trkpt>
      <trkpt lat="51.44101" lon="6.91899">
        <ele>121.909558</ele>
        <time>2023-04-30T08:30:19.192Z</time>
      </trkpt>
      <trkpt lat="51.44102" lon="6.9188">
        <ele>121.840009</ele>
        <time>2023-04-30T08:30:21.182Z</time>
      </trkpt>
      <trkpt lat="51.44103" lon="6.91862">
        <ele>121.771934</ele>
        <time>2023-04-30T08:30:23.201Z</time>
      </trkpt>
      <trkpt lat="51.44103" lon="6.91844">
        <ele>121.701598</ele>
        <time>2023-04-30T08:30:25.182Z</time>
      </trkpt>
      <trkpt lat="51.44104" lon="6.91825">
        <ele>121.631505</ele>
        <time>2023-04-30T08:30:27.192Z</time>
      </trkpt>
      <trkpt lat="51.44106" lon="6.91806">
        <ele>121.548557</ele>
        <time>2023-04-30T08:30:29.200Z</time>
      </trkpt>
      <trkpt lat="51.44106" lon="6.91788">
        <ele>121.436094</ele>
        <time>2023-04-30T08:30:31.182Z</time>
      </trkpt>
      <trkpt lat="51.44107" lon="6.91769">
        <ele>121.321224</ele>
        <time>2023-04-30T08:30:33.198Z</time>
      </trkpt>
      <trkpt lat="51.44108" lon="6.9175">
        <ele>121.208429</ele>
        <time>2023-04-30T08:30:35.180Z</time>
      </trkpt>
      <trkpt lat="51.44109" lon="6.91732">
        <ele>121.09693</ele>
        <time>2023-04-30T08:30:37.195Z</time>
      </trkpt>
      <trkpt lat="51.4411" lon="6.91713">
        <ele>120.982777</ele>
        <time>2023-04-30T08:30:39.196Z</time>
      </trkpt>
      <trkpt lat="51.44111" lon="6.91694">
        <ele>120.86716</ele>
        <time>2023-04-30T08:30:41.184Z</time>
      </trkpt>
      <trkpt lat="51.44112" lon="6.91675">
        <ele>120.75355</ele>
        <time>2023-04-30T08:30:43.198Z</time>
      </trkpt>
      <trkpt lat="51.44113" lon="6.91656">
        <ele>120.63868</ele>
        <time>2023-04-30T08:30:45.195Z</time>
      </trkpt>
      <trkpt lat="51.44114" lon="6.91636">
        <ele>120.521463</ele>
        <time>2023-04-30T08:30:47.196Z</time>
      </trkpt>
      <trkpt lat="51.44115" lon="6.91617">
        <ele>120.4049</ele>
        <time>2023-04-30T08:30:49.180Z</time>
      </trkpt>
      <trkpt lat="51.44115" lon="6.91597">
        <ele>120.284723</ele>
        <time>2023-04-30T08:30:51.179Z</time>
      </trkpt>
      <trkpt lat="51.44116" lon="6.91577">
        <ele>120.164628</ele>
        <time>2023-04-30T08:30:53.173Z</time>
      </trkpt>
      <trkpt lat="51.44117" lon="6.91558">
        <ele>120.046301</ele>
        <time>2023-04-30T08:30:55.182Z</time>
      </trkpt>
      <trkpt lat="51.44118" lon="6.91538">
        <ele>119.927077</ele>
        <time>2023-04-30T08:30:57.189Z</time>
      </trkpt>
      <trkpt lat="51.44119" lon="6.91519">
        <ele>119.804718</ele>
        <time>2023-04-30T08:30:59.195Z</time>
      </trkpt>
      <trkpt lat="51.44119" lon="6.91499">
        <ele>119.662997</ele>
        <time>2023-04-30T08:31:01.182Z</time>
      </trkpt>
      <trkpt lat="51.4412" lon="6.91478">
        <ele>119.519087</ele>
        <time>2023-04-30T08:31:03.186Z</time>
      </trkpt>
      <trkpt lat="51.44121" lon="6.91457">
        <ele>119.373353</ele>
        <time>2023-04-30T08:31:05.181Z</time>
      </trkpt>
      <trkpt lat="51.44122" lon="6.91437">
        <ele>119.229527</ele>
        <time>2023-04-30T08:31:07.201Z</time>
      </trkpt>
      <trkpt lat="51.44123" lon="6.91416">
        <ele>119.081565</ele>
        <time>2023-04-30T08:31:09.178Z</time>
      </trkpt>
      <trkpt lat="51.44124" lon="6.91395">
        <ele>118.930094</ele>
        <time>2023-04-30T08:31:11.193Z</time>
      </trkpt>
      <trkpt lat="51.44125" lon="6.91373">
        <ele>118.775665</ele>
        <time>2023-04-30T08:31:13.182Z</time>
      </trkpt>
      <trkpt lat="51.44125" lon="6.91351">
        <ele>118.624256</ele>
        <time>2023-04-30T08:31:15.181Z</time>
      </trkpt>
      <trkpt lat="51.44126" lon="6.91329">
        <ele>118.469647</ele>
        <time>2023-04-30T08:31:17.179Z</time>
      </trkpt>
      <trkpt lat="51.44127" lon="6.91307">
        <ele>118.31342</ele>
        <time>2023-04-30T08:31:19.184Z</time>
      </trkpt>
      <trkpt lat="51.44128" lon="6.91285">
        <ele>118.156392</ele>
        <time>2023-04-30T08:31:21.189Z</time>
      </trkpt>
      <trkpt lat="51.44129" lon="6.91262">
        <ele>117.998372</ele>
        <time>2023-04-30T08:31:23.197Z</time>
      </trkpt>
      <trkpt lat="51.44129" lon="6.9124">
        <ele>117.842047</ele>
        <time>2023-04-30T08:31:25.183Z</time>
      </trkpt>
      <trkpt lat="51.4413" lon="6.91218">
        <ele>117.676239</ele>
        <time>2023-04-30T08:31:27.203Z</time>
      </trkpt>
      <trkpt lat="51.4413" lon="6.91197">
        <ele>117.505826</ele>
        <time>2023-04-30T08:31:29.187Z</time>
      </trkpt>
      <trkpt lat="51.44129" lon="6.91175">
        <ele>117.33374</ele>
        <time>2023-04-30T08:31:31.185Z</time>
      </trkpt>
      <trkpt lat="51.44129" lon="6.91152">
        <ele>117.15848</ele>
        <time>2023-04-30T08:31:33.185Z</time>
      </trkpt>
      <trkpt lat="51.44128" lon="6.9113">
        <ele>116.987998</ele>
        <time>2023-04-30T08:31:35.196Z</time>
      </trkpt>
      <trkpt lat="51.44128" lon="6.91108">
        <ele>116.815081</ele>
        <time>2023-04-30T08:31:37.179Z</time>
      </trkpt>
      <trkpt lat="51.44128" lon="6.91086">
        <ele>116.642323</ele>
        <time>2023-04-30T08:31:39.206Z</time>
      </trkpt>
      <trkpt lat="51.44128" lon="6.91065">
        <ele>116.473478</ele>
        <time>2023-04-30T08:31:41.185Z</time>
      </trkpt>
      <trkpt lat="51.4413" lon="6.91043">
        <ele>116.300031</ele>
        <time>2023-04-30T08:31:43.193Z</time>
      </trkpt>
      <trkpt lat="51.44131" lon="6.91021">
        <ele>116.128959</ele>
        <time>2023-04-30T08:31:45.183Z</time>
      </trkpt>
      <trkpt lat="51.4413" lon="6.91">
        <ele>115.963008</ele>
        <time>2023-04-30T08:31:47.202Z</time>
      </trkpt>
      <trkpt lat="51.44128" lon="6.90978">
        <ele>115.794799</ele>
        <time>2023-04-30T08:31:49.183Z</time>
      </trkpt>
      <trkpt lat="51.44123" lon="6.90956">
        <ele>115.610786</ele>
        <time>2023-04-30T08:31:51.166Z</time>
      </trkpt>
      <trkpt lat="51.4412" lon="6.90935">
        <ele>115.366012</ele>
        <time>2023-04-30T08:31:53.184Z</time>
      </trkpt>
      <trkpt lat="51.44115" lon="6.90913">
        <ele>115.069954</ele>
        <time>2023-04-30T08:31:55.205Z</time>
      </trkpt>
      <trkpt lat="51.44111" lon="6.9089">
        <ele>114.76043</ele>
        <time>2023-04-30T08:31:57.183Z</time>
      </trkpt>
      <trkpt lat="51.44106" lon="6.90868">
        <ele>114.469797</ele>
        <time>2023-04-30T08:31:59.191Z</time>
      </trkpt>
      <trkpt lat="51.44101" lon="6.90847">
        <ele>114.172509</ele>
        <time>2023-04-30T08:32:01.187Z</time>
      </trkpt>
      <trkpt lat="51.44096" lon="6.90825">
        <ele>113.872519</ele>
        <time>2023-04-30T08:32:03.183Z</time>
      </trkpt>
      <trkpt lat="51.4409" lon="6.90804">
        <ele>113.577617</ele>
        <time>2023-04-30T08:32:05.181Z</time>
      </trkpt>
      <trkpt lat="51.44084" lon="6.90784">
        <ele>113.288278</ele>
        <time>2023-04-30T08:32:07.190Z</time>
      </trkpt>
      <trkpt lat="51.44078" lon="6.90763">
        <ele>112.992761</ele>
        <time>2023-04-30T08:32:09.188Z</time>
      </trkpt>
      <trkpt lat="51.44071" lon="6.90743">
        <ele>112.702212</ele>
        <time>2023-04-30T08:32:11.183Z</time>
      </trkpt>
      <trkpt lat="51.44064" lon="6.90723">
        <ele>112.415062</ele>
        <time>2023-04-30T08:32:13.187Z</time>
      </trkpt>
      <trkpt lat="51.44057" lon="6.90703">
        <ele>112.120568</ele>
        <time>2023-04-30T08:32:15.183Z</time>
      </trkpt>
      <trkpt lat="51.4405" lon="6.90683">
        <ele>111.830676</ele>
        <time>2023-04-30T08:32:17.169Z</time>
      </trkpt>
      <trkpt lat="51.44043" lon="6.90664">
        <ele>111.589168</ele>
        <time>2023-04-30T08:32:19.188Z</time>
      </trkpt>
      <trkpt lat="51.44035" lon="6.90647">
        <ele>111.362277</ele>
        <time>2023-04-30T08:32:21.186Z</time>
      </trkpt>
      <trkpt lat="51.44027" lon="6.9063">
        <ele>111.135502</ele>
        <time>2023-04-30T08:32:23.186Z</time>
      </trkpt>
      <trkpt lat="51.44018" lon="6.90612">
        <ele>110.903726</ele>
        <time>2023-04-30T08:32:25.190Z</time>
      </trkpt>
      <trkpt lat="51.4401" lon="6.90596">
        <ele>110.681729</ele>
        <time>2023-04-30T08:32:27.193Z</time>
      </trkpt>
      <trkpt lat="51.44002" lon="6.90579">
        <ele>110.455029</ele>
        <time>2023-04-30T08:32:29.186Z</time>
      </trkpt>
      <trkpt lat="51.43993" lon="6.90562">
        <ele>110.226145</ele>
        <time>2023-04-30T08:32:31.203Z</time>
      </trkpt>
      <trkpt lat="51.43985" lon="6.90546">
        <ele>110.008064</ele>
        <time>2023-04-30T08:32:33.179Z</time>
      </trkpt>
      <trkpt lat="51.43975" lon="6.90531">
        <ele>109.780127</ele>
        <time>2023-04-30T08:32:35.191Z</time>
      </trkpt>
      <trkpt lat="51.43966" lon="6.90516">
        <ele>109.557227</ele>
        <time>2023-04-30T08:32:37.184Z</time>
      </trkpt>
      <trkpt lat="51.43957" lon="6.905">
        <ele>109.328409</ele>
        <time>2023-04-30T08:32:39.184Z</time>
      </trkpt>
      <trkpt lat="51.43947" lon="6.90486">
        <ele>109.103981</ele>
        <time>2023-04-30T08:32:41.207Z</time>
      </trkpt>
      <trkpt lat="51.43937" lon="6.90472">
        <ele>108.88335</ele>
        <time>2023-04-30T08:32:43.190Z</time>
      </trkpt>
      <trkpt lat="51.43927" lon="6.90458">
        <ele>108.706163</ele>
        <time>2023-04-30T08:32:45.198Z</time>
      </trkpt>
      <trkpt lat="51.43918" lon="6.90445">
        <ele>108.56051</ele>
        <time>2023-04-30T08:32:47.182Z</time>
      </trkpt>
      <trkpt lat="51.43908" lon="6.90433">
        <ele>108.414927</ele>
        <time>2023-04-30T08:32:49.182Z</time>
      </trkpt>
      <trkpt lat="51.43898" lon="6.90421">
        <ele>108.267445</ele>
        <time>2023-04-30T08:32:51.184Z</time>
      </trkpt>
      <trkpt lat="51.43888" lon="6.90409">
        <ele>108.118943</ele>
        <time>2023-04-30T08:32:53.184Z</time>
      </trkpt>
      <trkpt lat="51.43878" lon="6.90398">
        <ele>107.970764</ele>
        <time>2023-04-30T08:32:55.195Z</time>
      </trkpt>
      <trkpt lat="51.43868" lon="6.90387">
        <ele>107.831184</ele>
        <time>2023-04-30T08:32:57.188Z</time>
      </trkpt>
      <trkpt lat="51.43858" lon="6.90376">
        <ele>107.691037</ele>
        <time>2023-04-30T08:32:59.182Z</time>
      </trkpt>
      <trkpt lat="51.43848" lon="6.90365">
        <ele>107.546322</ele>
        <time>2023-04-30T08:33:01.186Z</time>
      </trkpt>
      <trkpt lat="51.43837" lon="6.90356">
        <ele>107.404382</ele>
        <time>2023-04-30T08:33:03.186Z</time>
      </trkpt>
      <trkpt lat="51.43826" lon="6.90346">
        <ele>107.256937</ele>
        <time>2023-04-30T08:33:05.197Z</time>
      </trkpt>
      <trkpt lat="51.43816" lon="6.90337">
        <ele>107.113295</ele>
        <time>2023-04-30T08:33:07.181Z</time>
      </trkpt>
      <trkpt lat="51.43805" lon="6.90326">
        <ele>106.961939</ele>
        <time>2023-04-30T08:33:09.183Z</time>
      </trkpt>
      <trkpt lat="51.43793" lon="6.90316">
        <ele>106.808545</ele>
        <time>2023-04-30T08:33:11.160Z</time>
      </trkpt>
      <trkpt lat="51.43782" lon="6.90307">
        <ele>106.684368</ele>
        <time>2023-04-30T08:33:13.197Z</time>
      </trkpt>
      <trkpt lat="51.43771" lon="6.90298">
        <ele>106.664209</ele>
        <time>2023-04-30T08:33:15.181Z</time>
      </trkpt>
      <trkpt lat="51.4376" lon="6.90289">
        <ele>106.643949</ele>
        <time>2023-04-30T08:33:17.183Z</time>
      </trkpt>
      <trkpt lat="51.43749" lon="6.9028">
        <ele>106.623887</ele>
        <time>2023-04-30T08:33:19.184Z</time>
      </trkpt>
      <trkpt lat="51.43739" lon="6.9027">
        <ele>106.603912</ele>
        <time>2023-04-30T08:33:21.183Z</time>
      </trkpt>
      <trkpt lat="51.43728" lon="6.90262">
        <ele>106.584003</ele>
        <time>2023-04-30T08:33:23.181Z</time>
      </trkpt>
      <trkpt lat="51.43716" lon="6.90252">
        <ele>106.563126</ele>
        <time>2023-04-30T08:33:25.190Z</time>
      </trkpt>
      <trkpt lat="51.43705" lon="6.90242">
        <ele>106.541864</ele>
        <time>2023-04-30T08:33:27.184Z</time>
      </trkpt>
      <trkpt lat="51.43694" lon="6.90232">
        <ele>106.521438</ele>
        <time>2023-04-30T08:33:29.188Z</time>
      </trkpt>
      <trkpt lat="51.43683" lon="6.90222">
        <ele>106.500745</ele>
        <time>2023-04-30T08:33:31.183Z</time>
      </trkpt>
      <trkpt lat="51.43672" lon="6.90212">
        <ele>106.480012</ele>
        <time>2023-04-30T08:33:33.195Z</time>
      </trkpt>
      <trkpt lat="51.43661" lon="6.90201">
        <ele>106.459201</ele>
        <time>2023-04-30T08:33:35.184Z</time>
      </trkpt>
      <trkpt lat="51.43651" lon="6.90191">
        <ele>106.438892</ele>
        <time>2023-04-30T08:33:37.182Z</time>
      </trkpt>
      <trkpt lat="51.4364" lon="6.9018">
        <ele>106.417889</ele>
        <time>2023-04-30T08:33:39.202Z</time>
      </trkpt>
      <trkpt lat="51.43629" lon="6.9017">
        <ele>106.397707</ele>
        <time>2023-04-30T08:33:41.179Z</time>
      </trkpt>
      <trkpt lat="51.43619" lon="6.9016">
        <ele>106.238272</ele>
        <time>2023-04-30T08:33:43.184Z</time>
      </trkpt>
      <trkpt lat="51.43609" lon="6.9015">
        <ele>106.055192</ele>
        <time>2023-04-30T08:33:45.186Z</time>
      </trkpt>
      <trkpt lat="51.43598" lon="6.9014">
        <ele>105.867632</ele>
        <time>2023-04-30T08:33:47.192Z</time>
      </trkpt>
      <trkpt lat="51.43589" lon="6.90129">
        <ele>105.690229</ele>
        <time>2023-04-30T08:33:49.199Z</time>
      </trkpt>
      <trkpt lat="51.4358" lon="6.90117">
        <ele>105.500082</ele>
        <time>2023-04-30T08:33:51.193Z</time>
      </trkpt>
      <trkpt lat="51.43572" lon="6.90104">
        <ele>105.318714</ele>
        <time>2023-04-30T08:33:53.189Z</time>
      </trkpt>
      <trkpt lat="51.43563" lon="6.90092">
        <ele>105.135325</ele>
        <time>2023-04-30T08:33:55.190Z</time>
      </trkpt>
      <trkpt lat="51.43553" lon="6.9008">
        <ele>104.943988</ele>
        <time>2023-04-30T08:33:57.203Z</time>
      </trkpt>
      <trkpt lat="51.43544" lon="6.90067">
        <ele>104.750182</ele>
        <time>2023-04-30T08:33:59.206Z</time>
      </trkpt>
      <trkpt lat="51.43534" lon="6.90055">
        <ele>104.554573</ele>
        <time>2023-04-30T08:34:01.163Z</time>
      </trkpt>
      <trkpt lat="51.43524" lon="6.90042">
        <ele>104.354653</ele>
        <time>2023-04-30T08:34:03.185Z</time>
      </trkpt>
      <trkpt lat="51.43515" lon="6.90028">
        <ele>104.154955</ele>
        <time>2023-04-30T08:34:05.165Z</time>
      </trkpt>
      <trkpt lat="51.43504" lon="6.90014">
        <ele>103.948335</ele>
        <time>2023-04-30T08:34:07.183Z</time>
      </trkpt>
      <trkpt lat="51.43494" lon="6.90001">
        <ele>103.738016</ele>
        <time>2023-04-30T08:34:09.180Z</time>
      </trkpt>
      <trkpt lat="51.43484" lon="6.89986">
        <ele>103.513573</ele>
        <time>2023-04-30T08:34:11.203Z</time>
      </trkpt>
      <trkpt lat="51.43474" lon="6.89971">
        <ele>103.219185</ele>
        <time>2023-04-30T08:34:13.199Z</time>
      </trkpt>
      <trkpt lat="51.43465" lon="6.89956">
        <ele>102.932845</ele>
        <time>2023-04-30T08:34:15.198Z</time>
      </trkpt>
      <trkpt lat="51.43455" lon="6.8994">
        <ele>102.638414</ele>
        <time>2023-04-30T08:34:17.191Z</time>
      </trkpt>
      <trkpt lat="51.43445" lon="6.89925">
        <ele>102.339406</ele>
        <time>2023-04-30T08:34:19.190Z</time>
      </trkpt>
      <trkpt lat="51.43435" lon="6.89909">
        <ele>102.042255</ele>
        <time>2023-04-30T08:34:21.194Z</time>
      </trkpt>
      <trkpt lat="51.43425" lon="6.89893">
        <ele>101.735266</ele>
        <time>2023-04-30T08:34:23.189Z</time>
      </trkpt>
      <trkpt lat="51.43415" lon="6.89877">
        <ele>101.432118</ele>
        <time>2023-04-30T08:34:25.199Z</time>
      </trkpt>
      <trkpt lat="51.43406" lon="6.89861">
        <ele>101.141738</ele>
        <time>2023-04-30T08:34:27.185Z</time>
      </trkpt>
      <trkpt lat="51.43396" lon="6.89845">
        <ele>100.839125</ele>
        <time>2023-04-30T08:34:29.194Z</time>
      </trkpt>
      <trkpt lat="51.43387" lon="6.89828">
        <ele>100.537027</ele>
        <time>2023-04-30T08:34:31.196Z</time>
      </trkpt>
      <trkpt lat="51.43377" lon="6.89812">
        <ele>100.236332</ele>
        <time>2023-04-30T08:34:33.187Z</time>
      </trkpt>
      <trkpt lat="51.43367" lon="6.89795">
        <ele>99.924444</ele>
        <time>2023-04-30T08:34:35.188Z</time>
      </trkpt>
      <trkpt lat="51.43356" lon="6.8978">
        <ele>99.661549</ele>
        <time>2023-04-30T08:34:37.201Z</time>
      </trkpt>
      <trkpt lat="51.43347" lon="6.89764">
        <ele>99.480276</ele>
        <time>2023-04-30T08:34:39.183Z</time>
      </trkpt>
      <trkpt lat="51.43337" lon="6.89749">
        <ele>99.301602</ele>
        <time>2023-04-30T08:34:41.194Z</time>
      </trkpt>
      <trkpt lat="51.43329" lon="6.89733">
        <ele>99.13115</ele>
        <time>2023-04-30T08:34:43.187Z</time>
      </trkpt>
      <trkpt lat="51.43319" lon="6.89718">
        <ele>98.951536</ele>
        <time>2023-04-30T08:34:45.195Z</time>
      </trkpt>
      <trkpt lat="51.4331" lon="6.89704">
        <ele>98.788308</ele>
        <time>2023-04-30T08:34:47.200Z</time>
      </trkpt>
      <trkpt lat="51.43302" lon="6.8969">
        <ele>98.628966</ele>
        <time>2023-04-30T08:34:49.185Z</time>
      </trkpt>
      <trkpt lat="51.43295" lon="6.89676">
        <ele>98.481691</ele>
        <time>2023-04-30T08:34:51.165Z</time>
      </trkpt>
      <trkpt lat="51.43287" lon="6.89662">
        <ele>98.325037</ele>
        <time>2023-04-30T08:34:53.184Z</time>
      </trkpt>
      <trkpt lat="51.43279" lon="6.89648">
        <ele>98.171406</ele>
        <time>2023-04-30T08:34:55.180Z</time>
      </trkpt>
      <trkpt lat="51.4327" lon="6.89633">
        <ele>97.999763</ele>
        <time>2023-04-30T08:34:57.202Z</time>
      </trkpt>
      <trkpt lat="51.43262" lon="6.89617">
        <ele>97.829654</ele>
        <time>2023-04-30T08:34:59.183Z</time>
      </trkpt>
      <trkpt lat="51.43254" lon="6.89601">
        <ele>97.661698</ele>
        <time>2023-04-30T08:35:01.192Z</time>
      </trkpt>
      <trkpt lat="51.43246" lon="6.89585">
        <ele>97.491406</ele>
        <time>2023-04-30T08:35:03.182Z</time>
      </trkpt>
      <trkpt lat="51.43237" lon="6.89569">
        <ele>97.327393</ele>
        <time>2023-04-30T08:35:05.198Z</time>
      </trkpt>
      <trkpt lat="51.43229" lon="6.89554">
        <ele>97.219071</ele>
        <time>2023-04-30T08:35:07.197Z</time>
      </trkpt>
      <trkpt lat="51.43221" lon="6.89537">
        <ele>97.10564</ele>
        <time>2023-04-30T08:35:09.198Z</time>
      </trkpt>
      <trkpt lat="51.43213" lon="6.89519">
        <ele>96.986865</ele>
        <time>2023-04-30T08:35:11.186Z</time>
      </trkpt>
      <trkpt lat="51.43205" lon="6.895">
        <ele>96.863294</ele>
        <time>2023-04-30T08:35:13.189Z</time>
      </trkpt>
      <trkpt lat="51.43198" lon="6.8948">
        <ele>96.738615</ele>
        <time>2023-04-30T08:35:15.183Z</time>
      </trkpt>
      <trkpt lat="51.43192" lon="6.8946">
        <ele>96.615617</ele>
        <time>2023-04-30T08:35:17.189Z</time>
      </trkpt>
      <trkpt lat="51.43184" lon="6.8944">
        <ele>96.490731</ele>
        <time>2023-04-30T08:35:19.177Z</time>
      </trkpt>
      <trkpt lat="51.43177" lon="6.8942">
        <ele>96.36617</ele>
        <time>2023-04-30T08:35:21.177Z</time>
      </trkpt>
      <trkpt lat="51.43171" lon="6.89399">
        <ele>96.24244</ele>
        <time>2023-04-30T08:35:23.193Z</time>
      </trkpt>
      <trkpt lat="51.43164" lon="6.8938">
        <ele>96.123404</ele>
        <time>2023-04-30T08:35:25.191Z</time>
      </trkpt>
      <trkpt lat="51.43158" lon="6.89359">
        <ele>96.002319</ele>
        <time>2023-04-30T08:35:27.200Z</time>
      </trkpt>
      <trkpt lat="51.43153" lon="6.89339">
        <ele>95.882454</ele>
        <time>2023-04-30T08:35:29.188Z</time>
      </trkpt>
      <trkpt lat="51.43147" lon="6.89319">
        <ele>95.767012</ele>
        <time>2023-04-30T08:35:31.201Z</time>
      </trkpt>
      <trkpt lat="51.43141" lon="6.89298">
        <ele>95.658943</ele>
        <time>2023-04-30T08:35:33.187Z</time>
      </trkpt>
      <trkpt lat="51.43136" lon="6.89278">
        <ele>95.552791</ele>
        <time>2023-04-30T08:35:35.193Z</time>
      </trkpt>
      <trkpt lat="51.43131" lon="6.89256">
        <ele>95.442039</ele>
        <time>2023-04-30T08:35:37.198Z</time>
      </trkpt>
      <trkpt lat="51.43126" lon="6.89235">
        <ele>95.33084</ele>
        <time>2023-04-30T08:35:39.191Z</time>
      </trkpt>
      <trkpt lat="51.43122" lon="6.89213">
        <ele>95.224436</ele>
        <time>2023-04-30T08:35:41.196Z</time>
      </trkpt>
      <trkpt lat="51.43117" lon="6.89192">
        <ele>95.118221</ele>
        <time>2023-04-30T08:35:43.200Z</time>
      </trkpt>
      <trkpt lat="51.43114" lon="6.8917">
        <ele>95.010269</ele>
        <time>2023-04-30T08:35:45.182Z</time>
      </trkpt>
      <trkpt lat="51.43111" lon="6.89149">
        <ele>94.903485</ele>
        <time>2023-04-30T08:35:47.186Z</time>
      </trkpt>
      <trkpt lat="51.43108" lon="6.89127">
        <ele>94.797931</ele>
        <time>2023-04-30T08:35:49.195Z</time>
      </trkpt>
      <trkpt lat="51.43105" lon="6.89105">
        <ele>94.692772</ele>
        <time>2023-04-30T08:35:51.179Z</time>
      </trkpt>
      <trkpt lat="51.43104" lon="6.89083">
        <ele>94.586735</ele>
        <time>2023-04-30T08:35:53.184Z</time>
      </trkpt>
      <trkpt lat="51.43101" lon="6.89062">
        <ele>94.481361</ele>
        <time>2023-04-30T08:35:55.201Z</time>
      </trkpt>
      <trkpt lat="51.43099" lon="6.8904">
        <ele>94.37785</ele>
        <time>2023-04-30T08:35:57.201Z</time>
      </trkpt>
      <trkpt lat="51.43099" lon="6.89018">
        <ele>94.283383</ele>
        <time>2023-04-30T08:35:59.184Z</time>
      </trkpt>
      <trkpt lat="51.43098" lon="6.88996">
        <ele>94.188348</ele>
        <time>2023-04-30T08:36:01.182Z</time>
      </trkpt>
      <trkpt lat="51.43096" lon="6.88976">
        <ele>94.096463</ele>
        <time>2023-04-30T08:36:03.187Z</time>
      </trkpt>
      <trkpt lat="51.43096" lon="6.88954">
        <ele>94.002973</ele>
        <time>2023-04-30T08:36:05.192Z</time>
      </trkpt>
      <trkpt lat="51.43096" lon="6.88933">
        <ele>93.910807</ele>
        <time>2023-04-30T08:36:07.227Z</time>
      </trkpt>
      <trkpt lat="51.43096" lon="6.88912">
        <ele>93.81864</ele>
        <time>2023-04-30T08:36:09.191Z</time>
      </trkpt>
      <trkpt lat="51.43095" lon="6.88891">
        <ele>93.726005</ele>
        <time>2023-04-30T08:36:11.214Z</time>
      </trkpt>
      <trkpt lat="51.43095" lon="6.8887">
        <ele>93.636371</ele>
        <time>2023-04-30T08:36:13.192Z</time>
      </trkpt>
      <trkpt lat="51.43094" lon="6.88849">
        <ele>93.545458</ele>
        <time>2023-04-30T08:36:15.187Z</time>
      </trkpt>
      <trkpt lat="51.43094" lon="6.88829">
        <ele>93.455442</ele>
        <time>2023-04-30T08:36:17.186Z</time>
      </trkpt>
      <trkpt lat="51.43093" lon="6.88808">
        <ele>93.365808</ele>
        <time>2023-04-30T08:36:19.189Z</time>
      </trkpt>
      <trkpt lat="51.43093" lon="6.88788">
        <ele>93.276611</ele>
        <time>2023-04-30T08:36:21.183Z</time>
      </trkpt>
      <trkpt lat="51.43092" lon="6.88768">
        <ele>93.189625</ele>
        <time>2023-04-30T08:36:23.187Z</time>
      </trkpt>
      <trkpt lat="51.43091" lon="6.88748">
        <ele>93.086419</ele>
        <time>2023-04-30T08:36:25.190Z</time>
      </trkpt>
      <trkpt lat="51.43091" lon="6.88728">
        <ele>92.974229</ele>
        <time>2023-04-30T08:36:27.188Z</time>
      </trkpt>
      <trkpt lat="51.43091" lon="6.88708">
        <ele>92.860451</ele>
        <time>2023-04-30T08:36:29.162Z</time>
      </trkpt>
      <trkpt lat="51.4309" lon="6.88688">
        <ele>92.747732</ele>
        <time>2023-04-30T08:36:31.205Z</time>
      </trkpt>
      <trkpt lat="51.4309" lon="6.88668">
        <ele>92.632701</ele>
        <time>2023-04-30T08:36:33.202Z</time>
      </trkpt>
      <trkpt lat="51.43088" lon="6.88648">
        <ele>92.517846</ele>
        <time>2023-04-30T08:36:35.178Z</time>
      </trkpt>
      <trkpt lat="51.43086" lon="6.88628">
        <ele>92.404313</ele>
        <time>2023-04-30T08:36:37.189Z</time>
      </trkpt>
      <trkpt lat="51.43085" lon="6.88609">
        <ele>92.292185</ele>
        <time>2023-04-30T08:36:39.181Z</time>
      </trkpt>
      <trkpt lat="51.43083" lon="6.88589">
        <ele>92.180246</ele>
        <time>2023-04-30T08:36:41.181Z</time>
      </trkpt>
      <trkpt lat="51.43082" lon="6.8857">
        <ele>92.068128</ele>
        <time>2023-04-30T08:36:43.216Z</time>
      </trkpt>
      <trkpt lat="51.4308" lon="6.8855">
        <ele>91.955566</ele>
        <time>2023-04-30T08:36:45.204Z</time>
      </trkpt>
      <trkpt lat="51.43079" lon="6.88532">
        <ele>91.849669</ele>
        <time>2023-04-30T08:36:47.191Z</time>
      </trkpt>
      <trkpt lat="51.43077" lon="6.88513">
        <ele>91.742175</ele>
        <time>2023-04-30T08:36:49.203Z</time>
      </trkpt>
      <trkpt lat="51.43076" lon="6.88494">
        <ele>91.634681</ele>
        <time>2023-04-30T08:36:51.185Z</time>
      </trkpt>
      <trkpt lat="51.43074" lon="6.88475">
        <ele>91.527051</ele>
        <time>2023-04-30T08:36:53.199Z</time>
      </trkpt>
      <trkpt lat="51.43072" lon="6.88456">
        <ele>91.327433</ele>
        <time>2023-04-30T08:36:55.289Z</time>
      </trkpt>
      <trkpt lat="51.43071" lon="6.88436">
        <ele>91.099961</ele>
        <time>2023-04-30T08:36:57.176Z</time>
      </trkpt>
      <trkpt lat="51.43069" lon="6.88417">
        <ele>90.886047</ele>
        <time>2023-04-30T08:36:59.189Z</time>
      </trkpt>
      <trkpt lat="51.43067" lon="6.88397">
        <ele>90.669943</ele>
        <time>2023-04-30T08:37:01.204Z</time>
      </trkpt>
      <trkpt lat="51.43065" lon="6.88378">
        <ele>90.454336</ele>
        <time>2023-04-30T08:37:03.198Z</time>
      </trkpt>
      <trkpt lat="51.43064" lon="6.88357">
        <ele>90.22093</ele>
        <time>2023-04-30T08:37:05.193Z</time>
      </trkpt>
      <trkpt lat="51.43062" lon="6.88336">
        <ele>89.98787</ele>
        <time>2023-04-30T08:37:07.179Z</time>
      </trkpt>
      <trkpt lat="51.43059" lon="6.88316">
        <ele>89.757517</ele>
        <time>2023-04-30T08:37:09.197Z</time>
      </trkpt>
      <trkpt lat="51.43057" lon="6.88295">
        <ele>89.521872</ele>
        <time>2023-04-30T08:37:11.198Z</time>
      </trkpt>
      <trkpt lat="51.43054" lon="6.88275">
        <ele>89.293701</ele>
        <time>2023-04-30T08:37:13.192Z</time>
      </trkpt>
      <trkpt lat="51.43052" lon="6.88254">
        <ele>89.063347</ele>
        <time>2023-04-30T08:37:15.192Z</time>
      </trkpt>
      <trkpt lat="51.4305" lon="6.88234">
        <ele>88.829154</ele>
        <time>2023-04-30T08:37:17.195Z</time>
      </trkpt>
      <trkpt lat="51.43047" lon="6.88212">
        <ele>88.589539</ele>
        <time>2023-04-30T08:37:19.184Z</time>
      </trkpt>
      <trkpt lat="51.43044" lon="6.88192">
        <ele>88.360883</ele>
        <time>2023-04-30T08:37:21.180Z</time>
      </trkpt>
      <trkpt lat="51.43041" lon="6.88172">
        <ele>88.249681</ele>
        <time>2023-04-30T08:37:23.185Z</time>
      </trkpt>
      <trkpt lat="51.43038" lon="6.88151">
        <ele>88.167938</ele>
        <time>2023-04-30T08:37:25.160Z</time>
      </trkpt>
      <trkpt lat="51.43035" lon="6.88131">
        <ele>88.087454</ele>
        <time>2023-04-30T08:37:27.203Z</time>
      </trkpt>
      <trkpt lat="51.43032" lon="6.88111">
        <ele>88.005563</ele>
        <time>2023-04-30T08:37:29.193Z</time>
      </trkpt>
      <trkpt lat="51.43029" lon="6.88091">
        <ele>87.92736</ele>
        <time>2023-04-30T08:37:31.206Z</time>
      </trkpt>
      <trkpt lat="51.43026" lon="6.88072">
        <ele>87.850839</ele>
        <time>2023-04-30T08:37:33.202Z</time>
      </trkpt>
      <trkpt lat="51.43023" lon="6.88052">
        <ele>87.773646</ele>
        <time>2023-04-30T08:37:35.188Z</time>
      </trkpt>
      <trkpt lat="51.43021" lon="6.88033">
        <ele>87.697076</ele>
        <time>2023-04-30T08:37:37.193Z</time>
      </trkpt>
      <trkpt lat="51.43018" lon="6.88014">
        <ele>87.619848</ele>
        <time>2023-04-30T08:37:39.199Z</time>
      </trkpt>
      <trkpt lat="51.43015" lon="6.87994">
        <ele>87.542473</ele>
        <time>2023-04-30T08:37:41.192Z</time>
      </trkpt>
      <trkpt lat="51.43012" lon="6.87975">
        <ele>87.467036</ele>
        <time>2023-04-30T08:37:43.186Z</time>
      </trkpt>
      <trkpt lat="51.43009" lon="6.87956">
        <ele>87.389464</ele>
        <time>2023-04-30T08:37:45.196Z</time>
      </trkpt>
      <trkpt lat="51.43006" lon="6.87937">
        <ele>87.313436</ele>
        <time>2023-04-30T08:37:47.197Z</time>
      </trkpt>
      <trkpt lat="51.43003" lon="6.87917">
        <ele>87.236812</ele>
        <time>2023-04-30T08:37:49.190Z</time>
      </trkpt>
      <trkpt lat="51.43001" lon="6.87898">
        <ele>87.167448</ele>
        <time>2023-04-30T08:37:51.196Z</time>
      </trkpt>
      <trkpt lat="51.42997" lon="6.87879">
        <ele>87.102159</ele>
        <time>2023-04-30T08:37:53.199Z</time>
      </trkpt>
      <trkpt lat="51.42994" lon="6.8786">
        <ele>87.037946</ele>
        <time>2023-04-30T08:37:55.199Z</time>
      </trkpt>
      <trkpt lat="51.42991" lon="6.87841">
        <ele>86.975357</ele>
        <time>2023-04-30T08:37:57.193Z</time>
      </trkpt>
      <trkpt lat="51.42989" lon="6.87823">
        <ele>86.913415</ele>
        <time>2023-04-30T08:37:59.188Z</time>
      </trkpt>
      <trkpt lat="51.42987" lon="6.87804">
        <ele>86.851407</ele>
        <time>2023-04-30T08:38:01.172Z</time>
      </trkpt>
      <trkpt lat="51.42984" lon="6.87785">
        <ele>86.788949</ele>
        <time>2023-04-30T08:38:03.182Z</time>
      </trkpt>
      <trkpt lat="51.42982" lon="6.87766">
        <ele>86.726363</ele>
        <time>2023-04-30T08:38:05.196Z</time>
      </trkpt>
      <trkpt lat="51.42981" lon="6.87747">
        <ele>86.661723</ele>
        <time>2023-04-30T08:38:07.182Z</time>
      </trkpt>
      <trkpt lat="51.42978" lon="6.87728">
        <ele>86.597779</ele>
        <time>2023-04-30T08:38:09.198Z</time>
      </trkpt>
      <trkpt lat="51.42977" lon="6.87709">
        <ele>86.536438</ele>
        <time>2023-04-30T08:38:11.192Z</time>
      </trkpt>
      <trkpt lat="51.42976" lon="6.8769">
        <ele>86.475096</ele>
        <time>2023-04-30T08:38:13.219Z</time>
      </trkpt>
      <trkpt lat="51.42975" lon="6.87672">
        <ele>86.414079</ele>
        <time>2023-04-30T08:38:15.192Z</time>
      </trkpt>
      <trkpt lat="51.42973" lon="6.87654">
        <ele>86.357062</ele>
        <time>2023-04-30T08:38:17.187Z</time>
      </trkpt>
      <trkpt lat="51.42972" lon="6.87636">
        <ele>86.296669</ele>
        <time>2023-04-30T08:38:19.194Z</time>
      </trkpt>
      <trkpt lat="51.42972" lon="6.87618">
        <ele>86.255068</ele>
        <time>2023-04-30T08:38:21.195Z</time>
      </trkpt>
      <trkpt lat="51.42971" lon="6.876">
        <ele>86.248439</ele>
        <time>2023-04-30T08:38:23.187Z</time>
      </trkpt>
      <trkpt lat="51.42969" lon="6.87583">
        <ele>86.241781</ele>
        <time>2023-04-30T08:38:25.199Z</time>
      </trkpt>
      <trkpt lat="51.42968" lon="6.87565">
        <ele>86.234938</ele>
        <time>2023-04-30T08:38:27.178Z</time>
      </trkpt>
      <trkpt lat="51.42967" lon="6.87547">
        <ele>86.22828</ele>
        <time>2023-04-30T08:38:29.189Z</time>
      </trkpt>
      <trkpt lat="51.42965" lon="6.87529">
        <ele>86.221456</ele>
        <time>2023-04-30T08:38:31.196Z</time>
      </trkpt>
      <trkpt lat="51.42963" lon="6.87512">
        <ele>86.214732</ele>
        <time>2023-04-30T08:38:33.193Z</time>
      </trkpt>
      <trkpt lat="51.42963" lon="6.87493">
        <ele>86.207818</ele>
        <time>2023-04-30T08:38:35.183Z</time>
      </trkpt>
      <trkpt lat="51.42961" lon="6.87476">
        <ele>86.201076</ele>
        <time>2023-04-30T08:38:37.196Z</time>
      </trkpt>
      <trkpt lat="51.4296" lon="6.87458">
        <ele>86.194248</ele>
        <time>2023-04-30T08:38:39.186Z</time>
      </trkpt>
      <trkpt lat="51.42959" lon="6.8744">
        <ele>86.187587</ele>
        <time>2023-04-30T08:38:41.207Z</time>
      </trkpt>
      <trkpt lat="51.42958" lon="6.87422">
        <ele>86.180705</ele>
        <time>2023-04-30T08:38:43.185Z</time>
      </trkpt>
      <trkpt lat="51.42957" lon="6.87404">
        <ele>86.174076</ele>
        <time>2023-04-30T08:38:45.201Z</time>
      </trkpt>
      <trkpt lat="51.42955" lon="6.87386">
        <ele>86.167222</ele>
        <time>2023-04-30T08:38:47.186Z</time>
      </trkpt>
      <trkpt lat="51.42954" lon="6.87368">
        <ele>86.16025</ele>
        <time>2023-04-30T08:38:49.189Z</time>
      </trkpt>
      <trkpt lat="51.42954" lon="6.8735">
        <ele>86.153539</ele>
        <time>2023-04-30T08:38:51.184Z</time>
      </trkpt>
      <trkpt lat="51.42954" lon="6.87333">
        <ele>86.163577</ele>
        <time>2023-04-30T08:38:53.215Z</time>
      </trkpt>
      <trkpt lat="51.42954" lon="6.87316">
        <ele>86.223032</ele>
        <time>2023-04-30T08:38:55.186Z</time>
      </trkpt>
      <trkpt lat="51.42953" lon="6.87299">
        <ele>86.281136</ele>
        <time>2023-04-30T08:38:57.190Z</time>
      </trkpt>
      <trkpt lat="51.42952" lon="6.87282">
        <ele>86.341345</ele>
        <time>2023-04-30T08:38:59.192Z</time>
      </trkpt>
      <trkpt lat="51.42952" lon="6.87264">
        <ele>86.403985</ele>
        <time>2023-04-30T08:39:01.179Z</time>
      </trkpt>
      <trkpt lat="51.42952" lon="6.87247">
        <ele>86.465898</ele>
        <time>2023-04-30T08:39:03.197Z</time>
      </trkpt>
      <trkpt lat="51.4295" lon="6.8723">
        <ele>86.526332</ele>
        <time>2023-04-30T08:39:05.200Z</time>
      </trkpt>
      <trkpt lat="51.42949" lon="6.87213">
        <ele>86.585647</ele>
        <time>2023-04-30T08:39:07.190Z</time>
      </trkpt>
      <trkpt lat="51.42948" lon="6.87197">
        <ele>86.64337</ele>
        <time>2023-04-30T08:39:09.192Z</time>
      </trkpt>
      <trkpt lat="51.42948" lon="6.87182">
        <ele>86.695399</ele>
        <time>2023-04-30T08:39:11.163Z</time>
      </trkpt>
      <trkpt lat="51.42947" lon="6.87167">
        <ele>86.746684</ele>
        <time>2023-04-30T08:39:13.189Z</time>
      </trkpt>
      <trkpt lat="51.42947" lon="6.87152">
        <ele>86.801598</ele>
        <time>2023-04-30T08:39:15.186Z</time>
      </trkpt>
      <trkpt lat="51.42946" lon="6.87136">
        <ele>86.858728</ele>
        <time>2023-04-30T08:39:17.200Z</time>
      </trkpt>
      <trkpt lat="51.42946" lon="6.87119">
        <ele>86.917109</ele>
        <time>2023-04-30T08:39:19.209Z</time>
      </trkpt>
      <trkpt lat="51.42945" lon="6.87103">
        <ele>86.971646</ele>
        <time>2023-04-30T08:39:21.188Z</time>
      </trkpt>
      <trkpt lat="51.42945" lon="6.87088">
        <ele>87.027681</ele>
        <time>2023-04-30T08:39:23.191Z</time>
      </trkpt>
      <trkpt lat="51.42944" lon="6.87072">
        <ele>87.083107</ele>
        <time>2023-04-30T08:39:25.198Z</time>
      </trkpt>
      <trkpt lat="51.42943" lon="6.87056">
        <ele>87.137702</ele>
        <time>2023-04-30T08:39:27.182Z</time>
      </trkpt>
      <trkpt lat="51.42943" lon="6.87041">
        <ele>87.232448</ele>
        <time>2023-04-30T08:39:29.199Z</time>
      </trkpt>
      <trkpt lat="51.42943" lon="6.87027">
        <ele>87.363427</ele>
        <time>2023-04-30T08:39:31.201Z</time>
      </trkpt>
      <trkpt lat="51.42942" lon="6.87012">
        <ele>87.491868</ele>
        <time>2023-04-30T08:39:33.188Z</time>
      </trkpt>
      <trkpt lat="51.42942" lon="6.8699">
        <ele>87.683905</ele>
        <time>2023-04-30T08:39:36.189Z</time>
      </trkpt>
      <trkpt lat="51.42942" lon="6.86975">
        <ele>87.822848</ele>
        <time>2023-04-30T08:39:38.184Z</time>
      </trkpt>
      <trkpt lat="51.42942" lon="6.86958">
        <ele>87.967435</ele>
        <time>2023-04-30T08:39:40.183Z</time>
      </trkpt>
      <trkpt lat="51.42941" lon="6.86942">
        <ele>88.115162</ele>
        <time>2023-04-30T08:39:42.187Z</time>
      </trkpt>
      <trkpt lat="51.42941" lon="6.86926">
        <ele>88.25676</ele>
        <time>2023-04-30T08:39:44.195Z</time>
      </trkpt>
      <trkpt lat="51.4294" lon="6.86909">
        <ele>88.402885</ele>
        <time>2023-04-30T08:39:46.187Z</time>
      </trkpt>
      <trkpt lat="51.42939" lon="6.86894">
        <ele>88.536383</ele>
        <time>2023-04-30T08:39:48.176Z</time>
      </trkpt>
      <trkpt lat="51.42938" lon="6.86879">
        <ele>88.668613</ele>
        <time>2023-04-30T08:39:50.205Z</time>
      </trkpt>
      <trkpt lat="51.42938" lon="6.86865">
        <ele>88.798977</ele>
        <time>2023-04-30T08:39:52.174Z</time>
      </trkpt>
      <trkpt lat="51.42937" lon="6.86849">
        <ele>88.934848</ele>
        <time>2023-04-30T08:39:54.201Z</time>
      </trkpt>
      <trkpt lat="51.42935" lon="6.86835">
        <ele>89.064816</ele>
        <time>2023-04-30T08:39:56.182Z</time>
      </trkpt>
      <trkpt lat="51.42934" lon="6.8682">
        <ele>89.202538</ele>
        <time>2023-04-30T08:39:58.185Z</time>
      </trkpt>
      <trkpt lat="51.42933" lon="6.86805">
        <ele>89.336367</ele>
        <time>2023-04-30T08:40:00.170Z</time>
      </trkpt>
      <trkpt lat="51.42932" lon="6.86789">
        <ele>89.470745</ele>
        <time>2023-04-30T08:40:02.178Z</time>
      </trkpt>
      <trkpt lat="51.4293" lon="6.86768">
        <ele>89.660281</ele>
        <time>2023-04-30T08:40:05.190Z</time>
      </trkpt>
      <trkpt lat="51.42928" lon="6.86754">
        <ele>89.708197</ele>
        <time>2023-04-30T08:40:07.186Z</time>
      </trkpt>
      <trkpt lat="51.42926" lon="6.86732">
        <ele>89.688749</ele>
        <time>2023-04-30T08:40:10.202Z</time>
      </trkpt>
      <trkpt lat="51.42924" lon="6.86718">
        <ele>89.67568</ele>
        <time>2023-04-30T08:40:12.194Z</time>
      </trkpt>
      <trkpt lat="51.42922" lon="6.86703">
        <ele>89.66216</ele>
        <time>2023-04-30T08:40:14.181Z</time>
      </trkpt>
      <trkpt lat="51.42921" lon="6.86688">
        <ele>89.648475</ele>
        <time>2023-04-30T08:40:16.174Z</time>
      </trkpt>
      <trkpt lat="51.42919" lon="6.86673">
        <ele>89.634579</ele>
        <time>2023-04-30T08:40:18.208Z</time>
      </trkpt>
      <trkpt lat="51.42917" lon="6.86658">
        <ele>89.621376</ele>
        <time>2023-04-30T08:40:20.182Z</time>
      </trkpt>
      <trkpt lat="51.42915" lon="6.86644">
        <ele>89.608353</ele>
        <time>2023-04-30T08:40:22.184Z</time>
      </trkpt>
      <trkpt lat="51.42913" lon="6.86623">
        <ele>89.589336</ele>
        <time>2023-04-30T08:40:25.189Z</time>
      </trkpt>
      <trkpt lat="51.4291" lon="6.86608">
        <ele>89.576068</ele>
        <time>2023-04-30T08:40:27.206Z</time>
      </trkpt>
      <trkpt lat="51.42908" lon="6.86594">
        <ele>89.563132</ele>
        <time>2023-04-30T08:40:29.191Z</time>
      </trkpt>
      <trkpt lat="51.42906" lon="6.86579">
        <ele>89.548941</ele>
        <time>2023-04-30T08:40:31.180Z</time>
      </trkpt>
      <trkpt lat="51.42904" lon="6.86563">
        <ele>89.534842</ele>
        <time>2023-04-30T08:40:33.183Z</time>
      </trkpt>
      <trkpt lat="51.42902" lon="6.86548">
        <ele>89.520651</ele>
        <time>2023-04-30T08:40:35.188Z</time>
      </trkpt>
      <trkpt lat="51.42899" lon="6.86532">
        <ele>89.506719</ele>
        <time>2023-04-30T08:40:37.191Z</time>
      </trkpt>
      <trkpt lat="51.42898" lon="6.86517">
        <ele>89.492592</ele>
        <time>2023-04-30T08:40:39.192Z</time>
      </trkpt>
      <trkpt lat="51.42896" lon="6.86502">
        <ele>89.47895</ele>
        <time>2023-04-30T08:40:41.185Z</time>
      </trkpt>
      <trkpt lat="51.42895" lon="6.86486">
        <ele>89.464879</ele>
        <time>2023-04-30T08:40:43.195Z</time>
      </trkpt>
      <trkpt lat="51.42892" lon="6.8647">
        <ele>89.515109</ele>
        <time>2023-04-30T08:40:45.196Z</time>
      </trkpt>
      <trkpt lat="51.42891" lon="6.86454">
        <ele>89.608612</ele>
        <time>2023-04-30T08:40:47.202Z</time>
      </trkpt>
      <trkpt lat="51.4289" lon="6.86439">
        <ele>89.69877</ele>
        <time>2023-04-30T08:40:49.187Z</time>
      </trkpt>
      <trkpt lat="51.42889" lon="6.86423">
        <ele>89.793175</ele>
        <time>2023-04-30T08:40:51.187Z</time>
      </trkpt>
      <trkpt lat="51.42889" lon="6.86407">
        <ele>89.881146</ele>
        <time>2023-04-30T08:40:53.185Z</time>
      </trkpt>
      <trkpt lat="51.42888" lon="6.86391">
        <ele>89.974542</ele>
        <time>2023-04-30T08:40:55.182Z</time>
      </trkpt>
      <trkpt lat="51.42887" lon="6.86375">
        <ele>90.072789</ele>
        <time>2023-04-30T08:40:57.187Z</time>
      </trkpt>
      <trkpt lat="51.42883" lon="6.86358">
        <ele>90.174892</ele>
        <time>2023-04-30T08:40:59.177Z</time>
      </trkpt>
      <trkpt lat="51.4288" lon="6.86341">
        <ele>90.278587</ele>
        <time>2023-04-30T08:41:01.178Z</time>
      </trkpt>
      <trkpt lat="51.42877" lon="6.86325">
        <ele>90.375901</ele>
        <time>2023-04-30T08:41:03.202Z</time>
      </trkpt>
      <trkpt lat="51.42877" lon="6.86308">
        <ele>90.476268</ele>
        <time>2023-04-30T08:41:05.185Z</time>
      </trkpt>
      <trkpt lat="51.42875" lon="6.86291">
        <ele>90.573807</ele>
        <time>2023-04-30T08:41:07.196Z</time>
      </trkpt>
      <trkpt lat="51.42873" lon="6.86274">
        <ele>90.67795</ele>
        <time>2023-04-30T08:41:09.188Z</time>
      </trkpt>
      <trkpt lat="51.42871" lon="6.86256">
        <ele>90.781385</ele>
        <time>2023-04-30T08:41:11.205Z</time>
      </trkpt>
      <trkpt lat="51.4287" lon="6.86239">
        <ele>90.884122</ele>
        <time>2023-04-30T08:41:13.191Z</time>
      </trkpt>
      <trkpt lat="51.42868" lon="6.86221">
        <ele>90.985528</ele>
        <time>2023-04-30T08:41:15.197Z</time>
      </trkpt>
      <trkpt lat="51.42866" lon="6.86205">
        <ele>91.085488</ele>
        <time>2023-04-30T08:41:17.187Z</time>
      </trkpt>
      <trkpt lat="51.42864" lon="6.86186">
        <ele>91.119935</ele>
        <time>2023-04-30T08:41:19.188Z</time>
      </trkpt>
      <trkpt lat="51.42862" lon="6.86168">
        <ele>91.082497</ele>
        <time>2023-04-30T08:41:21.198Z</time>
      </trkpt>
      <trkpt lat="51.4286" lon="6.86148">
        <ele>91.043312</ele>
        <time>2023-04-30T08:41:23.198Z</time>
      </trkpt>
      <trkpt lat="51.42858" lon="6.86129">
        <ele>91.005593</ele>
        <time>2023-04-30T08:41:25.187Z</time>
      </trkpt>
      <trkpt lat="51.42856" lon="6.86111">
        <ele>90.968943</ele>
        <time>2023-04-30T08:41:27.170Z</time>
      </trkpt>
      <trkpt lat="51.42853" lon="6.86094">
        <ele>90.93388</ele>
        <time>2023-04-30T08:41:29.183Z</time>
      </trkpt>
      <trkpt lat="51.42852" lon="6.86076">
        <ele>90.898399</ele>
        <time>2023-04-30T08:41:31.183Z</time>
      </trkpt>
      <trkpt lat="51.4285" lon="6.86057">
        <ele>90.860433</ele>
        <time>2023-04-30T08:41:33.195Z</time>
      </trkpt>
      <trkpt lat="51.42847" lon="6.86039">
        <ele>90.825443</ele>
        <time>2023-04-30T08:41:35.181Z</time>
      </trkpt>
      <trkpt lat="51.42846" lon="6.86022">
        <ele>90.790132</ele>
        <time>2023-04-30T08:41:37.186Z</time>
      </trkpt>
      <trkpt lat="51.42844" lon="6.86003">
        <ele>90.753722</ele>
        <time>2023-04-30T08:41:39.185Z</time>
      </trkpt>
      <trkpt lat="51.42843" lon="6.85986">
        <ele>90.719215</ele>
        <time>2023-04-30T08:41:41.199Z</time>
      </trkpt>
      <trkpt lat="51.4284" lon="6.85968">
        <ele>90.683398</ele>
        <time>2023-04-30T08:41:43.186Z</time>
      </trkpt>
      <trkpt lat="51.42839" lon="6.85951">
        <ele>90.648695</ele>
        <time>2023-04-30T08:41:45.187Z</time>
      </trkpt>
      <trkpt lat="51.42837" lon="6.85933">
        <ele>90.613695</ele>
        <time>2023-04-30T08:41:47.180Z</time>
      </trkpt>
      <trkpt lat="51.42834" lon="6.85915">
        <ele>90.576951</ele>
        <time>2023-04-30T08:41:49.186Z</time>
      </trkpt>
      <trkpt lat="51.42832" lon="6.85898">
        <ele>90.718601</ele>
        <time>2023-04-30T08:41:51.211Z</time>
      </trkpt>
      <trkpt lat="51.4283" lon="6.85881">
        <ele>90.906562</ele>
        <time>2023-04-30T08:41:53.196Z</time>
      </trkpt>
      <trkpt lat="51.42829" lon="6.85864">
        <ele>91.084519</ele>
        <time>2023-04-30T08:41:55.197Z</time>
      </trkpt>
      <trkpt lat="51.42827" lon="6.85848">
        <ele>91.26344</ele>
        <time>2023-04-30T08:41:57.176Z</time>
      </trkpt>
      <trkpt lat="51.42825" lon="6.85831">
        <ele>91.447752</ele>
        <time>2023-04-30T08:41:59.186Z</time>
      </trkpt>
      <trkpt lat="51.42824" lon="6.85814">
        <ele>91.633354</ele>
        <time>2023-04-30T08:42:01.189Z</time>
      </trkpt>
      <trkpt lat="51.42822" lon="6.85797">
        <ele>91.812077</ele>
        <time>2023-04-30T08:42:03.199Z</time>
      </trkpt>
      <trkpt lat="51.4282" lon="6.85781">
        <ele>91.990998</ele>
        <time>2023-04-30T08:42:05.187Z</time>
      </trkpt>
      <trkpt lat="51.42817" lon="6.85765">
        <ele>92.168039</ele>
        <time>2023-04-30T08:42:07.167Z</time>
      </trkpt>
      <trkpt lat="51.42815" lon="6.8575">
        <ele>92.337512</ele>
        <time>2023-04-30T08:42:09.194Z</time>
      </trkpt>
      <trkpt lat="51.42812" lon="6.85734">
        <ele>92.512986</ele>
        <time>2023-04-30T08:42:11.178Z</time>
      </trkpt>
      <trkpt lat="51.4281" lon="6.85718">
        <ele>92.686776</ele>
        <time>2023-04-30T08:42:13.212Z</time>
      </trkpt>
      <trkpt lat="51.42807" lon="6.85703">
        <ele>92.849043</ele>
        <time>2023-04-30T08:42:15.175Z</time>
      </trkpt>
      <trkpt lat="51.42805" lon="6.85689">
        <ele>93.006273</ele>
        <time>2023-04-30T08:42:17.187Z</time>
      </trkpt>
      <trkpt lat="51.42802" lon="6.8567">
        <ele>93.210132</ele>
        <time>2023-04-30T08:42:20.204Z</time>
      </trkpt>
      <trkpt lat="51.42799" lon="6.85652">
        <ele>93.413822</ele>
        <time>2023-04-30T08:42:23.175Z</time>
      </trkpt>
      <trkpt lat="51.42791" lon="6.85661">
        <ele>93.577279</ele>
        <time>2023-04-30T08:42:30.176Z</time>
      </trkpt>
      <trkpt lat="51.42787" lon="6.85674">
        <ele>93.592136</ele>
        <time>2023-04-30T08:42:35.184Z</time>
      </trkpt>
      <trkpt lat="51.42781" lon="6.85689">
        <ele>93.44742</ele>
        <time>2023-04-30T08:42:40.188Z</time>
      </trkpt>
      <trkpt lat="51.42779" lon="6.85707">
        <ele>93.303588</ele>
        <time>2023-04-30T08:42:44.196Z</time>
      </trkpt>
      <trkpt lat="51.42772" lon="6.85721">
        <ele>93.159012</ele>
        <time>2023-04-30T08:42:49.204Z</time>
      </trkpt>
      <trkpt lat="51.42761" lon="6.8572">
        <ele>93.013744</ele>
        <time>2023-04-30T08:42:53.182Z</time>
      </trkpt>
      <trkpt lat="51.42751" lon="6.8572">
        <ele>92.882813</ele>
        <time>2023-04-30T08:42:56.173Z</time>
      </trkpt>
      <trkpt lat="51.42741" lon="6.85721">
        <ele>92.756905</ele>
        <time>2023-04-30T08:42:59.218Z</time>
      </trkpt>
      <trkpt lat="51.4273" lon="6.85721">
        <ele>92.616819</ele>
        <time>2023-04-30T08:43:03.191Z</time>
      </trkpt>
      <trkpt lat="51.42721" lon="6.85713">
        <ele>92.479992</ele>
        <time>2023-04-30T08:43:07.175Z</time>
      </trkpt>
      <trkpt lat="51.42721" lon="6.85696">
        <ele>92.340916</ele>
        <time>2023-04-30T08:43:10.175Z</time>
      </trkpt>
      <trkpt lat="51.42724" lon="6.85677">
        <ele>92.183964</ele>
        <time>2023-04-30T08:43:13.187Z</time>
      </trkpt>
      <trkpt lat="51.42727" lon="6.85657">
        <ele>92.021146</ele>
        <time>2023-04-30T08:43:16.173Z</time>
      </trkpt>
      <trkpt lat="51.42729" lon="6.85636">
        <ele>91.847788</ele>
        <time>2023-04-30T08:43:19.185Z</time>
      </trkpt>
      <trkpt lat="51.4273" lon="6.85617">
        <ele>91.6941</ele>
        <time>2023-04-30T08:43:22.201Z</time>
      </trkpt>
      <trkpt lat="51.42728" lon="6.85599">
        <ele>91.545525</ele>
        <time>2023-04-30T08:43:25.179Z</time>
      </trkpt>
      <trkpt lat="51.42722" lon="6.85581">
        <ele>91.380091</ele>
        <time>2023-04-30T08:43:28.182Z</time>
      </trkpt>
      <trkpt lat="51.42719" lon="6.85568">
        <ele>91.163019</ele>
        <time>2023-04-30T08:43:30.171Z</time>
      </trkpt>
      <trkpt lat="51.42715" lon="6.85548">
        <ele>90.702812</ele>
        <time>2023-04-30T08:43:33.174Z</time>
      </trkpt>
      <trkpt lat="51.4271" lon="6.85528">
        <ele>90.244956</ele>
        <time>2023-04-30T08:43:36.175Z</time>
      </trkpt>
      <trkpt lat="51.42705" lon="6.85508">
        <ele>89.768928</ele>
        <time>2023-04-30T08:43:39.179Z</time>
      </trkpt>
      <trkpt lat="51.42702" lon="6.85495">
        <ele>89.443976</ele>
        <time>2023-04-30T08:43:41.179Z</time>
      </trkpt>
      <trkpt lat="51.42699" lon="6.8548">
        <ele>89.092576</ele>
        <time>2023-04-30T08:43:43.176Z</time>
      </trkpt>
      <trkpt lat="51.42696" lon="6.85463">
        <ele>88.708671</ele>
        <time>2023-04-30T08:43:45.176Z</time>
      </trkpt>
      <trkpt lat="51.42691" lon="6.85447">
        <ele>88.314855</ele>
        <time>2023-04-30T08:43:47.188Z</time>
      </trkpt>
      <trkpt lat="51.42687" lon="6.8543">
        <ele>87.915509</ele>
        <time>2023-04-30T08:43:49.180Z</time>
      </trkpt>
      <trkpt lat="51.42683" lon="6.85413">
        <ele>87.514096</ele>
        <time>2023-04-30T08:43:51.190Z</time>
      </trkpt>
      <trkpt lat="51.42679" lon="6.85395">
        <ele>87.097288</ele>
        <time>2023-04-30T08:43:53.178Z</time>
      </trkpt>
      <trkpt lat="51.42676" lon="6.85379">
        <ele>86.711993</ele>
        <time>2023-04-30T08:43:55.197Z</time>
      </trkpt>
      <trkpt lat="51.42674" lon="6.85361">
        <ele>86.320456</ele>
        <time>2023-04-30T08:43:57.176Z</time>
      </trkpt>
      <trkpt lat="51.42675" lon="6.85342">
        <ele>85.906958</ele>
        <time>2023-04-30T08:43:59.187Z</time>
      </trkpt>
      <trkpt lat="51.42679" lon="6.85324">
        <ele>85.471597</ele>
        <time>2023-04-30T08:44:01.176Z</time>
      </trkpt>
      <trkpt lat="51.42687" lon="6.85308">
        <ele>85.030314</ele>
        <time>2023-04-30T08:44:03.178Z</time>
      </trkpt>
      <trkpt lat="51.42697" lon="6.85297">
        <ele>85.020311</ele>
        <time>2023-04-30T08:44:05.172Z</time>
      </trkpt>
      <trkpt lat="51.42708" lon="6.85287">
        <ele>85.110767</ele>
        <time>2023-04-30T08:44:07.166Z</time>
      </trkpt>
      <trkpt lat="51.42718" lon="6.85278">
        <ele>85.195972</ele>
        <time>2023-04-30T08:44:09.168Z</time>
      </trkpt>
      <trkpt lat="51.42728" lon="6.85271">
        <ele>85.271478</ele>
        <time>2023-04-30T08:44:11.200Z</time>
      </trkpt>
      <trkpt lat="51.42737" lon="6.85264">
        <ele>85.346466</ele>
        <time>2023-04-30T08:44:13.186Z</time>
      </trkpt>
      <trkpt lat="51.42745" lon="6.85254">
        <ele>85.415876</ele>
        <time>2023-04-30T08:44:15.178Z</time>
      </trkpt>
      <trkpt lat="51.42752" lon="6.85237">
        <ele>85.506961</ele>
        <time>2023-04-30T08:44:18.175Z</time>
      </trkpt>
      <trkpt lat="51.42755" lon="6.85218">
        <ele>85.594794</ele>
        <time>2023-04-30T08:44:21.197Z</time>
      </trkpt>
      <trkpt lat="51.42757" lon="6.85199">
        <ele>85.682075</ele>
        <time>2023-04-30T08:44:24.188Z</time>
      </trkpt>
      <trkpt lat="51.4276" lon="6.85181">
        <ele>85.764395</ele>
        <time>2023-04-30T08:44:27.196Z</time>
      </trkpt>
      <trkpt lat="51.42762" lon="6.85165">
        <ele>85.838093</ele>
        <time>2023-04-30T08:44:30.178Z</time>
      </trkpt>
      <trkpt lat="51.42764" lon="6.85148">
        <ele>85.913845</ele>
        <time>2023-04-30T08:44:33.199Z</time>
      </trkpt>
      <trkpt lat="51.42767" lon="6.85132">
        <ele>85.988312</ele>
        <time>2023-04-30T08:44:36.177Z</time>
      </trkpt>
      <trkpt lat="51.42769" lon="6.85117">
        <ele>86.057938</ele>
        <time>2023-04-30T08:44:39.191Z</time>
      </trkpt>
      <trkpt lat="51.42772" lon="6.85101">
        <ele>86.134373</ele>
        <time>2023-04-30T08:44:42.175Z</time>
      </trkpt>
      <trkpt lat="51.42775" lon="6.85083">
        <ele>86.214679</ele>
        <time>2023-04-30T08:44:45.202Z</time>
      </trkpt>
      <trkpt lat="51.42778" lon="6.85064">
        <ele>86.305904</ele>
        <time>2023-04-30T08:44:48.190Z</time>
      </trkpt>
      <trkpt lat="51.4278" lon="6.85044">
        <ele>86.398384</ele>
        <time>2023-04-30T08:44:51.184Z</time>
      </trkpt>
      <trkpt lat="51.42784" lon="6.85025">
        <ele>86.49349</ele>
        <time>2023-04-30T08:44:54.182Z</time>
      </trkpt>
      <trkpt lat="51.42785" lon="6.85004">
        <ele>86.592222</ele>
        <time>2023-04-30T08:44:57.185Z</time>
      </trkpt>
      <trkpt lat="51.42787" lon="6.84989">
        <ele>86.660031</ele>
        <time>2023-04-30T08:44:59.171Z</time>
      </trkpt>
      <trkpt lat="51.42788" lon="6.84969">
        <ele>86.754681</ele>
        <time>2023-04-30T08:45:02.182Z</time>
      </trkpt>
      <trkpt lat="51.4279" lon="6.84951">
        <ele>86.83996</ele>
        <time>2023-04-30T08:45:05.189Z</time>
      </trkpt>
      <trkpt lat="51.42792" lon="6.84935">
        <ele>86.917114</ele>
        <time>2023-04-30T08:45:08.191Z</time>
      </trkpt>
      <trkpt lat="51.42792" lon="6.84916">
        <ele>87.005595</ele>
        <time>2023-04-30T08:45:12.161Z</time>
      </trkpt>
      <trkpt lat="51.4279" lon="6.84898">
        <ele>87.090192</ele>
        <time>2023-04-30T08:45:15.183Z</time>
      </trkpt>
      <trkpt lat="51.42786" lon="6.84878">
        <ele>87.187474</ele>
        <time>2023-04-30T08:45:18.164Z</time>
      </trkpt>
      <trkpt lat="51.42779" lon="6.84861">
        <ele>87.282042</ele>
        <time>2023-04-30T08:45:21.178Z</time>
      </trkpt>
      <trkpt lat="51.42769" lon="6.84848">
        <ele>87.378412</ele>
        <time>2023-04-30T08:45:24.219Z</time>
      </trkpt>
      <trkpt lat="51.42758" lon="6.84834">
        <ele>87.478267</ele>
        <time>2023-04-30T08:45:27.167Z</time>
      </trkpt>
      <trkpt lat="51.42751" lon="6.84819">
        <ele>87.571115</ele>
        <time>2023-04-30T08:45:30.177Z</time>
      </trkpt>
      <trkpt lat="51.42744" lon="6.84806">
        <ele>87.588667</ele>
        <time>2023-04-30T08:45:32.178Z</time>
      </trkpt>
      <trkpt lat="51.42737" lon="6.84791">
        <ele>87.599093</ele>
        <time>2023-04-30T08:45:35.201Z</time>
      </trkpt>
      <trkpt lat="51.42729" lon="6.84777">
        <ele>87.609862</ele>
        <time>2023-04-30T08:45:38.178Z</time>
      </trkpt>
      <trkpt lat="51.42722" lon="6.84761">
        <ele>87.620501</ele>
        <time>2023-04-30T08:45:41.196Z</time>
      </trkpt>
      <trkpt lat="51.42715" lon="6.84745">
        <ele>87.630895</ele>
        <time>2023-04-30T08:45:44.188Z</time>
      </trkpt>
      <trkpt lat="51.42708" lon="6.8473">
        <ele>87.641591</ele>
        <time>2023-04-30T08:45:47.196Z</time>
      </trkpt>
      <trkpt lat="51.427" lon="6.84715">
        <ele>87.652426</ele>
        <time>2023-04-30T08:45:50.190Z</time>
      </trkpt>
      <trkpt lat="51.42691" lon="6.847">
        <ele>87.663131</ele>
        <time>2023-04-30T08:45:53.206Z</time>
      </trkpt>
      <trkpt lat="51.42685" lon="6.84686">
        <ele>87.673082</ele>
        <time>2023-04-30T08:45:56.175Z</time>
      </trkpt>
      <trkpt lat="51.42679" lon="6.8467">
        <ele>87.683192</ele>
        <time>2023-04-30T08:45:59.189Z</time>
      </trkpt>
      <trkpt lat="51.42674" lon="6.84652">
        <ele>87.693822</ele>
        <time>2023-04-30T08:46:02.175Z</time>
      </trkpt>
      <trkpt lat="51.4267" lon="6.84635">
        <ele>87.704148</ele>
        <time>2023-04-30T08:46:05.186Z</time>
      </trkpt>
      <trkpt lat="51.42665" lon="6.84617">
        <ele>87.714543</ele>
        <time>2023-04-30T08:46:08.182Z</time>
      </trkpt>
      <trkpt lat="51.4266" lon="6.846">
        <ele>87.72543</ele>
        <time>2023-04-30T08:46:11.191Z</time>
      </trkpt>
      <trkpt lat="51.42655" lon="6.84579">
        <ele>87.737348</ele>
        <time>2023-04-30T08:46:14.176Z</time>
      </trkpt>
      <trkpt lat="51.42651" lon="6.84566">
        <ele>87.708673</ele>
        <time>2023-04-30T08:46:16.218Z</time>
      </trkpt>
      <trkpt lat="51.42647" lon="6.84552">
        <ele>87.666814</ele>
        <time>2023-04-30T08:46:18.181Z</time>
      </trkpt>
      <trkpt lat="51.42642" lon="6.84538">
        <ele>87.623952</ele>
        <time>2023-04-30T08:46:20.184Z</time>
      </trkpt>
      <trkpt lat="51.42638" lon="6.84525">
        <ele>87.582529</ele>
        <time>2023-04-30T08:46:22.180Z</time>
      </trkpt>
      <trkpt lat="51.42634" lon="6.8451">
        <ele>87.540557</ele>
        <time>2023-04-30T08:46:24.194Z</time>
      </trkpt>
      <trkpt lat="51.42634" lon="6.84496">
        <ele>87.500878</ele>
        <time>2023-04-30T08:46:26.173Z</time>
      </trkpt>
      <trkpt lat="51.42632" lon="6.84481">
        <ele>87.458436</ele>
        <time>2023-04-30T08:46:28.183Z</time>
      </trkpt>
      <trkpt lat="51.42627" lon="6.84468">
        <ele>87.417021</ele>
        <time>2023-04-30T08:46:30.182Z</time>
      </trkpt>
      <trkpt lat="51.42625" lon="6.84452">
        <ele>87.37439</ele>
        <time>2023-04-30T08:46:32.186Z</time>
      </trkpt>
      <trkpt lat="51.42624" lon="6.84437">
        <ele>87.33295</ele>
        <time>2023-04-30T08:46:34.176Z</time>
      </trkpt>
      <trkpt lat="51.42623" lon="6.84423">
        <ele>87.293675</ele>
        <time>2023-04-30T08:46:36.185Z</time>
      </trkpt>
      <trkpt lat="51.42621" lon="6.84402">
        <ele>87.236238</ele>
        <time>2023-04-30T08:46:39.189Z</time>
      </trkpt>
      <trkpt lat="51.42619" lon="6.84381">
        <ele>87.178457</ele>
        <time>2023-04-30T08:46:42.183Z</time>
      </trkpt>
      <trkpt lat="51.42618" lon="6.8436">
        <ele>87.121246</ele>
        <time>2023-04-30T08:46:45.196Z</time>
      </trkpt>
      <trkpt lat="51.42616" lon="6.84346">
        <ele>87.081914</ele>
        <time>2023-04-30T08:46:47.180Z</time>
      </trkpt>
      <trkpt lat="51.42616" lon="6.84331">
        <ele>87.041562</ele>
        <time>2023-04-30T08:46:49.166Z</time>
      </trkpt>
      <trkpt lat="51.42621" lon="6.84317">
        <ele>86.998143</ele>
        <time>2023-04-30T08:46:51.185Z</time>
      </trkpt>
      <trkpt lat="51.42621" lon="6.84301">
        <ele>86.955617</ele>
        <time>2023-04-30T08:46:53.180Z</time>
      </trkpt>
      <trkpt lat="51.42614" lon="6.84291">
        <ele>87.105622</ele>
        <time>2023-04-30T08:46:55.174Z</time>
      </trkpt>
      <trkpt lat="51.42603" lon="6.84294">
        <ele>87.306346</ele>
        <time>2023-04-30T08:46:58.180Z</time>
      </trkpt>
      <trkpt lat="51.42597" lon="6.84309">
        <ele>87.484273</ele>
        <time>2023-04-30T08:47:01.171Z</time>
      </trkpt>
      <trkpt lat="51.426" lon="6.84292">
        <ele>87.667113</ele>
        <time>2023-04-30T08:47:12.178Z</time>
      </trkpt>
      <trkpt lat="51.426" lon="6.84277">
        <ele>87.827828</ele>
        <time>2023-04-30T08:47:15.193Z</time>
      </trkpt>
      <trkpt lat="51.42591" lon="6.84263">
        <ele>88.043107</ele>
        <time>2023-04-30T08:47:18.171Z</time>
      </trkpt>
      <trkpt lat="51.42582" lon="6.84251">
        <ele>88.242577</ele>
        <time>2023-04-30T08:47:21.194Z</time>
      </trkpt>
      <trkpt lat="51.42572" lon="6.8424">
        <ele>88.440049</ele>
        <time>2023-04-30T08:47:24.182Z</time>
      </trkpt>
      <trkpt lat="51.42562" lon="6.84231">
        <ele>88.642856</ele>
        <time>2023-04-30T08:47:27.188Z</time>
      </trkpt>
      <trkpt lat="51.42552" lon="6.84223">
        <ele>88.83327</ele>
        <time>2023-04-30T08:47:30.196Z</time>
      </trkpt>
      <trkpt lat="51.42543" lon="6.84217">
        <ele>89.008808</ele>
        <time>2023-04-30T08:47:33.194Z</time>
      </trkpt>
      <trkpt lat="51.42532" lon="6.84211">
        <ele>89.195034</ele>
        <time>2023-04-30T08:47:36.286Z</time>
      </trkpt>
      <trkpt lat="51.42523" lon="6.84203">
        <ele>89.372496</ele>
        <time>2023-04-30T08:47:39.186Z</time>
      </trkpt>
      <trkpt lat="51.42515" lon="6.84193">
        <ele>89.552984</ele>
        <time>2023-04-30T08:47:42.184Z</time>
      </trkpt>
      <trkpt lat="51.42505" lon="6.84186">
        <ele>89.739189</ele>
        <time>2023-04-30T08:47:45.189Z</time>
      </trkpt>
      <trkpt lat="51.42499" lon="6.84174">
        <ele>89.907016</ele>
        <time>2023-04-30T08:47:48.178Z</time>
      </trkpt>
      <trkpt lat="51.42494" lon="6.8416">
        <ele>90.04274</ele>
        <time>2023-04-30T08:47:51.186Z</time>
      </trkpt>
      <trkpt lat="51.4249" lon="6.84146">
        <ele>90.074026</ele>
        <time>2023-04-30T08:47:54.171Z</time>
      </trkpt>
      <trkpt lat="51.4249" lon="6.84129">
        <ele>90.107257</ele>
        <time>2023-04-30T08:47:57.192Z</time>
      </trkpt>
      <trkpt lat="51.42488" lon="6.84112">
        <ele>90.13918</ele>
        <time>2023-04-30T08:48:00.181Z</time>
      </trkpt>
      <trkpt lat="51.42484" lon="6.84095">
        <ele>90.175808</ele>
        <time>2023-04-30T08:48:03.173Z</time>
      </trkpt>
      <trkpt lat="51.42482" lon="6.84078">
        <ele>90.209307</ele>
        <time>2023-04-30T08:48:06.184Z</time>
      </trkpt>
      <trkpt lat="51.4248" lon="6.84061">
        <ele>90.242215</ele>
        <time>2023-04-30T08:48:09.181Z</time>
      </trkpt>
      <trkpt lat="51.42479" lon="6.84044">
        <ele>90.274595</ele>
        <time>2023-04-30T08:48:12.184Z</time>
      </trkpt>
      <trkpt lat="51.42477" lon="6.84029">
        <ele>90.304234</ele>
        <time>2023-04-30T08:48:15.189Z</time>
      </trkpt>
      <trkpt lat="51.42475" lon="6.84015">
        <ele>90.332801</ele>
        <time>2023-04-30T08:48:18.171Z</time>
      </trkpt>
      <trkpt lat="51.42472" lon="6.83999">
        <ele>90.364716</ele>
        <time>2023-04-30T08:48:21.185Z</time>
      </trkpt>
      <trkpt lat="51.42469" lon="6.8398">
        <ele>90.402763</ele>
        <time>2023-04-30T08:48:24.192Z</time>
      </trkpt>
      <trkpt lat="51.42467" lon="6.83962">
        <ele>90.437378</ele>
        <time>2023-04-30T08:48:27.185Z</time>
      </trkpt>
      <trkpt lat="51.42465" lon="6.83946">
        <ele>90.469428</ele>
        <time>2023-04-30T08:48:30.183Z</time>
      </trkpt>
      <trkpt lat="51.42462" lon="6.83928">
        <ele>90.50534</ele>
        <time>2023-04-30T08:48:34.187Z</time>
      </trkpt>
      <trkpt lat="51.42459" lon="6.83914">
        <ele>90.534118</ele>
        <time>2023-04-30T08:48:37.191Z</time>
      </trkpt>
      <trkpt lat="51.42456" lon="6.83896">
        <ele>90.5698</ele>
        <time>2023-04-30T08:48:41.194Z</time>
      </trkpt>
      <trkpt lat="51.42455" lon="6.83878">
        <ele>90.688667</ele>
        <time>2023-04-30T08:48:45.196Z</time>
      </trkpt>
      <trkpt lat="51.42454" lon="6.8386">
        <ele>91.005995</ele>
        <time>2023-04-30T08:48:49.172Z</time>
      </trkpt>
      <trkpt lat="51.42451" lon="6.83842">
        <ele>91.338415</ele>
        <time>2023-04-30T08:48:53.186Z</time>
      </trkpt>
      <trkpt lat="51.4245" lon="6.83827">
        <ele>91.61708</ele>
        <time>2023-04-30T08:48:57.186Z</time>
      </trkpt>
      <trkpt lat="51.42447" lon="6.83809">
        <ele>91.940292</ele>
        <time>2023-04-30T08:49:01.184Z</time>
      </trkpt>
      <trkpt lat="51.42448" lon="6.83792">
        <ele>92.241935</ele>
        <time>2023-04-30T08:49:06.187Z</time>
      </trkpt>
      <trkpt lat="51.42445" lon="6.83778">
        <ele>92.507871</ele>
        <time>2023-04-30T08:49:10.174Z</time>
      </trkpt>
      <trkpt lat="51.42443" lon="6.8376">
        <ele>92.825817</ele>
        <time>2023-04-30T08:49:14.189Z</time>
      </trkpt>
      <trkpt lat="51.42442" lon="6.83744">
        <ele>93.114077</ele>
        <time>2023-04-30T08:49:18.188Z</time>
      </trkpt>
      <trkpt lat="51.42439" lon="6.83726">
        <ele>93.45355</ele>
        <time>2023-04-30T08:49:22.209Z</time>
      </trkpt>
      <trkpt lat="51.42437" lon="6.8371">
        <ele>93.743523</ele>
        <time>2023-04-30T08:49:25.167Z</time>
      </trkpt>
      <trkpt lat="51.42432" lon="6.83691">
        <ele>94.107066</ele>
        <time>2023-04-30T08:49:28.184Z</time>
      </trkpt>
      <trkpt lat="51.42429" lon="6.83672">
        <ele>94.46225</ele>
        <time>2023-04-30T08:49:31.186Z</time>
      </trkpt>
      <trkpt lat="51.42426" lon="6.83658">
        <ele>94.722001</ele>
        <time>2023-04-30T08:49:33.192Z</time>
      </trkpt>
      <trkpt lat="51.42423" lon="6.8364">
        <ele>95.057151</ele>
        <time>2023-04-30T08:49:36.174Z</time>
      </trkpt>
      <trkpt lat="51.42421" lon="6.83624">
        <ele>95.346546</ele>
        <time>2023-04-30T08:49:40.186Z</time>
      </trkpt>
      <trkpt lat="51.42419" lon="6.83607">
        <ele>95.646457</ele>
        <time>2023-04-30T08:49:46.182Z</time>
      </trkpt>
      <trkpt lat="51.42411" lon="6.83617">
        <ele>95.70819</ele>
        <time>2023-04-30T08:49:55.181Z</time>
      </trkpt>
      <trkpt lat="51.42404" lon="6.8363">
        <ele>95.651229</ele>
        <time>2023-04-30T08:50:01.197Z</time>
      </trkpt>
      <trkpt lat="51.42396" lon="6.8364">
        <ele>95.599874</ele>
        <time>2023-04-30T08:50:06.178Z</time>
      </trkpt>
      <trkpt lat="51.42389" lon="6.83649">
        <ele>95.55067</ele>
        <time>2023-04-30T08:50:12.180Z</time>
      </trkpt>
      <trkpt lat="51.42383" lon="6.83636">
        <ele>95.500157</ele>
        <time>2023-04-30T08:50:18.170Z</time>
      </trkpt>
      <trkpt lat="51.42383" lon="6.83619">
        <ele>95.446509</ele>
        <time>2023-04-30T08:50:23.172Z</time>
      </trkpt>
      <trkpt lat="51.4238" lon="6.83602">
        <ele>95.388067</ele>
        <time>2023-04-30T08:50:27.166Z</time>
      </trkpt>
      <trkpt lat="51.42377" lon="6.83586">
        <ele>95.333105</ele>
        <time>2023-04-30T08:50:29.199Z</time>
      </trkpt>
      <trkpt lat="51.42375" lon="6.83568">
        <ele>95.272166</ele>
        <time>2023-04-30T08:50:31.193Z</time>
      </trkpt>
      <trkpt lat="51.42373" lon="6.83548">
        <ele>95.205121</ele>
        <time>2023-04-30T08:50:33.186Z</time>
      </trkpt>
      <trkpt lat="51.4237" lon="6.83528">
        <ele>95.139169</ele>
        <time>2023-04-30T08:50:35.187Z</time>
      </trkpt>
      <trkpt lat="51.42367" lon="6.83509">
        <ele>95.074075</ele>
        <time>2023-04-30T08:50:37.210Z</time>
      </trkpt>
      <trkpt lat="51.42364" lon="6.83491">
        <ele>95.014207</ele>
        <time>2023-04-30T08:50:39.177Z</time>
      </trkpt>
      <trkpt lat="51.42362" lon="6.83474">
        <ele>94.95602</ele>
        <time>2023-04-30T08:50:41.183Z</time>
      </trkpt>
      <trkpt lat="51.42359" lon="6.83457">
        <ele>94.89979</ele>
        <time>2023-04-30T08:50:43.185Z</time>
      </trkpt>
      <trkpt lat="51.42356" lon="6.8344">
        <ele>94.843315</ele>
        <time>2023-04-30T08:50:45.183Z</time>
      </trkpt>
      <trkpt lat="51.42354" lon="6.83424">
        <ele>94.816303</ele>
        <time>2023-04-30T08:50:47.180Z</time>
      </trkpt>
      <trkpt lat="51.4235" lon="6.83408">
        <ele>94.925505</ele>
        <time>2023-04-30T08:50:49.190Z</time>
      </trkpt>
      <trkpt lat="51.42347" lon="6.83392">
        <ele>95.038429</ele>
        <time>2023-04-30T08:50:51.181Z</time>
      </trkpt>
      <trkpt lat="51.42344" lon="6.83377">
        <ele>95.145139</ele>
        <time>2023-04-30T08:50:53.183Z</time>
      </trkpt>
      <trkpt lat="51.4234" lon="6.83362">
        <ele>95.250732</ele>
        <time>2023-04-30T08:50:55.180Z</time>
      </trkpt>
      <trkpt lat="51.42336" lon="6.83347">
        <ele>95.361583</ele>
        <time>2023-04-30T08:50:57.191Z</time>
      </trkpt>
      <trkpt lat="51.42333" lon="6.83332">
        <ele>95.464204</ele>
        <time>2023-04-30T08:50:59.181Z</time>
      </trkpt>
      <trkpt lat="51.42329" lon="6.83317">
        <ele>95.567337</ele>
        <time>2023-04-30T08:51:01.175Z</time>
      </trkpt>
      <trkpt lat="51.42325" lon="6.83304">
        <ele>95.665056</ele>
        <time>2023-04-30T08:51:03.191Z</time>
      </trkpt>
      <trkpt lat="51.42321" lon="6.8329">
        <ele>95.767965</ele>
        <time>2023-04-30T08:51:05.185Z</time>
      </trkpt>
      <trkpt lat="51.42317" lon="6.83277">
        <ele>95.865541</ele>
        <time>2023-04-30T08:51:07.178Z</time>
      </trkpt>
      <trkpt lat="51.42313" lon="6.83264">
        <ele>95.961336</ele>
        <time>2023-04-30T08:51:09.182Z</time>
      </trkpt>
      <trkpt lat="51.42307" lon="6.83245">
        <ele>96.099626</ele>
        <time>2023-04-30T08:51:12.187Z</time>
      </trkpt>
      <trkpt lat="51.423" lon="6.83227">
        <ele>96.239831</ele>
        <time>2023-04-30T08:51:15.198Z</time>
      </trkpt>
      <trkpt lat="51.42293" lon="6.83209">
        <ele>96.380152</ele>
        <time>2023-04-30T08:51:18.180Z</time>
      </trkpt>
      <trkpt lat="51.42286" lon="6.83191">
        <ele>96.517012</ele>
        <time>2023-04-30T08:51:21.192Z</time>
      </trkpt>
      <trkpt lat="51.42281" lon="6.83179">
        <ele>96.616355</ele>
        <time>2023-04-30T08:51:23.182Z</time>
      </trkpt>
      <trkpt lat="51.42274" lon="6.83162">
        <ele>96.777447</ele>
        <time>2023-04-30T08:51:26.184Z</time>
      </trkpt>
      <trkpt lat="51.42269" lon="6.83146">
        <ele>96.970462</ele>
        <time>2023-04-30T08:51:29.190Z</time>
      </trkpt>
      <trkpt lat="51.42262" lon="6.8313">
        <ele>97.169202</ele>
        <time>2023-04-30T08:51:32.187Z</time>
      </trkpt>
      <trkpt lat="51.42257" lon="6.83113">
        <ele>97.377088</ele>
        <time>2023-04-30T08:51:35.195Z</time>
      </trkpt>
      <trkpt lat="51.42251" lon="6.83101">
        <ele>97.530788</ele>
        <time>2023-04-30T08:51:37.189Z</time>
      </trkpt>
      <trkpt lat="51.42245" lon="6.83084">
        <ele>97.746372</ele>
        <time>2023-04-30T08:51:40.174Z</time>
      </trkpt>
      <trkpt lat="51.42238" lon="6.83067">
        <ele>97.956924</ele>
        <time>2023-04-30T08:51:43.187Z</time>
      </trkpt>
      <trkpt lat="51.42232" lon="6.83053">
        <ele>98.140394</ele>
        <time>2023-04-30T08:51:46.186Z</time>
      </trkpt>
      <trkpt lat="51.42226" lon="6.8304">
        <ele>98.312073</ele>
        <time>2023-04-30T08:51:49.195Z</time>
      </trkpt>
      <trkpt lat="51.42219" lon="6.83026">
        <ele>98.499799</ele>
        <time>2023-04-30T08:51:53.184Z</time>
      </trkpt>
      <trkpt lat="51.42211" lon="6.83015">
        <ele>98.667659</ele>
        <time>2023-04-30T08:51:56.170Z</time>
      </trkpt>
      <trkpt lat="51.42205" lon="6.83005">
        <ele>98.821879</ele>
        <time>2023-04-30T08:51:59.202Z</time>
      </trkpt>
      <trkpt lat="51.42198" lon="6.82991">
        <ele>99.018336</ele>
        <time>2023-04-30T08:52:03.188Z</time>
      </trkpt>
      <trkpt lat="51.42188" lon="6.82979">
        <ele>99.215641</ele>
        <time>2023-04-30T08:52:07.154Z</time>
      </trkpt>
      <trkpt lat="51.42181" lon="6.82968">
        <ele>99.383202</ele>
        <time>2023-04-30T08:52:10.178Z</time>
      </trkpt>
      <trkpt lat="51.42175" lon="6.82957">
        <ele>99.543632</ele>
        <time>2023-04-30T08:52:13.182Z</time>
      </trkpt>
      <trkpt lat="51.42166" lon="6.82945">
        <ele>99.743048</ele>
        <time>2023-04-30T08:52:17.176Z</time>
      </trkpt>
      <trkpt lat="51.42159" lon="6.82931">
        <ele>99.862621</ele>
        <time>2023-04-30T08:52:21.182Z</time>
      </trkpt>
      <trkpt lat="51.42151" lon="6.82922">
        <ele>99.970505</ele>
        <time>2023-04-30T08:52:24.174Z</time>
      </trkpt>
      <trkpt lat="51.42144" lon="6.82912">
        <ele>100.0709</ele>
        <time>2023-04-30T08:52:27.171Z</time>
      </trkpt>
      <trkpt lat="51.42137" lon="6.82903">
        <ele>100.171711</ele>
        <time>2023-04-30T08:52:30.176Z</time>
      </trkpt>
      <trkpt lat="51.4213" lon="6.82891">
        <ele>100.276746</ele>
        <time>2023-04-30T08:52:33.189Z</time>
      </trkpt>
      <trkpt lat="51.42124" lon="6.8288">
        <ele>100.376905</ele>
        <time>2023-04-30T08:52:36.191Z</time>
      </trkpt>
      <trkpt lat="51.42117" lon="6.82869">
        <ele>100.482197</ele>
        <time>2023-04-30T08:52:39.189Z</time>
      </trkpt>
      <trkpt lat="51.42108" lon="6.82855">
        <ele>100.609363</ele>
        <time>2023-04-30T08:52:43.191Z</time>
      </trkpt>
      <trkpt lat="51.42101" lon="6.82841">
        <ele>100.731938</ele>
        <time>2023-04-30T08:52:47.186Z</time>
      </trkpt>
      <trkpt lat="51.42094" lon="6.8283">
        <ele>100.837508</ele>
        <time>2023-04-30T08:52:50.183Z</time>
      </trkpt>
      <trkpt lat="51.42083" lon="6.82816">
        <ele>100.987897</ele>
        <time>2023-04-30T08:52:53.184Z</time>
      </trkpt>
      <trkpt lat="51.42075" lon="6.82804">
        <ele>101.100255</ele>
        <time>2023-04-30T08:52:56.158Z</time>
      </trkpt>
      <trkpt lat="51.42069" lon="6.82791">
        <ele>101.213806</ele>
        <time>2023-04-30T08:53:00.176Z</time>
      </trkpt>
      <trkpt lat="51.42062" lon="6.82779">
        <ele>101.320332</ele>
        <time>2023-04-30T08:53:04.190Z</time>
      </trkpt>
      <trkpt lat="51.42054" lon="6.82765">
        <ele>101.444825</ele>
        <time>2023-04-30T08:53:08.190Z</time>
      </trkpt>
      <trkpt lat="51.42046" lon="6.82751">
        <ele>101.574401</ele>
        <time>2023-04-30T08:53:12.178Z</time>
      </trkpt>
      <trkpt lat="51.42037" lon="6.8274">
        <ele>101.69031</ele>
        <time>2023-04-30T08:53:15.187Z</time>
      </trkpt>
      <trkpt lat="51.42028" lon="6.82728">
        <ele>101.802871</ele>
        <time>2023-04-30T08:53:18.181Z</time>
      </trkpt>
      <trkpt lat="51.42022" lon="6.82716">
        <ele>101.905198</ele>
        <time>2023-04-30T08:53:21.188Z</time>
      </trkpt>
      <trkpt lat="51.42013" lon="6.82705">
        <ele>102.016227</ele>
        <time>2023-04-30T08:53:24.186Z</time>
      </trkpt>
      <trkpt lat="51.42005" lon="6.82692">
        <ele>102.125949</ele>
        <time>2023-04-30T08:53:27.171Z</time>
      </trkpt>
      <trkpt lat="51.41998" lon="6.82682">
        <ele>102.214838</ele>
        <time>2023-04-30T08:53:29.190Z</time>
      </trkpt>
      <trkpt lat="51.41991" lon="6.82669">
        <ele>102.32207</ele>
        <time>2023-04-30T08:53:32.177Z</time>
      </trkpt>
      <trkpt lat="51.41983" lon="6.82657">
        <ele>102.431635</ele>
        <time>2023-04-30T08:53:35.177Z</time>
      </trkpt>
      <trkpt lat="51.41973" lon="6.82644">
        <ele>102.553038</ele>
        <time>2023-04-30T08:53:38.185Z</time>
      </trkpt>
      <trkpt lat="51.41965" lon="6.82631">
        <ele>102.669716</ele>
        <time>2023-04-30T08:53:41.187Z</time>
      </trkpt>
      <trkpt lat="51.41956" lon="6.82618">
        <ele>102.788179</ele>
        <time>2023-04-30T08:53:44.184Z</time>
      </trkpt>
      <trkpt lat="51.41947" lon="6.82606">
        <ele>102.903945</ele>
        <time>2023-04-30T08:53:47.189Z</time>
      </trkpt>
      <trkpt lat="51.41938" lon="6.82593">
        <ele>103.020942</ele>
        <time>2023-04-30T08:53:50.189Z</time>
      </trkpt>
      <trkpt lat="51.41931" lon="6.82579">
        <ele>103.136323</ele>
        <time>2023-04-30T08:53:53.191Z</time>
      </trkpt>
      <trkpt lat="51.41923" lon="6.82566">
        <ele>103.246426</ele>
        <time>2023-04-30T08:53:56.176Z</time>
      </trkpt>
      <trkpt lat="51.41914" lon="6.82551">
        <ele>103.37006</ele>
        <time>2023-04-30T08:53:59.166Z</time>
      </trkpt>
      <trkpt lat="51.41907" lon="6.82542">
        <ele>103.425684</ele>
        <time>2023-04-30T08:54:03.195Z</time>
      </trkpt>
      <trkpt lat="51.41906" lon="6.82541">
        <ele>103.40962</ele>
        <time>2023-04-30T08:54:07.591Z</time>
      </trkpt>
      <trkpt lat="51.41812" lon="6.82367">
        <ele>100.800029</ele>
        <time>2023-04-30T09:07:59.205Z</time>
      </trkpt>
      <trkpt lat="51.41805" lon="6.82354">
        <ele>100.594761</ele>
        <time>2023-04-30T09:08:03.170Z</time>
      </trkpt>
      <trkpt lat="51.41799" lon="6.82341">
        <ele>100.412925</ele>
        <time>2023-04-30T09:08:06.165Z</time>
      </trkpt>
      <trkpt lat="51.41793" lon="6.82326">
        <ele>100.215533</ele>
        <time>2023-04-30T09:08:09.176Z</time>
      </trkpt>
      <trkpt lat="51.41786" lon="6.82313">
        <ele>100.3627</ele>
        <time>2023-04-30T09:08:12.182Z</time>
      </trkpt>
      <trkpt lat="51.41779" lon="6.82302">
        <ele>100.573528</ele>
        <time>2023-04-30T09:08:15.181Z</time>
      </trkpt>
      <trkpt lat="51.41771" lon="6.82292">
        <ele>100.774516</ele>
        <time>2023-04-30T09:08:18.174Z</time>
      </trkpt>
      <trkpt lat="51.41766" lon="6.8228">
        <ele>100.973945</ele>
        <time>2023-04-30T09:08:24.168Z</time>
      </trkpt>
      <trkpt lat="51.4176" lon="6.82267">
        <ele>101.18883</ele>
        <time>2023-04-30T09:08:31.174Z</time>
      </trkpt>
      <trkpt lat="51.41749" lon="6.82265">
        <ele>101.428556</ele>
        <time>2023-04-30T09:08:35.176Z</time>
      </trkpt>
      <trkpt lat="51.41739" lon="6.82266">
        <ele>101.630802</ele>
        <time>2023-04-30T09:08:38.161Z</time>
      </trkpt>
      <trkpt lat="51.41728" lon="6.82268">
        <ele>101.86128</ele>
        <time>2023-04-30T09:08:41.190Z</time>
      </trkpt>
      <trkpt lat="51.41716" lon="6.82272">
        <ele>102.133327</ele>
        <time>2023-04-30T09:08:44.171Z</time>
      </trkpt>
      <trkpt lat="51.41703" lon="6.82277">
        <ele>102.413483</ele>
        <time>2023-04-30T09:08:47.186Z</time>
      </trkpt>
      <trkpt lat="51.4169" lon="6.82282">
        <ele>102.688034</ele>
        <time>2023-04-30T09:08:50.158Z</time>
      </trkpt>
      <trkpt lat="51.41681" lon="6.82285">
        <ele>102.893228</ele>
        <time>2023-04-30T09:08:52.175Z</time>
      </trkpt>
      <trkpt lat="51.41668" lon="6.82291">
        <ele>103.174503</ele>
        <time>2023-04-30T09:08:55.176Z</time>
      </trkpt>
      <trkpt lat="51.41656" lon="6.82296">
        <ele>103.436378</ele>
        <time>2023-04-30T09:08:58.194Z</time>
      </trkpt>
      <trkpt lat="51.41645" lon="6.82301">
        <ele>103.682846</ele>
        <time>2023-04-30T09:09:01.184Z</time>
      </trkpt>
      <trkpt lat="51.41634" lon="6.82305">
        <ele>103.918392</ele>
        <time>2023-04-30T09:09:04.189Z</time>
      </trkpt>
      <trkpt lat="51.41622" lon="6.8231">
        <ele>104.186631</ele>
        <time>2023-04-30T09:09:07.191Z</time>
      </trkpt>
      <trkpt lat="51.4161" lon="6.82314">
        <ele>104.440428</ele>
        <time>2023-04-30T09:09:10.170Z</time>
      </trkpt>
      <trkpt lat="51.416" lon="6.82318">
        <ele>104.677001</ele>
        <time>2023-04-30T09:09:13.196Z</time>
      </trkpt>
      <trkpt lat="51.41589" lon="6.82324">
        <ele>104.921531</ele>
        <time>2023-04-30T09:09:16.182Z</time>
      </trkpt>
      <trkpt lat="51.41577" lon="6.82329">
        <ele>105.190721</ele>
        <time>2023-04-30T09:09:19.178Z</time>
      </trkpt>
      <trkpt lat="51.41565" lon="6.82334">
        <ele>105.461027</ele>
        <time>2023-04-30T09:09:22.174Z</time>
      </trkpt>
      <trkpt lat="51.41554" lon="6.82338">
        <ele>105.699681</ele>
        <time>2023-04-30T09:09:25.174Z</time>
      </trkpt>
      <trkpt lat="51.41543" lon="6.82342">
        <ele>105.938406</ele>
        <time>2023-04-30T09:09:28.185Z</time>
      </trkpt>
      <trkpt lat="51.41533" lon="6.82345">
        <ele>106.163932</ele>
        <time>2023-04-30T09:09:31.181Z</time>
      </trkpt>
      <trkpt lat="51.41522" lon="6.82347">
        <ele>106.407928</ele>
        <time>2023-04-30T09:09:35.178Z</time>
      </trkpt>
      <trkpt lat="51.41512" lon="6.82349">
        <ele>106.623064</ele>
        <time>2023-04-30T09:09:39.188Z</time>
      </trkpt>
      <trkpt lat="51.41503" lon="6.82351">
        <ele>106.818141</ele>
        <time>2023-04-30T09:09:43.185Z</time>
      </trkpt>
      <trkpt lat="51.41492" lon="6.82353">
        <ele>107.039359</ele>
        <time>2023-04-30T09:09:47.172Z</time>
      </trkpt>
      <trkpt lat="51.41483" lon="6.82354">
        <ele>107.240358</ele>
        <time>2023-04-30T09:09:51.190Z</time>
      </trkpt>
      <trkpt lat="51.41473" lon="6.82355">
        <ele>107.449849</ele>
        <time>2023-04-30T09:09:55.172Z</time>
      </trkpt>
      <trkpt lat="51.41464" lon="6.82357">
        <ele>107.645979</ele>
        <time>2023-04-30T09:09:59.177Z</time>
      </trkpt>
      <trkpt lat="51.41454" lon="6.82359">
        <ele>107.885385</ele>
        <time>2023-04-30T09:10:04.172Z</time>
      </trkpt>
      <trkpt lat="51.41444" lon="6.82359">
        <ele>108.30961</ele>
        <time>2023-04-30T09:10:09.178Z</time>
      </trkpt>
      <trkpt lat="51.41434" lon="6.8236">
        <ele>108.713244</ele>
        <time>2023-04-30T09:10:14.171Z</time>
      </trkpt>
      <trkpt lat="51.41424" lon="6.82361">
        <ele>109.131726</ele>
        <time>2023-04-30T09:10:18.185Z</time>
      </trkpt>
      <trkpt lat="51.41415" lon="6.82362">
        <ele>109.514264</ele>
        <time>2023-04-30T09:10:22.174Z</time>
      </trkpt>
      <trkpt lat="51.41405" lon="6.82359">
        <ele>109.963179</ele>
        <time>2023-04-30T09:10:27.164Z</time>
      </trkpt>
      <trkpt lat="51.41395" lon="6.82359">
        <ele>110.358308</ele>
        <time>2023-04-30T09:10:31.196Z</time>
      </trkpt>
      <trkpt lat="51.41385" lon="6.82357">
        <ele>110.774311</ele>
        <time>2023-04-30T09:10:36.165Z</time>
      </trkpt>
      <trkpt lat="51.41376" lon="6.82355">
        <ele>111.184154</ele>
        <time>2023-04-30T09:10:41.174Z</time>
      </trkpt>
      <trkpt lat="51.41367" lon="6.82354">
        <ele>111.568956</ele>
        <time>2023-04-30T09:10:45.174Z</time>
      </trkpt>
      <trkpt lat="51.41356" lon="6.82353">
        <ele>112.018748</ele>
        <time>2023-04-30T09:10:50.181Z</time>
      </trkpt>
      <trkpt lat="51.41345" lon="6.82351">
        <ele>112.464225</ele>
        <time>2023-04-30T09:10:55.167Z</time>
      </trkpt>
      <trkpt lat="51.41336" lon="6.82348">
        <ele>112.884769</ele>
        <time>2023-04-30T09:10:59.182Z</time>
      </trkpt>
      <trkpt lat="51.41326" lon="6.82345">
        <ele>113.287231</ele>
        <time>2023-04-30T09:11:04.167Z</time>
      </trkpt>
      <trkpt lat="51.41317" lon="6.82341">
        <ele>113.70427</ele>
        <time>2023-04-30T09:11:09.165Z</time>
      </trkpt>
      <trkpt lat="51.41307" lon="6.82339">
        <ele>114.098741</ele>
        <time>2023-04-30T09:11:14.175Z</time>
      </trkpt>
      <trkpt lat="51.41297" lon="6.82337">
        <ele>114.530676</ele>
        <time>2023-04-30T09:11:19.167Z</time>
      </trkpt>
      <trkpt lat="51.41287" lon="6.82332">
        <ele>114.964248</ele>
        <time>2023-04-30T09:11:24.156Z</time>
      </trkpt>
      <trkpt lat="51.41277" lon="6.82329">
        <ele>115.394322</ele>
        <time>2023-04-30T09:11:29.178Z</time>
      </trkpt>
      <trkpt lat="51.41266" lon="6.82324">
        <ele>115.820946</ele>
        <time>2023-04-30T09:11:34.170Z</time>
      </trkpt>
      <trkpt lat="51.41255" lon="6.82322">
        <ele>116.226406</ele>
        <time>2023-04-30T09:11:38.175Z</time>
      </trkpt>
      <trkpt lat="51.41245" lon="6.82321">
        <ele>116.600989</ele>
        <time>2023-04-30T09:11:42.186Z</time>
      </trkpt>
      <trkpt lat="51.41234" lon="6.82318">
        <ele>116.998439</ele>
        <time>2023-04-30T09:11:46.164Z</time>
      </trkpt>
      <trkpt lat="51.41224" lon="6.82315">
        <ele>117.378402</ele>
        <time>2023-04-30T09:11:50.173Z</time>
      </trkpt>
      <trkpt lat="51.41214" lon="6.82308">
        <ele>117.767672</ele>
        <time>2023-04-30T09:11:54.175Z</time>
      </trkpt>
      <trkpt lat="51.41204" lon="6.82303">
        <ele>118.162545</ele>
        <time>2023-04-30T09:11:58.155Z</time>
      </trkpt>
      <trkpt lat="51.41193" lon="6.823">
        <ele>118.578063</ele>
        <time>2023-04-30T09:12:02.164Z</time>
      </trkpt>
      <trkpt lat="51.41184" lon="6.82295">
        <ele>118.922712</ele>
        <time>2023-04-30T09:12:06.166Z</time>
      </trkpt>
      <trkpt lat="51.41182" lon="6.82281">
        <ele>119.255965</ele>
        <time>2023-04-30T09:12:10.176Z</time>
      </trkpt>
      <trkpt lat="51.4117" lon="6.82274">
        <ele>119.735215</ele>
        <time>2023-04-30T09:12:35.174Z</time>
      </trkpt>
      <trkpt lat="51.4116" lon="6.82275">
        <ele>120.06963</ele>
        <time>2023-04-30T09:12:39.172Z</time>
      </trkpt>
      <trkpt lat="51.41151" lon="6.82267">
        <ele>120.45515</ele>
        <time>2023-04-30T09:12:43.170Z</time>
      </trkpt>
      <trkpt lat="51.41142" lon="6.82259">
        <ele>120.834163</ele>
        <time>2023-04-30T09:12:47.192Z</time>
      </trkpt>
      <trkpt lat="51.41132" lon="6.8225">
        <ele>121.246674</ele>
        <time>2023-04-30T09:12:51.180Z</time>
      </trkpt>
      <trkpt lat="51.41124" lon="6.82242">
        <ele>121.600631</ele>
        <time>2023-04-30T09:12:54.176Z</time>
      </trkpt>
      <trkpt lat="51.41115" lon="6.82234">
        <ele>121.968909</ele>
        <time>2023-04-30T09:12:57.179Z</time>
      </trkpt>
      <trkpt lat="51.41107" lon="6.82227">
        <ele>122.145577</ele>
        <time>2023-04-30T09:13:00.157Z</time>
      </trkpt>
      <trkpt lat="51.41097" lon="6.8222">
        <ele>122.307635</ele>
        <time>2023-04-30T09:13:03.172Z</time>
      </trkpt>
      <trkpt lat="51.41087" lon="6.82212">
        <ele>122.486167</ele>
        <time>2023-04-30T09:13:06.195Z</time>
      </trkpt>
      <trkpt lat="51.41076" lon="6.82205">
        <ele>122.675642</ele>
        <time>2023-04-30T09:13:09.174Z</time>
      </trkpt>
      <trkpt lat="51.41065" lon="6.822">
        <ele>122.861762</ele>
        <time>2023-04-30T09:13:12.181Z</time>
      </trkpt>
      <trkpt lat="51.41054" lon="6.82195">
        <ele>123.040978</ele>
        <time>2023-04-30T09:13:15.173Z</time>
      </trkpt>
      <trkpt lat="51.41043" lon="6.82191">
        <ele>123.220528</ele>
        <time>2023-04-30T09:13:18.192Z</time>
      </trkpt>
      <trkpt lat="51.41032" lon="6.82187">
        <ele>123.391637</ele>
        <time>2023-04-30T09:13:21.182Z</time>
      </trkpt>
      <trkpt lat="51.41023" lon="6.82183">
        <ele>123.545094</ele>
        <time>2023-04-30T09:13:24.174Z</time>
      </trkpt>
      <trkpt lat="51.41014" lon="6.82179">
        <ele>123.69095</ele>
        <time>2023-04-30T09:13:27.192Z</time>
      </trkpt>
      <trkpt lat="51.41005" lon="6.82175">
        <ele>123.848372</ele>
        <time>2023-04-30T09:13:30.172Z</time>
      </trkpt>
      <trkpt lat="51.40995" lon="6.8217">
        <ele>124.01567</ele>
        <time>2023-04-30T09:13:34.168Z</time>
      </trkpt>
      <trkpt lat="51.40984" lon="6.82169">
        <ele>124.17758</ele>
        <time>2023-04-30T09:13:40.161Z</time>
      </trkpt>
      <trkpt lat="51.40974" lon="6.82164">
        <ele>124.353218</ele>
        <time>2023-04-30T09:13:45.176Z</time>
      </trkpt>
      <trkpt lat="51.40964" lon="6.8216">
        <ele>124.522039</ele>
        <time>2023-04-30T09:13:48.176Z</time>
      </trkpt>
      <trkpt lat="51.40953" lon="6.82155">
        <ele>124.693615</ele>
        <time>2023-04-30T09:13:52.170Z</time>
      </trkpt>
      <trkpt lat="51.40943" lon="6.82151">
        <ele>124.855245</ele>
        <time>2023-04-30T09:13:56.170Z</time>
      </trkpt>
      <trkpt lat="51.40938" lon="6.82139">
        <ele>124.915255</ele>
        <time>2023-04-30T09:14:08.178Z</time>
      </trkpt>
      <trkpt lat="51.40937" lon="6.82138">
        <ele>124.920402</ele>
        <time>2023-04-30T09:14:13.667Z</time>
      </trkpt>
      <trkpt lat="51.40922" lon="6.82143">
        <ele>125.00957</ele>
        <time>2023-04-30T09:19:11.196Z</time>
      </trkpt>
      <trkpt lat="51.40914" lon="6.82138">
        <ele>125.064221</ele>
        <time>2023-04-30T09:19:17.170Z</time>
      </trkpt>
      <trkpt lat="51.40904" lon="6.82137">
        <ele>125.122423</ele>
        <time>2023-04-30T09:20:16.190Z</time>
      </trkpt>
      <trkpt lat="51.40895" lon="6.82131">
        <ele>125.180789</ele>
        <time>2023-04-30T09:20:21.162Z</time>
      </trkpt>
      <trkpt lat="51.40883" lon="6.82124">
        <ele>125.255181</ele>
        <time>2023-04-30T09:20:25.170Z</time>
      </trkpt>
      <trkpt lat="51.40872" lon="6.82118">
        <ele>125.325323</ele>
        <time>2023-04-30T09:20:28.171Z</time>
      </trkpt>
      <trkpt lat="51.4086" lon="6.82115">
        <ele>125.399997</ele>
        <time>2023-04-30T09:20:31.179Z</time>
      </trkpt>
      <trkpt lat="51.40848" lon="6.8211">
        <ele>125.47243</ele>
        <time>2023-04-30T09:20:34.172Z</time>
      </trkpt>
      <trkpt lat="51.40836" lon="6.82103">
        <ele>125.549529</ele>
        <time>2023-04-30T09:20:37.180Z</time>
      </trkpt>
      <trkpt lat="51.40826" lon="6.82099">
        <ele>125.611622</ele>
        <time>2023-04-30T09:20:39.166Z</time>
      </trkpt>
      <trkpt lat="51.40817" lon="6.82093">
        <ele>125.66991</ele>
        <time>2023-04-30T09:20:41.182Z</time>
      </trkpt>
      <trkpt lat="51.40808" lon="6.82089">
        <ele>125.726511</ele>
        <time>2023-04-30T09:20:43.172Z</time>
      </trkpt>
      <trkpt lat="51.40797" lon="6.82085">
        <ele>125.79073</ele>
        <time>2023-04-30T09:20:46.162Z</time>
      </trkpt>
      <trkpt lat="51.40785" lon="6.82081">
        <ele>125.864609</ele>
        <time>2023-04-30T09:20:49.171Z</time>
      </trkpt>
      <trkpt lat="51.40773" lon="6.82076">
        <ele>125.924844</ele>
        <time>2023-04-30T09:20:52.192Z</time>
      </trkpt>
      <trkpt lat="51.40761" lon="6.82069">
        <ele>125.723702</ele>
        <time>2023-04-30T09:20:55.174Z</time>
      </trkpt>
      <trkpt lat="51.40751" lon="6.82065">
        <ele>125.580183</ele>
        <time>2023-04-30T09:20:57.183Z</time>
      </trkpt>
      <trkpt lat="51.40743" lon="6.82061">
        <ele>125.439761</ele>
        <time>2023-04-30T09:20:59.170Z</time>
      </trkpt>
      <trkpt lat="51.40733" lon="6.82055">
        <ele>125.288597</ele>
        <time>2023-04-30T09:21:01.187Z</time>
      </trkpt>
      <trkpt lat="51.40724" lon="6.8205">
        <ele>125.145497</ele>
        <time>2023-04-30T09:21:03.188Z</time>
      </trkpt>
      <trkpt lat="51.40713" lon="6.82041">
        <ele>124.959845</ele>
        <time>2023-04-30T09:21:06.167Z</time>
      </trkpt>
      <trkpt lat="51.40702" lon="6.82028">
        <ele>124.756159</ele>
        <time>2023-04-30T09:21:09.172Z</time>
      </trkpt>
      <trkpt lat="51.40695" lon="6.82019">
        <ele>124.610573</ele>
        <time>2023-04-30T09:21:11.169Z</time>
      </trkpt>
      <trkpt lat="51.40688" lon="6.82009">
        <ele>124.470893</ele>
        <time>2023-04-30T09:21:13.183Z</time>
      </trkpt>
      <trkpt lat="51.40681" lon="6.81999">
        <ele>124.328624</ele>
        <time>2023-04-30T09:21:15.171Z</time>
      </trkpt>
      <trkpt lat="51.40673" lon="6.81989">
        <ele>124.170628</ele>
        <time>2023-04-30T09:21:17.173Z</time>
      </trkpt>
      <trkpt lat="51.40665" lon="6.81978">
        <ele>124.02534</ele>
        <time>2023-04-30T09:21:19.195Z</time>
      </trkpt>
      <trkpt lat="51.40655" lon="6.81964">
        <ele>123.816661</ele>
        <time>2023-04-30T09:21:22.174Z</time>
      </trkpt>
      <trkpt lat="51.40648" lon="6.81954">
        <ele>123.672215</ele>
        <time>2023-04-30T09:21:24.171Z</time>
      </trkpt>
      <trkpt lat="51.4064" lon="6.81944">
        <ele>123.52892</ele>
        <time>2023-04-30T09:21:26.178Z</time>
      </trkpt>
      <trkpt lat="51.40633" lon="6.81934">
        <ele>123.380398</ele>
        <time>2023-04-30T09:21:28.173Z</time>
      </trkpt>
      <trkpt lat="51.40625" lon="6.81923">
        <ele>123.22905</ele>
        <time>2023-04-30T09:21:30.171Z</time>
      </trkpt>
      <trkpt lat="51.40617" lon="6.8191">
        <ele>122.824878</ele>
        <time>2023-04-30T09:21:32.171Z</time>
      </trkpt>
      <trkpt lat="51.40611" lon="6.81898">
        <ele>122.443038</ele>
        <time>2023-04-30T09:21:34.185Z</time>
      </trkpt>
      <trkpt lat="51.40604" lon="6.81886">
        <ele>122.063871</ele>
        <time>2023-04-30T09:21:36.166Z</time>
      </trkpt>
      <trkpt lat="51.40597" lon="6.81873">
        <ele>121.664186</ele>
        <time>2023-04-30T09:21:38.172Z</time>
      </trkpt>
      <trkpt lat="51.40588" lon="6.8186">
        <ele>121.223073</ele>
        <time>2023-04-30T09:21:40.171Z</time>
      </trkpt>
      <trkpt lat="51.4058" lon="6.81846">
        <ele>120.776905</ele>
        <time>2023-04-30T09:21:42.189Z</time>
      </trkpt>
      <trkpt lat="51.40573" lon="6.81832">
        <ele>120.34501</ele>
        <time>2023-04-30T09:21:44.181Z</time>
      </trkpt>
      <trkpt lat="51.40564" lon="6.81817">
        <ele>119.892796</ele>
        <time>2023-04-30T09:21:46.166Z</time>
      </trkpt>
      <trkpt lat="51.40556" lon="6.81801">
        <ele>119.403161</ele>
        <time>2023-04-30T09:21:48.178Z</time>
      </trkpt>
      <trkpt lat="51.40547" lon="6.81787">
        <ele>118.935771</ele>
        <time>2023-04-30T09:21:50.171Z</time>
      </trkpt>
      <trkpt lat="51.40539" lon="6.81772">
        <ele>118.462439</ele>
        <time>2023-04-30T09:21:52.173Z</time>
      </trkpt>
      <trkpt lat="51.40529" lon="6.81757">
        <ele>117.973892</ele>
        <time>2023-04-30T09:21:54.165Z</time>
      </trkpt>
      <trkpt lat="51.40521" lon="6.81742">
        <ele>117.513994</ele>
        <time>2023-04-30T09:21:56.163Z</time>
      </trkpt>
      <trkpt lat="51.40511" lon="6.81726">
        <ele>116.989702</ele>
        <time>2023-04-30T09:21:58.168Z</time>
      </trkpt>
      <trkpt lat="51.40501" lon="6.81711">
        <ele>116.415683</ele>
        <time>2023-04-30T09:22:00.167Z</time>
      </trkpt>
      <trkpt lat="51.4049" lon="6.81695">
        <ele>115.140449</ele>
        <time>2023-04-30T09:22:02.171Z</time>
      </trkpt>
      <trkpt lat="51.40479" lon="6.81678">
        <ele>113.754065</ele>
        <time>2023-04-30T09:22:04.172Z</time>
      </trkpt>
      <trkpt lat="51.40468" lon="6.8166">
        <ele>112.347319</ele>
        <time>2023-04-30T09:22:06.178Z</time>
      </trkpt>
      <trkpt lat="51.40456" lon="6.81643">
        <ele>110.91359</ele>
        <time>2023-04-30T09:22:08.179Z</time>
      </trkpt>
      <trkpt lat="51.40443" lon="6.81626">
        <ele>109.462542</ele>
        <time>2023-04-30T09:22:10.182Z</time>
      </trkpt>
      <trkpt lat="51.40429" lon="6.81613">
        <ele>108.027091</ele>
        <time>2023-04-30T09:22:12.185Z</time>
      </trkpt>
      <trkpt lat="51.40415" lon="6.816">
        <ele>106.553535</ele>
        <time>2023-04-30T09:22:14.172Z</time>
      </trkpt>
      <trkpt lat="51.40399" lon="6.81588">
        <ele>104.995762</ele>
        <time>2023-04-30T09:22:16.168Z</time>
      </trkpt>
      <trkpt lat="51.40391" lon="6.81581">
        <ele>104.188696</ele>
        <time>2023-04-30T09:22:17.177Z</time>
      </trkpt>
      <trkpt lat="51.40375" lon="6.81566">
        <ele>102.583511</ele>
        <time>2023-04-30T09:22:19.189Z</time>
      </trkpt>
      <trkpt lat="51.40367" lon="6.81559">
        <ele>101.745184</ele>
        <time>2023-04-30T09:22:20.182Z</time>
      </trkpt>
      <trkpt lat="51.40359" lon="6.8155">
        <ele>100.913096</ele>
        <time>2023-04-30T09:22:21.182Z</time>
      </trkpt>
      <trkpt lat="51.40352" lon="6.8154">
        <ele>100.024635</ele>
        <time>2023-04-30T09:22:22.166Z</time>
      </trkpt>
      <trkpt lat="51.40344" lon="6.81531">
        <ele>99.100899</ele>
        <time>2023-04-30T09:22:23.179Z</time>
      </trkpt>
      <trkpt lat="51.40336" lon="6.81522">
        <ele>98.164764</ele>
        <time>2023-04-30T09:22:24.167Z</time>
      </trkpt>
      <trkpt lat="51.40328" lon="6.81513">
        <ele>97.210262</ele>
        <time>2023-04-30T09:22:25.151Z</time>
      </trkpt>
      <trkpt lat="51.4032" lon="6.81503">
        <ele>96.25659</ele>
        <time>2023-04-30T09:22:26.167Z</time>
      </trkpt>
      <trkpt lat="51.40312" lon="6.81493">
        <ele>95.289977</ele>
        <time>2023-04-30T09:22:27.184Z</time>
      </trkpt>
      <trkpt lat="51.40304" lon="6.81484">
        <ele>94.271113</ele>
        <time>2023-04-30T09:22:28.177Z</time>
      </trkpt>
      <trkpt lat="51.40295" lon="6.81475">
        <ele>93.298847</ele>
        <time>2023-04-30T09:22:29.177Z</time>
      </trkpt>
      <trkpt lat="51.40287" lon="6.81466">
        <ele>92.333201</ele>
        <time>2023-04-30T09:22:30.171Z</time>
      </trkpt>
      <trkpt lat="51.40278" lon="6.81459">
        <ele>91.416347</ele>
        <time>2023-04-30T09:22:31.184Z</time>
      </trkpt>
      <trkpt lat="51.4027" lon="6.81452">
        <ele>90.51103</ele>
        <time>2023-04-30T09:22:32.166Z</time>
      </trkpt>
      <trkpt lat="51.40262" lon="6.81445">
        <ele>89.628062</ele>
        <time>2023-04-30T09:22:33.172Z</time>
      </trkpt>
      <trkpt lat="51.40246" lon="6.81432">
        <ele>87.944373</ele>
        <time>2023-04-30T09:22:35.182Z</time>
      </trkpt>
      <trkpt lat="51.40237" lon="6.81427">
        <ele>87.026465</ele>
        <time>2023-04-30T09:22:36.166Z</time>
      </trkpt>
      <trkpt lat="51.40228" lon="6.8142">
        <ele>86.057218</ele>
        <time>2023-04-30T09:22:37.179Z</time>
      </trkpt>
      <trkpt lat="51.40219" lon="6.81414">
        <ele>85.082323</ele>
        <time>2023-04-30T09:22:38.187Z</time>
      </trkpt>
      <trkpt lat="51.4021" lon="6.81407">
        <ele>84.096173</ele>
        <time>2023-04-30T09:22:39.171Z</time>
      </trkpt>
      <trkpt lat="51.402" lon="6.814">
        <ele>83.199789</ele>
        <time>2023-04-30T09:22:40.181Z</time>
      </trkpt>
      <trkpt lat="51.40191" lon="6.81392">
        <ele>82.753482</ele>
        <time>2023-04-30T09:22:41.174Z</time>
      </trkpt>
      <trkpt lat="51.40181" lon="6.81385">
        <ele>82.295349</ele>
        <time>2023-04-30T09:22:42.163Z</time>
      </trkpt>
      <trkpt lat="51.4017" lon="6.81378">
        <ele>81.823643</ele>
        <time>2023-04-30T09:22:43.173Z</time>
      </trkpt>
      <trkpt lat="51.4016" lon="6.8137">
        <ele>81.339422</ele>
        <time>2023-04-30T09:22:44.175Z</time>
      </trkpt>
      <trkpt lat="51.4015" lon="6.81363">
        <ele>80.874241</ele>
        <time>2023-04-30T09:22:45.167Z</time>
      </trkpt>
      <trkpt lat="51.4014" lon="6.81355">
        <ele>80.418833</ele>
        <time>2023-04-30T09:22:46.188Z</time>
      </trkpt>
      <trkpt lat="51.4013" lon="6.81347">
        <ele>79.980189</ele>
        <time>2023-04-30T09:22:47.166Z</time>
      </trkpt>
      <trkpt lat="51.40121" lon="6.8134">
        <ele>79.53614</ele>
        <time>2023-04-30T09:22:48.171Z</time>
      </trkpt>
      <trkpt lat="51.40111" lon="6.81333">
        <ele>79.099627</ele>
        <time>2023-04-30T09:22:49.191Z</time>
      </trkpt>
      <trkpt lat="51.40103" lon="6.81327">
        <ele>78.701732</ele>
        <time>2023-04-30T09:22:50.172Z</time>
      </trkpt>
      <trkpt lat="51.40094" lon="6.81321">
        <ele>78.320144</ele>
        <time>2023-04-30T09:22:51.186Z</time>
      </trkpt>
      <trkpt lat="51.40086" lon="6.81314">
        <ele>77.931461</ele>
        <time>2023-04-30T09:22:52.186Z</time>
      </trkpt>
      <trkpt lat="51.40077" lon="6.81308">
        <ele>77.527963</ele>
        <time>2023-04-30T09:22:53.177Z</time>
      </trkpt>
      <trkpt lat="51.40068" lon="6.81303">
        <ele>77.142912</ele>
        <time>2023-04-30T09:22:54.175Z</time>
      </trkpt>
      <trkpt lat="51.4006" lon="6.81297">
        <ele>76.764014</ele>
        <time>2023-04-30T09:22:55.180Z</time>
      </trkpt>
      <trkpt lat="51.40044" lon="6.81285">
        <ele>76.019028</ele>
        <time>2023-04-30T09:22:57.178Z</time>
      </trkpt>
      <trkpt lat="51.40028" lon="6.81275">
        <ele>75.703637</ele>
        <time>2023-04-30T09:22:59.188Z</time>
      </trkpt>
      <trkpt lat="51.40014" lon="6.81264">
        <ele>75.607067</ele>
        <time>2023-04-30T09:23:01.174Z</time>
      </trkpt>
      <trkpt lat="51.4" lon="6.81252">
        <ele>75.514723</ele>
        <time>2023-04-30T09:23:03.171Z</time>
      </trkpt>
      <trkpt lat="51.39987" lon="6.81238">
        <ele>75.420606</ele>
        <time>2023-04-30T09:23:05.169Z</time>
      </trkpt>
      <trkpt lat="51.39978" lon="6.81221">
        <ele>75.337561</ele>
        <time>2023-04-30T09:23:07.169Z</time>
      </trkpt>
      <trkpt lat="51.39971" lon="6.812">
        <ele>75.250252</ele>
        <time>2023-04-30T09:23:09.171Z</time>
      </trkpt>
      <trkpt lat="51.39964" lon="6.81181">
        <ele>75.170429</ele>
        <time>2023-04-30T09:23:11.154Z</time>
      </trkpt>
      <trkpt lat="51.39959" lon="6.81164">
        <ele>75.096406</ele>
        <time>2023-04-30T09:23:13.154Z</time>
      </trkpt>
      <trkpt lat="51.39952" lon="6.81144">
        <ele>75.013074</ele>
        <time>2023-04-30T09:23:15.183Z</time>
      </trkpt>
      <trkpt lat="51.39946" lon="6.81123">
        <ele>74.929293</ele>
        <time>2023-04-30T09:23:17.172Z</time>
      </trkpt>
      <trkpt lat="51.39941" lon="6.81104">
        <ele>74.851179</ele>
        <time>2023-04-30T09:23:19.174Z</time>
      </trkpt>
      <trkpt lat="51.39935" lon="6.81088">
        <ele>74.783502</ele>
        <time>2023-04-30T09:23:21.172Z</time>
      </trkpt>
      <trkpt lat="51.39929" lon="6.81072">
        <ele>74.713626</ele>
        <time>2023-04-30T09:23:23.176Z</time>
      </trkpt>
      <trkpt lat="51.39925" lon="6.81055">
        <ele>74.715167</ele>
        <time>2023-04-30T09:23:25.161Z</time>
      </trkpt>
      <trkpt lat="51.3992" lon="6.81038">
        <ele>74.737916</ele>
        <time>2023-04-30T09:23:27.174Z</time>
      </trkpt>
      <trkpt lat="51.39914" lon="6.81022">
        <ele>74.761219</ele>
        <time>2023-04-30T09:23:29.163Z</time>
      </trkpt>
      <trkpt lat="51.39909" lon="6.81006">
        <ele>74.782775</ele>
        <time>2023-04-30T09:23:31.177Z</time>
      </trkpt>
      <trkpt lat="51.39903" lon="6.8099">
        <ele>74.805568</ele>
        <time>2023-04-30T09:23:33.168Z</time>
      </trkpt>
      <trkpt lat="51.39898" lon="6.80975">
        <ele>74.826911</ele>
        <time>2023-04-30T09:23:35.174Z</time>
      </trkpt>
      <trkpt lat="51.39892" lon="6.80959">
        <ele>74.848766</ele>
        <time>2023-04-30T09:23:37.170Z</time>
      </trkpt>
      <trkpt lat="51.39887" lon="6.80943">
        <ele>74.871049</ele>
        <time>2023-04-30T09:23:39.175Z</time>
      </trkpt>
      <trkpt lat="51.39883" lon="6.80926">
        <ele>74.893143</ele>
        <time>2023-04-30T09:23:41.184Z</time>
      </trkpt>
      <trkpt lat="51.39878" lon="6.8091">
        <ele>74.914879</ele>
        <time>2023-04-30T09:23:43.187Z</time>
      </trkpt>
      <trkpt lat="51.39872" lon="6.80893">
        <ele>74.938473</ele>
        <time>2023-04-30T09:23:45.173Z</time>
      </trkpt>
      <trkpt lat="51.39867" lon="6.80878">
        <ele>74.959707</ele>
        <time>2023-04-30T09:23:47.197Z</time>
      </trkpt>
      <trkpt lat="51.39861" lon="6.80863">
        <ele>74.981914</ele>
        <time>2023-04-30T09:23:49.169Z</time>
      </trkpt>
      <trkpt lat="51.39855" lon="6.80848">
        <ele>75.003365</ele>
        <time>2023-04-30T09:23:51.172Z</time>
      </trkpt>
      <trkpt lat="51.3985" lon="6.80833">
        <ele>75.024599</ele>
        <time>2023-04-30T09:23:53.177Z</time>
      </trkpt>
      <trkpt lat="51.39844" lon="6.80817">
        <ele>75.046176</ele>
        <time>2023-04-30T09:23:55.169Z</time>
      </trkpt>
      <trkpt lat="51.39839" lon="6.80803">
        <ele>75.013216</ele>
        <time>2023-04-30T09:23:57.180Z</time>
      </trkpt>
      <trkpt lat="51.39833" lon="6.80789">
        <ele>74.968731</ele>
        <time>2023-04-30T09:23:59.152Z</time>
      </trkpt>
      <trkpt lat="51.39828" lon="6.80774">
        <ele>74.922933</ele>
        <time>2023-04-30T09:24:01.169Z</time>
      </trkpt>
      <trkpt lat="51.39823" lon="6.80759">
        <ele>74.878398</ele>
        <time>2023-04-30T09:24:03.184Z</time>
      </trkpt>
      <trkpt lat="51.39818" lon="6.80744">
        <ele>74.833639</ele>
        <time>2023-04-30T09:24:05.187Z</time>
      </trkpt>
      <trkpt lat="51.39813" lon="6.80729">
        <ele>74.787971</ele>
        <time>2023-04-30T09:24:07.180Z</time>
      </trkpt>
      <trkpt lat="51.39808" lon="6.80714">
        <ele>74.742586</ele>
        <time>2023-04-30T09:24:09.168Z</time>
      </trkpt>
      <trkpt lat="51.39802" lon="6.807">
        <ele>74.697881</ele>
        <time>2023-04-30T09:24:11.175Z</time>
      </trkpt>
      <trkpt lat="51.39797" lon="6.80685">
        <ele>74.653312</ele>
        <time>2023-04-30T09:24:13.176Z</time>
      </trkpt>
      <trkpt lat="51.39792" lon="6.8067">
        <ele>74.609036</ele>
        <time>2023-04-30T09:24:15.170Z</time>
      </trkpt>
      <trkpt lat="51.39787" lon="6.80657">
        <ele>74.568385</ele>
        <time>2023-04-30T09:24:17.174Z</time>
      </trkpt>
      <trkpt lat="51.39782" lon="6.80645">
        <ele>74.529094</ele>
        <time>2023-04-30T09:24:19.187Z</time>
      </trkpt>
      <trkpt lat="51.39777" lon="6.80632">
        <ele>74.490255</ele>
        <time>2023-04-30T09:24:21.175Z</time>
      </trkpt>
      <trkpt lat="51.39769" lon="6.80616">
        <ele>74.43449</ele>
        <time>2023-04-30T09:24:24.173Z</time>
      </trkpt>
      <trkpt lat="51.39761" lon="6.80604">
        <ele>74.38851</ele>
        <time>2023-04-30T09:24:27.169Z</time>
      </trkpt>
      <trkpt lat="51.39752" lon="6.80593">
        <ele>74.34232</ele>
        <time>2023-04-30T09:24:31.181Z</time>
      </trkpt>
      <trkpt lat="51.39743" lon="6.80598">
        <ele>74.301771</ele>
        <time>2023-04-30T09:24:34.152Z</time>
      </trkpt>
      <trkpt lat="51.39733" lon="6.80604">
        <ele>74.43917</ele>
        <time>2023-04-30T09:24:37.160Z</time>
      </trkpt>
      <trkpt lat="51.39724" lon="6.8061">
        <ele>74.644216</ele>
        <time>2023-04-30T09:24:40.172Z</time>
      </trkpt>
      <trkpt lat="51.39713" lon="6.80616">
        <ele>74.866445</ele>
        <time>2023-04-30T09:24:44.173Z</time>
      </trkpt>
      <trkpt lat="51.39704" lon="6.80622">
        <ele>75.0733</ele>
        <time>2023-04-30T09:24:48.190Z</time>
      </trkpt>
      <trkpt lat="51.39694" lon="6.80626">
        <ele>75.273952</ele>
        <time>2023-04-30T09:24:51.173Z</time>
      </trkpt>
      <trkpt lat="51.39685" lon="6.80631">
        <ele>75.469197</ele>
        <time>2023-04-30T09:24:53.176Z</time>
      </trkpt>
      <trkpt lat="51.39676" lon="6.80636">
        <ele>75.661649</ele>
        <time>2023-04-30T09:24:55.175Z</time>
      </trkpt>
      <trkpt lat="51.39664" lon="6.8064">
        <ele>75.928824</ele>
        <time>2023-04-30T09:24:58.189Z</time>
      </trkpt>
      <trkpt lat="51.39651" lon="6.80645">
        <ele>76.190582</ele>
        <time>2023-04-30T09:25:01.189Z</time>
      </trkpt>
      <trkpt lat="51.39639" lon="6.80652">
        <ele>76.456489</ele>
        <time>2023-04-30T09:25:04.158Z</time>
      </trkpt>
      <trkpt lat="51.39628" lon="6.80659">
        <ele>76.70012</ele>
        <time>2023-04-30T09:25:07.193Z</time>
      </trkpt>
      <trkpt lat="51.39618" lon="6.80664">
        <ele>76.915275</ele>
        <time>2023-04-30T09:25:10.169Z</time>
      </trkpt>
      <trkpt lat="51.39607" lon="6.80669">
        <ele>77.138915</ele>
        <time>2023-04-30T09:25:13.172Z</time>
      </trkpt>
      <trkpt lat="51.39596" lon="6.80674">
        <ele>77.38691</ele>
        <time>2023-04-30T09:25:16.164Z</time>
      </trkpt>
      <trkpt lat="51.39583" lon="6.80679">
        <ele>77.652721</ele>
        <time>2023-04-30T09:25:19.180Z</time>
      </trkpt>
      <trkpt lat="51.39573" lon="6.80684">
        <ele>77.869444</ele>
        <time>2023-04-30T09:25:22.164Z</time>
      </trkpt>
      <trkpt lat="51.39561" lon="6.80689">
        <ele>77.981554</ele>
        <time>2023-04-30T09:25:25.168Z</time>
      </trkpt>
      <trkpt lat="51.39549" lon="6.80695">
        <ele>78.005352</ele>
        <time>2023-04-30T09:25:28.176Z</time>
      </trkpt>
      <trkpt lat="51.39536" lon="6.807">
        <ele>78.032357</ele>
        <time>2023-04-30T09:25:31.170Z</time>
      </trkpt>
      <trkpt lat="51.39524" lon="6.80707">
        <ele>78.057128</ele>
        <time>2023-04-30T09:25:34.170Z</time>
      </trkpt>
      <trkpt lat="51.39512" lon="6.80711">
        <ele>78.081907</ele>
        <time>2023-04-30T09:25:37.177Z</time>
      </trkpt>
      <trkpt lat="51.39499" lon="6.80717">
        <ele>78.108529</ele>
        <time>2023-04-30T09:25:40.175Z</time>
      </trkpt>
      <trkpt lat="51.39487" lon="6.80723">
        <ele>78.132985</ele>
        <time>2023-04-30T09:25:43.162Z</time>
      </trkpt>
      <trkpt lat="51.39475" lon="6.80728">
        <ele>78.157305</ele>
        <time>2023-04-30T09:25:46.172Z</time>
      </trkpt>
      <trkpt lat="51.39463" lon="6.80733">
        <ele>78.183418</ele>
        <time>2023-04-30T09:25:49.171Z</time>
      </trkpt>
      <trkpt lat="51.39451" lon="6.80741">
        <ele>78.208787</ele>
        <time>2023-04-30T09:25:52.176Z</time>
      </trkpt>
      <trkpt lat="51.39438" lon="6.80748">
        <ele>78.234618</ele>
        <time>2023-04-30T09:25:55.173Z</time>
      </trkpt>
      <trkpt lat="51.39426" lon="6.80755">
        <ele>78.260949</ele>
        <time>2023-04-30T09:25:58.166Z</time>
      </trkpt>
      <trkpt lat="51.39413" lon="6.80757">
        <ele>78.287201</ele>
        <time>2023-04-30T09:26:01.182Z</time>
      </trkpt>
      <trkpt lat="51.394" lon="6.80761">
        <ele>78.313439</ele>
        <time>2023-04-30T09:26:04.174Z</time>
      </trkpt>
      <trkpt lat="51.39391" lon="6.80765">
        <ele>78.29774</ele>
        <time>2023-04-30T09:26:06.172Z</time>
      </trkpt>
      <trkpt lat="51.39382" lon="6.80769">
        <ele>78.256849</ele>
        <time>2023-04-30T09:26:08.168Z</time>
      </trkpt>
      <trkpt lat="51.39373" lon="6.80774">
        <ele>78.213617</ele>
        <time>2023-04-30T09:26:10.167Z</time>
      </trkpt>
      <trkpt lat="51.39361" lon="6.80779">
        <ele>78.155611</ele>
        <time>2023-04-30T09:26:13.185Z</time>
      </trkpt>
      <trkpt lat="51.39348" lon="6.80787">
        <ele>78.096501</ele>
        <time>2023-04-30T09:26:16.173Z</time>
      </trkpt>
      <trkpt lat="51.39336" lon="6.80793">
        <ele>78.038374</ele>
        <time>2023-04-30T09:26:19.176Z</time>
      </trkpt>
      <trkpt lat="51.39323" lon="6.80799">
        <ele>77.975016</ele>
        <time>2023-04-30T09:26:22.170Z</time>
      </trkpt>
      <trkpt lat="51.39311" lon="6.80806">
        <ele>77.918077</ele>
        <time>2023-04-30T09:26:25.167Z</time>
      </trkpt>
      <trkpt lat="51.39299" lon="6.80812">
        <ele>77.862723</ele>
        <time>2023-04-30T09:26:28.171Z</time>
      </trkpt>
      <trkpt lat="51.39287" lon="6.80818">
        <ele>77.803208</ele>
        <time>2023-04-30T09:26:31.184Z</time>
      </trkpt>
      <trkpt lat="51.39275" lon="6.80824">
        <ele>77.745515</ele>
        <time>2023-04-30T09:26:34.171Z</time>
      </trkpt>
      <trkpt lat="51.39262" lon="6.80827">
        <ele>77.687303</ele>
        <time>2023-04-30T09:26:37.172Z</time>
      </trkpt>
      <trkpt lat="51.3925" lon="6.80832">
        <ele>77.630538</ele>
        <time>2023-04-30T09:26:40.172Z</time>
      </trkpt>
      <trkpt lat="51.3924" lon="6.80837">
        <ele>77.58428</ele>
        <time>2023-04-30T09:26:43.171Z</time>
      </trkpt>
      <trkpt lat="51.39229" lon="6.80843">
        <ele>77.530048</ele>
        <time>2023-04-30T09:26:46.181Z</time>
      </trkpt>
      <trkpt lat="51.39218" lon="6.8085">
        <ele>77.55842</ele>
        <time>2023-04-30T09:26:49.170Z</time>
      </trkpt>
      <trkpt lat="51.39207" lon="6.80858">
        <ele>77.660179</ele>
        <time>2023-04-30T09:26:52.171Z</time>
      </trkpt>
      <trkpt lat="51.39197" lon="6.80863">
        <ele>77.747519</ele>
        <time>2023-04-30T09:26:55.176Z</time>
      </trkpt>
      <trkpt lat="51.39187" lon="6.80866">
        <ele>77.835151</ele>
        <time>2023-04-30T09:26:59.178Z</time>
      </trkpt>
      <trkpt lat="51.39178" lon="6.8087">
        <ele>77.91202</ele>
        <time>2023-04-30T09:27:04.163Z</time>
      </trkpt>
      <trkpt lat="51.39169" lon="6.80868">
        <ele>77.993047</ele>
        <time>2023-04-30T09:27:09.171Z</time>
      </trkpt>
      <trkpt lat="51.39158" lon="6.8087">
        <ele>78.085782</ele>
        <time>2023-04-30T09:27:13.163Z</time>
      </trkpt>
      <trkpt lat="51.39148" lon="6.80875">
        <ele>78.176034</ele>
        <time>2023-04-30T09:27:16.183Z</time>
      </trkpt>
      <trkpt lat="51.39135" lon="6.8088">
        <ele>78.282908</ele>
        <time>2023-04-30T09:27:19.188Z</time>
      </trkpt>
      <trkpt lat="51.39125" lon="6.80886">
        <ele>78.374828</ele>
        <time>2023-04-30T09:27:22.171Z</time>
      </trkpt>
      <trkpt lat="51.39113" lon="6.80892">
        <ele>78.483642</ele>
        <time>2023-04-30T09:27:25.168Z</time>
      </trkpt>
      <trkpt lat="51.39102" lon="6.80898">
        <ele>78.5797</ele>
        <time>2023-04-30T09:27:28.186Z</time>
      </trkpt>
      <trkpt lat="51.39091" lon="6.80903">
        <ele>78.679748</ele>
        <time>2023-04-30T09:27:31.183Z</time>
      </trkpt>
      <trkpt lat="51.39081" lon="6.80906">
        <ele>78.760847</ele>
        <time>2023-04-30T09:27:33.178Z</time>
      </trkpt>
      <trkpt lat="51.3907" lon="6.80913">
        <ele>78.864038</ele>
        <time>2023-04-30T09:27:36.165Z</time>
      </trkpt>
      <trkpt lat="51.39059" lon="6.8092">
        <ele>78.964757</ele>
        <time>2023-04-30T09:27:39.198Z</time>
      </trkpt>
      <trkpt lat="51.39047" lon="6.80923">
        <ele>79.01237</ele>
        <time>2023-04-30T09:27:42.168Z</time>
      </trkpt>
      <trkpt lat="51.39035" lon="6.8093">
        <ele>78.970654</ele>
        <time>2023-04-30T09:27:45.170Z</time>
      </trkpt>
      <trkpt lat="51.39023" lon="6.80935">
        <ele>78.929672</ele>
        <time>2023-04-30T09:27:48.156Z</time>
      </trkpt>
      <trkpt lat="51.39011" lon="6.8094">
        <ele>78.889222</ele>
        <time>2023-04-30T09:27:51.172Z</time>
      </trkpt>
      <trkpt lat="51.39001" lon="6.80945">
        <ele>78.857156</ele>
        <time>2023-04-30T09:27:53.173Z</time>
      </trkpt>
      <trkpt lat="51.38989" lon="6.80952">
        <ele>78.814284</ele>
        <time>2023-04-30T09:27:56.160Z</time>
      </trkpt>
      <trkpt lat="51.38977" lon="6.80957">
        <ele>78.774761</ele>
        <time>2023-04-30T09:27:59.177Z</time>
      </trkpt>
      <trkpt lat="51.38964" lon="6.80962">
        <ele>78.731416</ele>
        <time>2023-04-30T09:28:02.174Z</time>
      </trkpt>
      <trkpt lat="51.38952" lon="6.80969">
        <ele>78.687911</ele>
        <time>2023-04-30T09:28:05.177Z</time>
      </trkpt>
      <trkpt lat="51.38939" lon="6.80975">
        <ele>78.644571</ele>
        <time>2023-04-30T09:28:08.174Z</time>
      </trkpt>
      <trkpt lat="51.3893" lon="6.80979">
        <ele>78.613261</ele>
        <time>2023-04-30T09:28:12.180Z</time>
      </trkpt>
      <trkpt lat="51.3892" lon="6.80985">
        <ele>78.580294</ele>
        <time>2023-04-30T09:28:18.158Z</time>
      </trkpt>
      <trkpt lat="51.38912" lon="6.80992">
        <ele>78.550557</ele>
        <time>2023-04-30T09:28:22.180Z</time>
      </trkpt>
      <trkpt lat="51.38902" lon="6.80996">
        <ele>78.515846</ele>
        <time>2023-04-30T09:28:26.169Z</time>
      </trkpt>
      <trkpt lat="51.38893" lon="6.81">
        <ele>78.484852</ele>
        <time>2023-04-30T09:28:29.182Z</time>
      </trkpt>
      <trkpt lat="51.38883" lon="6.81004">
        <ele>78.451336</ele>
        <time>2023-04-30T09:28:32.190Z</time>
      </trkpt>
      <trkpt lat="51.38873" lon="6.81009">
        <ele>78.491969</ele>
        <time>2023-04-30T09:28:35.174Z</time>
      </trkpt>
      <trkpt lat="51.38863" lon="6.81014">
        <ele>78.56624</ele>
        <time>2023-04-30T09:28:38.170Z</time>
      </trkpt>
      <trkpt lat="51.38853" lon="6.81019">
        <ele>78.641499</ele>
        <time>2023-04-30T09:28:41.165Z</time>
      </trkpt>
      <trkpt lat="51.3884" lon="6.81022">
        <ele>78.732005</ele>
        <time>2023-04-30T09:28:44.172Z</time>
      </trkpt>
      <trkpt lat="51.38828" lon="6.81029">
        <ele>78.818529</ele>
        <time>2023-04-30T09:28:47.168Z</time>
      </trkpt>
      <trkpt lat="51.38816" lon="6.81033">
        <ele>78.901119</ele>
        <time>2023-04-30T09:28:50.174Z</time>
      </trkpt>
      <trkpt lat="51.38804" lon="6.81038">
        <ele>78.991658</ele>
        <time>2023-04-30T09:28:53.191Z</time>
      </trkpt>
      <trkpt lat="51.38792" lon="6.81045">
        <ele>79.077164</ele>
        <time>2023-04-30T09:28:56.155Z</time>
      </trkpt>
      <trkpt lat="51.38781" lon="6.81051">
        <ele>79.162467</ele>
        <time>2023-04-30T09:28:59.175Z</time>
      </trkpt>
      <trkpt lat="51.38772" lon="6.81055">
        <ele>79.22531</ele>
        <time>2023-04-30T09:29:01.165Z</time>
      </trkpt>
      <trkpt lat="51.38764" lon="6.8106">
        <ele>79.288979</ele>
        <time>2023-04-30T09:29:03.192Z</time>
      </trkpt>
      <trkpt lat="51.38753" lon="6.81065">
        <ele>79.367103</ele>
        <time>2023-04-30T09:29:06.166Z</time>
      </trkpt>
      <trkpt lat="51.38749" lon="6.81051">
        <ele>79.433311</ele>
        <time>2023-04-30T09:29:12.157Z</time>
      </trkpt>
      <trkpt lat="51.38739" lon="6.81051">
        <ele>79.509345</ele>
        <time>2023-04-30T09:29:17.173Z</time>
      </trkpt>
      <trkpt lat="51.38729" lon="6.81057">
        <ele>79.577036</ele>
        <time>2023-04-30T09:29:20.166Z</time>
      </trkpt>
      <trkpt lat="51.38719" lon="6.81062">
        <ele>79.653431</ele>
        <time>2023-04-30T09:29:23.169Z</time>
      </trkpt>
      <trkpt lat="51.38708" lon="6.81068">
        <ele>79.754815</ele>
        <time>2023-04-30T09:29:26.166Z</time>
      </trkpt>
      <trkpt lat="51.38696" lon="6.81072">
        <ele>79.873101</ele>
        <time>2023-04-30T09:29:29.159Z</time>
      </trkpt>
      <trkpt lat="51.38684" lon="6.81077">
        <ele>79.990034</ele>
        <time>2023-04-30T09:29:32.179Z</time>
      </trkpt>
      <trkpt lat="51.38673" lon="6.81083">
        <ele>80.109914</ele>
        <time>2023-04-30T09:29:35.177Z</time>
      </trkpt>
      <trkpt lat="51.38661" lon="6.81089">
        <ele>80.227354</ele>
        <time>2023-04-30T09:29:38.196Z</time>
      </trkpt>
      <trkpt lat="51.3865" lon="6.81093">
        <ele>80.341572</ele>
        <time>2023-04-30T09:29:41.169Z</time>
      </trkpt>
      <trkpt lat="51.38638" lon="6.81099">
        <ele>80.464536</ele>
        <time>2023-04-30T09:29:44.176Z</time>
      </trkpt>
      <trkpt lat="51.38626" lon="6.81105">
        <ele>80.591972</ele>
        <time>2023-04-30T09:29:47.183Z</time>
      </trkpt>
      <trkpt lat="51.38614" lon="6.81112">
        <ele>80.716981</ele>
        <time>2023-04-30T09:29:50.171Z</time>
      </trkpt>
      <trkpt lat="51.38603" lon="6.81118">
        <ele>80.835167</ele>
        <time>2023-04-30T09:29:53.182Z</time>
      </trkpt>
      <trkpt lat="51.3859" lon="6.81124">
        <ele>80.966395</ele>
        <time>2023-04-30T09:29:56.163Z</time>
      </trkpt>
      <trkpt lat="51.38581" lon="6.81128">
        <ele>81.058102</ele>
        <time>2023-04-30T09:29:58.169Z</time>
      </trkpt>
      <trkpt lat="51.38568" lon="6.81134">
        <ele>81.187955</ele>
        <time>2023-04-30T09:30:01.180Z</time>
      </trkpt>
      <trkpt lat="51.38556" lon="6.8114">
        <ele>81.316686</ele>
        <time>2023-04-30T09:30:04.177Z</time>
      </trkpt>
      <trkpt lat="51.38544" lon="6.81147">
        <ele>81.441652</ele>
        <time>2023-04-30T09:30:07.190Z</time>
      </trkpt>
      <trkpt lat="51.38531" lon="6.81152">
        <ele>81.405133</ele>
        <time>2023-04-30T09:30:10.188Z</time>
      </trkpt>
      <trkpt lat="51.38519" lon="6.81158">
        <ele>81.318834</ele>
        <time>2023-04-30T09:30:13.174Z</time>
      </trkpt>
      <trkpt lat="51.3851" lon="6.81162">
        <ele>81.259376</ele>
        <time>2023-04-30T09:30:15.175Z</time>
      </trkpt>
      <trkpt lat="51.38501" lon="6.81166">
        <ele>81.198211</ele>
        <time>2023-04-30T09:30:17.175Z</time>
      </trkpt>
      <trkpt lat="51.38491" lon="6.8117">
        <ele>81.135094</ele>
        <time>2023-04-30T09:30:19.182Z</time>
      </trkpt>
      <trkpt lat="51.38482" lon="6.81175">
        <ele>81.071815</ele>
        <time>2023-04-30T09:30:21.185Z</time>
      </trkpt>
      <trkpt lat="51.38473" lon="6.8118">
        <ele>81.006445</ele>
        <time>2023-04-30T09:30:23.197Z</time>
      </trkpt>
      <trkpt lat="51.38463" lon="6.81185">
        <ele>80.940398</ele>
        <time>2023-04-30T09:30:25.174Z</time>
      </trkpt>
      <trkpt lat="51.38453" lon="6.8119">
        <ele>80.876237</ele>
        <time>2023-04-30T09:30:27.171Z</time>
      </trkpt>
      <trkpt lat="51.38444" lon="6.81196">
        <ele>80.811972</ele>
        <time>2023-04-30T09:30:29.191Z</time>
      </trkpt>
      <trkpt lat="51.38436" lon="6.81201">
        <ele>80.751782</ele>
        <time>2023-04-30T09:30:31.174Z</time>
      </trkpt>
      <trkpt lat="51.38427" lon="6.81205">
        <ele>80.691582</ele>
        <time>2023-04-30T09:30:33.165Z</time>
      </trkpt>
      <trkpt lat="51.38418" lon="6.81209">
        <ele>80.63178</ele>
        <time>2023-04-30T09:30:35.175Z</time>
      </trkpt>
      <trkpt lat="51.38409" lon="6.81214">
        <ele>80.570374</ele>
        <time>2023-04-30T09:30:37.175Z</time>
      </trkpt>
      <trkpt lat="51.38399" lon="6.81219">
        <ele>80.505733</ele>
        <time>2023-04-30T09:30:39.184Z</time>
      </trkpt>
      <trkpt lat="51.3839" lon="6.81223">
        <ele>80.442513</ele>
        <time>2023-04-30T09:30:41.171Z</time>
      </trkpt>
      <trkpt lat="51.38381" lon="6.81227">
        <ele>80.37908</ele>
        <time>2023-04-30T09:30:43.176Z</time>
      </trkpt>
      <trkpt lat="51.38371" lon="6.81231">
        <ele>80.315963</ele>
        <time>2023-04-30T09:30:45.172Z</time>
      </trkpt>
      <trkpt lat="51.38362" lon="6.81235">
        <ele>80.325248</ele>
        <time>2023-04-30T09:30:47.183Z</time>
      </trkpt>
      <trkpt lat="51.38353" lon="6.81238">
        <ele>80.356486</ele>
        <time>2023-04-30T09:30:49.171Z</time>
      </trkpt>
      <trkpt lat="51.38343" lon="6.81244">
        <ele>80.388224</ele>
        <time>2023-04-30T09:30:51.175Z</time>
      </trkpt>
      <trkpt lat="51.38334" lon="6.81249">
        <ele>80.420006</ele>
        <time>2023-04-30T09:30:53.192Z</time>
      </trkpt>
      <trkpt lat="51.38324" lon="6.81255">
        <ele>80.453094</ele>
        <time>2023-04-30T09:30:55.182Z</time>
      </trkpt>
      <trkpt lat="51.38314" lon="6.81259">
        <ele>80.486197</ele>
        <time>2023-04-30T09:30:57.174Z</time>
      </trkpt>
      <trkpt lat="51.38305" lon="6.81264">
        <ele>80.519584</ele>
        <time>2023-04-30T09:30:59.179Z</time>
      </trkpt>
      <trkpt lat="51.38295" lon="6.81269">
        <ele>80.552063</ele>
        <time>2023-04-30T09:31:01.180Z</time>
      </trkpt>
      <trkpt lat="51.38285" lon="6.81275">
        <ele>80.585354</ele>
        <time>2023-04-30T09:31:03.183Z</time>
      </trkpt>
      <trkpt lat="51.38276" lon="6.81281">
        <ele>80.618812</ele>
        <time>2023-04-30T09:31:05.172Z</time>
      </trkpt>
      <trkpt lat="51.38265" lon="6.81285">
        <ele>80.653319</ele>
        <time>2023-04-30T09:31:07.174Z</time>
      </trkpt>
      <trkpt lat="51.38255" lon="6.8129">
        <ele>80.688116</ele>
        <time>2023-04-30T09:31:09.173Z</time>
      </trkpt>
      <trkpt lat="51.38244" lon="6.81296">
        <ele>80.724324</ele>
        <time>2023-04-30T09:31:11.181Z</time>
      </trkpt>
      <trkpt lat="51.38234" lon="6.81301">
        <ele>80.759001</ele>
        <time>2023-04-30T09:31:13.180Z</time>
      </trkpt>
      <trkpt lat="51.38224" lon="6.81307">
        <ele>80.794417</ele>
        <time>2023-04-30T09:31:15.173Z</time>
      </trkpt>
      <trkpt lat="51.38214" lon="6.81313">
        <ele>80.828114</ele>
        <time>2023-04-30T09:31:17.173Z</time>
      </trkpt>
      <trkpt lat="51.38204" lon="6.81317">
        <ele>80.860092</ele>
        <time>2023-04-30T09:31:19.180Z</time>
      </trkpt>
      <trkpt lat="51.38194" lon="6.81322">
        <ele>80.902661</ele>
        <time>2023-04-30T09:31:21.188Z</time>
      </trkpt>
      <trkpt lat="51.38184" lon="6.81328">
        <ele>80.965088</ele>
        <time>2023-04-30T09:31:23.180Z</time>
      </trkpt>
      <trkpt lat="51.38174" lon="6.81333">
        <ele>81.026187</ele>
        <time>2023-04-30T09:31:25.192Z</time>
      </trkpt>
      <trkpt lat="51.38164" lon="6.81338">
        <ele>81.086618</ele>
        <time>2023-04-30T09:31:27.175Z</time>
      </trkpt>
      <trkpt lat="51.38154" lon="6.81343">
        <ele>81.145632</ele>
        <time>2023-04-30T09:31:29.174Z</time>
      </trkpt>
      <trkpt lat="51.38144" lon="6.81348">
        <ele>81.206616</ele>
        <time>2023-04-30T09:31:31.190Z</time>
      </trkpt>
      <trkpt lat="51.38134" lon="6.81351">
        <ele>81.267538</ele>
        <time>2023-04-30T09:31:33.186Z</time>
      </trkpt>
      <trkpt lat="51.38124" lon="6.81353">
        <ele>81.327376</ele>
        <time>2023-04-30T09:31:35.168Z</time>
      </trkpt>
      <trkpt lat="51.38113" lon="6.81354">
        <ele>81.387083</ele>
        <time>2023-04-30T09:31:37.179Z</time>
      </trkpt>
      <trkpt lat="51.38103" lon="6.81355">
        <ele>81.446715</ele>
        <time>2023-04-30T09:31:39.183Z</time>
      </trkpt>
      <trkpt lat="51.38093" lon="6.81356">
        <ele>81.50527</ele>
        <time>2023-04-30T09:31:41.158Z</time>
      </trkpt>
      <trkpt lat="51.38083" lon="6.81358">
        <ele>81.564431</ele>
        <time>2023-04-30T09:31:43.158Z</time>
      </trkpt>
      <trkpt lat="51.38073" lon="6.81359">
        <ele>81.622332</ele>
        <time>2023-04-30T09:31:45.175Z</time>
      </trkpt>
      <trkpt lat="51.38063" lon="6.81361">
        <ele>81.678722</ele>
        <time>2023-04-30T09:31:47.166Z</time>
      </trkpt>
      <trkpt lat="51.38054" lon="6.81363">
        <ele>81.732772</ele>
        <time>2023-04-30T09:31:49.151Z</time>
      </trkpt>
      <trkpt lat="51.38044" lon="6.81365">
        <ele>81.789124</ele>
        <time>2023-04-30T09:31:51.170Z</time>
      </trkpt>
      <trkpt lat="51.38034" lon="6.81366">
        <ele>81.84659</ele>
        <time>2023-04-30T09:31:53.168Z</time>
      </trkpt>
      <trkpt lat="51.38025" lon="6.81367">
        <ele>81.90272</ele>
        <time>2023-04-30T09:31:55.160Z</time>
      </trkpt>
      <trkpt lat="51.38015" lon="6.81368">
        <ele>82.015016</ele>
        <time>2023-04-30T09:31:57.180Z</time>
      </trkpt>
      <trkpt lat="51.38002" lon="6.8137">
        <ele>82.210968</ele>
        <time>2023-04-30T09:32:00.167Z</time>
      </trkpt>
      <trkpt lat="51.37992" lon="6.8137">
        <ele>82.356973</ele>
        <time>2023-04-30T09:32:02.187Z</time>
      </trkpt>
      <trkpt lat="51.37983" lon="6.81371">
        <ele>82.496127</ele>
        <time>2023-04-30T09:32:04.193Z</time>
      </trkpt>
      <trkpt lat="51.37974" lon="6.81372">
        <ele>82.631896</ele>
        <time>2023-04-30T09:32:06.170Z</time>
      </trkpt>
      <trkpt lat="51.37961" lon="6.81374">
        <ele>82.820119</ele>
        <time>2023-04-30T09:32:09.186Z</time>
      </trkpt>
      <trkpt lat="51.37949" lon="6.81373">
        <ele>83.003357</ele>
        <time>2023-04-30T09:32:12.174Z</time>
      </trkpt>
      <trkpt lat="51.37938" lon="6.81374">
        <ele>83.173196</ele>
        <time>2023-04-30T09:32:15.165Z</time>
      </trkpt>
      <trkpt lat="51.37926" lon="6.81373">
        <ele>83.340171</ele>
        <time>2023-04-30T09:32:18.187Z</time>
      </trkpt>
      <trkpt lat="51.37916" lon="6.81375">
        <ele>83.503412</ele>
        <time>2023-04-30T09:32:21.177Z</time>
      </trkpt>
      <trkpt lat="51.37904" lon="6.81376">
        <ele>83.672253</ele>
        <time>2023-04-30T09:32:24.184Z</time>
      </trkpt>
      <trkpt lat="51.37893" lon="6.81377">
        <ele>83.837706</ele>
        <time>2023-04-30T09:32:27.176Z</time>
      </trkpt>
      <trkpt lat="51.37883" lon="6.81378">
        <ele>83.991699</ele>
        <time>2023-04-30T09:32:30.180Z</time>
      </trkpt>
      <trkpt lat="51.37873" lon="6.8138">
        <ele>84.145773</ele>
        <time>2023-04-30T09:32:33.175Z</time>
      </trkpt>
      <trkpt lat="51.37862" lon="6.8138">
        <ele>84.302197</ele>
        <time>2023-04-30T09:32:36.168Z</time>
      </trkpt>
      <trkpt lat="51.37852" lon="6.8138">
        <ele>84.458629</ele>
        <time>2023-04-30T09:32:39.198Z</time>
      </trkpt>
      <trkpt lat="51.37841" lon="6.8138">
        <ele>84.615482</ele>
        <time>2023-04-30T09:32:42.175Z</time>
      </trkpt>
      <trkpt lat="51.37832" lon="6.81381">
        <ele>84.852758</ele>
        <time>2023-04-30T09:32:45.176Z</time>
      </trkpt>
      <trkpt lat="51.37822" lon="6.81382">
        <ele>85.105084</ele>
        <time>2023-04-30T09:32:48.169Z</time>
      </trkpt>
      <trkpt lat="51.37813" lon="6.81384">
        <ele>85.345095</ele>
        <time>2023-04-30T09:32:51.180Z</time>
      </trkpt>
      <trkpt lat="51.37803" lon="6.81387">
        <ele>85.583699</ele>
        <time>2023-04-30T09:32:54.178Z</time>
      </trkpt>
      <trkpt lat="51.37794" lon="6.81386">
        <ele>85.826176</ele>
        <time>2023-04-30T09:32:57.177Z</time>
      </trkpt>
      <trkpt lat="51.37783" lon="6.81388">
        <ele>86.100689</ele>
        <time>2023-04-30T09:33:01.180Z</time>
      </trkpt>
      <trkpt lat="51.37772" lon="6.81384">
        <ele>86.38969</ele>
        <time>2023-04-30T09:33:05.172Z</time>
      </trkpt>
      <trkpt lat="51.37766" lon="6.81372">
        <ele>86.632309</ele>
        <time>2023-04-30T09:33:08.165Z</time>
      </trkpt>
      <trkpt lat="51.37763" lon="6.81354">
        <ele>86.926733</ele>
        <time>2023-04-30T09:33:12.167Z</time>
      </trkpt>
      <trkpt lat="51.37762" lon="6.81335">
        <ele>87.217564</ele>
        <time>2023-04-30T09:33:16.181Z</time>
      </trkpt>
      <trkpt lat="51.37759" lon="6.81319">
        <ele>87.486724</ele>
        <time>2023-04-30T09:33:20.176Z</time>
      </trkpt>
      <trkpt lat="51.37758" lon="6.81304">
        <ele>87.725993</ele>
        <time>2023-04-30T09:33:24.167Z</time>
      </trkpt>
      <trkpt lat="51.37757" lon="6.81289">
        <ele>87.954213</ele>
        <time>2023-04-30T09:33:28.189Z</time>
      </trkpt>
      <trkpt lat="51.37755" lon="6.81274">
        <ele>88.194155</ele>
        <time>2023-04-30T09:33:32.188Z</time>
      </trkpt>
      <trkpt lat="51.37753" lon="6.8126">
        <ele>88.429925</ele>
        <time>2023-04-30T09:33:36.171Z</time>
      </trkpt>
      <trkpt lat="51.37751" lon="6.81243">
        <ele>88.693551</ele>
        <time>2023-04-30T09:33:40.167Z</time>
      </trkpt>
      <trkpt lat="51.37749" lon="6.81226">
        <ele>88.970269</ele>
        <time>2023-04-30T09:33:44.191Z</time>
      </trkpt>
      <trkpt lat="51.37747" lon="6.81208">
        <ele>89.00424</ele>
        <time>2023-04-30T09:33:48.179Z</time>
      </trkpt>
      <trkpt lat="51.37745" lon="6.81192">
        <ele>88.739608</ele>
        <time>2023-04-30T09:33:51.172Z</time>
      </trkpt>
      <trkpt lat="51.37741" lon="6.81174">
        <ele>88.421555</ele>
        <time>2023-04-30T09:33:54.182Z</time>
      </trkpt>
      <trkpt lat="51.37739" lon="6.8116">
        <ele>88.174243</ele>
        <time>2023-04-30T09:33:56.194Z</time>
      </trkpt>
      <trkpt lat="51.37737" lon="6.81139">
        <ele>87.821446</ele>
        <time>2023-04-30T09:33:59.178Z</time>
      </trkpt>
      <trkpt lat="51.37735" lon="6.81121">
        <ele>87.51404</ele>
        <time>2023-04-30T09:34:02.173Z</time>
      </trkpt>
      <trkpt lat="51.37728" lon="6.81105">
        <ele>87.196008</ele>
        <time>2023-04-30T09:34:05.186Z</time>
      </trkpt>
      <trkpt lat="51.37714" lon="6.81104">
        <ele>86.847589</ele>
        <time>2023-04-30T09:34:08.164Z</time>
      </trkpt>
      <trkpt lat="51.37705" lon="6.81107">
        <ele>86.59097</ele>
        <time>2023-04-30T09:34:10.163Z</time>
      </trkpt>
      <trkpt lat="51.37695" lon="6.8111">
        <ele>86.327336</ele>
        <time>2023-04-30T09:34:12.164Z</time>
      </trkpt>
      <trkpt lat="51.37686" lon="6.81112">
        <ele>86.074713</ele>
        <time>2023-04-30T09:34:14.179Z</time>
      </trkpt>
      <trkpt lat="51.37675" lon="6.81115">
        <ele>85.797437</ele>
        <time>2023-04-30T09:34:16.185Z</time>
      </trkpt>
      <trkpt lat="51.37664" lon="6.81118">
        <ele>85.486455</ele>
        <time>2023-04-30T09:34:18.162Z</time>
      </trkpt>
      <trkpt lat="51.37652" lon="6.81121">
        <ele>85.175722</ele>
        <time>2023-04-30T09:34:20.162Z</time>
      </trkpt>
      <trkpt lat="51.37641" lon="6.81124">
        <ele>84.85921</ele>
        <time>2023-04-30T09:34:22.178Z</time>
      </trkpt>
      <trkpt lat="51.37629" lon="6.81127">
        <ele>84.536291</ele>
        <time>2023-04-30T09:34:24.171Z</time>
      </trkpt>
      <trkpt lat="51.37617" lon="6.8113">
        <ele>84.259621</ele>
        <time>2023-04-30T09:34:26.169Z</time>
      </trkpt>
      <trkpt lat="51.37604" lon="6.81133">
        <ele>84.037753</ele>
        <time>2023-04-30T09:34:28.187Z</time>
      </trkpt>
      <trkpt lat="51.37592" lon="6.81137">
        <ele>83.812662</ele>
        <time>2023-04-30T09:34:30.178Z</time>
      </trkpt>
      <trkpt lat="51.37579" lon="6.8114">
        <ele>83.575353</ele>
        <time>2023-04-30T09:34:32.182Z</time>
      </trkpt>
      <trkpt lat="51.37566" lon="6.81143">
        <ele>83.33891</ele>
        <time>2023-04-30T09:34:34.173Z</time>
      </trkpt>
      <trkpt lat="51.37554" lon="6.81147">
        <ele>83.109216</ele>
        <time>2023-04-30T09:34:36.161Z</time>
      </trkpt>
      <trkpt lat="51.37541" lon="6.81151">
        <ele>82.875824</ele>
        <time>2023-04-30T09:34:38.188Z</time>
      </trkpt>
      <trkpt lat="51.37528" lon="6.81154">
        <ele>82.64083</ele>
        <time>2023-04-30T09:34:40.172Z</time>
      </trkpt>
      <trkpt lat="51.37515" lon="6.81157">
        <ele>82.396595</ele>
        <time>2023-04-30T09:34:42.172Z</time>
      </trkpt>
      <trkpt lat="51.37502" lon="6.81161">
        <ele>82.164417</ele>
        <time>2023-04-30T09:34:44.175Z</time>
      </trkpt>
      <trkpt lat="51.37489" lon="6.81166">
        <ele>81.928441</ele>
        <time>2023-04-30T09:34:46.181Z</time>
      </trkpt>
      <trkpt lat="51.37476" lon="6.81171">
        <ele>81.694044</ele>
        <time>2023-04-30T09:34:48.179Z</time>
      </trkpt>
      <trkpt lat="51.37464" lon="6.81174">
        <ele>81.466978</ele>
        <time>2023-04-30T09:34:50.179Z</time>
      </trkpt>
      <trkpt lat="51.37452" lon="6.81178">
        <ele>81.241887</ele>
        <time>2023-04-30T09:34:52.180Z</time>
      </trkpt>
      <trkpt lat="51.3744" lon="6.81181">
        <ele>81.151995</ele>
        <time>2023-04-30T09:34:54.187Z</time>
      </trkpt>
      <trkpt lat="51.3743" lon="6.81183">
        <ele>81.214701</ele>
        <time>2023-04-30T09:34:56.173Z</time>
      </trkpt>
      <trkpt lat="51.37421" lon="6.81177">
        <ele>81.270436</ele>
        <time>2023-04-30T09:34:58.162Z</time>
      </trkpt>
      <trkpt lat="51.37413" lon="6.81161">
        <ele>81.348293</ele>
        <time>2023-04-30T09:35:01.158Z</time>
      </trkpt>
      <trkpt lat="51.37404" lon="6.81146">
        <ele>81.428817</ele>
        <time>2023-04-30T09:35:04.182Z</time>
      </trkpt>
      <trkpt lat="51.37396" lon="6.81136">
        <ele>81.491189</ele>
        <time>2023-04-30T09:35:06.178Z</time>
      </trkpt>
      <trkpt lat="51.37389" lon="6.81124">
        <ele>81.554925</ele>
        <time>2023-04-30T09:35:08.168Z</time>
      </trkpt>
      <trkpt lat="51.37382" lon="6.81112">
        <ele>81.619644</ele>
        <time>2023-04-30T09:35:10.167Z</time>
      </trkpt>
      <trkpt lat="51.37375" lon="6.81099">
        <ele>81.682975</ele>
        <time>2023-04-30T09:35:12.158Z</time>
      </trkpt>
      <trkpt lat="51.37369" lon="6.81087">
        <ele>81.745901</ele>
        <time>2023-04-30T09:35:14.167Z</time>
      </trkpt>
      <trkpt lat="51.37362" lon="6.81074">
        <ele>81.810101</ele>
        <time>2023-04-30T09:35:16.173Z</time>
      </trkpt>
      <trkpt lat="51.37355" lon="6.81062">
        <ele>81.87115</ele>
        <time>2023-04-30T09:35:18.171Z</time>
      </trkpt>
      <trkpt lat="51.37349" lon="6.81048">
        <ele>81.936345</ele>
        <time>2023-04-30T09:35:20.172Z</time>
      </trkpt>
      <trkpt lat="51.37343" lon="6.81036">
        <ele>81.996703</ele>
        <time>2023-04-30T09:35:22.178Z</time>
      </trkpt>
      <trkpt lat="51.37335" lon="6.81027">
        <ele>82.054757</ele>
        <time>2023-04-30T09:35:24.166Z</time>
      </trkpt>
      <trkpt lat="51.37328" lon="6.81017">
        <ele>82.114018</ele>
        <time>2023-04-30T09:35:26.168Z</time>
      </trkpt>
      <trkpt lat="51.37321" lon="6.81006">
        <ele>82.173813</ele>
        <time>2023-04-30T09:35:28.169Z</time>
      </trkpt>
      <trkpt lat="51.37313" lon="6.80996">
        <ele>82.223975</ele>
        <time>2023-04-30T09:35:30.176Z</time>
      </trkpt>
      <trkpt lat="51.37305" lon="6.80985">
        <ele>82.220624</ele>
        <time>2023-04-30T09:35:32.191Z</time>
      </trkpt>
      <trkpt lat="51.37296" lon="6.80974">
        <ele>82.217368</ele>
        <time>2023-04-30T09:35:34.173Z</time>
      </trkpt>
      <trkpt lat="51.37288" lon="6.80964">
        <ele>82.214183</ele>
        <time>2023-04-30T09:35:36.178Z</time>
      </trkpt>
      <trkpt lat="51.3728" lon="6.80955">
        <ele>82.211043</ele>
        <time>2023-04-30T09:35:38.174Z</time>
      </trkpt>
      <trkpt lat="51.37271" lon="6.80944">
        <ele>82.207752</ele>
        <time>2023-04-30T09:35:40.186Z</time>
      </trkpt>
      <trkpt lat="51.37263" lon="6.80934">
        <ele>82.204506</ele>
        <time>2023-04-30T09:35:42.164Z</time>
      </trkpt>
      <trkpt lat="51.37255" lon="6.80924">
        <ele>82.201382</ele>
        <time>2023-04-30T09:35:44.158Z</time>
      </trkpt>
      <trkpt lat="51.37247" lon="6.80914">
        <ele>82.198305</ele>
        <time>2023-04-30T09:35:46.169Z</time>
      </trkpt>
      <trkpt lat="51.37239" lon="6.80903">
        <ele>82.195144</ele>
        <time>2023-04-30T09:35:48.162Z</time>
      </trkpt>
      <trkpt lat="51.37231" lon="6.80892">
        <ele>82.191993</ele>
        <time>2023-04-30T09:35:50.160Z</time>
      </trkpt>
      <trkpt lat="51.37223" lon="6.80882">
        <ele>82.188735</ele>
        <time>2023-04-30T09:35:52.159Z</time>
      </trkpt>
      <trkpt lat="51.37215" lon="6.80872">
        <ele>82.185835</ele>
        <time>2023-04-30T09:35:54.161Z</time>
      </trkpt>
      <trkpt lat="51.37208" lon="6.80863">
        <ele>82.182877</ele>
        <time>2023-04-30T09:35:56.163Z</time>
      </trkpt>
      <trkpt lat="51.372" lon="6.80852">
        <ele>82.179792</ele>
        <time>2023-04-30T09:35:58.162Z</time>
      </trkpt>
      <trkpt lat="51.37192" lon="6.80842">
        <ele>82.176596</ele>
        <time>2023-04-30T09:36:00.151Z</time>
      </trkpt>
      <trkpt lat="51.37184" lon="6.80832">
        <ele>82.173613</ele>
        <time>2023-04-30T09:36:02.169Z</time>
      </trkpt>
      <trkpt lat="51.37177" lon="6.80823">
        <ele>82.170858</ele>
        <time>2023-04-30T09:36:04.173Z</time>
      </trkpt>
      <trkpt lat="51.37167" lon="6.80811">
        <ele>82.16801</ele>
        <time>2023-04-30T09:36:07.176Z</time>
      </trkpt>
      <trkpt lat="51.37157" lon="6.80799">
        <ele>82.165786</ele>
        <time>2023-04-30T09:36:10.173Z</time>
      </trkpt>
      <trkpt lat="51.37151" lon="6.8079">
        <ele>82.164129</ele>
        <time>2023-04-30T09:36:13.173Z</time>
      </trkpt>
      <trkpt lat="51.37143" lon="6.80782">
        <ele>82.162446</ele>
        <time>2023-04-30T09:36:17.187Z</time>
      </trkpt>
      <trkpt lat="51.37137" lon="6.80771">
        <ele>82.160754</ele>
        <time>2023-04-30T09:36:20.164Z</time>
      </trkpt>
      <trkpt lat="51.37128" lon="6.80757">
        <ele>82.158517</ele>
        <time>2023-04-30T09:36:23.192Z</time>
      </trkpt>
      <trkpt lat="51.37122" lon="6.8074">
        <ele>82.156251</ele>
        <time>2023-04-30T09:36:26.165Z</time>
      </trkpt>
      <trkpt lat="51.37118" lon="6.8072">
        <ele>82.153816</ele>
        <time>2023-04-30T09:36:29.182Z</time>
      </trkpt>
      <trkpt lat="51.37117" lon="6.80699">
        <ele>82.151391</ele>
        <time>2023-04-30T09:36:32.165Z</time>
      </trkpt>
      <trkpt lat="51.37116" lon="6.80682">
        <ele>82.149483</ele>
        <time>2023-04-30T09:36:34.160Z</time>
      </trkpt>
      <trkpt lat="51.37116" lon="6.80666">
        <ele>82.147625</ele>
        <time>2023-04-30T09:36:36.164Z</time>
      </trkpt>
      <trkpt lat="51.37116" lon="6.8065">
        <ele>82.145811</ele>
        <time>2023-04-30T09:36:38.165Z</time>
      </trkpt>
      <trkpt lat="51.37116" lon="6.80634">
        <ele>82.143953</ele>
        <time>2023-04-30T09:36:40.173Z</time>
      </trkpt>
      <trkpt lat="51.37116" lon="6.80617">
        <ele>82.142003</ele>
        <time>2023-04-30T09:36:42.165Z</time>
      </trkpt>
      <trkpt lat="51.37116" lon="6.80601">
        <ele>82.140157</ele>
        <time>2023-04-30T09:36:44.170Z</time>
      </trkpt>
      <trkpt lat="51.37115" lon="6.80585">
        <ele>82.138326</ele>
        <time>2023-04-30T09:36:46.163Z</time>
      </trkpt>
      <trkpt lat="51.37114" lon="6.80569">
        <ele>82.13649</ele>
        <time>2023-04-30T09:36:48.167Z</time>
      </trkpt>
      <trkpt lat="51.37114" lon="6.80554">
        <ele>82.13865</ele>
        <time>2023-04-30T09:36:50.172Z</time>
      </trkpt>
      <trkpt lat="51.37112" lon="6.80538">
        <ele>82.140839</ele>
        <time>2023-04-30T09:36:52.174Z</time>
      </trkpt>
      <trkpt lat="51.37111" lon="6.80523">
        <ele>82.143048</ele>
        <time>2023-04-30T09:36:54.170Z</time>
      </trkpt>
      <trkpt lat="51.3711" lon="6.80508">
        <ele>82.145098</ele>
        <time>2023-04-30T09:36:56.192Z</time>
      </trkpt>
      <trkpt lat="51.37107" lon="6.80493">
        <ele>82.147387</ele>
        <time>2023-04-30T09:36:58.157Z</time>
      </trkpt>
      <trkpt lat="51.37105" lon="6.80477">
        <ele>82.149649</ele>
        <time>2023-04-30T09:37:00.162Z</time>
      </trkpt>
      <trkpt lat="51.37104" lon="6.80462">
        <ele>82.151769</ele>
        <time>2023-04-30T09:37:02.177Z</time>
      </trkpt>
      <trkpt lat="51.37102" lon="6.80446">
        <ele>82.154071</ele>
        <time>2023-04-30T09:37:04.169Z</time>
      </trkpt>
      <trkpt lat="51.37099" lon="6.80431">
        <ele>82.156281</ele>
        <time>2023-04-30T09:37:06.154Z</time>
      </trkpt>
      <trkpt lat="51.37096" lon="6.80416">
        <ele>82.158585</ele>
        <time>2023-04-30T09:37:08.178Z</time>
      </trkpt>
      <trkpt lat="51.37092" lon="6.80401">
        <ele>82.160824</ele>
        <time>2023-04-30T09:37:10.173Z</time>
      </trkpt>
      <trkpt lat="51.37089" lon="6.80385">
        <ele>82.163188</ele>
        <time>2023-04-30T09:37:12.188Z</time>
      </trkpt>
      <trkpt lat="51.37087" lon="6.8037">
        <ele>82.165326</ele>
        <time>2023-04-30T09:37:14.188Z</time>
      </trkpt>
      <trkpt lat="51.37085" lon="6.80355">
        <ele>82.167572</ele>
        <time>2023-04-30T09:37:16.254Z</time>
      </trkpt>
      <trkpt lat="51.37081" lon="6.80339">
        <ele>82.169898</ele>
        <time>2023-04-30T09:37:18.184Z</time>
      </trkpt>
      <trkpt lat="51.37078" lon="6.80325">
        <ele>82.172034</ele>
        <time>2023-04-30T09:37:20.187Z</time>
      </trkpt>
      <trkpt lat="51.37075" lon="6.8031">
        <ele>82.174263</ele>
        <time>2023-04-30T09:37:22.183Z</time>
      </trkpt>
      <trkpt lat="51.37072" lon="6.80296">
        <ele>82.176391</ele>
        <time>2023-04-30T09:37:24.176Z</time>
      </trkpt>
      <trkpt lat="51.37068" lon="6.80282">
        <ele>82.217932</ele>
        <time>2023-04-30T09:37:26.155Z</time>
      </trkpt>
      <trkpt lat="51.37061" lon="6.80264">
        <ele>82.312163</ele>
        <time>2023-04-30T09:37:29.168Z</time>
      </trkpt>
      <trkpt lat="51.37054" lon="6.80252">
        <ele>82.379862</ele>
        <time>2023-04-30T09:37:31.170Z</time>
      </trkpt>
      <trkpt lat="51.37048" lon="6.8024">
        <ele>82.449189</ele>
        <time>2023-04-30T09:37:33.200Z</time>
      </trkpt>
      <trkpt lat="51.37041" lon="6.80229">
        <ele>82.517823</ele>
        <time>2023-04-30T09:37:35.178Z</time>
      </trkpt>
      <trkpt lat="51.37035" lon="6.80217">
        <ele>82.581726</ele>
        <time>2023-04-30T09:37:37.163Z</time>
      </trkpt>
      <trkpt lat="51.37027" lon="6.802">
        <ele>82.671705</ele>
        <time>2023-04-30T09:37:40.153Z</time>
      </trkpt>
      <trkpt lat="51.37021" lon="6.80189">
        <ele>82.736487</ele>
        <time>2023-04-30T09:37:42.183Z</time>
      </trkpt>
      <trkpt lat="51.37015" lon="6.80177">
        <ele>82.800609</ele>
        <time>2023-04-30T09:37:44.179Z</time>
      </trkpt>
      <trkpt lat="51.37009" lon="6.80165">
        <ele>82.867402</ele>
        <time>2023-04-30T09:37:46.178Z</time>
      </trkpt>
      <trkpt lat="51.37004" lon="6.80153">
        <ele>82.935138</ele>
        <time>2023-04-30T09:37:48.170Z</time>
      </trkpt>
      <trkpt lat="51.36998" lon="6.80141">
        <ele>82.998948</ele>
        <time>2023-04-30T09:37:50.179Z</time>
      </trkpt>
      <trkpt lat="51.36989" lon="6.80124">
        <ele>83.09518</ele>
        <time>2023-04-30T09:37:53.183Z</time>
      </trkpt>
      <trkpt lat="51.36982" lon="6.80113">
        <ele>83.160507</ele>
        <time>2023-04-30T09:37:55.191Z</time>
      </trkpt>
      <trkpt lat="51.36976" lon="6.80102">
        <ele>83.226967</ele>
        <time>2023-04-30T09:37:57.178Z</time>
      </trkpt>
      <trkpt lat="51.36967" lon="6.80085">
        <ele>83.319008</ele>
        <time>2023-04-30T09:38:00.160Z</time>
      </trkpt>
      <trkpt lat="51.36961" lon="6.80074">
        <ele>83.383853</ele>
        <time>2023-04-30T09:38:02.175Z</time>
      </trkpt>
      <trkpt lat="51.36956" lon="6.80062">
        <ele>83.419767</ele>
        <time>2023-04-30T09:38:04.178Z</time>
      </trkpt>
      <trkpt lat="51.3695" lon="6.8005">
        <ele>83.412964</ele>
        <time>2023-04-30T09:38:06.177Z</time>
      </trkpt>
      <trkpt lat="51.36943" lon="6.80032">
        <ele>83.403264</ele>
        <time>2023-04-30T09:38:09.175Z</time>
      </trkpt>
      <trkpt lat="51.36938" lon="6.80021">
        <ele>83.396538</ele>
        <time>2023-04-30T09:38:11.166Z</time>
      </trkpt>
      <trkpt lat="51.36932" lon="6.80009">
        <ele>83.389669</ele>
        <time>2023-04-30T09:38:13.175Z</time>
      </trkpt>
      <trkpt lat="51.36925" lon="6.79997">
        <ele>83.382463</ele>
        <time>2023-04-30T09:38:15.182Z</time>
      </trkpt>
      <trkpt lat="51.3692" lon="6.79984">
        <ele>83.375596</ele>
        <time>2023-04-30T09:38:17.180Z</time>
      </trkpt>
      <trkpt lat="51.36914" lon="6.79971">
        <ele>83.368177</ele>
        <time>2023-04-30T09:38:19.192Z</time>
      </trkpt>
      <trkpt lat="51.36908" lon="6.79957">
        <ele>83.360285</ele>
        <time>2023-04-30T09:38:21.172Z</time>
      </trkpt>
      <trkpt lat="51.36902" lon="6.79945">
        <ele>83.35319</ele>
        <time>2023-04-30T09:38:23.182Z</time>
      </trkpt>
      <trkpt lat="51.36895" lon="6.79932">
        <ele>83.345445</ele>
        <time>2023-04-30T09:38:25.191Z</time>
      </trkpt>
      <trkpt lat="51.36889" lon="6.79919">
        <ele>83.337882</ele>
        <time>2023-04-30T09:38:27.175Z</time>
      </trkpt>
      <trkpt lat="51.36883" lon="6.79904">
        <ele>83.329966</ele>
        <time>2023-04-30T09:38:29.174Z</time>
      </trkpt>
      <trkpt lat="51.36877" lon="6.79891">
        <ele>83.322529</ele>
        <time>2023-04-30T09:38:31.163Z</time>
      </trkpt>
      <trkpt lat="51.3687" lon="6.79878">
        <ele>83.314725</ele>
        <time>2023-04-30T09:38:33.164Z</time>
      </trkpt>
      <trkpt lat="51.36864" lon="6.79866">
        <ele>83.307342</ele>
        <time>2023-04-30T09:38:35.163Z</time>
      </trkpt>
      <trkpt lat="51.36858" lon="6.79852">
        <ele>83.299763</ele>
        <time>2023-04-30T09:38:37.176Z</time>
      </trkpt>
      <trkpt lat="51.36852" lon="6.79839">
        <ele>83.292343</ele>
        <time>2023-04-30T09:38:39.194Z</time>
      </trkpt>
      <trkpt lat="51.36845" lon="6.79825">
        <ele>83.182077</ele>
        <time>2023-04-30T09:38:41.179Z</time>
      </trkpt>
      <trkpt lat="51.36838" lon="6.7981">
        <ele>83.037575</ele>
        <time>2023-04-30T09:38:43.191Z</time>
      </trkpt>
      <trkpt lat="51.36832" lon="6.79796">
        <ele>82.90328</ele>
        <time>2023-04-30T09:38:45.175Z</time>
      </trkpt>
      <trkpt lat="51.36826" lon="6.79784">
        <ele>82.785772</ele>
        <time>2023-04-30T09:38:47.178Z</time>
      </trkpt>
      <trkpt lat="51.36819" lon="6.79769">
        <ele>82.642039</ele>
        <time>2023-04-30T09:38:50.168Z</time>
      </trkpt>
      <trkpt lat="51.36813" lon="6.79755">
        <ele>82.505036</ele>
        <time>2023-04-30T09:38:55.172Z</time>
      </trkpt>
      <trkpt lat="51.36807" lon="6.79739">
        <ele>82.362174</ele>
        <time>2023-04-30T09:38:59.188Z</time>
      </trkpt>
      <trkpt lat="51.368" lon="6.79724">
        <ele>82.217085</ele>
        <time>2023-04-30T09:39:02.153Z</time>
      </trkpt>
      <trkpt lat="51.36794" lon="6.79708">
        <ele>82.078069</ele>
        <time>2023-04-30T09:39:05.159Z</time>
      </trkpt>
      <trkpt lat="51.36788" lon="6.79691">
        <ele>81.925006</ele>
        <time>2023-04-30T09:39:08.161Z</time>
      </trkpt>
      <trkpt lat="51.36784" lon="6.79678">
        <ele>81.813735</ele>
        <time>2023-04-30T09:39:10.173Z</time>
      </trkpt>
      <trkpt lat="51.36777" lon="6.79659">
        <ele>81.64924</ele>
        <time>2023-04-30T09:39:13.168Z</time>
      </trkpt>
      <trkpt lat="51.3677" lon="6.79641">
        <ele>81.478195</ele>
        <time>2023-04-30T09:39:16.171Z</time>
      </trkpt>
      <trkpt lat="51.36765" lon="6.79627">
        <ele>81.360219</ele>
        <time>2023-04-30T09:39:18.173Z</time>
      </trkpt>
      <trkpt lat="51.36761" lon="6.79613">
        <ele>81.238654</ele>
        <time>2023-04-30T09:39:20.167Z</time>
      </trkpt>
      <trkpt lat="51.36757" lon="6.79599">
        <ele>81.12022</ele>
        <time>2023-04-30T09:39:22.179Z</time>
      </trkpt>
      <trkpt lat="51.36753" lon="6.79586">
        <ele>81.015079</ele>
        <time>2023-04-30T09:39:24.183Z</time>
      </trkpt>
      <trkpt lat="51.36749" lon="6.79572">
        <ele>80.917438</ele>
        <time>2023-04-30T09:39:26.167Z</time>
      </trkpt>
      <trkpt lat="51.36743" lon="6.79558">
        <ele>80.814269</ele>
        <time>2023-04-30T09:39:28.167Z</time>
      </trkpt>
      <trkpt lat="51.36739" lon="6.79544">
        <ele>80.716074</ele>
        <time>2023-04-30T09:39:30.186Z</time>
      </trkpt>
      <trkpt lat="51.36734" lon="6.79529">
        <ele>80.615204</ele>
        <time>2023-04-30T09:39:32.171Z</time>
      </trkpt>
      <trkpt lat="51.3673" lon="6.79515">
        <ele>80.514226</ele>
        <time>2023-04-30T09:39:34.178Z</time>
      </trkpt>
      <trkpt lat="51.36726" lon="6.79501">
        <ele>80.421879</ele>
        <time>2023-04-30T09:39:36.167Z</time>
      </trkpt>
      <trkpt lat="51.36722" lon="6.79487">
        <ele>80.322764</ele>
        <time>2023-04-30T09:39:38.177Z</time>
      </trkpt>
      <trkpt lat="51.36717" lon="6.79472">
        <ele>80.220668</ele>
        <time>2023-04-30T09:39:40.169Z</time>
      </trkpt>
      <trkpt lat="51.36712" lon="6.79458">
        <ele>80.118785</ele>
        <time>2023-04-30T09:39:42.168Z</time>
      </trkpt>
      <trkpt lat="51.36708" lon="6.79443">
        <ele>80.018923</ele>
        <time>2023-04-30T09:39:44.166Z</time>
      </trkpt>
      <trkpt lat="51.36703" lon="6.79428">
        <ele>79.915376</ele>
        <time>2023-04-30T09:39:46.168Z</time>
      </trkpt>
      <trkpt lat="51.36698" lon="6.79415">
        <ele>79.815392</ele>
        <time>2023-04-30T09:39:48.173Z</time>
      </trkpt>
      <trkpt lat="51.36693" lon="6.79402">
        <ele>79.71857</ele>
        <time>2023-04-30T09:39:50.175Z</time>
      </trkpt>
      <trkpt lat="51.36689" lon="6.79388">
        <ele>79.624106</ele>
        <time>2023-04-30T09:39:52.175Z</time>
      </trkpt>
      <trkpt lat="51.36685" lon="6.79374">
        <ele>79.525249</ele>
        <time>2023-04-30T09:39:54.179Z</time>
      </trkpt>
      <trkpt lat="51.36681" lon="6.7936">
        <ele>79.435017</ele>
        <time>2023-04-30T09:39:56.161Z</time>
      </trkpt>
      <trkpt lat="51.36677" lon="6.79346">
        <ele>79.338487</ele>
        <time>2023-04-30T09:39:58.199Z</time>
      </trkpt>
      <trkpt lat="51.36673" lon="6.79332">
        <ele>79.258586</ele>
        <time>2023-04-30T09:40:00.164Z</time>
      </trkpt>
      <trkpt lat="51.36669" lon="6.79318">
        <ele>79.224027</ele>
        <time>2023-04-30T09:40:02.167Z</time>
      </trkpt>
      <trkpt lat="51.36666" lon="6.79304">
        <ele>79.190513</ele>
        <time>2023-04-30T09:40:04.159Z</time>
      </trkpt>
      <trkpt lat="51.36661" lon="6.79291">
        <ele>79.157214</ele>
        <time>2023-04-30T09:40:06.164Z</time>
      </trkpt>
      <trkpt lat="51.36658" lon="6.79277">
        <ele>79.123495</ele>
        <time>2023-04-30T09:40:08.165Z</time>
      </trkpt>
      <trkpt lat="51.36654" lon="6.79262">
        <ele>79.088746</ele>
        <time>2023-04-30T09:40:10.162Z</time>
      </trkpt>
      <trkpt lat="51.3665" lon="6.79248">
        <ele>79.055372</ele>
        <time>2023-04-30T09:40:12.170Z</time>
      </trkpt>
      <trkpt lat="51.36646" lon="6.79235">
        <ele>79.020794</ele>
        <time>2023-04-30T09:40:14.187Z</time>
      </trkpt>
      <trkpt lat="51.36642" lon="6.7922">
        <ele>78.98535</ele>
        <time>2023-04-30T09:40:16.159Z</time>
      </trkpt>
      <trkpt lat="51.36639" lon="6.79205">
        <ele>78.949861</ele>
        <time>2023-04-30T09:40:18.173Z</time>
      </trkpt>
      <trkpt lat="51.36636" lon="6.7919">
        <ele>78.914814</ele>
        <time>2023-04-30T09:40:20.167Z</time>
      </trkpt>
      <trkpt lat="51.36634" lon="6.79176">
        <ele>78.882113</ele>
        <time>2023-04-30T09:40:22.190Z</time>
      </trkpt>
      <trkpt lat="51.36632" lon="6.79161">
        <ele>78.848595</ele>
        <time>2023-04-30T09:40:24.168Z</time>
      </trkpt>
      <trkpt lat="51.36631" lon="6.79145">
        <ele>78.813128</ele>
        <time>2023-04-30T09:40:26.172Z</time>
      </trkpt>
      <trkpt lat="51.36628" lon="6.7913">
        <ele>78.778527</ele>
        <time>2023-04-30T09:40:28.185Z</time>
      </trkpt>
      <trkpt lat="51.36627" lon="6.79115">
        <ele>78.743579</ele>
        <time>2023-04-30T09:40:30.171Z</time>
      </trkpt>
      <trkpt lat="51.36625" lon="6.79099">
        <ele>78.708404</ele>
        <time>2023-04-30T09:40:32.170Z</time>
      </trkpt>
      <trkpt lat="51.36622" lon="6.79084">
        <ele>78.672768</ele>
        <time>2023-04-30T09:40:34.172Z</time>
      </trkpt>
      <trkpt lat="51.36621" lon="6.79069">
        <ele>78.639365</ele>
        <time>2023-04-30T09:40:36.168Z</time>
      </trkpt>
      <trkpt lat="51.3662" lon="6.79055">
        <ele>78.561675</ele>
        <time>2023-04-30T09:40:38.170Z</time>
      </trkpt>
      <trkpt lat="51.36618" lon="6.7904">
        <ele>78.448213</ele>
        <time>2023-04-30T09:40:40.166Z</time>
      </trkpt>
      <trkpt lat="51.36617" lon="6.79025">
        <ele>78.332621</ele>
        <time>2023-04-30T09:40:42.169Z</time>
      </trkpt>
      <trkpt lat="51.36616" lon="6.7901">
        <ele>78.211968</ele>
        <time>2023-04-30T09:40:44.175Z</time>
      </trkpt>
      <trkpt lat="51.36615" lon="6.78993">
        <ele>78.081572</ele>
        <time>2023-04-30T09:40:46.159Z</time>
      </trkpt>
      <trkpt lat="51.36614" lon="6.78976">
        <ele>77.949853</ele>
        <time>2023-04-30T09:40:48.168Z</time>
      </trkpt>
      <trkpt lat="51.36615" lon="6.78958">
        <ele>77.818479</ele>
        <time>2023-04-30T09:40:50.169Z</time>
      </trkpt>
      <trkpt lat="51.36614" lon="6.7894">
        <ele>77.679252</ele>
        <time>2023-04-30T09:40:52.188Z</time>
      </trkpt>
      <trkpt lat="51.36614" lon="6.78923">
        <ele>77.546222</ele>
        <time>2023-04-30T09:40:54.190Z</time>
      </trkpt>
      <trkpt lat="51.36614" lon="6.78906">
        <ele>77.411709</ele>
        <time>2023-04-30T09:40:56.158Z</time>
      </trkpt>
      <trkpt lat="51.36614" lon="6.78889">
        <ele>77.281121</ele>
        <time>2023-04-30T09:40:58.178Z</time>
      </trkpt>
      <trkpt lat="51.36614" lon="6.78872">
        <ele>77.154325</ele>
        <time>2023-04-30T09:41:00.175Z</time>
      </trkpt>
      <trkpt lat="51.36613" lon="6.78856">
        <ele>77.03065</ele>
        <time>2023-04-30T09:41:02.170Z</time>
      </trkpt>
      <trkpt lat="51.36613" lon="6.7884">
        <ele>76.908461</ele>
        <time>2023-04-30T09:41:04.189Z</time>
      </trkpt>
      <trkpt lat="51.36613" lon="6.78824">
        <ele>76.787858</ele>
        <time>2023-04-30T09:41:06.169Z</time>
      </trkpt>
      <trkpt lat="51.36613" lon="6.78809">
        <ele>76.668029</ele>
        <time>2023-04-30T09:41:08.183Z</time>
      </trkpt>
      <trkpt lat="51.36613" lon="6.78793">
        <ele>76.543586</ele>
        <time>2023-04-30T09:41:10.169Z</time>
      </trkpt>
      <trkpt lat="51.36613" lon="6.78776">
        <ele>76.41991</ele>
        <time>2023-04-30T09:41:12.175Z</time>
      </trkpt>
      <trkpt lat="51.36613" lon="6.7876">
        <ele>76.488944</ele>
        <time>2023-04-30T09:41:14.171Z</time>
      </trkpt>
      <trkpt lat="51.36613" lon="6.78743">
        <ele>76.568629</ele>
        <time>2023-04-30T09:41:16.164Z</time>
      </trkpt>
      <trkpt lat="51.36612" lon="6.78727">
        <ele>76.647055</ele>
        <time>2023-04-30T09:41:18.172Z</time>
      </trkpt>
      <trkpt lat="51.36612" lon="6.78711">
        <ele>76.72506</ele>
        <time>2023-04-30T09:41:20.188Z</time>
      </trkpt>
      <trkpt lat="51.3661" lon="6.78694">
        <ele>76.804386</ele>
        <time>2023-04-30T09:41:22.174Z</time>
      </trkpt>
      <trkpt lat="51.36608" lon="6.78678">
        <ele>76.884904</ele>
        <time>2023-04-30T09:41:24.191Z</time>
      </trkpt>
      <trkpt lat="51.36605" lon="6.78661">
        <ele>76.966524</ele>
        <time>2023-04-30T09:41:26.174Z</time>
      </trkpt>
      <trkpt lat="51.36603" lon="6.78645">
        <ele>77.046912</ele>
        <time>2023-04-30T09:41:28.169Z</time>
      </trkpt>
      <trkpt lat="51.366" lon="6.7863">
        <ele>77.123693</ele>
        <time>2023-04-30T09:41:30.174Z</time>
      </trkpt>
      <trkpt lat="51.36598" lon="6.78614">
        <ele>77.199045</ele>
        <time>2023-04-30T09:41:32.168Z</time>
      </trkpt>
      <trkpt lat="51.36596" lon="6.78599">
        <ele>77.273303</ele>
        <time>2023-04-30T09:41:34.179Z</time>
      </trkpt>
      <trkpt lat="51.36594" lon="6.78583">
        <ele>77.350612</ele>
        <time>2023-04-30T09:41:36.156Z</time>
      </trkpt>
      <trkpt lat="51.36591" lon="6.78568">
        <ele>77.425135</ele>
        <time>2023-04-30T09:41:38.193Z</time>
      </trkpt>
      <trkpt lat="51.36589" lon="6.78554">
        <ele>77.497141</ele>
        <time>2023-04-30T09:41:40.174Z</time>
      </trkpt>
      <trkpt lat="51.36587" lon="6.7854">
        <ele>77.566631</ele>
        <time>2023-04-30T09:41:42.174Z</time>
      </trkpt>
      <trkpt lat="51.36584" lon="6.78526">
        <ele>77.637326</ele>
        <time>2023-04-30T09:41:44.167Z</time>
      </trkpt>
      <trkpt lat="51.36583" lon="6.78511">
        <ele>77.707672</ele>
        <time>2023-04-30T09:41:46.169Z</time>
      </trkpt>
      <trkpt lat="51.36581" lon="6.78497">
        <ele>77.778166</ele>
        <time>2023-04-30T09:41:48.190Z</time>
      </trkpt>
      <trkpt lat="51.36579" lon="6.78483">
        <ele>77.852833</ele>
        <time>2023-04-30T09:41:50.189Z</time>
      </trkpt>
      <trkpt lat="51.36576" lon="6.78462">
        <ele>77.968657</ele>
        <time>2023-04-30T09:41:53.175Z</time>
      </trkpt>
      <trkpt lat="51.36574" lon="6.78446">
        <ele>78.05221</ele>
        <time>2023-04-30T09:41:55.173Z</time>
      </trkpt>
      <trkpt lat="51.36572" lon="6.78432">
        <ele>78.132119</ele>
        <time>2023-04-30T09:41:57.168Z</time>
      </trkpt>
      <trkpt lat="51.3657" lon="6.78418">
        <ele>78.210704</ele>
        <time>2023-04-30T09:41:59.174Z</time>
      </trkpt>
      <trkpt lat="51.36567" lon="6.78402">
        <ele>78.296063</ele>
        <time>2023-04-30T09:42:01.177Z</time>
      </trkpt>
      <trkpt lat="51.36565" lon="6.78386">
        <ele>78.385379</ele>
        <time>2023-04-30T09:42:03.165Z</time>
      </trkpt>
      <trkpt lat="51.36563" lon="6.7837">
        <ele>78.472657</ele>
        <time>2023-04-30T09:42:05.173Z</time>
      </trkpt>
      <trkpt lat="51.36562" lon="6.78353">
        <ele>78.56233</ele>
        <time>2023-04-30T09:42:07.185Z</time>
      </trkpt>
      <trkpt lat="51.36561" lon="6.78337">
        <ele>78.648811</ele>
        <time>2023-04-30T09:42:09.177Z</time>
      </trkpt>
      <trkpt lat="51.36561" lon="6.7832">
        <ele>78.741297</ele>
        <time>2023-04-30T09:42:11.179Z</time>
      </trkpt>
      <trkpt lat="51.3656" lon="6.78303">
        <ele>78.830823</ele>
        <time>2023-04-30T09:42:13.168Z</time>
      </trkpt>
      <trkpt lat="51.36559" lon="6.78287">
        <ele>78.916536</ele>
        <time>2023-04-30T09:42:15.189Z</time>
      </trkpt>
      <trkpt lat="51.36558" lon="6.7827">
        <ele>79.006071</ele>
        <time>2023-04-30T09:42:17.165Z</time>
      </trkpt>
      <trkpt lat="51.36557" lon="6.78254">
        <ele>79.092281</ele>
        <time>2023-04-30T09:42:19.178Z</time>
      </trkpt>
      <trkpt lat="51.36556" lon="6.78238">
        <ele>79.179746</ele>
        <time>2023-04-30T09:42:21.186Z</time>
      </trkpt>
      <trkpt lat="51.36554" lon="6.78222">
        <ele>79.265594</ele>
        <time>2023-04-30T09:42:23.172Z</time>
      </trkpt>
      <trkpt lat="51.36553" lon="6.78206">
        <ele>79.267139</ele>
        <time>2023-04-30T09:42:25.189Z</time>
      </trkpt>
      <trkpt lat="51.36551" lon="6.7819">
        <ele>78.972173</ele>
        <time>2023-04-30T09:42:27.176Z</time>
      </trkpt>
      <trkpt lat="51.36549" lon="6.78174">
        <ele>78.671821</ele>
        <time>2023-04-30T09:42:29.170Z</time>
      </trkpt>
      <trkpt lat="51.36548" lon="6.78159">
        <ele>78.383493</ele>
        <time>2023-04-30T09:42:31.169Z</time>
      </trkpt>
      <trkpt lat="51.36547" lon="6.78143">
        <ele>78.095548</ele>
        <time>2023-04-30T09:42:33.173Z</time>
      </trkpt>
      <trkpt lat="51.36545" lon="6.78122">
        <ele>77.690403</ele>
        <time>2023-04-30T09:42:36.183Z</time>
      </trkpt>
      <trkpt lat="51.36542" lon="6.78104">
        <ele>77.353147</ele>
        <time>2023-04-30T09:42:39.170Z</time>
      </trkpt>
      <trkpt lat="51.36534" lon="6.78109">
        <ele>77.080886</ele>
        <time>2023-04-30T09:42:48.181Z</time>
      </trkpt>
      <trkpt lat="51.36533" lon="6.7812">
        <ele>76.868217</ele>
        <time>2023-04-30T09:43:10.374Z</time>
      </trkpt>
      <trkpt lat="51.36535" lon="6.78104">
        <ele>76.567861</ele>
        <time>2023-04-30T10:03:19.182Z</time>
      </trkpt>
      <trkpt lat="51.3654" lon="6.78091">
        <ele>76.289003</ele>
        <time>2023-04-30T10:03:23.190Z</time>
      </trkpt>
      <trkpt lat="51.36537" lon="6.78073">
        <ele>75.938189</ele>
        <time>2023-04-30T10:03:27.150Z</time>
      </trkpt>
      <trkpt lat="51.36536" lon="6.78054">
        <ele>75.590914</ele>
        <time>2023-04-30T10:03:31.179Z</time>
      </trkpt>
      <trkpt lat="51.36535" lon="6.7804">
        <ele>75.322796</ele>
        <time>2023-04-30T10:03:34.174Z</time>
      </trkpt>
      <trkpt lat="51.36533" lon="6.78026">
        <ele>75.055163</ele>
        <time>2023-04-30T10:03:37.187Z</time>
      </trkpt>
      <trkpt lat="51.36532" lon="6.78009">
        <ele>74.74601</ele>
        <time>2023-04-30T10:03:40.166Z</time>
      </trkpt>
      <trkpt lat="51.36531" lon="6.77992">
        <ele>74.427461</ele>
        <time>2023-04-30T10:03:43.189Z</time>
      </trkpt>
      <trkpt lat="51.36529" lon="6.77973">
        <ele>74.072736</ele>
        <time>2023-04-30T10:03:46.176Z</time>
      </trkpt>
      <trkpt lat="51.36528" lon="6.77955">
        <ele>74.09572</ele>
        <time>2023-04-30T10:03:49.176Z</time>
      </trkpt>
      <trkpt lat="51.36526" lon="6.77937">
        <ele>74.23145</ele>
        <time>2023-04-30T10:03:52.172Z</time>
      </trkpt>
      <trkpt lat="51.36525" lon="6.77918">
        <ele>74.376328</ele>
        <time>2023-04-30T10:03:55.175Z</time>
      </trkpt>
      <trkpt lat="51.36524" lon="6.77899">
        <ele>74.525037</ele>
        <time>2023-04-30T10:03:58.178Z</time>
      </trkpt>
      <trkpt lat="51.36521" lon="6.77878">
        <ele>74.683176</ele>
        <time>2023-04-30T10:04:01.214Z</time>
      </trkpt>
      <trkpt lat="51.3652" lon="6.77859">
        <ele>74.831503</ele>
        <time>2023-04-30T10:04:04.182Z</time>
      </trkpt>
      <trkpt lat="51.3652" lon="6.7784">
        <ele>74.969813</ele>
        <time>2023-04-30T10:04:07.182Z</time>
      </trkpt>
      <trkpt lat="51.36518" lon="6.77823">
        <ele>75.102737</ele>
        <time>2023-04-30T10:04:10.172Z</time>
      </trkpt>
      <trkpt lat="51.36507" lon="6.77824">
        <ele>75.23474</ele>
        <time>2023-04-30T10:04:13.166Z</time>
      </trkpt>
      <trkpt lat="51.36496" lon="6.77829">
        <ele>75.36754</ele>
        <time>2023-04-30T10:04:16.176Z</time>
      </trkpt>
      <trkpt lat="51.36484" lon="6.77833">
        <ele>75.515592</ele>
        <time>2023-04-30T10:04:19.186Z</time>
      </trkpt>
      <trkpt lat="51.36474" lon="6.77831">
        <ele>75.64191</ele>
        <time>2023-04-30T10:04:22.163Z</time>
      </trkpt>
      <trkpt lat="51.36466" lon="6.77822">
        <ele>75.759602</ele>
        <time>2023-04-30T10:04:25.173Z</time>
      </trkpt>
      <trkpt lat="51.3646" lon="6.7781">
        <ele>75.879062</ele>
        <time>2023-04-30T10:04:28.176Z</time>
      </trkpt>
      <trkpt lat="51.36451" lon="6.77801">
        <ele>76.004759</ele>
        <time>2023-04-30T10:04:31.172Z</time>
      </trkpt>
      <trkpt lat="51.3644" lon="6.77799">
        <ele>76.133353</ele>
        <time>2023-04-30T10:04:34.167Z</time>
      </trkpt>
      <trkpt lat="51.3643" lon="6.77797">
        <ele>76.282819</ele>
        <time>2023-04-30T10:04:37.171Z</time>
      </trkpt>
      <trkpt lat="51.3642" lon="6.77797">
        <ele>76.444174</ele>
        <time>2023-04-30T10:04:40.181Z</time>
      </trkpt>
      <trkpt lat="51.36409" lon="6.77798">
        <ele>76.602628</ele>
        <time>2023-04-30T10:04:43.170Z</time>
      </trkpt>
      <trkpt lat="51.36397" lon="6.778">
        <ele>76.793835</ele>
        <time>2023-04-30T10:04:46.175Z</time>
      </trkpt>
      <trkpt lat="51.36386" lon="6.77802">
        <ele>76.966927</ele>
        <time>2023-04-30T10:04:49.197Z</time>
      </trkpt>
      <trkpt lat="51.36375" lon="6.77802">
        <ele>77.132749</ele>
        <time>2023-04-30T10:04:52.174Z</time>
      </trkpt>
      <trkpt lat="51.36364" lon="6.77802">
        <ele>77.293924</ele>
        <time>2023-04-30T10:04:55.177Z</time>
      </trkpt>
      <trkpt lat="51.36354" lon="6.77804">
        <ele>77.449914</ele>
        <time>2023-04-30T10:04:58.175Z</time>
      </trkpt>
      <trkpt lat="51.36345" lon="6.77806">
        <ele>77.59864</ele>
        <time>2023-04-30T10:05:01.180Z</time>
      </trkpt>
      <trkpt lat="51.36335" lon="6.7781">
        <ele>77.753414</ele>
        <time>2023-04-30T10:05:04.177Z</time>
      </trkpt>
      <trkpt lat="51.36326" lon="6.77814">
        <ele>77.898011</ele>
        <time>2023-04-30T10:05:07.180Z</time>
      </trkpt>
      <trkpt lat="51.36317" lon="6.77818">
        <ele>78.039236</ele>
        <time>2023-04-30T10:05:10.178Z</time>
      </trkpt>
      <trkpt lat="51.36308" lon="6.77822">
        <ele>78.181033</ele>
        <time>2023-04-30T10:05:13.186Z</time>
      </trkpt>
      <trkpt lat="51.36299" lon="6.77826">
        <ele>78.330084</ele>
        <time>2023-04-30T10:05:16.188Z</time>
      </trkpt>
      <trkpt lat="51.36289" lon="6.7783">
        <ele>78.482108</ele>
        <time>2023-04-30T10:05:19.180Z</time>
      </trkpt>
      <trkpt lat="51.36279" lon="6.77834">
        <ele>78.637526</ele>
        <time>2023-04-30T10:05:22.175Z</time>
      </trkpt>
      <trkpt lat="51.3627" lon="6.77838">
        <ele>78.792809</ele>
        <time>2023-04-30T10:05:25.259Z</time>
      </trkpt>
      <trkpt lat="51.36261" lon="6.77842">
        <ele>78.933923</ele>
        <time>2023-04-30T10:05:28.183Z</time>
      </trkpt>
      <trkpt lat="51.36251" lon="6.77846">
        <ele>79.062405</ele>
        <time>2023-04-30T10:05:31.190Z</time>
      </trkpt>
      <trkpt lat="51.36239" lon="6.77851">
        <ele>79.218692</ele>
        <time>2023-04-30T10:05:35.176Z</time>
      </trkpt>
      <trkpt lat="51.3623" lon="6.77855">
        <ele>79.341109</ele>
        <time>2023-04-30T10:05:38.183Z</time>
      </trkpt>
      <trkpt lat="51.36221" lon="6.77857">
        <ele>79.469075</ele>
        <time>2023-04-30T10:05:41.176Z</time>
      </trkpt>
      <trkpt lat="51.36211" lon="6.77852">
        <ele>79.603029</ele>
        <time>2023-04-30T10:05:44.164Z</time>
      </trkpt>
      <trkpt lat="51.36202" lon="6.77844">
        <ele>79.729399</ele>
        <time>2023-04-30T10:05:47.184Z</time>
      </trkpt>
      <trkpt lat="51.36194" lon="6.77837">
        <ele>79.849943</ele>
        <time>2023-04-30T10:05:50.177Z</time>
      </trkpt>
      <trkpt lat="51.36186" lon="6.77825">
        <ele>79.988394</ele>
        <time>2023-04-30T10:05:54.186Z</time>
      </trkpt>
      <trkpt lat="51.36187" lon="6.77809">
        <ele>80.118055</ele>
        <time>2023-04-30T10:05:58.168Z</time>
      </trkpt>
      <trkpt lat="51.36187" lon="6.7779">
        <ele>80.268807</ele>
        <time>2023-04-30T10:06:02.190Z</time>
      </trkpt>
      <trkpt lat="51.36188" lon="6.77775">
        <ele>80.391559</ele>
        <time>2023-04-30T10:06:05.182Z</time>
      </trkpt>
      <trkpt lat="51.36188" lon="6.7776">
        <ele>80.512314</ele>
        <time>2023-04-30T10:06:08.169Z</time>
      </trkpt>
      <trkpt lat="51.36188" lon="6.77744">
        <ele>80.646801</ele>
        <time>2023-04-30T10:06:11.182Z</time>
      </trkpt>
      <trkpt lat="51.36189" lon="6.77726">
        <ele>80.792494</ele>
        <time>2023-04-30T10:06:14.168Z</time>
      </trkpt>
      <trkpt lat="51.36193" lon="6.77713">
        <ele>80.912375</ele>
        <time>2023-04-30T10:06:16.163Z</time>
      </trkpt>
      <trkpt lat="51.36203" lon="6.77699">
        <ele>81.083276</ele>
        <time>2023-04-30T10:06:19.172Z</time>
      </trkpt>
      <trkpt lat="51.36212" lon="6.77693">
        <ele>81.207324</ele>
        <time>2023-04-30T10:06:21.172Z</time>
      </trkpt>
      <trkpt lat="51.36222" lon="6.7769">
        <ele>81.141648</ele>
        <time>2023-04-30T10:06:23.169Z</time>
      </trkpt>
      <trkpt lat="51.36233" lon="6.77687">
        <ele>80.913241</ele>
        <time>2023-04-30T10:06:25.175Z</time>
      </trkpt>
      <trkpt lat="51.36243" lon="6.77683">
        <ele>80.697096</ele>
        <time>2023-04-30T10:06:27.227Z</time>
      </trkpt>
      <trkpt lat="51.36254" lon="6.7768">
        <ele>80.465686</ele>
        <time>2023-04-30T10:06:29.180Z</time>
      </trkpt>
      <trkpt lat="51.36265" lon="6.77677">
        <ele>80.24262</ele>
        <time>2023-04-30T10:06:31.180Z</time>
      </trkpt>
      <trkpt lat="51.36275" lon="6.77676">
        <ele>80.024965</ele>
        <time>2023-04-30T10:06:33.176Z</time>
      </trkpt>
      <trkpt lat="51.36287" lon="6.77675">
        <ele>79.785454</ele>
        <time>2023-04-30T10:06:35.186Z</time>
      </trkpt>
      <trkpt lat="51.36299" lon="6.77674">
        <ele>79.54614</ele>
        <time>2023-04-30T10:06:37.180Z</time>
      </trkpt>
      <trkpt lat="51.36311" lon="6.77673">
        <ele>79.296341</ele>
        <time>2023-04-30T10:06:39.173Z</time>
      </trkpt>
      <trkpt lat="51.36323" lon="6.77671">
        <ele>79.047922</ele>
        <time>2023-04-30T10:06:41.176Z</time>
      </trkpt>
      <trkpt lat="51.36334" lon="6.77669">
        <ele>78.803606</ele>
        <time>2023-04-30T10:06:43.186Z</time>
      </trkpt>
      <trkpt lat="51.36346" lon="6.77667">
        <ele>78.563395</ele>
        <time>2023-04-30T10:06:45.188Z</time>
      </trkpt>
      <trkpt lat="51.36358" lon="6.77666">
        <ele>78.30961</ele>
        <time>2023-04-30T10:06:47.188Z</time>
      </trkpt>
      <trkpt lat="51.3637" lon="6.77666">
        <ele>78.066382</ele>
        <time>2023-04-30T10:06:49.183Z</time>
      </trkpt>
      <trkpt lat="51.36382" lon="6.77665">
        <ele>77.812392</ele>
        <time>2023-04-30T10:06:51.189Z</time>
      </trkpt>
      <trkpt lat="51.36395" lon="6.77665">
        <ele>77.56093</ele>
        <time>2023-04-30T10:06:53.175Z</time>
      </trkpt>
      <trkpt lat="51.36406" lon="6.77668">
        <ele>77.329565</ele>
        <time>2023-04-30T10:06:55.170Z</time>
      </trkpt>
      <trkpt lat="51.36416" lon="6.7766">
        <ele>77.11396</ele>
        <time>2023-04-30T10:06:57.163Z</time>
      </trkpt>
      <trkpt lat="51.36418" lon="6.77643">
        <ele>76.899099</ele>
        <time>2023-04-30T10:06:59.188Z</time>
      </trkpt>
      <trkpt lat="51.36411" lon="6.77631">
        <ele>76.700278</ele>
        <time>2023-04-30T10:07:01.175Z</time>
      </trkpt>
      <trkpt lat="51.36406" lon="6.77617">
        <ele>76.50242</ele>
        <time>2023-04-30T10:07:03.176Z</time>
      </trkpt>
      <trkpt lat="51.36401" lon="6.77603">
        <ele>76.306587</ele>
        <time>2023-04-30T10:07:05.165Z</time>
      </trkpt>
      <trkpt lat="51.36393" lon="6.77591">
        <ele>76.092002</ele>
        <time>2023-04-30T10:07:07.181Z</time>
      </trkpt>
      <trkpt lat="51.36387" lon="6.77577">
        <ele>75.875786</ele>
        <time>2023-04-30T10:07:09.174Z</time>
      </trkpt>
      <trkpt lat="51.36379" lon="6.77564">
        <ele>75.649268</ele>
        <time>2023-04-30T10:07:11.165Z</time>
      </trkpt>
      <trkpt lat="51.36372" lon="6.7755">
        <ele>75.430776</ele>
        <time>2023-04-30T10:07:13.179Z</time>
      </trkpt>
      <trkpt lat="51.36364" lon="6.77537">
        <ele>75.210424</ele>
        <time>2023-04-30T10:07:15.176Z</time>
      </trkpt>
      <trkpt lat="51.36357" lon="6.77523">
        <ele>74.992003</ele>
        <time>2023-04-30T10:07:17.172Z</time>
      </trkpt>
      <trkpt lat="51.3635" lon="6.7751">
        <ele>74.78148</ele>
        <time>2023-04-30T10:07:19.186Z</time>
      </trkpt>
      <trkpt lat="51.36344" lon="6.77496">
        <ele>74.567552</ele>
        <time>2023-04-30T10:07:21.177Z</time>
      </trkpt>
      <trkpt lat="51.36337" lon="6.77482">
        <ele>74.347945</ele>
        <time>2023-04-30T10:07:23.190Z</time>
      </trkpt>
      <trkpt lat="51.36332" lon="6.77468">
        <ele>74.140641</ele>
        <time>2023-04-30T10:07:25.184Z</time>
      </trkpt>
      <trkpt lat="51.36325" lon="6.77454">
        <ele>73.98952</ele>
        <time>2023-04-30T10:07:27.159Z</time>
      </trkpt>
      <trkpt lat="51.36319" lon="6.77441">
        <ele>73.959764</ele>
        <time>2023-04-30T10:07:29.176Z</time>
      </trkpt>
      <trkpt lat="51.36314" lon="6.77428">
        <ele>73.929141</ele>
        <time>2023-04-30T10:07:31.186Z</time>
      </trkpt>
      <trkpt lat="51.36308" lon="6.77414">
        <ele>73.898017</ele>
        <time>2023-04-30T10:07:33.184Z</time>
      </trkpt>
      <trkpt lat="51.36303" lon="6.77401">
        <ele>73.869604</ele>
        <time>2023-04-30T10:07:35.173Z</time>
      </trkpt>
      <trkpt lat="51.36298" lon="6.77387">
        <ele>73.840074</ele>
        <time>2023-04-30T10:07:37.169Z</time>
      </trkpt>
      <trkpt lat="51.36293" lon="6.77374">
        <ele>73.811344</ele>
        <time>2023-04-30T10:07:39.170Z</time>
      </trkpt>
      <trkpt lat="51.36288" lon="6.77361">
        <ele>73.783244</ele>
        <time>2023-04-30T10:07:41.172Z</time>
      </trkpt>
      <trkpt lat="51.36283" lon="6.77348">
        <ele>73.755538</ele>
        <time>2023-04-30T10:07:43.185Z</time>
      </trkpt>
      <trkpt lat="51.36278" lon="6.77336">
        <ele>73.72807</ele>
        <time>2023-04-30T10:07:45.169Z</time>
      </trkpt>
      <trkpt lat="51.36274" lon="6.77323">
        <ele>73.700444</ele>
        <time>2023-04-30T10:07:47.179Z</time>
      </trkpt>
      <trkpt lat="51.36269" lon="6.7731">
        <ele>73.672504</ele>
        <time>2023-04-30T10:07:49.180Z</time>
      </trkpt>
      <trkpt lat="51.36264" lon="6.77297">
        <ele>73.644399</ele>
        <time>2023-04-30T10:07:51.187Z</time>
      </trkpt>
      <trkpt lat="51.36259" lon="6.77284">
        <ele>73.615189</ele>
        <time>2023-04-30T10:07:53.184Z</time>
      </trkpt>
      <trkpt lat="51.36254" lon="6.7727">
        <ele>73.585808</ele>
        <time>2023-04-30T10:07:55.179Z</time>
      </trkpt>
      <trkpt lat="51.36249" lon="6.77257">
        <ele>73.557231</ele>
        <time>2023-04-30T10:07:57.170Z</time>
      </trkpt>
      <trkpt lat="51.36244" lon="6.77243">
        <ele>73.528181</ele>
        <time>2023-04-30T10:07:59.181Z</time>
      </trkpt>
      <trkpt lat="51.36239" lon="6.77229">
        <ele>73.497697</ele>
        <time>2023-04-30T10:08:01.175Z</time>
      </trkpt>
      <trkpt lat="51.36234" lon="6.77215">
        <ele>73.468316</ele>
        <time>2023-04-30T10:08:03.171Z</time>
      </trkpt>
      <trkpt lat="51.36229" lon="6.77201">
        <ele>73.323203</ele>
        <time>2023-04-30T10:08:05.189Z</time>
      </trkpt>
      <trkpt lat="51.36223" lon="6.77187">
        <ele>73.155019</ele>
        <time>2023-04-30T10:08:07.176Z</time>
      </trkpt>
      <trkpt lat="51.36216" lon="6.77175">
        <ele>72.992319</ele>
        <time>2023-04-30T10:08:09.179Z</time>
      </trkpt>
      <trkpt lat="51.36209" lon="6.77164">
        <ele>72.831966</ele>
        <time>2023-04-30T10:08:11.178Z</time>
      </trkpt>
      <trkpt lat="51.36205" lon="6.7715">
        <ele>72.67419</ele>
        <time>2023-04-30T10:08:13.175Z</time>
      </trkpt>
      <trkpt lat="51.36199" lon="6.77136">
        <ele>72.516984</ele>
        <time>2023-04-30T10:08:15.175Z</time>
      </trkpt>
      <trkpt lat="51.36194" lon="6.77122">
        <ele>72.356347</ele>
        <time>2023-04-30T10:08:17.161Z</time>
      </trkpt>
      <trkpt lat="51.36189" lon="6.77109">
        <ele>72.194922</ele>
        <time>2023-04-30T10:08:19.185Z</time>
      </trkpt>
      <trkpt lat="51.36184" lon="6.77095">
        <ele>72.035177</ele>
        <time>2023-04-30T10:08:21.188Z</time>
      </trkpt>
      <trkpt lat="51.36179" lon="6.77082">
        <ele>71.878729</ele>
        <time>2023-04-30T10:08:23.189Z</time>
      </trkpt>
      <trkpt lat="51.36174" lon="6.77067">
        <ele>71.714453</ele>
        <time>2023-04-30T10:08:25.180Z</time>
      </trkpt>
      <trkpt lat="51.36168" lon="6.77053">
        <ele>71.551338</ele>
        <time>2023-04-30T10:08:27.180Z</time>
      </trkpt>
      <trkpt lat="51.36163" lon="6.77039">
        <ele>71.382294</ele>
        <time>2023-04-30T10:08:29.185Z</time>
      </trkpt>
      <trkpt lat="51.36157" lon="6.77025">
        <ele>71.211962</ele>
        <time>2023-04-30T10:08:31.176Z</time>
      </trkpt>
      <trkpt lat="51.36149" lon="6.77012">
        <ele>71.029387</ele>
        <time>2023-04-30T10:08:33.164Z</time>
      </trkpt>
      <trkpt lat="51.36141" lon="6.77">
        <ele>70.85564</ele>
        <time>2023-04-30T10:08:35.162Z</time>
      </trkpt>
      <trkpt lat="51.36133" lon="6.76986">
        <ele>70.68025</ele>
        <time>2023-04-30T10:08:37.186Z</time>
      </trkpt>
      <trkpt lat="51.36127" lon="6.76971">
        <ele>70.586986</ele>
        <time>2023-04-30T10:08:39.169Z</time>
      </trkpt>
      <trkpt lat="51.3612" lon="6.76956">
        <ele>70.573784</ele>
        <time>2023-04-30T10:08:41.152Z</time>
      </trkpt>
      <trkpt lat="51.3611" lon="6.76945">
        <ele>70.560798</ele>
        <time>2023-04-30T10:08:43.170Z</time>
      </trkpt>
      <trkpt lat="51.36101" lon="6.76934">
        <ele>70.548109</ele>
        <time>2023-04-30T10:08:45.168Z</time>
      </trkpt>
      <trkpt lat="51.36092" lon="6.76924">
        <ele>70.535759</ele>
        <time>2023-04-30T10:08:47.186Z</time>
      </trkpt>
      <trkpt lat="51.36082" lon="6.76914">
        <ele>70.523451</ele>
        <time>2023-04-30T10:08:49.182Z</time>
      </trkpt>
      <trkpt lat="51.36072" lon="6.76906">
        <ele>70.510955</ele>
        <time>2023-04-30T10:08:51.180Z</time>
      </trkpt>
      <trkpt lat="51.36062" lon="6.76898">
        <ele>70.498823</ele>
        <time>2023-04-30T10:08:53.176Z</time>
      </trkpt>
      <trkpt lat="51.36054" lon="6.76886">
        <ele>70.487065</ele>
        <time>2023-04-30T10:08:55.160Z</time>
      </trkpt>
      <trkpt lat="51.36047" lon="6.76875">
        <ele>70.475467</ele>
        <time>2023-04-30T10:08:57.169Z</time>
      </trkpt>
      <trkpt lat="51.3604" lon="6.76862">
        <ele>70.463909</ele>
        <time>2023-04-30T10:08:59.175Z</time>
      </trkpt>
      <trkpt lat="51.36034" lon="6.7685">
        <ele>70.453199</ele>
        <time>2023-04-30T10:09:01.147Z</time>
      </trkpt>
      <trkpt lat="51.36029" lon="6.76837">
        <ele>70.442998</ele>
        <time>2023-04-30T10:09:03.175Z</time>
      </trkpt>
      <trkpt lat="51.36022" lon="6.7682">
        <ele>70.428947</ele>
        <time>2023-04-30T10:09:06.164Z</time>
      </trkpt>
      <trkpt lat="51.36016" lon="6.76803">
        <ele>70.415135</ele>
        <time>2023-04-30T10:09:09.177Z</time>
      </trkpt>
      <trkpt lat="51.36009" lon="6.76785">
        <ele>70.400858</ele>
        <time>2023-04-30T10:09:12.174Z</time>
      </trkpt>
      <trkpt lat="51.36002" lon="6.76768">
        <ele>70.497635</ele>
        <time>2023-04-30T10:09:15.185Z</time>
      </trkpt>
      <trkpt lat="51.35996" lon="6.7675">
        <ele>70.657006</ele>
        <time>2023-04-30T10:09:18.178Z</time>
      </trkpt>
      <trkpt lat="51.35988" lon="6.76733">
        <ele>70.819695</ele>
        <time>2023-04-30T10:09:21.178Z</time>
      </trkpt>
      <trkpt lat="51.35982" lon="6.76715">
        <ele>70.981084</ele>
        <time>2023-04-30T10:09:24.163Z</time>
      </trkpt>
      <trkpt lat="51.35975" lon="6.76697">
        <ele>71.147692</ele>
        <time>2023-04-30T10:09:27.174Z</time>
      </trkpt>
      <trkpt lat="51.35969" lon="6.76686">
        <ele>71.261899</ele>
        <time>2023-04-30T10:09:29.159Z</time>
      </trkpt>
      <trkpt lat="51.35961" lon="6.76668">
        <ele>71.429393</ele>
        <time>2023-04-30T10:09:32.185Z</time>
      </trkpt>
      <trkpt lat="51.35955" lon="6.76657">
        <ele>71.542318</ele>
        <time>2023-04-30T10:09:34.180Z</time>
      </trkpt>
      <trkpt lat="51.35949" lon="6.76647">
        <ele>71.65557</ele>
        <time>2023-04-30T10:09:36.151Z</time>
      </trkpt>
      <trkpt lat="51.35943" lon="6.76636">
        <ele>71.770233</ele>
        <time>2023-04-30T10:09:38.172Z</time>
      </trkpt>
      <trkpt lat="51.35936" lon="6.76626">
        <ele>71.884369</ele>
        <time>2023-04-30T10:09:40.167Z</time>
      </trkpt>
      <trkpt lat="51.35927" lon="6.76611">
        <ele>72.050231</ele>
        <time>2023-04-30T10:09:43.185Z</time>
      </trkpt>
      <trkpt lat="51.35918" lon="6.76596">
        <ele>72.21355</ele>
        <time>2023-04-30T10:09:46.174Z</time>
      </trkpt>
      <trkpt lat="51.35908" lon="6.76582">
        <ele>72.37312</ele>
        <time>2023-04-30T10:09:49.169Z</time>
      </trkpt>
      <trkpt lat="51.35898" lon="6.76568">
        <ele>72.540742</ele>
        <time>2023-04-30T10:09:52.168Z</time>
      </trkpt>
      <trkpt lat="51.35887" lon="6.76555">
        <ele>72.625071</ele>
        <time>2023-04-30T10:09:55.182Z</time>
      </trkpt>
      <trkpt lat="51.35879" lon="6.76546">
        <ele>72.597414</ele>
        <time>2023-04-30T10:09:57.177Z</time>
      </trkpt>
      <trkpt lat="51.35872" lon="6.76536">
        <ele>72.569552</ele>
        <time>2023-04-30T10:09:59.189Z</time>
      </trkpt>
      <trkpt lat="51.35863" lon="6.76525">
        <ele>72.538463</ele>
        <time>2023-04-30T10:10:01.187Z</time>
      </trkpt>
      <trkpt lat="51.35855" lon="6.76512">
        <ele>72.506717</ele>
        <time>2023-04-30T10:10:03.180Z</time>
      </trkpt>
      <trkpt lat="51.35846" lon="6.76501">
        <ele>72.47373</ele>
        <time>2023-04-30T10:10:05.191Z</time>
      </trkpt>
      <trkpt lat="51.35838" lon="6.76488">
        <ele>72.440541</ele>
        <time>2023-04-30T10:10:07.164Z</time>
      </trkpt>
      <trkpt lat="51.35829" lon="6.76476">
        <ele>72.407892</ele>
        <time>2023-04-30T10:10:09.163Z</time>
      </trkpt>
      <trkpt lat="51.35821" lon="6.76463">
        <ele>72.376014</ele>
        <time>2023-04-30T10:10:11.171Z</time>
      </trkpt>
      <trkpt lat="51.35813" lon="6.76452">
        <ele>72.344777</ele>
        <time>2023-04-30T10:10:13.164Z</time>
      </trkpt>
      <trkpt lat="51.35805" lon="6.7644">
        <ele>72.313303</ele>
        <time>2023-04-30T10:10:15.161Z</time>
      </trkpt>
      <trkpt lat="51.35797" lon="6.76429">
        <ele>72.282085</ele>
        <time>2023-04-30T10:10:17.176Z</time>
      </trkpt>
      <trkpt lat="51.35788" lon="6.76417">
        <ele>72.250966</ele>
        <time>2023-04-30T10:10:19.170Z</time>
      </trkpt>
      <trkpt lat="51.35782" lon="6.76406">
        <ele>72.223967</ele>
        <time>2023-04-30T10:10:21.166Z</time>
      </trkpt>
      <trkpt lat="51.35778" lon="6.76393">
        <ele>72.197683</ele>
        <time>2023-04-30T10:10:23.169Z</time>
      </trkpt>
      <trkpt lat="51.35782" lon="6.76372">
        <ele>72.159636</ele>
        <time>2023-04-30T10:10:26.164Z</time>
      </trkpt>
      <trkpt lat="51.35789" lon="6.76354">
        <ele>72.126483</ele>
        <time>2023-04-30T10:10:29.193Z</time>
      </trkpt>
      <trkpt lat="51.35793" lon="6.76336">
        <ele>72.119764</ele>
        <time>2023-04-30T10:10:32.214Z</time>
      </trkpt>
      <trkpt lat="51.35799" lon="6.76318">
        <ele>72.112751</ele>
        <time>2023-04-30T10:10:35.184Z</time>
      </trkpt>
      <trkpt lat="51.35805" lon="6.76302">
        <ele>72.106665</ele>
        <time>2023-04-30T10:10:38.160Z</time>
      </trkpt>
      <trkpt lat="51.3581" lon="6.76285">
        <ele>72.099986</ele>
        <time>2023-04-30T10:10:41.173Z</time>
      </trkpt>
      <trkpt lat="51.35816" lon="6.76271">
        <ele>72.094145</ele>
        <time>2023-04-30T10:10:44.157Z</time>
      </trkpt>
      <trkpt lat="51.3582" lon="6.76255">
        <ele>72.088232</ele>
        <time>2023-04-30T10:10:47.194Z</time>
      </trkpt>
      <trkpt lat="51.3582" lon="6.76237">
        <ele>72.082147</ele>
        <time>2023-04-30T10:10:50.177Z</time>
      </trkpt>
      <trkpt lat="51.35811" lon="6.76227">
        <ele>72.076352</ele>
        <time>2023-04-30T10:10:56.175Z</time>
      </trkpt>
      <trkpt lat="51.35801" lon="6.76219">
        <ele>72.070023</ele>
        <time>2023-04-30T10:11:00.213Z</time>
      </trkpt>
      <trkpt lat="51.35792" lon="6.76211">
        <ele>72.064486</ele>
        <time>2023-04-30T10:11:03.153Z</time>
      </trkpt>
      <trkpt lat="51.35784" lon="6.76204">
        <ele>72.0594</ele>
        <time>2023-04-30T10:11:06.175Z</time>
      </trkpt>
      <trkpt lat="51.35773" lon="6.76196">
        <ele>72.052958</ele>
        <time>2023-04-30T10:11:10.180Z</time>
      </trkpt>
      <trkpt lat="51.35764" lon="6.76188">
        <ele>72.04739</ele>
        <time>2023-04-30T10:11:13.177Z</time>
      </trkpt>
      <trkpt lat="51.35755" lon="6.7618">
        <ele>72.041565</ele>
        <time>2023-04-30T10:11:16.173Z</time>
      </trkpt>
      <trkpt lat="51.35745" lon="6.76173">
        <ele>72.035828</ele>
        <time>2023-04-30T10:11:19.178Z</time>
      </trkpt>
      <trkpt lat="51.35736" lon="6.76165">
        <ele>72.030291</ele>
        <time>2023-04-30T10:11:22.174Z</time>
      </trkpt>
      <trkpt lat="51.35728" lon="6.76157">
        <ele>72.014797</ele>
        <time>2023-04-30T10:11:25.191Z</time>
      </trkpt>
      <trkpt lat="51.35719" lon="6.76149">
        <ele>71.994885</ele>
        <time>2023-04-30T10:11:28.184Z</time>
      </trkpt>
      <trkpt lat="51.3571" lon="6.7614">
        <ele>71.974941</ele>
        <time>2023-04-30T10:11:31.176Z</time>
      </trkpt>
      <trkpt lat="51.35701" lon="6.76131">
        <ele>71.954452</ele>
        <time>2023-04-30T10:11:34.169Z</time>
      </trkpt>
      <trkpt lat="51.35691" lon="6.76121">
        <ele>71.932834</ele>
        <time>2023-04-30T10:11:37.180Z</time>
      </trkpt>
      <trkpt lat="51.35682" lon="6.76111">
        <ele>71.911556</ele>
        <time>2023-04-30T10:11:40.183Z</time>
      </trkpt>
      <trkpt lat="51.35672" lon="6.76101">
        <ele>71.887517</ele>
        <time>2023-04-30T10:11:43.175Z</time>
      </trkpt>
      <trkpt lat="51.35661" lon="6.76089">
        <ele>71.862922</ele>
        <time>2023-04-30T10:11:46.161Z</time>
      </trkpt>
      <trkpt lat="51.35649" lon="6.76078">
        <ele>71.836725</ele>
        <time>2023-04-30T10:11:49.192Z</time>
      </trkpt>
      <trkpt lat="51.35641" lon="6.76068">
        <ele>71.816846</ele>
        <time>2023-04-30T10:11:51.186Z</time>
      </trkpt>
      <trkpt lat="51.35632" lon="6.76059">
        <ele>71.796153</ele>
        <time>2023-04-30T10:11:53.187Z</time>
      </trkpt>
      <trkpt lat="51.35623" lon="6.7605">
        <ele>71.775569</ele>
        <time>2023-04-30T10:11:55.187Z</time>
      </trkpt>
      <trkpt lat="51.35613" lon="6.76041">
        <ele>71.753951</ele>
        <time>2023-04-30T10:11:57.156Z</time>
      </trkpt>
      <trkpt lat="51.35604" lon="6.7603">
        <ele>71.7322</ele>
        <time>2023-04-30T10:11:59.156Z</time>
      </trkpt>
      <trkpt lat="51.35595" lon="6.76019">
        <ele>71.71096</ele>
        <time>2023-04-30T10:12:01.161Z</time>
      </trkpt>
      <trkpt lat="51.35589" lon="6.76006">
        <ele>71.69078</ele>
        <time>2023-04-30T10:12:03.162Z</time>
      </trkpt>
      <trkpt lat="51.35585" lon="6.75988">
        <ele>71.694579</ele>
        <time>2023-04-30T10:12:05.175Z</time>
      </trkpt>
      <trkpt lat="51.35582" lon="6.7597">
        <ele>71.708995</ele>
        <time>2023-04-30T10:12:07.166Z</time>
      </trkpt>
      <trkpt lat="51.3558" lon="6.75952">
        <ele>71.722871</ele>
        <time>2023-04-30T10:12:09.153Z</time>
      </trkpt>
      <trkpt lat="51.35577" lon="6.75935">
        <ele>71.736657</ele>
        <time>2023-04-30T10:12:11.149Z</time>
      </trkpt>
      <trkpt lat="51.35575" lon="6.75918">
        <ele>71.749993</ele>
        <time>2023-04-30T10:12:13.171Z</time>
      </trkpt>
      <trkpt lat="51.35572" lon="6.75903">
        <ele>71.762669</ele>
        <time>2023-04-30T10:12:15.161Z</time>
      </trkpt>
      <trkpt lat="51.35569" lon="6.75887">
        <ele>71.774921</ele>
        <time>2023-04-30T10:12:17.175Z</time>
      </trkpt>
      <trkpt lat="51.35567" lon="6.75873">
        <ele>71.786806</ele>
        <time>2023-04-30T10:12:19.169Z</time>
      </trkpt>
      <trkpt lat="51.35565" lon="6.75857">
        <ele>71.798766</ele>
        <time>2023-04-30T10:12:21.171Z</time>
      </trkpt>
      <trkpt lat="51.35562" lon="6.75842">
        <ele>71.810726</ele>
        <time>2023-04-30T10:12:23.178Z</time>
      </trkpt>
      <trkpt lat="51.3556" lon="6.75827">
        <ele>71.822892</ele>
        <time>2023-04-30T10:12:25.174Z</time>
      </trkpt>
      <trkpt lat="51.35558" lon="6.75812">
        <ele>71.834497</ele>
        <time>2023-04-30T10:12:27.174Z</time>
      </trkpt>
      <trkpt lat="51.35556" lon="6.75798">
        <ele>71.846078</ele>
        <time>2023-04-30T10:12:29.176Z</time>
      </trkpt>
      <trkpt lat="51.35554" lon="6.75783">
        <ele>71.857869</ele>
        <time>2023-04-30T10:12:31.157Z</time>
      </trkpt>
      <trkpt lat="51.35552" lon="6.75767">
        <ele>71.870215</ele>
        <time>2023-04-30T10:12:33.154Z</time>
      </trkpt>
      <trkpt lat="51.3555" lon="6.75753">
        <ele>71.881976</ele>
        <time>2023-04-30T10:12:35.174Z</time>
      </trkpt>
      <trkpt lat="51.35548" lon="6.75737">
        <ele>71.894164</ele>
        <time>2023-04-30T10:12:37.195Z</time>
      </trkpt>
      <trkpt lat="51.35546" lon="6.75722">
        <ele>71.906376</ele>
        <time>2023-04-30T10:12:39.197Z</time>
      </trkpt>
      <trkpt lat="51.35544" lon="6.75707">
        <ele>71.932262</ele>
        <time>2023-04-30T10:12:41.193Z</time>
      </trkpt>
      <trkpt lat="51.35543" lon="6.75692">
        <ele>71.959792</ele>
        <time>2023-04-30T10:12:43.176Z</time>
      </trkpt>
      <trkpt lat="51.35541" lon="6.75677">
        <ele>71.987359</ele>
        <time>2023-04-30T10:12:45.177Z</time>
      </trkpt>
      <trkpt lat="51.35539" lon="6.75661">
        <ele>72.016427</ele>
        <time>2023-04-30T10:12:47.191Z</time>
      </trkpt>
      <trkpt lat="51.35538" lon="6.75646">
        <ele>72.045111</ele>
        <time>2023-04-30T10:12:49.183Z</time>
      </trkpt>
      <trkpt lat="51.35537" lon="6.75629">
        <ele>72.075017</ele>
        <time>2023-04-30T10:12:51.172Z</time>
      </trkpt>
      <trkpt lat="51.35535" lon="6.75614">
        <ele>72.103442</ele>
        <time>2023-04-30T10:12:53.177Z</time>
      </trkpt>
      <trkpt lat="51.35534" lon="6.75599">
        <ele>72.131688</ele>
        <time>2023-04-30T10:12:55.170Z</time>
      </trkpt>
      <trkpt lat="51.35533" lon="6.75583">
        <ele>72.160017</ele>
        <time>2023-04-30T10:12:57.187Z</time>
      </trkpt>
      <trkpt lat="51.35531" lon="6.75568">
        <ele>72.187987</ele>
        <time>2023-04-30T10:12:59.176Z</time>
      </trkpt>
      <trkpt lat="51.35529" lon="6.75552">
        <ele>72.216821</ele>
        <time>2023-04-30T10:13:01.159Z</time>
      </trkpt>
      <trkpt lat="51.35527" lon="6.75537">
        <ele>72.244939</ele>
        <time>2023-04-30T10:13:03.171Z</time>
      </trkpt>
      <trkpt lat="51.35525" lon="6.75522">
        <ele>72.273366</ele>
        <time>2023-04-30T10:13:05.182Z</time>
      </trkpt>
      <trkpt lat="51.35523" lon="6.75507">
        <ele>72.301695</ele>
        <time>2023-04-30T10:13:07.175Z</time>
      </trkpt>
      <trkpt lat="51.35522" lon="6.75491">
        <ele>72.33012</ele>
        <time>2023-04-30T10:13:09.186Z</time>
      </trkpt>
      <trkpt lat="51.3552" lon="6.75476">
        <ele>72.358295</ele>
        <time>2023-04-30T10:13:11.184Z</time>
      </trkpt>
      <trkpt lat="51.35518" lon="6.7546">
        <ele>72.388077</ele>
        <time>2023-04-30T10:13:13.177Z</time>
      </trkpt>
      <trkpt lat="51.35516" lon="6.75443">
        <ele>72.419243</ele>
        <time>2023-04-30T10:13:15.178Z</time>
      </trkpt>
      <trkpt lat="51.35515" lon="6.75426">
        <ele>72.479861</ele>
        <time>2023-04-30T10:13:17.176Z</time>
      </trkpt>
      <trkpt lat="51.35513" lon="6.75409">
        <ele>72.557644</ele>
        <time>2023-04-30T10:13:19.176Z</time>
      </trkpt>
      <trkpt lat="51.3551" lon="6.75393">
        <ele>72.634432</ele>
        <time>2023-04-30T10:13:21.179Z</time>
      </trkpt>
      <trkpt lat="51.35507" lon="6.75377">
        <ele>72.710628</ele>
        <time>2023-04-30T10:13:23.183Z</time>
      </trkpt>
      <trkpt lat="51.35504" lon="6.75361">
        <ele>72.787117</ele>
        <time>2023-04-30T10:13:25.181Z</time>
      </trkpt>
      <trkpt lat="51.355" lon="6.75344">
        <ele>72.864183</ele>
        <time>2023-04-30T10:13:27.184Z</time>
      </trkpt>
      <trkpt lat="51.35497" lon="6.75328">
        <ele>72.941346</ele>
        <time>2023-04-30T10:13:29.178Z</time>
      </trkpt>
      <trkpt lat="51.35493" lon="6.75313">
        <ele>73.017354</ele>
        <time>2023-04-30T10:13:31.186Z</time>
      </trkpt>
      <trkpt lat="51.3549" lon="6.75297">
        <ele>73.09379</ele>
        <time>2023-04-30T10:13:33.170Z</time>
      </trkpt>
      <trkpt lat="51.35486" lon="6.75281">
        <ele>73.167852</ele>
        <time>2023-04-30T10:13:35.184Z</time>
      </trkpt>
      <trkpt lat="51.35483" lon="6.75266">
        <ele>73.24112</ele>
        <time>2023-04-30T10:13:37.175Z</time>
      </trkpt>
      <trkpt lat="51.35479" lon="6.75251">
        <ele>73.31354</ele>
        <time>2023-04-30T10:13:39.175Z</time>
      </trkpt>
      <trkpt lat="51.35476" lon="6.75236">
        <ele>73.38411</ele>
        <time>2023-04-30T10:13:41.193Z</time>
      </trkpt>
      <trkpt lat="51.35472" lon="6.7522">
        <ele>73.461368</ele>
        <time>2023-04-30T10:13:43.177Z</time>
      </trkpt>
      <trkpt lat="51.35467" lon="6.75204">
        <ele>73.541555</ele>
        <time>2023-04-30T10:13:45.177Z</time>
      </trkpt>
      <trkpt lat="51.35463" lon="6.75189">
        <ele>73.61867</ele>
        <time>2023-04-30T10:13:47.185Z</time>
      </trkpt>
      <trkpt lat="51.35457" lon="6.75174">
        <ele>73.698152</ele>
        <time>2023-04-30T10:13:49.186Z</time>
      </trkpt>
      <trkpt lat="51.35452" lon="6.75159">
        <ele>73.722564</ele>
        <time>2023-04-30T10:13:51.190Z</time>
      </trkpt>
      <trkpt lat="51.35446" lon="6.75144">
        <ele>73.703618</ele>
        <time>2023-04-30T10:13:53.194Z</time>
      </trkpt>
      <trkpt lat="51.3544" lon="6.75129">
        <ele>73.684951</ele>
        <time>2023-04-30T10:13:55.175Z</time>
      </trkpt>
      <trkpt lat="51.35435" lon="6.75115">
        <ele>73.66702</ele>
        <time>2023-04-30T10:13:57.177Z</time>
      </trkpt>
      <trkpt lat="51.35429" lon="6.751">
        <ele>73.648628</ele>
        <time>2023-04-30T10:13:59.179Z</time>
      </trkpt>
      <trkpt lat="51.35424" lon="6.75086">
        <ele>73.630601</ele>
        <time>2023-04-30T10:14:01.170Z</time>
      </trkpt>
      <trkpt lat="51.35419" lon="6.75071">
        <ele>73.612371</ele>
        <time>2023-04-30T10:14:03.175Z</time>
      </trkpt>
      <trkpt lat="51.35414" lon="6.75057">
        <ele>73.594055</ele>
        <time>2023-04-30T10:14:05.178Z</time>
      </trkpt>
      <trkpt lat="51.35409" lon="6.75042">
        <ele>73.575362</ele>
        <time>2023-04-30T10:14:07.201Z</time>
      </trkpt>
      <trkpt lat="51.35403" lon="6.75027">
        <ele>73.557152</ele>
        <time>2023-04-30T10:14:09.200Z</time>
      </trkpt>
      <trkpt lat="51.35398" lon="6.75013">
        <ele>73.538663</ele>
        <time>2023-04-30T10:14:11.177Z</time>
      </trkpt>
      <trkpt lat="51.35393" lon="6.74999">
        <ele>73.521461</ele>
        <time>2023-04-30T10:14:13.188Z</time>
      </trkpt>
      <trkpt lat="51.35388" lon="6.74985">
        <ele>73.50399</ele>
        <time>2023-04-30T10:14:15.186Z</time>
      </trkpt>
      <trkpt lat="51.35381" lon="6.74972">
        <ele>73.486275</ele>
        <time>2023-04-30T10:14:17.178Z</time>
      </trkpt>
      <trkpt lat="51.35376" lon="6.74958">
        <ele>73.468527</ele>
        <time>2023-04-30T10:14:19.188Z</time>
      </trkpt>
      <trkpt lat="51.35371" lon="6.74944">
        <ele>73.450407</ele>
        <time>2023-04-30T10:14:21.172Z</time>
      </trkpt>
      <trkpt lat="51.35365" lon="6.74929">
        <ele>73.431832</ele>
        <time>2023-04-30T10:14:23.189Z</time>
      </trkpt>
      <trkpt lat="51.35359" lon="6.74915">
        <ele>73.420416</ele>
        <time>2023-04-30T10:14:25.183Z</time>
      </trkpt>
      <trkpt lat="51.35353" lon="6.749">
        <ele>73.41911</ele>
        <time>2023-04-30T10:14:27.196Z</time>
      </trkpt>
      <trkpt lat="51.35347" lon="6.74886">
        <ele>73.417772</ele>
        <time>2023-04-30T10:14:29.184Z</time>
      </trkpt>
      <trkpt lat="51.3534" lon="6.7487">
        <ele>73.416383</ele>
        <time>2023-04-30T10:14:31.182Z</time>
      </trkpt>
      <trkpt lat="51.35334" lon="6.74856">
        <ele>73.415038</ele>
        <time>2023-04-30T10:14:33.186Z</time>
      </trkpt>
      <trkpt lat="51.35328" lon="6.74843">
        <ele>73.41386</ele>
        <time>2023-04-30T10:14:35.179Z</time>
      </trkpt>
      <trkpt lat="51.35321" lon="6.74825">
        <ele>73.412292</ele>
        <time>2023-04-30T10:14:38.189Z</time>
      </trkpt>
      <trkpt lat="51.35313" lon="6.74817">
        <ele>73.411148</ele>
        <time>2023-04-30T10:14:40.155Z</time>
      </trkpt>
      <trkpt lat="51.35302" lon="6.74806">
        <ele>73.409626</ele>
        <time>2023-04-30T10:14:43.179Z</time>
      </trkpt>
      <trkpt lat="51.35293" lon="6.74795">
        <ele>73.408228</ele>
        <time>2023-04-30T10:14:46.183Z</time>
      </trkpt>
      <trkpt lat="51.35284" lon="6.74784">
        <ele>73.406909</ele>
        <time>2023-04-30T10:14:49.174Z</time>
      </trkpt>
      <trkpt lat="51.3528" lon="6.74768">
        <ele>73.405595</ele>
        <time>2023-04-30T10:14:52.168Z</time>
      </trkpt>
      <trkpt lat="51.35276" lon="6.74749">
        <ele>73.404144</ele>
        <time>2023-04-30T10:14:55.177Z</time>
      </trkpt>
      <trkpt lat="51.35275" lon="6.74731">
        <ele>73.402768</ele>
        <time>2023-04-30T10:14:58.169Z</time>
      </trkpt>
      <trkpt lat="51.35273" lon="6.74714">
        <ele>73.401431</ele>
        <time>2023-04-30T10:15:01.184Z</time>
      </trkpt>
      <trkpt lat="51.35272" lon="6.74696">
        <ele>73.400077</ele>
        <time>2023-04-30T10:15:04.187Z</time>
      </trkpt>
      <trkpt lat="51.3527" lon="6.74675">
        <ele>73.379619</ele>
        <time>2023-04-30T10:15:07.173Z</time>
      </trkpt>
      <trkpt lat="51.3527" lon="6.74659">
        <ele>73.35321</ele>
        <time>2023-04-30T10:15:09.176Z</time>
      </trkpt>
      <trkpt lat="51.35268" lon="6.74643">
        <ele>73.324422</ele>
        <time>2023-04-30T10:15:11.171Z</time>
      </trkpt>
      <trkpt lat="51.3527" lon="6.74624">
        <ele>73.292508</ele>
        <time>2023-04-30T10:15:13.178Z</time>
      </trkpt>
      <trkpt lat="51.35274" lon="6.74605">
        <ele>73.258751</ele>
        <time>2023-04-30T10:15:15.198Z</time>
      </trkpt>
      <trkpt lat="51.35277" lon="6.74587">
        <ele>73.226122</ele>
        <time>2023-04-30T10:15:17.175Z</time>
      </trkpt>
      <trkpt lat="51.35282" lon="6.7457">
        <ele>73.194172</ele>
        <time>2023-04-30T10:15:19.184Z</time>
      </trkpt>
      <trkpt lat="51.35282" lon="6.74554">
        <ele>73.166223</ele>
        <time>2023-04-30T10:15:21.181Z</time>
      </trkpt>
      <trkpt lat="51.35274" lon="6.74544">
        <ele>73.139336</ele>
        <time>2023-04-30T10:15:23.171Z</time>
      </trkpt>
      <trkpt lat="51.35264" lon="6.74543">
        <ele>73.111017</ele>
        <time>2023-04-30T10:15:25.216Z</time>
      </trkpt>
      <trkpt lat="51.35253" lon="6.74541">
        <ele>73.081044</ele>
        <time>2023-04-30T10:15:27.190Z</time>
      </trkpt>
      <trkpt lat="51.35243" lon="6.7454">
        <ele>73.052178</ele>
        <time>2023-04-30T10:15:29.181Z</time>
      </trkpt>
      <trkpt lat="51.35232" lon="6.74542">
        <ele>73.021486</ele>
        <time>2023-04-30T10:15:31.172Z</time>
      </trkpt>
      <trkpt lat="51.35221" lon="6.74547">
        <ele>72.990476</ele>
        <time>2023-04-30T10:15:33.164Z</time>
      </trkpt>
      <trkpt lat="51.35211" lon="6.74558">
        <ele>72.957401</ele>
        <time>2023-04-30T10:15:35.170Z</time>
      </trkpt>
      <trkpt lat="51.35209" lon="6.74576">
        <ele>72.927166</ele>
        <time>2023-04-30T10:15:37.164Z</time>
      </trkpt>
      <trkpt lat="51.35209" lon="6.74591">
        <ele>72.933188</ele>
        <time>2023-04-30T10:15:39.163Z</time>
      </trkpt>
      <trkpt lat="51.35212" lon="6.74611">
        <ele>73.091121</ele>
        <time>2023-04-30T10:15:42.169Z</time>
      </trkpt>
      <trkpt lat="51.35213" lon="6.74627">
        <ele>73.223868</ele>
        <time>2023-04-30T10:15:45.180Z</time>
      </trkpt>
      <trkpt lat="51.35215" lon="6.74643">
        <ele>73.356365</ele>
        <time>2023-04-30T10:15:48.184Z</time>
      </trkpt>
      <trkpt lat="51.35216" lon="6.74661">
        <ele>73.501832</ele>
        <time>2023-04-30T10:15:51.172Z</time>
      </trkpt>
      <trkpt lat="51.35219" lon="6.74679">
        <ele>73.648431</ele>
        <time>2023-04-30T10:15:54.191Z</time>
      </trkpt>
      <trkpt lat="51.35218" lon="6.74694">
        <ele>73.769944</ele>
        <time>2023-04-30T10:15:57.177Z</time>
      </trkpt>
      <trkpt lat="51.3521" lon="6.74699">
        <ele>73.885864</ele>
        <time>2023-04-30T10:16:00.170Z</time>
      </trkpt>
      <trkpt lat="51.35206" lon="6.74684">
        <ele>74.010665</ele>
        <time>2023-04-30T10:16:03.181Z</time>
      </trkpt>
      <trkpt lat="51.35208" lon="6.74666">
        <ele>74.164097</ele>
        <time>2023-04-30T10:16:07.179Z</time>
      </trkpt>
      <trkpt lat="51.35208" lon="6.74651">
        <ele>74.282913</ele>
        <time>2023-04-30T10:16:10.167Z</time>
      </trkpt>
      <trkpt lat="51.35207" lon="6.74633">
        <ele>74.430219</ele>
        <time>2023-04-30T10:16:14.181Z</time>
      </trkpt>
      <trkpt lat="51.35207" lon="6.74618">
        <ele>74.551836</ele>
        <time>2023-04-30T10:16:18.180Z</time>
      </trkpt>
      <trkpt lat="51.35206" lon="6.74603">
        <ele>74.670128</ele>
        <time>2023-04-30T10:16:22.177Z</time>
      </trkpt>
      <trkpt lat="51.35204" lon="6.74587">
        <ele>74.806236</ele>
        <time>2023-04-30T10:16:26.166Z</time>
      </trkpt>
      <trkpt lat="51.35203" lon="6.74569">
        <ele>74.948934</ele>
        <time>2023-04-30T10:16:30.182Z</time>
      </trkpt>
      <trkpt lat="51.35201" lon="6.74551">
        <ele>75.100793</ele>
        <time>2023-04-30T10:16:34.173Z</time>
      </trkpt>
      <trkpt lat="51.35199" lon="6.74534">
        <ele>75.227073</ele>
        <time>2023-04-30T10:16:37.177Z</time>
      </trkpt>
      <trkpt lat="51.35197" lon="6.74514">
        <ele>75.10606</ele>
        <time>2023-04-30T10:16:40.169Z</time>
      </trkpt>
      <trkpt lat="51.35195" lon="6.745">
        <ele>75.013399</ele>
        <time>2023-04-30T10:16:42.168Z</time>
      </trkpt>
      <trkpt lat="51.35193" lon="6.74483">
        <ele>74.908852</ele>
        <time>2023-04-30T10:16:44.180Z</time>
      </trkpt>
      <trkpt lat="51.35191" lon="6.74464">
        <ele>74.790862</ele>
        <time>2023-04-30T10:16:46.188Z</time>
      </trkpt>
      <trkpt lat="51.35189" lon="6.74448">
        <ele>74.690877</ele>
        <time>2023-04-30T10:16:48.175Z</time>
      </trkpt>
      <trkpt lat="51.35188" lon="6.74433">
        <ele>74.59868</ele>
        <time>2023-04-30T10:16:50.173Z</time>
      </trkpt>
      <trkpt lat="51.3518" lon="6.74423">
        <ele>74.496669</ele>
        <time>2023-04-30T10:16:53.159Z</time>
      </trkpt>
      <trkpt lat="51.35171" lon="6.74427">
        <ele>74.398844</ele>
        <time>2023-04-30T10:16:56.175Z</time>
      </trkpt>
      <trkpt lat="51.35161" lon="6.7442">
        <ele>74.291496</ele>
        <time>2023-04-30T10:17:03.184Z</time>
      </trkpt>
      <trkpt lat="51.3515" lon="6.74409">
        <ele>74.171578</ele>
        <time>2023-04-30T10:17:07.163Z</time>
      </trkpt>
      <trkpt lat="51.3514" lon="6.74407">
        <ele>74.066169</ele>
        <time>2023-04-30T10:17:10.182Z</time>
      </trkpt>
      <trkpt lat="51.3513" lon="6.74409">
        <ele>73.966138</ele>
        <time>2023-04-30T10:17:13.163Z</time>
      </trkpt>
      <trkpt lat="51.35118" lon="6.74409">
        <ele>73.8537</ele>
        <time>2023-04-30T10:17:16.227Z</time>
      </trkpt>
      <trkpt lat="51.35107" lon="6.74409">
        <ele>73.746191</ele>
        <time>2023-04-30T10:17:19.172Z</time>
      </trkpt>
      <trkpt lat="51.35097" lon="6.7441">
        <ele>73.638671</ele>
        <time>2023-04-30T10:17:22.160Z</time>
      </trkpt>
      <trkpt lat="51.35085" lon="6.7441">
        <ele>73.529199</ele>
        <time>2023-04-30T10:17:25.158Z</time>
      </trkpt>
      <trkpt lat="51.35075" lon="6.74407">
        <ele>73.482238</ele>
        <time>2023-04-30T10:17:28.170Z</time>
      </trkpt>
      <trkpt lat="51.35064" lon="6.74404">
        <ele>73.55107</ele>
        <time>2023-04-30T10:17:31.181Z</time>
      </trkpt>
      <trkpt lat="51.35054" lon="6.74399">
        <ele>73.617115</ele>
        <time>2023-04-30T10:17:34.177Z</time>
      </trkpt>
      <trkpt lat="51.35043" lon="6.74394">
        <ele>73.688768</ele>
        <time>2023-04-30T10:17:37.278Z</time>
      </trkpt>
      <trkpt lat="51.35033" lon="6.74387">
        <ele>73.755988</ele>
        <time>2023-04-30T10:17:40.163Z</time>
      </trkpt>
      <trkpt lat="51.35024" lon="6.7438">
        <ele>73.822471</ele>
        <time>2023-04-30T10:17:43.185Z</time>
      </trkpt>
      <trkpt lat="51.35014" lon="6.74372">
        <ele>73.89106</ele>
        <time>2023-04-30T10:17:46.181Z</time>
      </trkpt>
      <trkpt lat="51.35005" lon="6.74365">
        <ele>73.956645</ele>
        <time>2023-04-30T10:17:49.171Z</time>
      </trkpt>
      <trkpt lat="51.34994" lon="6.74357">
        <ele>74.031072</ele>
        <time>2023-04-30T10:17:52.171Z</time>
      </trkpt>
      <trkpt lat="51.34983" lon="6.74349">
        <ele>74.110268</ele>
        <time>2023-04-30T10:17:55.173Z</time>
      </trkpt>
      <trkpt lat="51.34971" lon="6.7434">
        <ele>74.187816</ele>
        <time>2023-04-30T10:17:58.185Z</time>
      </trkpt>
      <trkpt lat="51.34961" lon="6.74332">
        <ele>74.26265</ele>
        <time>2023-04-30T10:18:01.190Z</time>
      </trkpt>
      <trkpt lat="51.34949" lon="6.74324">
        <ele>74.343304</ele>
        <time>2023-04-30T10:18:04.171Z</time>
      </trkpt>
      <trkpt lat="51.34938" lon="6.74316">
        <ele>74.421659</ele>
        <time>2023-04-30T10:18:07.177Z</time>
      </trkpt>
      <trkpt lat="51.34926" lon="6.74306">
        <ele>74.504551</ele>
        <time>2023-04-30T10:18:10.181Z</time>
      </trkpt>
      <trkpt lat="51.34918" lon="6.743">
        <ele>74.561705</ele>
        <time>2023-04-30T10:18:12.169Z</time>
      </trkpt>
      <trkpt lat="51.34909" lon="6.74294">
        <ele>74.565497</ele>
        <time>2023-04-30T10:18:14.170Z</time>
      </trkpt>
      <trkpt lat="51.34901" lon="6.74287">
        <ele>74.510929</ele>
        <time>2023-04-30T10:18:16.163Z</time>
      </trkpt>
      <trkpt lat="51.34892" lon="6.7428">
        <ele>74.4551</ele>
        <time>2023-04-30T10:18:18.176Z</time>
      </trkpt>
      <trkpt lat="51.34884" lon="6.74274">
        <ele>74.400173</ele>
        <time>2023-04-30T10:18:20.176Z</time>
      </trkpt>
      <trkpt lat="51.34875" lon="6.74269">
        <ele>74.34567</ele>
        <time>2023-04-30T10:18:22.178Z</time>
      </trkpt>
      <trkpt lat="51.34863" lon="6.74259">
        <ele>74.267082</ele>
        <time>2023-04-30T10:18:25.172Z</time>
      </trkpt>
      <trkpt lat="51.34852" lon="6.74248">
        <ele>74.188627</ele>
        <time>2023-04-30T10:18:28.168Z</time>
      </trkpt>
      <trkpt lat="51.34843" lon="6.74241">
        <ele>74.134245</ele>
        <time>2023-04-30T10:18:30.171Z</time>
      </trkpt>
      <trkpt lat="51.34832" lon="6.74232">
        <ele>74.056375</ele>
        <time>2023-04-30T10:18:33.190Z</time>
      </trkpt>
      <trkpt lat="51.34823" lon="6.74225">
        <ele>74.00164</ele>
        <time>2023-04-30T10:18:35.193Z</time>
      </trkpt>
      <trkpt lat="51.34815" lon="6.74219">
        <ele>73.946857</ele>
        <time>2023-04-30T10:18:37.178Z</time>
      </trkpt>
      <trkpt lat="51.34803" lon="6.74211">
        <ele>73.870143</ele>
        <time>2023-04-30T10:18:40.172Z</time>
      </trkpt>
      <trkpt lat="51.34791" lon="6.74203">
        <ele>73.795554</ele>
        <time>2023-04-30T10:18:43.179Z</time>
      </trkpt>
      <trkpt lat="51.34779" lon="6.74196">
        <ele>73.719348</ele>
        <time>2023-04-30T10:18:46.166Z</time>
      </trkpt>
      <trkpt lat="51.34766" lon="6.74189">
        <ele>73.641913</ele>
        <time>2023-04-30T10:18:49.175Z</time>
      </trkpt>
      <trkpt lat="51.34753" lon="6.74184">
        <ele>73.563509</ele>
        <time>2023-04-30T10:18:52.165Z</time>
      </trkpt>
      <trkpt lat="51.3474" lon="6.74181">
        <ele>73.516861</ele>
        <time>2023-04-30T10:18:55.175Z</time>
      </trkpt>
      <trkpt lat="51.34731" lon="6.74181">
        <ele>73.496256</ele>
        <time>2023-04-30T10:18:57.177Z</time>
      </trkpt>
      <trkpt lat="51.34722" lon="6.74181">
        <ele>73.474515</ele>
        <time>2023-04-30T10:18:59.179Z</time>
      </trkpt>
      <trkpt lat="51.34713" lon="6.74183">
        <ele>73.453808</ele>
        <time>2023-04-30T10:19:01.166Z</time>
      </trkpt>
      <trkpt lat="51.34704" lon="6.74185">
        <ele>73.432678</ele>
        <time>2023-04-30T10:19:03.194Z</time>
      </trkpt>
      <trkpt lat="51.34694" lon="6.74189">
        <ele>73.410526</ele>
        <time>2023-04-30T10:19:05.173Z</time>
      </trkpt>
      <trkpt lat="51.34684" lon="6.74193">
        <ele>73.386388</ele>
        <time>2023-04-30T10:19:07.198Z</time>
      </trkpt>
      <trkpt lat="51.34674" lon="6.74198">
        <ele>73.36189</ele>
        <time>2023-04-30T10:19:09.183Z</time>
      </trkpt>
      <trkpt lat="51.34664" lon="6.74204">
        <ele>73.337567</ele>
        <time>2023-04-30T10:19:11.177Z</time>
      </trkpt>
      <trkpt lat="51.34654" lon="6.7421">
        <ele>73.313127</ele>
        <time>2023-04-30T10:19:13.173Z</time>
      </trkpt>
      <trkpt lat="51.34644" lon="6.74215">
        <ele>73.28996</ele>
        <time>2023-04-30T10:19:15.197Z</time>
      </trkpt>
      <trkpt lat="51.34634" lon="6.7422">
        <ele>73.264491</ele>
        <time>2023-04-30T10:19:17.178Z</time>
      </trkpt>
      <trkpt lat="51.34623" lon="6.74227">
        <ele>73.238301</ele>
        <time>2023-04-30T10:19:19.195Z</time>
      </trkpt>
      <trkpt lat="51.34612" lon="6.74233">
        <ele>73.213098</ele>
        <time>2023-04-30T10:19:21.175Z</time>
      </trkpt>
      <trkpt lat="51.34603" lon="6.74239">
        <ele>73.188822</ele>
        <time>2023-04-30T10:19:23.177Z</time>
      </trkpt>
      <trkpt lat="51.34593" lon="6.74244">
        <ele>73.165536</ele>
        <time>2023-04-30T10:19:25.172Z</time>
      </trkpt>
      <trkpt lat="51.34583" lon="6.74249">
        <ele>73.141726</ele>
        <time>2023-04-30T10:19:27.191Z</time>
      </trkpt>
      <trkpt lat="51.34573" lon="6.74253">
        <ele>73.136445</ele>
        <time>2023-04-30T10:19:29.182Z</time>
      </trkpt>
      <trkpt lat="51.34563" lon="6.74257">
        <ele>73.175128</ele>
        <time>2023-04-30T10:19:31.187Z</time>
      </trkpt>
      <trkpt lat="51.34551" lon="6.74263">
        <ele>73.220961</ele>
        <time>2023-04-30T10:19:33.177Z</time>
      </trkpt>
      <trkpt lat="51.34541" lon="6.74268">
        <ele>73.260686</ele>
        <time>2023-04-30T10:19:35.175Z</time>
      </trkpt>
      <trkpt lat="51.3453" lon="6.74272">
        <ele>73.301713</ele>
        <time>2023-04-30T10:19:37.176Z</time>
      </trkpt>
      <trkpt lat="51.3452" lon="6.74276">
        <ele>73.340403</ele>
        <time>2023-04-30T10:19:39.181Z</time>
      </trkpt>
      <trkpt lat="51.3451" lon="6.74279">
        <ele>73.378791</ele>
        <time>2023-04-30T10:19:41.186Z</time>
      </trkpt>
      <trkpt lat="51.345" lon="6.74284">
        <ele>73.41921</ele>
        <time>2023-04-30T10:19:43.192Z</time>
      </trkpt>
      <trkpt lat="51.3449" lon="6.74288">
        <ele>73.458021</ele>
        <time>2023-04-30T10:19:45.177Z</time>
      </trkpt>
      <trkpt lat="51.34479" lon="6.74292">
        <ele>73.497129</ele>
        <time>2023-04-30T10:19:47.187Z</time>
      </trkpt>
      <trkpt lat="51.34469" lon="6.74298">
        <ele>73.536077</ele>
        <time>2023-04-30T10:19:49.180Z</time>
      </trkpt>
      <trkpt lat="51.34459" lon="6.74303">
        <ele>73.576439</ele>
        <time>2023-04-30T10:19:51.175Z</time>
      </trkpt>
      <trkpt lat="51.3445" lon="6.7431">
        <ele>73.615626</ele>
        <time>2023-04-30T10:19:53.164Z</time>
      </trkpt>
      <trkpt lat="51.34441" lon="6.74318">
        <ele>73.652646</ele>
        <time>2023-04-30T10:19:55.166Z</time>
      </trkpt>
      <trkpt lat="51.34432" lon="6.74327">
        <ele>73.69122</ele>
        <time>2023-04-30T10:19:57.171Z</time>
      </trkpt>
      <trkpt lat="51.34424" lon="6.74336">
        <ele>73.727281</ele>
        <time>2023-04-30T10:19:59.159Z</time>
      </trkpt>
      <trkpt lat="51.34418" lon="6.74348">
        <ele>73.762862</ele>
        <time>2023-04-30T10:20:01.167Z</time>
      </trkpt>
      <trkpt lat="51.34411" lon="6.74359">
        <ele>73.772147</ele>
        <time>2023-04-30T10:20:03.193Z</time>
      </trkpt>
      <trkpt lat="51.34404" lon="6.74371">
        <ele>73.633938</ele>
        <time>2023-04-30T10:20:05.184Z</time>
      </trkpt>
      <trkpt lat="51.34398" lon="6.74382">
        <ele>73.5013</ele>
        <time>2023-04-30T10:20:07.175Z</time>
      </trkpt>
      <trkpt lat="51.34391" lon="6.74395">
        <ele>73.350254</ele>
        <time>2023-04-30T10:20:09.183Z</time>
      </trkpt>
      <trkpt lat="51.34384" lon="6.74408">
        <ele>73.205542</ele>
        <time>2023-04-30T10:20:11.173Z</time>
      </trkpt>
      <trkpt lat="51.34378" lon="6.7442">
        <ele>73.066644</ele>
        <time>2023-04-30T10:20:13.175Z</time>
      </trkpt>
      <trkpt lat="51.3437" lon="6.74431">
        <ele>72.921479</ele>
        <time>2023-04-30T10:20:15.160Z</time>
      </trkpt>
      <trkpt lat="51.34363" lon="6.74444">
        <ele>72.773962</ele>
        <time>2023-04-30T10:20:17.184Z</time>
      </trkpt>
      <trkpt lat="51.34355" lon="6.74457">
        <ele>72.616574</ele>
        <time>2023-04-30T10:20:19.189Z</time>
      </trkpt>
      <trkpt lat="51.34348" lon="6.74469">
        <ele>72.467117</ele>
        <time>2023-04-30T10:20:21.192Z</time>
      </trkpt>
      <trkpt lat="51.34341" lon="6.74482">
        <ele>72.317066</ele>
        <time>2023-04-30T10:20:23.181Z</time>
      </trkpt>
      <trkpt lat="51.34333" lon="6.74493">
        <ele>72.170714</ele>
        <time>2023-04-30T10:20:25.172Z</time>
      </trkpt>
      <trkpt lat="51.34325" lon="6.74504">
        <ele>72.03118</ele>
        <time>2023-04-30T10:20:27.177Z</time>
      </trkpt>
      <trkpt lat="51.34318" lon="6.74513">
        <ele>71.898591</ele>
        <time>2023-04-30T10:20:29.178Z</time>
      </trkpt>
      <trkpt lat="51.3431" lon="6.74523">
        <ele>71.762646</ele>
        <time>2023-04-30T10:20:31.185Z</time>
      </trkpt>
      <trkpt lat="51.34302" lon="6.74532">
        <ele>71.620647</ele>
        <time>2023-04-30T10:20:33.176Z</time>
      </trkpt>
      <trkpt lat="51.34294" lon="6.74542">
        <ele>71.477086</ele>
        <time>2023-04-30T10:20:35.194Z</time>
      </trkpt>
      <trkpt lat="51.34286" lon="6.74552">
        <ele>71.336807</ele>
        <time>2023-04-30T10:20:37.179Z</time>
      </trkpt>
      <trkpt lat="51.34277" lon="6.74562">
        <ele>71.196034</ele>
        <time>2023-04-30T10:20:39.178Z</time>
      </trkpt>
      <trkpt lat="51.34268" lon="6.74571">
        <ele>71.065303</ele>
        <time>2023-04-30T10:20:41.186Z</time>
      </trkpt>
      <trkpt lat="51.3426" lon="6.7458">
        <ele>70.936649</ele>
        <time>2023-04-30T10:20:43.172Z</time>
      </trkpt>
      <trkpt lat="51.34251" lon="6.74591">
        <ele>70.79904</ele>
        <time>2023-04-30T10:20:45.179Z</time>
      </trkpt>
      <trkpt lat="51.34242" lon="6.74602">
        <ele>70.658721</ele>
        <time>2023-04-30T10:20:47.186Z</time>
      </trkpt>
      <trkpt lat="51.34233" lon="6.74613">
        <ele>70.525682</ele>
        <time>2023-04-30T10:20:49.191Z</time>
      </trkpt>
      <trkpt lat="51.34225" lon="6.74623">
        <ele>70.398451</ele>
        <time>2023-04-30T10:20:51.176Z</time>
      </trkpt>
      <trkpt lat="51.34217" lon="6.74632">
        <ele>70.274139</ele>
        <time>2023-04-30T10:20:53.178Z</time>
      </trkpt>
      <trkpt lat="51.34209" lon="6.74641">
        <ele>70.146548</ele>
        <time>2023-04-30T10:20:55.182Z</time>
      </trkpt>
      <trkpt lat="51.34201" lon="6.74652">
        <ele>70.019502</ele>
        <time>2023-04-30T10:20:57.180Z</time>
      </trkpt>
      <trkpt lat="51.34193" lon="6.7466">
        <ele>69.900462</ele>
        <time>2023-04-30T10:20:59.185Z</time>
      </trkpt>
      <trkpt lat="51.34185" lon="6.7467">
        <ele>69.777564</ele>
        <time>2023-04-30T10:21:01.182Z</time>
      </trkpt>
      <trkpt lat="51.34177" lon="6.7468">
        <ele>69.646941</ele>
        <time>2023-04-30T10:21:03.187Z</time>
      </trkpt>
      <trkpt lat="51.34166" lon="6.74692">
        <ele>69.479128</ele>
        <time>2023-04-30T10:21:06.173Z</time>
      </trkpt>
      <trkpt lat="51.34158" lon="6.74701">
        <ele>69.360997</ele>
        <time>2023-04-30T10:21:08.175Z</time>
      </trkpt>
      <trkpt lat="51.34147" lon="6.74714">
        <ele>69.193854</ele>
        <time>2023-04-30T10:21:11.178Z</time>
      </trkpt>
      <trkpt lat="51.34137" lon="6.74726">
        <ele>69.056992</ele>
        <time>2023-04-30T10:21:14.175Z</time>
      </trkpt>
      <trkpt lat="51.34126" lon="6.74738">
        <ele>69.25307</ele>
        <time>2023-04-30T10:21:17.176Z</time>
      </trkpt>
      <trkpt lat="51.34118" lon="6.74746">
        <ele>69.389115</ele>
        <time>2023-04-30T10:21:19.193Z</time>
      </trkpt>
      <trkpt lat="51.34111" lon="6.74755">
        <ele>69.527747</ele>
        <time>2023-04-30T10:21:21.174Z</time>
      </trkpt>
      <trkpt lat="51.34104" lon="6.74764">
        <ele>69.667753</ele>
        <time>2023-04-30T10:21:23.200Z</time>
      </trkpt>
      <trkpt lat="51.34096" lon="6.74773">
        <ele>69.814053</ele>
        <time>2023-04-30T10:21:25.181Z</time>
      </trkpt>
      <trkpt lat="51.34088" lon="6.74783">
        <ele>69.964975</ele>
        <time>2023-04-30T10:21:27.193Z</time>
      </trkpt>
      <trkpt lat="51.34077" lon="6.74793">
        <ele>70.157555</ele>
        <time>2023-04-30T10:21:30.176Z</time>
      </trkpt>
      <trkpt lat="51.34066" lon="6.74805">
        <ele>70.347669</ele>
        <time>2023-04-30T10:21:33.175Z</time>
      </trkpt>
      <trkpt lat="51.34054" lon="6.74812">
        <ele>70.544241</ele>
        <time>2023-04-30T10:21:36.171Z</time>
      </trkpt>
      <trkpt lat="51.34042" lon="6.74818">
        <ele>70.736046</ele>
        <time>2023-04-30T10:21:39.194Z</time>
      </trkpt>
      <trkpt lat="51.3403" lon="6.74825">
        <ele>70.927903</ele>
        <time>2023-04-30T10:21:42.177Z</time>
      </trkpt>
      <trkpt lat="51.34017" lon="6.7483">
        <ele>71.117576</ele>
        <time>2023-04-30T10:21:45.181Z</time>
      </trkpt>
      <trkpt lat="51.34005" lon="6.74833">
        <ele>71.302259</ele>
        <time>2023-04-30T10:21:48.189Z</time>
      </trkpt>
      <trkpt lat="51.33993" lon="6.74837">
        <ele>71.481732</ele>
        <time>2023-04-30T10:21:51.180Z</time>
      </trkpt>
      <trkpt lat="51.33982" lon="6.74839">
        <ele>71.656884</ele>
        <time>2023-04-30T10:21:54.193Z</time>
      </trkpt>
      <trkpt lat="51.3397" lon="6.74842">
        <ele>71.664047</ele>
        <time>2023-04-30T10:21:57.173Z</time>
      </trkpt>
      <trkpt lat="51.33957" lon="6.74844">
        <ele>71.512757</ele>
        <time>2023-04-30T10:22:00.185Z</time>
      </trkpt>
      <trkpt lat="51.33945" lon="6.74846">
        <ele>71.365958</ele>
        <time>2023-04-30T10:22:03.184Z</time>
      </trkpt>
      <trkpt lat="51.33932" lon="6.74847">
        <ele>71.212576</ele>
        <time>2023-04-30T10:22:06.158Z</time>
      </trkpt>
      <trkpt lat="51.3392" lon="6.74849">
        <ele>71.068193</ele>
        <time>2023-04-30T10:22:09.184Z</time>
      </trkpt>
      <trkpt lat="51.33908" lon="6.74851">
        <ele>70.933923</ele>
        <time>2023-04-30T10:22:12.169Z</time>
      </trkpt>
      <trkpt lat="51.33897" lon="6.74854">
        <ele>70.792137</ele>
        <time>2023-04-30T10:22:15.178Z</time>
      </trkpt>
      <trkpt lat="51.33884" lon="6.74858">
        <ele>70.642994</ele>
        <time>2023-04-30T10:22:18.185Z</time>
      </trkpt>
      <trkpt lat="51.33872" lon="6.7486">
        <ele>70.502974</ele>
        <time>2023-04-30T10:22:21.172Z</time>
      </trkpt>
      <trkpt lat="51.3386" lon="6.74862">
        <ele>70.362108</ele>
        <time>2023-04-30T10:22:24.195Z</time>
      </trkpt>
      <trkpt lat="51.33848" lon="6.74867">
        <ele>70.206592</ele>
        <time>2023-04-30T10:22:27.179Z</time>
      </trkpt>
      <trkpt lat="51.33834" lon="6.7487">
        <ele>70.049224</ele>
        <time>2023-04-30T10:22:30.196Z</time>
      </trkpt>
      <trkpt lat="51.33825" lon="6.74873">
        <ele>69.939318</ele>
        <time>2023-04-30T10:22:32.177Z</time>
      </trkpt>
      <trkpt lat="51.33816" lon="6.74875">
        <ele>69.832186</ele>
        <time>2023-04-30T10:22:34.192Z</time>
      </trkpt>
      <trkpt lat="51.33807" lon="6.74878">
        <ele>69.720286</ele>
        <time>2023-04-30T10:22:36.185Z</time>
      </trkpt>
      <trkpt lat="51.33797" lon="6.7488">
        <ele>69.618337</ele>
        <time>2023-04-30T10:22:38.172Z</time>
      </trkpt>
      <trkpt lat="51.33788" lon="6.74883">
        <ele>69.603766</ele>
        <time>2023-04-30T10:22:40.174Z</time>
      </trkpt>
      <trkpt lat="51.33777" lon="6.74886">
        <ele>69.588132</ele>
        <time>2023-04-30T10:22:42.171Z</time>
      </trkpt>
      <trkpt lat="51.33767" lon="6.7489">
        <ele>69.572315</ele>
        <time>2023-04-30T10:22:44.168Z</time>
      </trkpt>
      <trkpt lat="51.33756" lon="6.74894">
        <ele>69.556642</ele>
        <time>2023-04-30T10:22:46.172Z</time>
      </trkpt>
      <trkpt lat="51.33746" lon="6.74897">
        <ele>69.541102</ele>
        <time>2023-04-30T10:22:48.164Z</time>
      </trkpt>
      <trkpt lat="51.33735" lon="6.749">
        <ele>69.524951</ele>
        <time>2023-04-30T10:22:50.174Z</time>
      </trkpt>
      <trkpt lat="51.33724" lon="6.74904">
        <ele>69.508829</ele>
        <time>2023-04-30T10:22:52.179Z</time>
      </trkpt>
      <trkpt lat="51.33714" lon="6.74909">
        <ele>69.492805</ele>
        <time>2023-04-30T10:22:54.186Z</time>
      </trkpt>
      <trkpt lat="51.33704" lon="6.74912">
        <ele>69.477642</ele>
        <time>2023-04-30T10:22:56.183Z</time>
      </trkpt>
      <trkpt lat="51.33693" lon="6.74917">
        <ele>69.461527</ele>
        <time>2023-04-30T10:22:58.176Z</time>
      </trkpt>
      <trkpt lat="51.33683" lon="6.74921">
        <ele>69.446629</ele>
        <time>2023-04-30T10:23:00.175Z</time>
      </trkpt>
      <trkpt lat="51.33674" lon="6.74926">
        <ele>69.432402</ele>
        <time>2023-04-30T10:23:02.174Z</time>
      </trkpt>
      <trkpt lat="51.33664" lon="6.74929">
        <ele>69.417888</ele>
        <time>2023-04-30T10:23:04.178Z</time>
      </trkpt>
      <trkpt lat="51.33655" lon="6.74933">
        <ele>69.404523</ele>
        <time>2023-04-30T10:23:06.174Z</time>
      </trkpt>
      <trkpt lat="51.33646" lon="6.74934">
        <ele>69.390944</ele>
        <time>2023-04-30T10:23:08.180Z</time>
      </trkpt>
      <trkpt lat="51.33637" lon="6.74936">
        <ele>69.377744</ele>
        <time>2023-04-30T10:23:10.173Z</time>
      </trkpt>
      <trkpt lat="51.33628" lon="6.74938">
        <ele>69.364484</ele>
        <time>2023-04-30T10:23:12.170Z</time>
      </trkpt>
      <trkpt lat="51.33619" lon="6.74939">
        <ele>69.402894</ele>
        <time>2023-04-30T10:23:14.176Z</time>
      </trkpt>
      <trkpt lat="51.33609" lon="6.74941">
        <ele>69.527088</ele>
        <time>2023-04-30T10:23:16.167Z</time>
      </trkpt>
      <trkpt lat="51.33599" lon="6.74942">
        <ele>69.648753</ele>
        <time>2023-04-30T10:23:18.170Z</time>
      </trkpt>
      <trkpt lat="51.33589" lon="6.74942">
        <ele>69.768836</ele>
        <time>2023-04-30T10:23:20.174Z</time>
      </trkpt>
      <trkpt lat="51.3358" lon="6.74942">
        <ele>69.885205</ele>
        <time>2023-04-30T10:23:22.178Z</time>
      </trkpt>
      <trkpt lat="51.3357" lon="6.74943">
        <ele>70.009013</ele>
        <time>2023-04-30T10:23:24.176Z</time>
      </trkpt>
      <trkpt lat="51.3356" lon="6.74942">
        <ele>70.137788</ele>
        <time>2023-04-30T10:23:26.166Z</time>
      </trkpt>
      <trkpt lat="51.3355" lon="6.74941">
        <ele>70.260534</ele>
        <time>2023-04-30T10:23:28.167Z</time>
      </trkpt>
      <trkpt lat="51.3354" lon="6.7494">
        <ele>70.378628</ele>
        <time>2023-04-30T10:23:30.180Z</time>
      </trkpt>
      <trkpt lat="51.3353" lon="6.74938">
        <ele>70.504513</ele>
        <time>2023-04-30T10:23:32.186Z</time>
      </trkpt>
      <trkpt lat="51.3352" lon="6.74936">
        <ele>70.626534</ele>
        <time>2023-04-30T10:23:34.175Z</time>
      </trkpt>
      <trkpt lat="51.3351" lon="6.74934">
        <ele>70.751943</ele>
        <time>2023-04-30T10:23:36.168Z</time>
      </trkpt>
      <trkpt lat="51.335" lon="6.74931">
        <ele>70.87639</ele>
        <time>2023-04-30T10:23:38.173Z</time>
      </trkpt>
      <trkpt lat="51.33491" lon="6.74929">
        <ele>70.998783</ele>
        <time>2023-04-30T10:23:40.173Z</time>
      </trkpt>
      <trkpt lat="51.33482" lon="6.74926">
        <ele>71.112824</ele>
        <time>2023-04-30T10:23:42.177Z</time>
      </trkpt>
      <trkpt lat="51.33473" lon="6.74924">
        <ele>71.2253</ele>
        <time>2023-04-30T10:23:44.182Z</time>
      </trkpt>
      <trkpt lat="51.33464" lon="6.7492">
        <ele>71.341347</ele>
        <time>2023-04-30T10:23:46.176Z</time>
      </trkpt>
      <trkpt lat="51.33454" lon="6.74916">
        <ele>71.463986</ele>
        <time>2023-04-30T10:23:48.183Z</time>
      </trkpt>
      <trkpt lat="51.33444" lon="6.74913">
        <ele>71.582557</ele>
        <time>2023-04-30T10:23:50.191Z</time>
      </trkpt>
      <trkpt lat="51.33435" lon="6.74908">
        <ele>71.580259</ele>
        <time>2023-04-30T10:23:52.187Z</time>
      </trkpt>
      <trkpt lat="51.33426" lon="6.74903">
        <ele>71.577884</ele>
        <time>2023-04-30T10:23:54.174Z</time>
      </trkpt>
      <trkpt lat="51.33416" lon="6.74899">
        <ele>71.575582</ele>
        <time>2023-04-30T10:23:56.176Z</time>
      </trkpt>
      <trkpt lat="51.33407" lon="6.74894">
        <ele>71.573314</ele>
        <time>2023-04-30T10:23:58.173Z</time>
      </trkpt>
      <trkpt lat="51.33398" lon="6.7489">
        <ele>71.571131</ele>
        <time>2023-04-30T10:24:00.157Z</time>
      </trkpt>
      <trkpt lat="51.33389" lon="6.74886">
        <ele>71.5689</ele>
        <time>2023-04-30T10:24:02.168Z</time>
      </trkpt>
      <trkpt lat="51.3338" lon="6.74882">
        <ele>71.566686</ele>
        <time>2023-04-30T10:24:04.187Z</time>
      </trkpt>
      <trkpt lat="51.33371" lon="6.74877">
        <ele>71.564397</ele>
        <time>2023-04-30T10:24:06.178Z</time>
      </trkpt>
      <trkpt lat="51.33362" lon="6.74871">
        <ele>71.562107</ele>
        <time>2023-04-30T10:24:08.176Z</time>
      </trkpt>
      <trkpt lat="51.33353" lon="6.74865">
        <ele>71.559755</ele>
        <time>2023-04-30T10:24:10.183Z</time>
      </trkpt>
      <trkpt lat="51.33344" lon="6.74858">
        <ele>71.557388</ele>
        <time>2023-04-30T10:24:12.170Z</time>
      </trkpt>
      <trkpt lat="51.33335" lon="6.74851">
        <ele>71.554987</ele>
        <time>2023-04-30T10:24:14.179Z</time>
      </trkpt>
      <trkpt lat="51.33326" lon="6.74843">
        <ele>71.5526</ele>
        <time>2023-04-30T10:24:16.167Z</time>
      </trkpt>
      <trkpt lat="51.33317" lon="6.74835">
        <ele>71.550184</ele>
        <time>2023-04-30T10:24:18.172Z</time>
      </trkpt>
      <trkpt lat="51.33308" lon="6.74827">
        <ele>71.547762</ele>
        <time>2023-04-30T10:24:20.168Z</time>
      </trkpt>
      <trkpt lat="51.33299" lon="6.74819">
        <ele>71.545347</ele>
        <time>2023-04-30T10:24:22.181Z</time>
      </trkpt>
      <trkpt lat="51.33291" lon="6.74811">
        <ele>71.543063</ele>
        <time>2023-04-30T10:24:24.172Z</time>
      </trkpt>
      <trkpt lat="51.33282" lon="6.74802">
        <ele>71.540636</ele>
        <time>2023-04-30T10:24:26.167Z</time>
      </trkpt>
      <trkpt lat="51.33273" lon="6.74794">
        <ele>71.588186</ele>
        <time>2023-04-30T10:24:28.181Z</time>
      </trkpt>
      <trkpt lat="51.33264" lon="6.74785">
        <ele>71.651491</ele>
        <time>2023-04-30T10:24:30.182Z</time>
      </trkpt>
      <trkpt lat="51.33256" lon="6.74776">
        <ele>71.711988</ele>
        <time>2023-04-30T10:24:32.175Z</time>
      </trkpt>
      <trkpt lat="51.33247" lon="6.74768">
        <ele>71.772824</ele>
        <time>2023-04-30T10:24:34.173Z</time>
      </trkpt>
      <trkpt lat="51.33238" lon="6.7476">
        <ele>71.83392</ele>
        <time>2023-04-30T10:24:36.162Z</time>
      </trkpt>
      <trkpt lat="51.33229" lon="6.74751">
        <ele>71.897734</ele>
        <time>2023-04-30T10:24:38.181Z</time>
      </trkpt>
      <trkpt lat="51.3322" lon="6.74742">
        <ele>71.96355</ele>
        <time>2023-04-30T10:24:40.172Z</time>
      </trkpt>
      <trkpt lat="51.33211" lon="6.74735">
        <ele>72.02318</ele>
        <time>2023-04-30T10:24:42.186Z</time>
      </trkpt>
      <trkpt lat="51.33202" lon="6.74727">
        <ele>72.084017</ele>
        <time>2023-04-30T10:24:44.174Z</time>
      </trkpt>
      <trkpt lat="51.33193" lon="6.7472">
        <ele>72.146905</ele>
        <time>2023-04-30T10:24:46.162Z</time>
      </trkpt>
      <trkpt lat="51.33183" lon="6.74715">
        <ele>72.20933</ele>
        <time>2023-04-30T10:24:48.178Z</time>
      </trkpt>
      <trkpt lat="51.33173" lon="6.74709">
        <ele>72.274112</ele>
        <time>2023-04-30T10:24:50.192Z</time>
      </trkpt>
      <trkpt lat="51.33163" lon="6.74705">
        <ele>72.332899</ele>
        <time>2023-04-30T10:24:52.176Z</time>
      </trkpt>
      <trkpt lat="51.33153" lon="6.747">
        <ele>72.397046</ele>
        <time>2023-04-30T10:24:54.175Z</time>
      </trkpt>
      <trkpt lat="51.33143" lon="6.74695">
        <ele>72.460191</ele>
        <time>2023-04-30T10:24:56.172Z</time>
      </trkpt>
      <trkpt lat="51.33133" lon="6.7469">
        <ele>72.523456</ele>
        <time>2023-04-30T10:24:58.177Z</time>
      </trkpt>
      <trkpt lat="51.33123" lon="6.74684">
        <ele>72.586596</ele>
        <time>2023-04-30T10:25:00.158Z</time>
      </trkpt>
      <trkpt lat="51.33113" lon="6.7468">
        <ele>72.644337</ele>
        <time>2023-04-30T10:25:02.171Z</time>
      </trkpt>
      <trkpt lat="51.33103" lon="6.74676">
        <ele>72.700677</ele>
        <time>2023-04-30T10:25:04.175Z</time>
      </trkpt>
      <trkpt lat="51.33093" lon="6.74671">
        <ele>72.75558</ele>
        <time>2023-04-30T10:25:06.176Z</time>
      </trkpt>
      <trkpt lat="51.33084" lon="6.74666">
        <ele>72.809153</ele>
        <time>2023-04-30T10:25:08.188Z</time>
      </trkpt>
      <trkpt lat="51.33073" lon="6.74661">
        <ele>72.867385</ele>
        <time>2023-04-30T10:25:10.183Z</time>
      </trkpt>
      <trkpt lat="51.33063" lon="6.74657">
        <ele>72.923549</ele>
        <time>2023-04-30T10:25:12.191Z</time>
      </trkpt>
      <trkpt lat="51.33053" lon="6.74652">
        <ele>72.981308</ele>
        <time>2023-04-30T10:25:14.172Z</time>
      </trkpt>
      <trkpt lat="51.33043" lon="6.74648">
        <ele>73.035326</ele>
        <time>2023-04-30T10:25:16.168Z</time>
      </trkpt>
      <trkpt lat="51.33033" lon="6.74643">
        <ele>73.092164</ele>
        <time>2023-04-30T10:25:18.185Z</time>
      </trkpt>
      <trkpt lat="51.33023" lon="6.74638">
        <ele>73.147166</ele>
        <time>2023-04-30T10:25:20.178Z</time>
      </trkpt>
      <trkpt lat="51.33014" lon="6.74633">
        <ele>73.202168</ele>
        <time>2023-04-30T10:25:22.174Z</time>
      </trkpt>
      <trkpt lat="51.33004" lon="6.74628">
        <ele>73.256148</ele>
        <time>2023-04-30T10:25:24.173Z</time>
      </trkpt>
      <trkpt lat="51.32994" lon="6.74624">
        <ele>73.309463</ele>
        <time>2023-04-30T10:25:26.173Z</time>
      </trkpt>
      <trkpt lat="51.32984" lon="6.74619">
        <ele>73.364596</ele>
        <time>2023-04-30T10:25:28.175Z</time>
      </trkpt>
      <trkpt lat="51.32974" lon="6.74614">
        <ele>73.421552</ele>
        <time>2023-04-30T10:25:30.174Z</time>
      </trkpt>
      <trkpt lat="51.32964" lon="6.74609">
        <ele>73.479036</ele>
        <time>2023-04-30T10:25:32.176Z</time>
      </trkpt>
      <trkpt lat="51.32954" lon="6.74604">
        <ele>73.533939</ele>
        <time>2023-04-30T10:25:34.184Z</time>
      </trkpt>
      <trkpt lat="51.32944" lon="6.74598">
        <ele>73.582614</ele>
        <time>2023-04-30T10:25:36.161Z</time>
      </trkpt>
      <trkpt lat="51.32934" lon="6.74594">
        <ele>73.56367</ele>
        <time>2023-04-30T10:25:38.169Z</time>
      </trkpt>
      <trkpt lat="51.32924" lon="6.74589">
        <ele>73.544418</ele>
        <time>2023-04-30T10:25:40.172Z</time>
      </trkpt>
      <trkpt lat="51.32914" lon="6.74583">
        <ele>73.52506</ele>
        <time>2023-04-30T10:25:42.178Z</time>
      </trkpt>
      <trkpt lat="51.32904" lon="6.74579">
        <ele>73.506001</ele>
        <time>2023-04-30T10:25:44.189Z</time>
      </trkpt>
      <trkpt lat="51.32893" lon="6.74574">
        <ele>73.484695</ele>
        <time>2023-04-30T10:25:46.178Z</time>
      </trkpt>
      <trkpt lat="51.32882" lon="6.7457">
        <ele>73.464984</ele>
        <time>2023-04-30T10:25:48.178Z</time>
      </trkpt>
      <trkpt lat="51.32872" lon="6.74565">
        <ele>73.444771</ele>
        <time>2023-04-30T10:25:50.180Z</time>
      </trkpt>
      <trkpt lat="51.32861" lon="6.74561">
        <ele>73.424347</ele>
        <time>2023-04-30T10:25:52.168Z</time>
      </trkpt>
      <trkpt lat="51.32851" lon="6.74558">
        <ele>73.404638</ele>
        <time>2023-04-30T10:25:54.171Z</time>
      </trkpt>
      <trkpt lat="51.3284" lon="6.74553">
        <ele>73.384858</ele>
        <time>2023-04-30T10:25:56.167Z</time>
      </trkpt>
      <trkpt lat="51.3283" lon="6.74548">
        <ele>73.365297</ele>
        <time>2023-04-30T10:25:58.171Z</time>
      </trkpt>
      <trkpt lat="51.32819" lon="6.74544">
        <ele>73.344926</ele>
        <time>2023-04-30T10:26:00.189Z</time>
      </trkpt>
      <trkpt lat="51.32808" lon="6.7454">
        <ele>73.323324</ele>
        <time>2023-04-30T10:26:02.193Z</time>
      </trkpt>
      <trkpt lat="51.32797" lon="6.74536">
        <ele>73.302609</ele>
        <time>2023-04-30T10:26:04.175Z</time>
      </trkpt>
      <trkpt lat="51.32785" lon="6.74531">
        <ele>73.281154</ele>
        <time>2023-04-30T10:26:06.159Z</time>
      </trkpt>
      <trkpt lat="51.32774" lon="6.74526">
        <ele>73.259698</ele>
        <time>2023-04-30T10:26:08.173Z</time>
      </trkpt>
      <trkpt lat="51.32763" lon="6.74522">
        <ele>73.239263</ele>
        <time>2023-04-30T10:26:10.172Z</time>
      </trkpt>
      <trkpt lat="51.32752" lon="6.74519">
        <ele>73.218468</ele>
        <time>2023-04-30T10:26:12.174Z</time>
      </trkpt>
      <trkpt lat="51.3274" lon="6.74515">
        <ele>73.198287</ele>
        <time>2023-04-30T10:26:14.170Z</time>
      </trkpt>
      <trkpt lat="51.3273" lon="6.74511">
        <ele>73.17853</ele>
        <time>2023-04-30T10:26:16.159Z</time>
      </trkpt>
      <trkpt lat="51.32718" lon="6.74507">
        <ele>73.157535</ele>
        <time>2023-04-30T10:26:18.178Z</time>
      </trkpt>
      <trkpt lat="51.32707" lon="6.74504">
        <ele>73.13711</ele>
        <time>2023-04-30T10:26:20.175Z</time>
      </trkpt>
      <trkpt lat="51.32696" lon="6.745">
        <ele>73.116973</ele>
        <time>2023-04-30T10:26:22.179Z</time>
      </trkpt>
      <trkpt lat="51.32685" lon="6.74497">
        <ele>73.09714</ele>
        <time>2023-04-30T10:26:24.168Z</time>
      </trkpt>
      <trkpt lat="51.32673" lon="6.74493">
        <ele>73.076305</ele>
        <time>2023-04-30T10:26:26.170Z</time>
      </trkpt>
      <trkpt lat="51.32662" lon="6.7449">
        <ele>73.05611</ele>
        <time>2023-04-30T10:26:28.193Z</time>
      </trkpt>
      <trkpt lat="51.32651" lon="6.74487">
        <ele>73.035371</ele>
        <time>2023-04-30T10:26:30.177Z</time>
      </trkpt>
      <trkpt lat="51.3264" lon="6.74482">
        <ele>73.014987</ele>
        <time>2023-04-30T10:26:32.184Z</time>
      </trkpt>
      <trkpt lat="51.32628" lon="6.74479">
        <ele>72.994123</ele>
        <time>2023-04-30T10:26:34.173Z</time>
      </trkpt>
      <trkpt lat="51.32617" lon="6.74477">
        <ele>72.974064</ele>
        <time>2023-04-30T10:26:36.171Z</time>
      </trkpt>
      <trkpt lat="51.32606" lon="6.74474">
        <ele>72.954359</ele>
        <time>2023-04-30T10:26:38.184Z</time>
      </trkpt>
      <trkpt lat="51.32595" lon="6.7447">
        <ele>72.934896</ele>
        <time>2023-04-30T10:26:40.166Z</time>
      </trkpt>
      <trkpt lat="51.32584" lon="6.74467">
        <ele>72.92427</ele>
        <time>2023-04-30T10:26:42.193Z</time>
      </trkpt>
      <trkpt lat="51.32573" lon="6.74466">
        <ele>72.913621</ele>
        <time>2023-04-30T10:26:44.174Z</time>
      </trkpt>
      <trkpt lat="51.32562" lon="6.74462">
        <ele>72.903377</ele>
        <time>2023-04-30T10:26:46.159Z</time>
      </trkpt>
      <trkpt lat="51.32551" lon="6.7446">
        <ele>72.893363</ele>
        <time>2023-04-30T10:26:48.194Z</time>
      </trkpt>
      <trkpt lat="51.32541" lon="6.74457">
        <ele>72.883302</ele>
        <time>2023-04-30T10:26:50.174Z</time>
      </trkpt>
      <trkpt lat="51.32529" lon="6.74455">
        <ele>72.872812</ele>
        <time>2023-04-30T10:26:52.173Z</time>
      </trkpt>
      <trkpt lat="51.32518" lon="6.74452">
        <ele>72.862265</ele>
        <time>2023-04-30T10:26:54.172Z</time>
      </trkpt>
      <trkpt lat="51.32507" lon="6.7445">
        <ele>72.852037</ele>
        <time>2023-04-30T10:26:56.166Z</time>
      </trkpt>
      <trkpt lat="51.32497" lon="6.74447">
        <ele>72.841949</ele>
        <time>2023-04-30T10:26:58.170Z</time>
      </trkpt>
      <trkpt lat="51.32486" lon="6.74444">
        <ele>72.832164</ele>
        <time>2023-04-30T10:27:00.179Z</time>
      </trkpt>
      <trkpt lat="51.32476" lon="6.74445">
        <ele>72.822308</ele>
        <time>2023-04-30T10:27:02.174Z</time>
      </trkpt>
      <trkpt lat="51.32466" lon="6.74443">
        <ele>72.813309</ele>
        <time>2023-04-30T10:27:04.174Z</time>
      </trkpt>
      <trkpt lat="51.32457" lon="6.74441">
        <ele>72.804429</ele>
        <time>2023-04-30T10:27:06.186Z</time>
      </trkpt>
      <trkpt lat="51.32447" lon="6.74439">
        <ele>72.795337</ele>
        <time>2023-04-30T10:27:08.182Z</time>
      </trkpt>
      <trkpt lat="51.32436" lon="6.74437">
        <ele>72.785493</ele>
        <time>2023-04-30T10:27:10.166Z</time>
      </trkpt>
      <trkpt lat="51.32426" lon="6.74435">
        <ele>72.775464</ele>
        <time>2023-04-30T10:27:12.188Z</time>
      </trkpt>
      <trkpt lat="51.32415" lon="6.74433">
        <ele>72.772781</ele>
        <time>2023-04-30T10:27:14.184Z</time>
      </trkpt>
      <trkpt lat="51.32405" lon="6.7443">
        <ele>72.808664</ele>
        <time>2023-04-30T10:27:16.164Z</time>
      </trkpt>
      <trkpt lat="51.32394" lon="6.74428">
        <ele>72.84319</ele>
        <time>2023-04-30T10:27:18.177Z</time>
      </trkpt>
      <trkpt lat="51.32383" lon="6.74426">
        <ele>72.882372</ele>
        <time>2023-04-30T10:27:20.176Z</time>
      </trkpt>
      <trkpt lat="51.32372" lon="6.74425">
        <ele>72.917442</ele>
        <time>2023-04-30T10:27:22.171Z</time>
      </trkpt>
      <trkpt lat="51.32362" lon="6.74423">
        <ele>72.952432</ele>
        <time>2023-04-30T10:27:24.168Z</time>
      </trkpt>
      <trkpt lat="51.3235" lon="6.74421">
        <ele>72.990578</ele>
        <time>2023-04-30T10:27:26.168Z</time>
      </trkpt>
      <trkpt lat="51.3234" lon="6.74418">
        <ele>73.023986</ele>
        <time>2023-04-30T10:27:28.168Z</time>
      </trkpt>
      <trkpt lat="51.3233" lon="6.74416">
        <ele>73.05925</ele>
        <time>2023-04-30T10:27:30.176Z</time>
      </trkpt>
      <trkpt lat="51.32319" lon="6.74413">
        <ele>73.09634</ele>
        <time>2023-04-30T10:27:32.187Z</time>
      </trkpt>
      <trkpt lat="51.32308" lon="6.74412">
        <ele>73.133734</ele>
        <time>2023-04-30T10:27:34.170Z</time>
      </trkpt>
      <trkpt lat="51.32297" lon="6.74411">
        <ele>73.168456</ele>
        <time>2023-04-30T10:27:36.167Z</time>
      </trkpt>
      <trkpt lat="51.32287" lon="6.74409">
        <ele>73.204242</ele>
        <time>2023-04-30T10:27:38.171Z</time>
      </trkpt>
      <trkpt lat="51.32276" lon="6.74407">
        <ele>73.240251</ele>
        <time>2023-04-30T10:27:40.174Z</time>
      </trkpt>
      <trkpt lat="51.32266" lon="6.74405">
        <ele>73.275108</ele>
        <time>2023-04-30T10:27:42.173Z</time>
      </trkpt>
      <trkpt lat="51.32254" lon="6.74403">
        <ele>73.312635</ele>
        <time>2023-04-30T10:27:44.188Z</time>
      </trkpt>
      <trkpt lat="51.32244" lon="6.74401">
        <ele>73.348131</ele>
        <time>2023-04-30T10:27:46.165Z</time>
      </trkpt>
      <trkpt lat="51.32233" lon="6.74399">
        <ele>73.323183</ele>
        <time>2023-04-30T10:27:48.170Z</time>
      </trkpt>
      <trkpt lat="51.32222" lon="6.74398">
        <ele>73.235562</ele>
        <time>2023-04-30T10:27:50.171Z</time>
      </trkpt>
      <trkpt lat="51.32211" lon="6.74395">
        <ele>73.146525</ele>
        <time>2023-04-30T10:27:52.175Z</time>
      </trkpt>
      <trkpt lat="51.322" lon="6.74393">
        <ele>73.057025</ele>
        <time>2023-04-30T10:27:54.156Z</time>
      </trkpt>
      <trkpt lat="51.3219" lon="6.74391">
        <ele>72.977261</ele>
        <time>2023-04-30T10:27:56.179Z</time>
      </trkpt>
      <trkpt lat="51.32179" lon="6.7439">
        <ele>72.894289</ele>
        <time>2023-04-30T10:27:58.183Z</time>
      </trkpt>
      <trkpt lat="51.3217" lon="6.74387">
        <ele>72.816229</ele>
        <time>2023-04-30T10:28:00.180Z</time>
      </trkpt>
      <trkpt lat="51.3216" lon="6.74384">
        <ele>72.736522</ele>
        <time>2023-04-30T10:28:02.169Z</time>
      </trkpt>
      <trkpt lat="51.3215" lon="6.74383">
        <ele>72.657821</ele>
        <time>2023-04-30T10:28:04.178Z</time>
      </trkpt>
      <trkpt lat="51.3214" lon="6.74382">
        <ele>72.57823</ele>
        <time>2023-04-30T10:28:06.173Z</time>
      </trkpt>
      <trkpt lat="51.3213" lon="6.7438">
        <ele>72.498605</ele>
        <time>2023-04-30T10:28:08.176Z</time>
      </trkpt>
      <trkpt lat="51.3212" lon="6.74378">
        <ele>72.418052</ele>
        <time>2023-04-30T10:28:10.196Z</time>
      </trkpt>
      <trkpt lat="51.3211" lon="6.74376">
        <ele>72.33655</ele>
        <time>2023-04-30T10:28:12.155Z</time>
      </trkpt>
      <trkpt lat="51.321" lon="6.74375">
        <ele>72.257624</ele>
        <time>2023-04-30T10:28:14.172Z</time>
      </trkpt>
      <trkpt lat="51.3209" lon="6.74373">
        <ele>72.181638</ele>
        <time>2023-04-30T10:28:16.156Z</time>
      </trkpt>
      <trkpt lat="51.32081" lon="6.7437">
        <ele>72.104442</ele>
        <time>2023-04-30T10:28:18.172Z</time>
      </trkpt>
      <trkpt lat="51.32071" lon="6.74369">
        <ele>72.027837</ele>
        <time>2023-04-30T10:28:20.171Z</time>
      </trkpt>
      <trkpt lat="51.32061" lon="6.74367">
        <ele>71.945834</ele>
        <time>2023-04-30T10:28:22.164Z</time>
      </trkpt>
      <trkpt lat="51.3205" lon="6.74366">
        <ele>71.940682</ele>
        <time>2023-04-30T10:28:24.177Z</time>
      </trkpt>
      <trkpt lat="51.3204" lon="6.74363">
        <ele>71.94295</ele>
        <time>2023-04-30T10:28:26.176Z</time>
      </trkpt>
      <trkpt lat="51.32029" lon="6.74361">
        <ele>71.945166</ele>
        <time>2023-04-30T10:28:28.178Z</time>
      </trkpt>
      <trkpt lat="51.32019" lon="6.74359">
        <ele>71.947329</ele>
        <time>2023-04-30T10:28:30.187Z</time>
      </trkpt>
      <trkpt lat="51.32009" lon="6.74356">
        <ele>71.949508</ele>
        <time>2023-04-30T10:28:32.169Z</time>
      </trkpt>
      <trkpt lat="51.31999" lon="6.74354">
        <ele>71.951769</ele>
        <time>2023-04-30T10:28:34.168Z</time>
      </trkpt>
      <trkpt lat="51.31988" lon="6.74353">
        <ele>71.954022</ele>
        <time>2023-04-30T10:28:36.171Z</time>
      </trkpt>
      <trkpt lat="51.31977" lon="6.74351">
        <ele>71.956254</ele>
        <time>2023-04-30T10:28:38.177Z</time>
      </trkpt>
      <trkpt lat="51.31967" lon="6.74349">
        <ele>71.958516</ele>
        <time>2023-04-30T10:28:40.159Z</time>
      </trkpt>
      <trkpt lat="51.31957" lon="6.74347">
        <ele>71.960674</ele>
        <time>2023-04-30T10:28:42.184Z</time>
      </trkpt>
      <trkpt lat="51.31947" lon="6.74345">
        <ele>71.962783</ele>
        <time>2023-04-30T10:28:44.168Z</time>
      </trkpt>
      <trkpt lat="51.31937" lon="6.74343">
        <ele>71.964892</ele>
        <time>2023-04-30T10:28:46.188Z</time>
      </trkpt>
      <trkpt lat="51.31927" lon="6.74343">
        <ele>71.966947</ele>
        <time>2023-04-30T10:28:48.177Z</time>
      </trkpt>
      <trkpt lat="51.31917" lon="6.74341">
        <ele>71.96903</ele>
        <time>2023-04-30T10:28:50.187Z</time>
      </trkpt>
      <trkpt lat="51.31904" lon="6.74337">
        <ele>71.971872</ele>
        <time>2023-04-30T10:28:53.178Z</time>
      </trkpt>
      <trkpt lat="51.31892" lon="6.74336">
        <ele>71.974522</ele>
        <time>2023-04-30T10:28:56.173Z</time>
      </trkpt>
      <trkpt lat="51.31882" lon="6.74328">
        <ele>71.979878</ele>
        <time>2023-04-30T10:28:59.226Z</time>
      </trkpt>
      <trkpt lat="51.31871" lon="6.74322">
        <ele>72.072813</ele>
        <time>2023-04-30T10:29:02.183Z</time>
      </trkpt>
      <trkpt lat="51.31859" lon="6.74326">
        <ele>72.164174</ele>
        <time>2023-04-30T10:29:05.164Z</time>
      </trkpt>
      <trkpt lat="51.31847" lon="6.7433">
        <ele>72.263601</ele>
        <time>2023-04-30T10:29:08.195Z</time>
      </trkpt>
      <trkpt lat="51.31834" lon="6.74334">
        <ele>72.363688</ele>
        <time>2023-04-30T10:29:11.177Z</time>
      </trkpt>
      <trkpt lat="51.31824" lon="6.74339">
        <ele>72.451341</ele>
        <time>2023-04-30T10:29:14.193Z</time>
      </trkpt>
      <trkpt lat="51.31813" lon="6.74342">
        <ele>72.532902</ele>
        <time>2023-04-30T10:29:17.172Z</time>
      </trkpt>
      <trkpt lat="51.31803" lon="6.74344">
        <ele>72.612353</ele>
        <time>2023-04-30T10:29:20.173Z</time>
      </trkpt>
      <trkpt lat="51.31794" lon="6.74345">
        <ele>72.683416</ele>
        <time>2023-04-30T10:29:23.164Z</time>
      </trkpt>
      <trkpt lat="51.31784" lon="6.74349">
        <ele>72.764313</ele>
        <time>2023-04-30T10:29:27.174Z</time>
      </trkpt>
      <trkpt lat="51.31774" lon="6.74352">
        <ele>72.847408</ele>
        <time>2023-04-30T10:29:32.187Z</time>
      </trkpt>
      <trkpt lat="51.31763" lon="6.74357">
        <ele>72.936535</ele>
        <time>2023-04-30T10:29:37.169Z</time>
      </trkpt>
      <trkpt lat="51.31754" lon="6.74361">
        <ele>73.009035</ele>
        <time>2023-04-30T10:29:41.162Z</time>
      </trkpt>
      <trkpt lat="51.31745" lon="6.74363">
        <ele>73.082628</ele>
        <time>2023-04-30T10:29:46.163Z</time>
      </trkpt>
      <trkpt lat="51.31733" lon="6.74364">
        <ele>73.171195</ele>
        <time>2023-04-30T10:29:51.183Z</time>
      </trkpt>
      <trkpt lat="51.31724" lon="6.74369">
        <ele>73.248436</ele>
        <time>2023-04-30T10:29:54.159Z</time>
      </trkpt>
      <trkpt lat="51.31713" lon="6.74373">
        <ele>73.332647</ele>
        <time>2023-04-30T10:29:57.169Z</time>
      </trkpt>
      <trkpt lat="51.31703" lon="6.74376">
        <ele>73.348306</ele>
        <time>2023-04-30T10:30:00.159Z</time>
      </trkpt>
      <trkpt lat="51.31692" lon="6.74379">
        <ele>73.259138</ele>
        <time>2023-04-30T10:30:03.173Z</time>
      </trkpt>
      <trkpt lat="51.3168" lon="6.74384">
        <ele>73.155873</ele>
        <time>2023-04-30T10:30:06.163Z</time>
      </trkpt>
      <trkpt lat="51.31669" lon="6.7439">
        <ele>73.057459</ele>
        <time>2023-04-30T10:30:09.176Z</time>
      </trkpt>
      <trkpt lat="51.31656" lon="6.74395">
        <ele>72.949179</ele>
        <time>2023-04-30T10:30:12.170Z</time>
      </trkpt>
      <trkpt lat="51.31643" lon="6.74398">
        <ele>72.837569</ele>
        <time>2023-04-30T10:30:15.181Z</time>
      </trkpt>
      <trkpt lat="51.31634" lon="6.74399">
        <ele>72.760443</ele>
        <time>2023-04-30T10:30:17.174Z</time>
      </trkpt>
      <trkpt lat="51.31624" lon="6.744">
        <ele>72.679269</ele>
        <time>2023-04-30T10:30:19.176Z</time>
      </trkpt>
      <trkpt lat="51.31614" lon="6.74401">
        <ele>72.596341</ele>
        <time>2023-04-30T10:30:21.184Z</time>
      </trkpt>
      <trkpt lat="51.31604" lon="6.744">
        <ele>72.510839</ele>
        <time>2023-04-30T10:30:23.182Z</time>
      </trkpt>
      <trkpt lat="51.31594" lon="6.74401">
        <ele>72.422836</ele>
        <time>2023-04-30T10:30:25.165Z</time>
      </trkpt>
      <trkpt lat="51.31584" lon="6.74402">
        <ele>72.338298</ele>
        <time>2023-04-30T10:30:27.158Z</time>
      </trkpt>
      <trkpt lat="51.31573" lon="6.74402">
        <ele>72.252986</ele>
        <time>2023-04-30T10:30:29.185Z</time>
      </trkpt>
      <trkpt lat="51.31563" lon="6.74402">
        <ele>72.166854</ele>
        <time>2023-04-30T10:30:31.160Z</time>
      </trkpt>
      <trkpt lat="51.31552" lon="6.74402">
        <ele>72.074888</ele>
        <time>2023-04-30T10:30:33.171Z</time>
      </trkpt>
      <trkpt lat="51.31541" lon="6.74401">
        <ele>71.979469</ele>
        <time>2023-04-30T10:30:35.184Z</time>
      </trkpt>
      <trkpt lat="51.31528" lon="6.744">
        <ele>71.879398</ele>
        <time>2023-04-30T10:30:37.191Z</time>
      </trkpt>
      <trkpt lat="51.31515" lon="6.74398">
        <ele>71.849411</ele>
        <time>2023-04-30T10:30:39.201Z</time>
      </trkpt>
      <trkpt lat="51.31503" lon="6.74397">
        <ele>71.820415</ele>
        <time>2023-04-30T10:30:41.177Z</time>
      </trkpt>
      <trkpt lat="51.3149" lon="6.74396">
        <ele>71.791585</ele>
        <time>2023-04-30T10:30:43.178Z</time>
      </trkpt>
      <trkpt lat="51.31478" lon="6.74393">
        <ele>71.763817</ele>
        <time>2023-04-30T10:30:45.175Z</time>
      </trkpt>
      <trkpt lat="51.31467" lon="6.74392">
        <ele>71.737252</ele>
        <time>2023-04-30T10:30:47.175Z</time>
      </trkpt>
      <trkpt lat="51.31455" lon="6.74391">
        <ele>71.711041</ele>
        <time>2023-04-30T10:30:49.176Z</time>
      </trkpt>
      <trkpt lat="51.31444" lon="6.7439">
        <ele>71.685703</ele>
        <time>2023-04-30T10:30:51.178Z</time>
      </trkpt>
      <trkpt lat="51.31434" lon="6.74389">
        <ele>71.662111</ele>
        <time>2023-04-30T10:30:53.176Z</time>
      </trkpt>
      <trkpt lat="51.31423" lon="6.74387">
        <ele>71.637376</ele>
        <time>2023-04-30T10:30:55.189Z</time>
      </trkpt>
      <trkpt lat="51.31412" lon="6.74385">
        <ele>71.611969</ele>
        <time>2023-04-30T10:30:57.192Z</time>
      </trkpt>
      <trkpt lat="51.31402" lon="6.74383">
        <ele>71.58885</ele>
        <time>2023-04-30T10:30:59.185Z</time>
      </trkpt>
      <trkpt lat="51.31391" lon="6.74382">
        <ele>71.563698</ele>
        <time>2023-04-30T10:31:01.182Z</time>
      </trkpt>
      <trkpt lat="51.3138" lon="6.7438">
        <ele>71.537604</ele>
        <time>2023-04-30T10:31:03.196Z</time>
      </trkpt>
      <trkpt lat="51.31369" lon="6.74378">
        <ele>71.512081</ele>
        <time>2023-04-30T10:31:05.186Z</time>
      </trkpt>
      <trkpt lat="51.31359" lon="6.74376">
        <ele>71.488473</ele>
        <time>2023-04-30T10:31:07.187Z</time>
      </trkpt>
      <trkpt lat="51.31349" lon="6.74374">
        <ele>71.470752</ele>
        <time>2023-04-30T10:31:09.190Z</time>
      </trkpt>
      <trkpt lat="51.31338" lon="6.74372">
        <ele>71.498731</ele>
        <time>2023-04-30T10:31:11.185Z</time>
      </trkpt>
      <trkpt lat="51.31327" lon="6.74371">
        <ele>71.526871</ele>
        <time>2023-04-30T10:31:13.182Z</time>
      </trkpt>
      <trkpt lat="51.31317" lon="6.7437">
        <ele>71.553524</ele>
        <time>2023-04-30T10:31:15.196Z</time>
      </trkpt>
      <trkpt lat="51.31308" lon="6.74368">
        <ele>71.57757</ele>
        <time>2023-04-30T10:31:17.182Z</time>
      </trkpt>
      <trkpt lat="51.31295" lon="6.74365">
        <ele>71.611771</ele>
        <time>2023-04-30T10:31:20.171Z</time>
      </trkpt>
      <trkpt lat="51.31286" lon="6.74364">
        <ele>71.635333</ele>
        <time>2023-04-30T10:31:22.175Z</time>
      </trkpt>
      <trkpt lat="51.31274" lon="6.74361">
        <ele>71.666821</ele>
        <time>2023-04-30T10:31:25.196Z</time>
      </trkpt>
      <trkpt lat="51.31262" lon="6.74359">
        <ele>71.69849</ele>
        <time>2023-04-30T10:31:28.179Z</time>
      </trkpt>
      <trkpt lat="51.3125" lon="6.74358">
        <ele>71.728489</ele>
        <time>2023-04-30T10:31:31.180Z</time>
      </trkpt>
      <trkpt lat="51.31239" lon="6.74354">
        <ele>71.757354</ele>
        <time>2023-04-30T10:31:34.194Z</time>
      </trkpt>
      <trkpt lat="51.31228" lon="6.74353">
        <ele>71.787405</ele>
        <time>2023-04-30T10:31:37.174Z</time>
      </trkpt>
      <trkpt lat="51.31216" lon="6.74351">
        <ele>71.817471</ele>
        <time>2023-04-30T10:31:40.174Z</time>
      </trkpt>
      <trkpt lat="51.31205" lon="6.74348">
        <ele>71.84736</ele>
        <time>2023-04-30T10:31:43.183Z</time>
      </trkpt>
      <trkpt lat="51.31194" lon="6.74346">
        <ele>71.877168</ele>
        <time>2023-04-30T10:31:46.179Z</time>
      </trkpt>
      <trkpt lat="51.31182" lon="6.74344">
        <ele>71.907009</ele>
        <time>2023-04-30T10:31:49.168Z</time>
      </trkpt>
      <trkpt lat="51.31171" lon="6.74341">
        <ele>71.935616</ele>
        <time>2023-04-30T10:31:52.168Z</time>
      </trkpt>
      <trkpt lat="51.31159" lon="6.7434">
        <ele>71.931492</ele>
        <time>2023-04-30T10:31:55.183Z</time>
      </trkpt>
      <trkpt lat="51.31147" lon="6.74338">
        <ele>71.927385</ele>
        <time>2023-04-30T10:31:58.170Z</time>
      </trkpt>
      <trkpt lat="51.31134" lon="6.74338">
        <ele>71.922961</ele>
        <time>2023-04-30T10:32:01.183Z</time>
      </trkpt>
      <trkpt lat="51.31121" lon="6.74337">
        <ele>71.918638</ele>
        <time>2023-04-30T10:32:04.175Z</time>
      </trkpt>
      <trkpt lat="51.31108" lon="6.74337">
        <ele>71.914147</ele>
        <time>2023-04-30T10:32:07.154Z</time>
      </trkpt>
      <trkpt lat="51.31099" lon="6.74336">
        <ele>71.911033</ele>
        <time>2023-04-30T10:32:09.187Z</time>
      </trkpt>
      <trkpt lat="51.31085" lon="6.74335">
        <ele>71.906576</ele>
        <time>2023-04-30T10:32:12.169Z</time>
      </trkpt>
      <trkpt lat="51.31072" lon="6.74335">
        <ele>71.902151</ele>
        <time>2023-04-30T10:32:15.193Z</time>
      </trkpt>
      <trkpt lat="51.31063" lon="6.74334">
        <ele>71.898971</ele>
        <time>2023-04-30T10:32:17.173Z</time>
      </trkpt>
      <trkpt lat="51.31049" lon="6.74333">
        <ele>71.89441</ele>
        <time>2023-04-30T10:32:20.189Z</time>
      </trkpt>
      <trkpt lat="51.31036" lon="6.74332">
        <ele>71.889847</ele>
        <time>2023-04-30T10:32:23.178Z</time>
      </trkpt>
      <trkpt lat="51.31022" lon="6.7433">
        <ele>71.885305</ele>
        <time>2023-04-30T10:32:26.156Z</time>
      </trkpt>
      <trkpt lat="51.31013" lon="6.7433">
        <ele>71.882266</ele>
        <time>2023-04-30T10:32:28.174Z</time>
      </trkpt>
      <trkpt lat="51.31" lon="6.74329">
        <ele>71.877833</ele>
        <time>2023-04-30T10:32:31.176Z</time>
      </trkpt>
      <trkpt lat="51.30988" lon="6.74329">
        <ele>71.893755</ele>
        <time>2023-04-30T10:32:34.179Z</time>
      </trkpt>
      <trkpt lat="51.30978" lon="6.74327">
        <ele>71.935826</ele>
        <time>2023-04-30T10:32:36.161Z</time>
      </trkpt>
      <trkpt lat="51.30969" lon="6.74327">
        <ele>71.977759</ele>
        <time>2023-04-30T10:32:38.173Z</time>
      </trkpt>
      <trkpt lat="51.3096" lon="6.74326">
        <ele>72.01983</ele>
        <time>2023-04-30T10:32:40.178Z</time>
      </trkpt>
      <trkpt lat="51.30951" lon="6.74326">
        <ele>72.061784</ele>
        <time>2023-04-30T10:32:42.174Z</time>
      </trkpt>
      <trkpt lat="51.30938" lon="6.74325">
        <ele>72.124479</ele>
        <time>2023-04-30T10:32:45.172Z</time>
      </trkpt>
      <trkpt lat="51.30929" lon="6.74325">
        <ele>72.165957</ele>
        <time>2023-04-30T10:32:47.179Z</time>
      </trkpt>
      <trkpt lat="51.30915" lon="6.74323">
        <ele>72.227136</ele>
        <time>2023-04-30T10:32:50.169Z</time>
      </trkpt>
      <trkpt lat="51.30906" lon="6.74321">
        <ele>72.270663</ele>
        <time>2023-04-30T10:32:52.170Z</time>
      </trkpt>
      <trkpt lat="51.30896" lon="6.74321">
        <ele>72.314941</ele>
        <time>2023-04-30T10:32:54.191Z</time>
      </trkpt>
      <trkpt lat="51.30887" lon="6.74321">
        <ele>72.359175</ele>
        <time>2023-04-30T10:32:56.166Z</time>
      </trkpt>
      <trkpt lat="51.30878" lon="6.7432">
        <ele>72.40068</ele>
        <time>2023-04-30T10:32:58.187Z</time>
      </trkpt>
      <trkpt lat="51.30869" lon="6.7432">
        <ele>72.442609</ele>
        <time>2023-04-30T10:33:00.180Z</time>
      </trkpt>
      <trkpt lat="51.30855" lon="6.74318">
        <ele>72.505133</ele>
        <time>2023-04-30T10:33:03.174Z</time>
      </trkpt>
      <trkpt lat="51.30842" lon="6.74317">
        <ele>72.564615</ele>
        <time>2023-04-30T10:33:06.170Z</time>
      </trkpt>
      <trkpt lat="51.30829" lon="6.74315">
        <ele>72.626115</ele>
        <time>2023-04-30T10:33:09.184Z</time>
      </trkpt>
      <trkpt lat="51.30815" lon="6.74314">
        <ele>72.689779</ele>
        <time>2023-04-30T10:33:12.173Z</time>
      </trkpt>
      <trkpt lat="51.30806" lon="6.74313">
        <ele>72.781887</ele>
        <time>2023-04-30T10:33:14.170Z</time>
      </trkpt>
      <trkpt lat="51.30797" lon="6.74311">
        <ele>72.898553</ele>
        <time>2023-04-30T10:33:16.171Z</time>
      </trkpt>
      <trkpt lat="51.30788" lon="6.74307">
        <ele>73.009846</ele>
        <time>2023-04-30T10:33:18.167Z</time>
      </trkpt>
      <trkpt lat="51.30779" lon="6.74303">
        <ele>73.127522</ele>
        <time>2023-04-30T10:33:20.165Z</time>
      </trkpt>
      <trkpt lat="51.30766" lon="6.74297">
        <ele>73.292427</ele>
        <time>2023-04-30T10:33:23.184Z</time>
      </trkpt>
      <trkpt lat="51.30753" lon="6.74291">
        <ele>73.46196</ele>
        <time>2023-04-30T10:33:26.183Z</time>
      </trkpt>
      <trkpt lat="51.3074" lon="6.74284">
        <ele>73.631837</ele>
        <time>2023-04-30T10:33:29.148Z</time>
      </trkpt>
      <trkpt lat="51.30731" lon="6.74281">
        <ele>73.744643</ele>
        <time>2023-04-30T10:33:31.174Z</time>
      </trkpt>
      <trkpt lat="51.30722" lon="6.74276">
        <ele>73.856025</ele>
        <time>2023-04-30T10:33:33.176Z</time>
      </trkpt>
      <trkpt lat="51.30713" lon="6.74272">
        <ele>73.97809</ele>
        <time>2023-04-30T10:33:35.196Z</time>
      </trkpt>
      <trkpt lat="51.30704" lon="6.74267">
        <ele>74.090642</ele>
        <time>2023-04-30T10:33:37.181Z</time>
      </trkpt>
      <trkpt lat="51.30695" lon="6.74263">
        <ele>74.210251</ele>
        <time>2023-04-30T10:33:39.187Z</time>
      </trkpt>
      <trkpt lat="51.30686" lon="6.74258">
        <ele>74.329397</ele>
        <time>2023-04-30T10:33:41.164Z</time>
      </trkpt>
      <trkpt lat="51.30677" lon="6.74253">
        <ele>74.443373</ele>
        <time>2023-04-30T10:33:43.175Z</time>
      </trkpt>
      <trkpt lat="51.30664" lon="6.74247">
        <ele>74.611377</ele>
        <time>2023-04-30T10:33:46.167Z</time>
      </trkpt>
      <trkpt lat="51.30655" lon="6.74243">
        <ele>74.725662</ele>
        <time>2023-04-30T10:33:48.165Z</time>
      </trkpt>
      <trkpt lat="51.30646" lon="6.74239">
        <ele>74.839618</ele>
        <time>2023-04-30T10:33:50.174Z</time>
      </trkpt>
      <trkpt lat="51.30637" lon="6.74236">
        <ele>74.926326</ele>
        <time>2023-04-30T10:33:52.190Z</time>
      </trkpt>
      <trkpt lat="51.30628" lon="6.74232">
        <ele>74.903281</ele>
        <time>2023-04-30T10:33:54.169Z</time>
      </trkpt>
      <trkpt lat="51.30615" lon="6.74229">
        <ele>74.873034</ele>
        <time>2023-04-30T10:33:57.154Z</time>
      </trkpt>
      <trkpt lat="51.30609" lon="6.74217">
        <ele>74.849594</ele>
        <time>2023-04-30T10:34:00.160Z</time>
      </trkpt>
      <trkpt lat="51.30612" lon="6.74197">
        <ele>74.820067</ele>
        <time>2023-04-30T10:34:03.181Z</time>
      </trkpt>
      <trkpt lat="51.30615" lon="6.74176">
        <ele>74.787478</ele>
        <time>2023-04-30T10:34:06.182Z</time>
      </trkpt>
      <trkpt lat="51.30616" lon="6.7416">
        <ele>74.763803</ele>
        <time>2023-04-30T10:34:08.164Z</time>
      </trkpt>
      <trkpt lat="51.30618" lon="6.74144">
        <ele>74.739208</ele>
        <time>2023-04-30T10:34:10.173Z</time>
      </trkpt>
      <trkpt lat="51.30619" lon="6.74128">
        <ele>74.714821</ele>
        <time>2023-04-30T10:34:12.171Z</time>
      </trkpt>
      <trkpt lat="51.3062" lon="6.74112">
        <ele>74.690583</ele>
        <time>2023-04-30T10:34:14.188Z</time>
      </trkpt>
      <trkpt lat="51.3062" lon="6.74096">
        <ele>74.666497</ele>
        <time>2023-04-30T10:34:16.174Z</time>
      </trkpt>
      <trkpt lat="51.3062" lon="6.74079">
        <ele>74.64197</ele>
        <time>2023-04-30T10:34:18.174Z</time>
      </trkpt>
      <trkpt lat="51.30618" lon="6.74064">
        <ele>74.618064</ele>
        <time>2023-04-30T10:34:20.190Z</time>
      </trkpt>
      <trkpt lat="51.30615" lon="6.74048">
        <ele>74.594443</ele>
        <time>2023-04-30T10:34:22.182Z</time>
      </trkpt>
      <trkpt lat="51.30612" lon="6.74034">
        <ele>74.571184</ele>
        <time>2023-04-30T10:34:24.173Z</time>
      </trkpt>
      <trkpt lat="51.30609" lon="6.74019">
        <ele>74.547856</ele>
        <time>2023-04-30T10:34:26.167Z</time>
      </trkpt>
      <trkpt lat="51.30605" lon="6.74004">
        <ele>74.523148</ele>
        <time>2023-04-30T10:34:28.184Z</time>
      </trkpt>
      <trkpt lat="51.30599" lon="6.73991">
        <ele>74.502442</ele>
        <time>2023-04-30T10:34:30.169Z</time>
      </trkpt>
      <trkpt lat="51.30592" lon="6.73978">
        <ele>74.51752</ele>
        <time>2023-04-30T10:34:32.167Z</time>
      </trkpt>
      <trkpt lat="51.30585" lon="6.73965">
        <ele>74.532879</ele>
        <time>2023-04-30T10:34:34.169Z</time>
      </trkpt>
      <trkpt lat="51.30578" lon="6.73952">
        <ele>74.548635</ele>
        <time>2023-04-30T10:34:36.171Z</time>
      </trkpt>
      <trkpt lat="51.30571" lon="6.7394">
        <ele>74.563354</ele>
        <time>2023-04-30T10:34:38.178Z</time>
      </trkpt>
      <trkpt lat="51.30564" lon="6.73928">
        <ele>74.578372</ele>
        <time>2023-04-30T10:34:40.178Z</time>
      </trkpt>
      <trkpt lat="51.30558" lon="6.73916">
        <ele>74.593033</ele>
        <time>2023-04-30T10:34:42.184Z</time>
      </trkpt>
      <trkpt lat="51.30552" lon="6.73904">
        <ele>74.606623</ele>
        <time>2023-04-30T10:34:44.177Z</time>
      </trkpt>
      <trkpt lat="51.30543" lon="6.73887">
        <ele>74.626566</ele>
        <time>2023-04-30T10:34:47.198Z</time>
      </trkpt>
      <trkpt lat="51.30537" lon="6.73876">
        <ele>74.640226</ele>
        <time>2023-04-30T10:34:49.181Z</time>
      </trkpt>
      <trkpt lat="51.30531" lon="6.73864">
        <ele>74.65445</ele>
        <time>2023-04-30T10:34:51.186Z</time>
      </trkpt>
      <trkpt lat="51.30524" lon="6.73852">
        <ele>74.668675</ele>
        <time>2023-04-30T10:34:53.178Z</time>
      </trkpt>
      <trkpt lat="51.30517" lon="6.73841">
        <ele>74.683363</ele>
        <time>2023-04-30T10:34:55.188Z</time>
      </trkpt>
      <trkpt lat="51.3051" lon="6.73829">
        <ele>74.69745</ele>
        <time>2023-04-30T10:34:57.172Z</time>
      </trkpt>
      <trkpt lat="51.30504" lon="6.73818">
        <ele>74.711552</ele>
        <time>2023-04-30T10:34:59.184Z</time>
      </trkpt>
      <trkpt lat="51.30499" lon="6.73806">
        <ele>74.724904</ele>
        <time>2023-04-30T10:35:01.174Z</time>
      </trkpt>
      <trkpt lat="51.30493" lon="6.73794">
        <ele>74.738541</ele>
        <time>2023-04-30T10:35:03.179Z</time>
      </trkpt>
      <trkpt lat="51.30486" lon="6.73783">
        <ele>74.752961</ele>
        <time>2023-04-30T10:35:05.176Z</time>
      </trkpt>
      <trkpt lat="51.3048" lon="6.7377">
        <ele>74.770501</ele>
        <time>2023-04-30T10:35:07.187Z</time>
      </trkpt>
      <trkpt lat="51.30474" lon="6.73759">
        <ele>74.795191</ele>
        <time>2023-04-30T10:35:09.192Z</time>
      </trkpt>
      <trkpt lat="51.30468" lon="6.73748">
        <ele>74.818833</ele>
        <time>2023-04-30T10:35:11.192Z</time>
      </trkpt>
      <trkpt lat="51.30461" lon="6.73738">
        <ele>74.842432</ele>
        <time>2023-04-30T10:35:13.177Z</time>
      </trkpt>
      <trkpt lat="51.30452" lon="6.73723">
        <ele>74.875307</ele>
        <time>2023-04-30T10:35:16.179Z</time>
      </trkpt>
      <trkpt lat="51.30444" lon="6.73708">
        <ele>74.906611</ele>
        <time>2023-04-30T10:35:19.192Z</time>
      </trkpt>
      <trkpt lat="51.30437" lon="6.73694">
        <ele>74.937262</ele>
        <time>2023-04-30T10:35:22.182Z</time>
      </trkpt>
      <trkpt lat="51.30429" lon="6.73681">
        <ele>74.965462</ele>
        <time>2023-04-30T10:35:25.172Z</time>
      </trkpt>
      <trkpt lat="51.30423" lon="6.73667">
        <ele>74.99313</ele>
        <time>2023-04-30T10:35:28.169Z</time>
      </trkpt>
      <trkpt lat="51.30415" lon="6.73653">
        <ele>75.02344</ele>
        <time>2023-04-30T10:35:31.186Z</time>
      </trkpt>
      <trkpt lat="51.30407" lon="6.73638">
        <ele>75.055982</ele>
        <time>2023-04-30T10:35:34.181Z</time>
      </trkpt>
      <trkpt lat="51.30398" lon="6.73622">
        <ele>75.089884</ele>
        <time>2023-04-30T10:35:37.175Z</time>
      </trkpt>
      <trkpt lat="51.3039" lon="6.73605">
        <ele>75.12324</ele>
        <time>2023-04-30T10:35:40.171Z</time>
      </trkpt>
      <trkpt lat="51.30381" lon="6.73591">
        <ele>75.1564</ele>
        <time>2023-04-30T10:35:43.184Z</time>
      </trkpt>
      <trkpt lat="51.30375" lon="6.73574">
        <ele>75.18885</ele>
        <time>2023-04-30T10:35:46.164Z</time>
      </trkpt>
      <trkpt lat="51.30368" lon="6.73555">
        <ele>75.223617</ele>
        <time>2023-04-30T10:35:49.173Z</time>
      </trkpt>
      <trkpt lat="51.30362" lon="6.73541">
        <ele>75.050469</ele>
        <time>2023-04-30T10:35:51.169Z</time>
      </trkpt>
      <trkpt lat="51.30358" lon="6.73524">
        <ele>74.838138</ele>
        <time>2023-04-30T10:35:53.174Z</time>
      </trkpt>
      <trkpt lat="51.30352" lon="6.73508">
        <ele>74.618127</ele>
        <time>2023-04-30T10:35:55.175Z</time>
      </trkpt>
      <trkpt lat="51.30342" lon="6.73492">
        <ele>74.360542</ele>
        <time>2023-04-30T10:35:57.167Z</time>
      </trkpt>
      <trkpt lat="51.30334" lon="6.73474">
        <ele>74.097149</ele>
        <time>2023-04-30T10:35:59.150Z</time>
      </trkpt>
      <trkpt lat="51.30327" lon="6.73458">
        <ele>73.873005</ele>
        <time>2023-04-30T10:36:01.148Z</time>
      </trkpt>
      <trkpt lat="51.3032" lon="6.73446">
        <ele>73.686168</ele>
        <time>2023-04-30T10:36:03.180Z</time>
      </trkpt>
      <trkpt lat="51.30311" lon="6.73439">
        <ele>73.499731</ele>
        <time>2023-04-30T10:36:05.172Z</time>
      </trkpt>
      <trkpt lat="51.30301" lon="6.73435">
        <ele>73.309116</ele>
        <time>2023-04-30T10:36:07.178Z</time>
      </trkpt>
      <trkpt lat="51.30291" lon="6.7343">
        <ele>73.109779</ele>
        <time>2023-04-30T10:36:09.173Z</time>
      </trkpt>
      <trkpt lat="51.30281" lon="6.73426">
        <ele>72.910442</ele>
        <time>2023-04-30T10:36:11.177Z</time>
      </trkpt>
      <trkpt lat="51.30271" lon="6.73417">
        <ele>72.706798</ele>
        <time>2023-04-30T10:36:13.163Z</time>
      </trkpt>
      <trkpt lat="51.30262" lon="6.73408">
        <ele>72.504872</ele>
        <time>2023-04-30T10:36:15.159Z</time>
      </trkpt>
      <trkpt lat="51.30253" lon="6.734">
        <ele>72.314151</ele>
        <time>2023-04-30T10:36:17.175Z</time>
      </trkpt>
      <trkpt lat="51.30244" lon="6.73392">
        <ele>72.124613</ele>
        <time>2023-04-30T10:36:19.174Z</time>
      </trkpt>
      <trkpt lat="51.30232" lon="6.73383">
        <ele>71.884977</ele>
        <time>2023-04-30T10:36:22.172Z</time>
      </trkpt>
      <trkpt lat="51.30221" lon="6.73375">
        <ele>72.101235</ele>
        <time>2023-04-30T10:36:25.179Z</time>
      </trkpt>
      <trkpt lat="51.3021" lon="6.73367">
        <ele>72.340357</ele>
        <time>2023-04-30T10:36:28.167Z</time>
      </trkpt>
      <trkpt lat="51.30199" lon="6.7336">
        <ele>72.560416</ele>
        <time>2023-04-30T10:36:31.161Z</time>
      </trkpt>
      <trkpt lat="51.3019" lon="6.73352">
        <ele>72.766275</ele>
        <time>2023-04-30T10:36:34.161Z</time>
      </trkpt>
      <trkpt lat="51.3018" lon="6.73343">
        <ele>72.973538</ele>
        <time>2023-04-30T10:36:37.177Z</time>
      </trkpt>
      <trkpt lat="51.30173" lon="6.73333">
        <ele>73.154502</ele>
        <time>2023-04-30T10:36:40.163Z</time>
      </trkpt>
      <trkpt lat="51.30164" lon="6.73325">
        <ele>73.346342</ele>
        <time>2023-04-30T10:36:44.168Z</time>
      </trkpt>
      <trkpt lat="51.30156" lon="6.73324">
        <ele>73.505362</ele>
        <time>2023-04-30T10:37:01.498Z</time>
      </trkpt>
      <trkpt lat="51.30153" lon="6.73388">
        <ele>74.262818</ele>
        <time>2023-04-30T10:37:33.172Z</time>
      </trkpt>
      <trkpt lat="51.30154" lon="6.73404">
        <ele>74.461047</ele>
        <time>2023-04-30T10:37:40.198Z</time>
      </trkpt>
      <trkpt lat="51.30154" lon="6.73419">
        <ele>74.63868</ele>
        <time>2023-04-30T10:37:45.172Z</time>
      </trkpt>
      <trkpt lat="51.30152" lon="6.73434">
        <ele>74.818176</ele>
        <time>2023-04-30T10:37:53.153Z</time>
      </trkpt>
      <trkpt lat="51.30149" lon="6.73447">
        <ele>74.990002</ele>
        <time>2023-04-30T10:37:59.162Z</time>
      </trkpt>
      <trkpt lat="51.30148" lon="6.73463">
        <ele>75.179642</ele>
        <time>2023-04-30T10:38:05.167Z</time>
      </trkpt>
      <trkpt lat="51.30149" lon="6.73481">
        <ele>75.739918</ele>
        <time>2023-04-30T10:38:10.165Z</time>
      </trkpt>
      <trkpt lat="51.30148" lon="6.73497">
        <ele>76.728819</ele>
        <time>2023-04-30T10:38:14.166Z</time>
      </trkpt>
      <trkpt lat="51.30147" lon="6.73515">
        <ele>77.790962</ele>
        <time>2023-04-30T10:38:18.182Z</time>
      </trkpt>
      <trkpt lat="51.30148" lon="6.73532">
        <ele>78.791477</ele>
        <time>2023-04-30T10:38:23.208Z</time>
      </trkpt>
      <trkpt lat="51.30145" lon="6.73546">
        <ele>79.67107</ele>
        <time>2023-04-30T10:38:28.162Z</time>
      </trkpt>
      <trkpt lat="51.30145" lon="6.73561">
        <ele>80.623442</ele>
        <time>2023-04-30T10:38:32.171Z</time>
      </trkpt>
      <trkpt lat="51.30144" lon="6.73579">
        <ele>81.677753</ele>
        <time>2023-04-30T10:38:37.174Z</time>
      </trkpt>
      <trkpt lat="51.30142" lon="6.73596">
        <ele>82.711764</ele>
        <time>2023-04-30T10:38:43.171Z</time>
      </trkpt>
      <trkpt lat="51.30143" lon="6.73611">
        <ele>83.64772</ele>
        <time>2023-04-30T10:38:52.168Z</time>
      </trkpt>
      <trkpt lat="51.3015" lon="6.73601">
        <ele>84.588743</ele>
        <time>2023-04-30T10:39:21.161Z</time>
      </trkpt>
      <trkpt lat="51.30154" lon="6.73586">
        <ele>85.580608</ele>
        <time>2023-04-30T10:39:25.169Z</time>
      </trkpt>
      <trkpt lat="51.30155" lon="6.73568">
        <ele>86.627919</ele>
        <time>2023-04-30T10:39:29.174Z</time>
      </trkpt>
      <trkpt lat="51.30157" lon="6.73551">
        <ele>87.702436</ele>
        <time>2023-04-30T10:39:33.177Z</time>
      </trkpt>
      <trkpt lat="51.30156" lon="6.73533">
        <ele>88.738389</ele>
        <time>2023-04-30T10:39:38.171Z</time>
      </trkpt>
      <trkpt lat="51.30166" lon="6.7354">
        <ele>89.691203</ele>
        <time>2023-04-30T10:41:34.158Z</time>
      </trkpt>
      <trkpt lat="51.30175" lon="6.73539">
        <ele>90.616671</ele>
        <time>2023-04-30T10:41:39.171Z</time>
      </trkpt>
      <trkpt lat="51.30166" lon="6.73531">
        <ele>91.600115</ele>
        <time>2023-04-30T10:44:00.151Z</time>
      </trkpt>
      <trkpt lat="51.30157" lon="6.73532">
        <ele>92.469607</ele>
        <time>2023-04-30T10:44:12.164Z</time>
      </trkpt>
      <trkpt lat="51.30162" lon="6.7352">
        <ele>92.389677</ele>
        <time>2023-04-30T11:28:26.159Z</time>
      </trkpt>
      <trkpt lat="51.3017" lon="6.7351">
        <ele>92.082789</ele>
        <time>2023-04-30T11:28:34.146Z</time>
      </trkpt>
      <trkpt lat="51.30185" lon="6.73564">
        <ele>90.892333</ele>
        <time>2023-04-30T11:29:16.145Z</time>
      </trkpt>
      <trkpt lat="51.30183" lon="6.7355">
        <ele>90.602537</ele>
        <time>2023-04-30T11:29:27.137Z</time>
      </trkpt>
      <trkpt lat="51.30188" lon="6.73536">
        <ele>90.272883</ele>
        <time>2023-04-30T11:29:32.126Z</time>
      </trkpt>
      <trkpt lat="51.30194" lon="6.73525">
        <ele>89.971006</ele>
        <time>2023-04-30T11:31:13.165Z</time>
      </trkpt>
      <trkpt lat="51.30187" lon="6.73514">
        <ele>89.657746</ele>
        <time>2023-04-30T11:31:27.160Z</time>
      </trkpt>
      <trkpt lat="51.30178" lon="6.73513">
        <ele>89.350468</ele>
        <time>2023-04-30T11:31:31.138Z</time>
      </trkpt>
      <trkpt lat="51.30168" lon="6.73516">
        <ele>89.016061</ele>
        <time>2023-04-30T11:31:35.157Z</time>
      </trkpt>
      <trkpt lat="51.30175" lon="6.73494">
        <ele>88.513429</ele>
        <time>2023-04-30T11:31:39.128Z</time>
      </trkpt>
      <trkpt lat="51.30158" lon="6.73512">
        <ele>87.853053</ele>
        <time>2023-04-30T11:31:48.148Z</time>
      </trkpt>
      <trkpt lat="51.30167" lon="6.73522">
        <ele>87.489275</ele>
        <time>2023-04-30T11:31:51.152Z</time>
      </trkpt>
      <trkpt lat="51.30158" lon="6.73528">
        <ele>87.183393</ele>
        <time>2023-04-30T11:32:04.157Z</time>
      </trkpt>
      <trkpt lat="51.30158" lon="6.73528">
        <ele>87.174718</ele>
        <time>2023-04-30T11:38:59.985Z</time>
      </trkpt>
      <trkpt lat="51.30026" lon="6.73207">
        <ele>73.738747</ele>
        <time>2023-04-30T11:58:55.183Z</time>
      </trkpt>
      <trkpt lat="51.30018" lon="6.732">
        <ele>73.45442</ele>
        <time>2023-04-30T11:58:59.176Z</time>
      </trkpt>
      <trkpt lat="51.30008" lon="6.73191">
        <ele>73.107876</ele>
        <time>2023-04-30T11:59:03.192Z</time>
      </trkpt>
      <trkpt lat="51.29999" lon="6.73184">
        <ele>72.795141</ele>
        <time>2023-04-30T11:59:06.163Z</time>
      </trkpt>
      <trkpt lat="51.29989" lon="6.73174">
        <ele>72.410259</ele>
        <time>2023-04-30T11:59:09.177Z</time>
      </trkpt>
      <trkpt lat="51.29979" lon="6.73168">
        <ele>72.092669</ele>
        <time>2023-04-30T11:59:11.169Z</time>
      </trkpt>
      <trkpt lat="51.2997" lon="6.73165">
        <ele>71.780571</ele>
        <time>2023-04-30T11:59:13.149Z</time>
      </trkpt>
      <trkpt lat="51.2996" lon="6.7316">
        <ele>71.464717</ele>
        <time>2023-04-30T11:59:18.160Z</time>
      </trkpt>
      <trkpt lat="51.29949" lon="6.73156">
        <ele>71.108336</ele>
        <time>2023-04-30T11:59:22.170Z</time>
      </trkpt>
      <trkpt lat="51.29939" lon="6.7315">
        <ele>70.766724</ele>
        <time>2023-04-30T11:59:25.167Z</time>
      </trkpt>
      <trkpt lat="51.29929" lon="6.73143">
        <ele>70.444717</ele>
        <time>2023-04-30T11:59:28.167Z</time>
      </trkpt>
      <trkpt lat="51.2992" lon="6.73137">
        <ele>70.127847</ele>
        <time>2023-04-30T11:59:31.176Z</time>
      </trkpt>
      <trkpt lat="51.2991" lon="6.7313">
        <ele>69.797416</ele>
        <time>2023-04-30T11:59:34.187Z</time>
      </trkpt>
      <trkpt lat="51.299" lon="6.73124">
        <ele>69.815969</ele>
        <time>2023-04-30T11:59:37.172Z</time>
      </trkpt>
      <trkpt lat="51.29891" lon="6.73118">
        <ele>69.980665</ele>
        <time>2023-04-30T11:59:40.172Z</time>
      </trkpt>
      <trkpt lat="51.29881" lon="6.73109">
        <ele>70.16684</ele>
        <time>2023-04-30T11:59:44.163Z</time>
      </trkpt>
      <trkpt lat="51.29873" lon="6.73102">
        <ele>70.319275</ele>
        <time>2023-04-30T11:59:49.175Z</time>
      </trkpt>
      <trkpt lat="51.29864" lon="6.73095">
        <ele>70.490326</ele>
        <time>2023-04-30T11:59:53.168Z</time>
      </trkpt>
      <trkpt lat="51.29853" lon="6.73085">
        <ele>70.699472</ele>
        <time>2023-04-30T11:59:56.171Z</time>
      </trkpt>
      <trkpt lat="51.29844" lon="6.73079">
        <ele>70.857257</ele>
        <time>2023-04-30T11:59:58.173Z</time>
      </trkpt>
      <trkpt lat="51.29834" lon="6.73076">
        <ele>71.021766</ele>
        <time>2023-04-30T12:00:00.157Z</time>
      </trkpt>
      <trkpt lat="51.29821" lon="6.73075">
        <ele>71.238186</ele>
        <time>2023-04-30T12:00:03.173Z</time>
      </trkpt>
      <trkpt lat="51.29809" lon="6.73075">
        <ele>71.452466</ele>
        <time>2023-04-30T12:00:06.168Z</time>
      </trkpt>
      <trkpt lat="51.29796" lon="6.73075">
        <ele>71.663414</ele>
        <time>2023-04-30T12:00:09.176Z</time>
      </trkpt>
      <trkpt lat="51.29784" lon="6.73072">
        <ele>71.866797</ele>
        <time>2023-04-30T12:00:12.169Z</time>
      </trkpt>
      <trkpt lat="51.29772" lon="6.73069">
        <ele>72.064374</ele>
        <time>2023-04-30T12:00:15.169Z</time>
      </trkpt>
      <trkpt lat="51.29761" lon="6.73065">
        <ele>72.247082</ele>
        <time>2023-04-30T12:00:18.172Z</time>
      </trkpt>
      <trkpt lat="51.29751" lon="6.7306">
        <ele>72.432459</ele>
        <time>2023-04-30T12:00:21.172Z</time>
      </trkpt>
      <trkpt lat="51.29739" lon="6.73054">
        <ele>72.627684</ele>
        <time>2023-04-30T12:00:24.170Z</time>
      </trkpt>
      <trkpt lat="51.29729" lon="6.73047">
        <ele>72.630763</ele>
        <time>2023-04-30T12:00:27.190Z</time>
      </trkpt>
      <trkpt lat="51.29717" lon="6.73039">
        <ele>72.553579</ele>
        <time>2023-04-30T12:00:30.172Z</time>
      </trkpt>
      <trkpt lat="51.29706" lon="6.7303">
        <ele>72.474194</ele>
        <time>2023-04-30T12:00:33.172Z</time>
      </trkpt>
      <trkpt lat="51.29695" lon="6.73021">
        <ele>72.396332</ele>
        <time>2023-04-30T12:00:36.234Z</time>
      </trkpt>
      <trkpt lat="51.29685" lon="6.73011">
        <ele>72.321383</ele>
        <time>2023-04-30T12:00:39.170Z</time>
      </trkpt>
      <trkpt lat="51.29675" lon="6.73002">
        <ele>72.251788</ele>
        <time>2023-04-30T12:00:42.176Z</time>
      </trkpt>
      <trkpt lat="51.29664" lon="6.72994">
        <ele>72.176849</ele>
        <time>2023-04-30T12:00:45.183Z</time>
      </trkpt>
      <trkpt lat="51.29656" lon="6.72987">
        <ele>72.117933</ele>
        <time>2023-04-30T12:00:48.181Z</time>
      </trkpt>
      <trkpt lat="51.29647" lon="6.7298">
        <ele>72.057506</ele>
        <time>2023-04-30T12:00:56.171Z</time>
      </trkpt>
      <trkpt lat="51.2964" lon="6.72972">
        <ele>72.000768</ele>
        <time>2023-04-30T12:01:01.164Z</time>
      </trkpt>
      <trkpt lat="51.2963" lon="6.72962">
        <ele>71.929901</ele>
        <time>2023-04-30T12:01:05.154Z</time>
      </trkpt>
      <trkpt lat="51.29622" lon="6.72955">
        <ele>71.871675</ele>
        <time>2023-04-30T12:01:08.168Z</time>
      </trkpt>
      <trkpt lat="51.29614" lon="6.72946">
        <ele>71.808851</ele>
        <time>2023-04-30T12:01:11.176Z</time>
      </trkpt>
      <trkpt lat="51.29604" lon="6.72936">
        <ele>71.734286</ele>
        <time>2023-04-30T12:01:14.166Z</time>
      </trkpt>
      <trkpt lat="51.29596" lon="6.72925">
        <ele>71.669081</ele>
        <time>2023-04-30T12:01:18.178Z</time>
      </trkpt>
      <trkpt lat="51.29587" lon="6.72927">
        <ele>71.610684</ele>
        <time>2023-04-30T12:01:22.171Z</time>
      </trkpt>
      <trkpt lat="51.29577" lon="6.72923">
        <ele>71.554227</ele>
        <time>2023-04-30T12:01:27.176Z</time>
      </trkpt>
      <trkpt lat="51.29571" lon="6.72912">
        <ele>71.539756</ele>
        <time>2023-04-30T12:01:30.185Z</time>
      </trkpt>
      <trkpt lat="51.29565" lon="6.729">
        <ele>71.524472</ele>
        <time>2023-04-30T12:01:33.190Z</time>
      </trkpt>
      <trkpt lat="51.29557" lon="6.72887">
        <ele>71.506058</ele>
        <time>2023-04-30T12:01:37.190Z</time>
      </trkpt>
      <trkpt lat="51.29548" lon="6.72878">
        <ele>71.489223</ele>
        <time>2023-04-30T12:01:42.165Z</time>
      </trkpt>
      <trkpt lat="51.29538" lon="6.7287">
        <ele>71.472353</ele>
        <time>2023-04-30T12:01:46.225Z</time>
      </trkpt>
      <trkpt lat="51.29529" lon="6.72864">
        <ele>71.45698</ele>
        <time>2023-04-30T12:01:49.159Z</time>
      </trkpt>
      <trkpt lat="51.2952" lon="6.72856">
        <ele>71.440075</ele>
        <time>2023-04-30T12:01:53.174Z</time>
      </trkpt>
      <trkpt lat="51.2951" lon="6.72848">
        <ele>71.42256</ele>
        <time>2023-04-30T12:01:57.173Z</time>
      </trkpt>
      <trkpt lat="51.29501" lon="6.7284">
        <ele>71.406486</ele>
        <time>2023-04-30T12:02:00.177Z</time>
      </trkpt>
      <trkpt lat="51.29492" lon="6.72832">
        <ele>71.389953</ele>
        <time>2023-04-30T12:02:03.177Z</time>
      </trkpt>
      <trkpt lat="51.29483" lon="6.72824">
        <ele>71.373189</ele>
        <time>2023-04-30T12:02:06.172Z</time>
      </trkpt>
      <trkpt lat="51.29474" lon="6.72816">
        <ele>71.35817</ele>
        <time>2023-04-30T12:02:11.178Z</time>
      </trkpt>
      <trkpt lat="51.29466" lon="6.72808">
        <ele>71.343252</ele>
        <time>2023-04-30T12:02:21.176Z</time>
      </trkpt>
      <trkpt lat="51.29458" lon="6.72802">
        <ele>71.32905</ele>
        <time>2023-04-30T12:02:25.165Z</time>
      </trkpt>
      <trkpt lat="51.2945" lon="6.72793">
        <ele>71.313713</ele>
        <time>2023-04-30T12:02:28.169Z</time>
      </trkpt>
      <trkpt lat="51.29441" lon="6.72784">
        <ele>71.296828</ele>
        <time>2023-04-30T12:02:31.171Z</time>
      </trkpt>
      <trkpt lat="51.29431" lon="6.72773">
        <ele>71.27682</ele>
        <time>2023-04-30T12:02:34.173Z</time>
      </trkpt>
      <trkpt lat="51.29421" lon="6.72763">
        <ele>71.357712</ele>
        <time>2023-04-30T12:02:37.173Z</time>
      </trkpt>
      <trkpt lat="51.29411" lon="6.72753">
        <ele>71.466356</ele>
        <time>2023-04-30T12:02:40.186Z</time>
      </trkpt>
      <trkpt lat="51.29402" lon="6.72745">
        <ele>71.566882</ele>
        <time>2023-04-30T12:02:43.171Z</time>
      </trkpt>
      <trkpt lat="51.29392" lon="6.72736">
        <ele>71.668219</ele>
        <time>2023-04-30T12:02:46.172Z</time>
      </trkpt>
      <trkpt lat="51.29383" lon="6.72727">
        <ele>71.770065</ele>
        <time>2023-04-30T12:02:49.173Z</time>
      </trkpt>
      <trkpt lat="51.29375" lon="6.72719">
        <ele>71.859047</ele>
        <time>2023-04-30T12:02:52.166Z</time>
      </trkpt>
      <trkpt lat="51.29365" lon="6.72709">
        <ele>71.968618</ele>
        <time>2023-04-30T12:02:55.171Z</time>
      </trkpt>
      <trkpt lat="51.29356" lon="6.727">
        <ele>72.070778</ele>
        <time>2023-04-30T12:02:58.176Z</time>
      </trkpt>
      <trkpt lat="51.29347" lon="6.72691">
        <ele>72.16991</ele>
        <time>2023-04-30T12:03:01.169Z</time>
      </trkpt>
      <trkpt lat="51.29337" lon="6.72683">
        <ele>72.268183</ele>
        <time>2023-04-30T12:03:04.169Z</time>
      </trkpt>
      <trkpt lat="51.29328" lon="6.72673">
        <ele>72.372403</ele>
        <time>2023-04-30T12:03:07.251Z</time>
      </trkpt>
      <trkpt lat="51.2932" lon="6.72666">
        <ele>72.461041</ele>
        <time>2023-04-30T12:03:10.174Z</time>
      </trkpt>
      <trkpt lat="51.29312" lon="6.72657">
        <ele>72.549365</ele>
        <time>2023-04-30T12:03:13.172Z</time>
      </trkpt>
      <trkpt lat="51.29304" lon="6.72649">
        <ele>72.636258</ele>
        <time>2023-04-30T12:03:16.165Z</time>
      </trkpt>
      <trkpt lat="51.29294" lon="6.72641">
        <ele>72.741129</ele>
        <time>2023-04-30T12:03:20.144Z</time>
      </trkpt>
      <trkpt lat="51.29304" lon="6.72651">
        <ele>72.849962</ele>
        <time>2023-04-30T12:04:31.179Z</time>
      </trkpt>
      <trkpt lat="51.29313" lon="6.72658">
        <ele>72.945807</ele>
        <time>2023-04-30T12:04:35.165Z</time>
      </trkpt>
      <trkpt lat="51.29321" lon="6.72667">
        <ele>72.957708</ele>
        <time>2023-04-30T12:04:40.176Z</time>
      </trkpt>
      <trkpt lat="51.2933" lon="6.72675">
        <ele>72.960066</ele>
        <time>2023-04-30T12:04:43.181Z</time>
      </trkpt>
      <trkpt lat="51.29339" lon="6.72685">
        <ele>72.962698</ele>
        <time>2023-04-30T12:04:46.155Z</time>
      </trkpt>
      <trkpt lat="51.29349" lon="6.72695">
        <ele>72.965508</ele>
        <time>2023-04-30T12:04:49.176Z</time>
      </trkpt>
      <trkpt lat="51.29359" lon="6.72706">
        <ele>72.968439</ele>
        <time>2023-04-30T12:04:52.174Z</time>
      </trkpt>
      <trkpt lat="51.2937" lon="6.72715">
        <ele>72.97145</ele>
        <time>2023-04-30T12:04:55.191Z</time>
      </trkpt>
      <trkpt lat="51.29381" lon="6.72726">
        <ele>72.974428</ele>
        <time>2023-04-30T12:04:58.171Z</time>
      </trkpt>
      <trkpt lat="51.2939" lon="6.72735">
        <ele>72.977166</ele>
        <time>2023-04-30T12:05:01.165Z</time>
      </trkpt>
      <trkpt lat="51.294" lon="6.72745">
        <ele>72.979926</ele>
        <time>2023-04-30T12:05:04.169Z</time>
      </trkpt>
      <trkpt lat="51.29411" lon="6.72754">
        <ele>72.98284</ele>
        <time>2023-04-30T12:05:07.172Z</time>
      </trkpt>
      <trkpt lat="51.29421" lon="6.72763">
        <ele>72.985648</ele>
        <time>2023-04-30T12:05:10.172Z</time>
      </trkpt>
      <trkpt lat="51.29432" lon="6.72772">
        <ele>72.98844</ele>
        <time>2023-04-30T12:05:13.157Z</time>
      </trkpt>
      <trkpt lat="51.29441" lon="6.72781">
        <ele>72.991169</ele>
        <time>2023-04-30T12:05:16.172Z</time>
      </trkpt>
      <trkpt lat="51.2945" lon="6.7279">
        <ele>72.99364</ele>
        <time>2023-04-30T12:05:19.170Z</time>
      </trkpt>
      <trkpt lat="51.29458" lon="6.72797">
        <ele>72.99587</ele>
        <time>2023-04-30T12:05:22.169Z</time>
      </trkpt>
      <trkpt lat="51.29466" lon="6.72804">
        <ele>72.998037</ele>
        <time>2023-04-30T12:05:26.167Z</time>
      </trkpt>
      <trkpt lat="51.29463" lon="6.72817">
        <ele>73.10067</ele>
        <time>2023-04-30T12:05:38.169Z</time>
      </trkpt>
      <trkpt lat="51.2946" lon="6.72832">
        <ele>73.251467</ele>
        <time>2023-04-30T12:05:48.155Z</time>
      </trkpt>
      <trkpt lat="51.29456" lon="6.72846">
        <ele>73.405823</ele>
        <time>2023-04-30T12:05:54.157Z</time>
      </trkpt>
      <trkpt lat="51.29451" lon="6.72859">
        <ele>73.549874</ele>
        <time>2023-04-30T12:05:58.169Z</time>
      </trkpt>
      <trkpt lat="51.29446" lon="6.72872">
        <ele>73.701652</ele>
        <time>2023-04-30T12:06:02.170Z</time>
      </trkpt>
      <trkpt lat="51.29441" lon="6.72888">
        <ele>73.875062</ele>
        <time>2023-04-30T12:06:06.178Z</time>
      </trkpt>
      <trkpt lat="51.29433" lon="6.72896">
        <ele>74.017632</ele>
        <time>2023-04-30T12:06:11.169Z</time>
      </trkpt>
      <trkpt lat="51.29423" lon="6.7289">
        <ele>74.186939</ele>
        <time>2023-04-30T12:06:15.158Z</time>
      </trkpt>
      <trkpt lat="51.29415" lon="6.72883">
        <ele>74.333865</ele>
        <time>2023-04-30T12:06:18.191Z</time>
      </trkpt>
      <trkpt lat="51.29405" lon="6.72875">
        <ele>74.49461</ele>
        <time>2023-04-30T12:06:21.171Z</time>
      </trkpt>
      <trkpt lat="51.29396" lon="6.72868">
        <ele>74.65505</ele>
        <time>2023-04-30T12:06:24.172Z</time>
      </trkpt>
      <trkpt lat="51.29386" lon="6.72861">
        <ele>74.826635</ele>
        <time>2023-04-30T12:06:27.171Z</time>
      </trkpt>
      <trkpt lat="51.29375" lon="6.72854">
        <ele>75.013606</ele>
        <time>2023-04-30T12:06:30.174Z</time>
      </trkpt>
      <trkpt lat="51.29365" lon="6.72845">
        <ele>75.195886</ele>
        <time>2023-04-30T12:06:33.191Z</time>
      </trkpt>
      <trkpt lat="51.29352" lon="6.72837">
        <ele>75.40427</ele>
        <time>2023-04-30T12:06:36.173Z</time>
      </trkpt>
      <trkpt lat="51.2934" lon="6.72828">
        <ele>75.609744</ele>
        <time>2023-04-30T12:06:39.184Z</time>
      </trkpt>
      <trkpt lat="51.29329" lon="6.72819">
        <ele>75.807029</ele>
        <time>2023-04-30T12:06:42.168Z</time>
      </trkpt>
      <trkpt lat="51.2932" lon="6.72813">
        <ele>75.820088</ele>
        <time>2023-04-30T12:06:44.154Z</time>
      </trkpt>
      <trkpt lat="51.29311" lon="6.72806">
        <ele>75.832923</ele>
        <time>2023-04-30T12:06:46.177Z</time>
      </trkpt>
      <trkpt lat="51.293" lon="6.72796">
        <ele>75.851266</ele>
        <time>2023-04-30T12:06:49.168Z</time>
      </trkpt>
      <trkpt lat="51.29291" lon="6.72788">
        <ele>75.864498</ele>
        <time>2023-04-30T12:06:51.177Z</time>
      </trkpt>
      <trkpt lat="51.29282" lon="6.72782">
        <ele>75.878206</ele>
        <time>2023-04-30T12:06:53.171Z</time>
      </trkpt>
      <trkpt lat="51.29274" lon="6.72775">
        <ele>75.890465</ele>
        <time>2023-04-30T12:06:55.177Z</time>
      </trkpt>
      <trkpt lat="51.29266" lon="6.72768">
        <ele>75.904223</ele>
        <time>2023-04-30T12:06:57.166Z</time>
      </trkpt>
      <trkpt lat="51.29257" lon="6.72761">
        <ele>75.917657</ele>
        <time>2023-04-30T12:06:59.173Z</time>
      </trkpt>
      <trkpt lat="51.29248" lon="6.72754">
        <ele>75.931509</ele>
        <time>2023-04-30T12:07:01.175Z</time>
      </trkpt>
      <trkpt lat="51.29239" lon="6.72747">
        <ele>75.945308</ele>
        <time>2023-04-30T12:07:03.171Z</time>
      </trkpt>
      <trkpt lat="51.29229" lon="6.72741">
        <ele>75.959581</ele>
        <time>2023-04-30T12:07:05.176Z</time>
      </trkpt>
      <trkpt lat="51.29219" lon="6.72735">
        <ele>75.973885</ele>
        <time>2023-04-30T12:07:07.176Z</time>
      </trkpt>
      <trkpt lat="51.2921" lon="6.72729">
        <ele>75.987872</ele>
        <time>2023-04-30T12:07:09.167Z</time>
      </trkpt>
      <trkpt lat="51.292" lon="6.72724">
        <ele>76.001897</ele>
        <time>2023-04-30T12:07:11.172Z</time>
      </trkpt>
      <trkpt lat="51.29191" lon="6.72719">
        <ele>76.015706</ele>
        <time>2023-04-30T12:07:13.186Z</time>
      </trkpt>
      <trkpt lat="51.29181" lon="6.72714">
        <ele>76.029833</ele>
        <time>2023-04-30T12:07:15.167Z</time>
      </trkpt>
      <trkpt lat="51.29172" lon="6.72709">
        <ele>76.04296</ele>
        <time>2023-04-30T12:07:17.171Z</time>
      </trkpt>
      <trkpt lat="51.29162" lon="6.72704">
        <ele>76.059132</ele>
        <time>2023-04-30T12:07:19.152Z</time>
      </trkpt>
      <trkpt lat="51.29153" lon="6.727">
        <ele>76.083735</ele>
        <time>2023-04-30T12:07:21.159Z</time>
      </trkpt>
      <trkpt lat="51.29144" lon="6.72696">
        <ele>76.107071</ele>
        <time>2023-04-30T12:07:23.155Z</time>
      </trkpt>
      <trkpt lat="51.29134" lon="6.72693">
        <ele>76.13151</ele>
        <time>2023-04-30T12:07:25.154Z</time>
      </trkpt>
      <trkpt lat="51.29124" lon="6.72689">
        <ele>76.155709</ele>
        <time>2023-04-30T12:07:27.176Z</time>
      </trkpt>
      <trkpt lat="51.29115" lon="6.72686">
        <ele>76.180257</ele>
        <time>2023-04-30T12:07:29.175Z</time>
      </trkpt>
      <trkpt lat="51.29105" lon="6.72684">
        <ele>76.204049</ele>
        <time>2023-04-30T12:07:31.167Z</time>
      </trkpt>
      <trkpt lat="51.29096" lon="6.72681">
        <ele>76.227864</ele>
        <time>2023-04-30T12:07:33.176Z</time>
      </trkpt>
      <trkpt lat="51.29086" lon="6.72679">
        <ele>76.251508</ele>
        <time>2023-04-30T12:07:35.174Z</time>
      </trkpt>
      <trkpt lat="51.29077" lon="6.72676">
        <ele>76.27548</ele>
        <time>2023-04-30T12:07:37.176Z</time>
      </trkpt>
      <trkpt lat="51.29067" lon="6.72673">
        <ele>76.30067</ele>
        <time>2023-04-30T12:07:39.172Z</time>
      </trkpt>
      <trkpt lat="51.29057" lon="6.7267">
        <ele>76.324857</ele>
        <time>2023-04-30T12:07:41.179Z</time>
      </trkpt>
      <trkpt lat="51.29048" lon="6.72668">
        <ele>76.348872</ele>
        <time>2023-04-30T12:07:43.178Z</time>
      </trkpt>
      <trkpt lat="51.29038" lon="6.72664">
        <ele>76.372703</ele>
        <time>2023-04-30T12:07:45.170Z</time>
      </trkpt>
      <trkpt lat="51.29029" lon="6.7266">
        <ele>76.396655</ele>
        <time>2023-04-30T12:07:47.173Z</time>
      </trkpt>
      <trkpt lat="51.2902" lon="6.72656">
        <ele>76.421044</ele>
        <time>2023-04-30T12:07:49.194Z</time>
      </trkpt>
      <trkpt lat="51.2901" lon="6.72652">
        <ele>76.446208</ele>
        <time>2023-04-30T12:07:51.181Z</time>
      </trkpt>
      <trkpt lat="51.29" lon="6.7265">
        <ele>76.471271</ele>
        <time>2023-04-30T12:07:53.163Z</time>
      </trkpt>
      <trkpt lat="51.2899" lon="6.72648">
        <ele>76.494264</ele>
        <time>2023-04-30T12:07:55.167Z</time>
      </trkpt>
      <trkpt lat="51.28979" lon="6.72645">
        <ele>76.561545</ele>
        <time>2023-04-30T12:07:58.170Z</time>
      </trkpt>
      <trkpt lat="51.28967" lon="6.7264">
        <ele>76.642632</ele>
        <time>2023-04-30T12:08:01.169Z</time>
      </trkpt>
      <trkpt lat="51.28958" lon="6.72638">
        <ele>76.706546</ele>
        <time>2023-04-30T12:08:03.168Z</time>
      </trkpt>
      <trkpt lat="51.28949" lon="6.72635">
        <ele>76.769963</ele>
        <time>2023-04-30T12:08:05.195Z</time>
      </trkpt>
      <trkpt lat="51.28939" lon="6.72631">
        <ele>76.835512</ele>
        <time>2023-04-30T12:08:07.177Z</time>
      </trkpt>
      <trkpt lat="51.2893" lon="6.72628">
        <ele>76.90172</ele>
        <time>2023-04-30T12:08:09.176Z</time>
      </trkpt>
      <trkpt lat="51.2892" lon="6.72623">
        <ele>76.971391</ele>
        <time>2023-04-30T12:08:11.174Z</time>
      </trkpt>
      <trkpt lat="51.28909" lon="6.72619">
        <ele>77.042341</ele>
        <time>2023-04-30T12:08:13.175Z</time>
      </trkpt>
      <trkpt lat="51.28899" lon="6.72614">
        <ele>77.114582</ele>
        <time>2023-04-30T12:08:15.177Z</time>
      </trkpt>
      <trkpt lat="51.28889" lon="6.72609">
        <ele>77.183732</ele>
        <time>2023-04-30T12:08:17.183Z</time>
      </trkpt>
      <trkpt lat="51.28878" lon="6.72604">
        <ele>77.257459</ele>
        <time>2023-04-30T12:08:19.170Z</time>
      </trkpt>
      <trkpt lat="51.28869" lon="6.72598">
        <ele>77.326979</ele>
        <time>2023-04-30T12:08:21.173Z</time>
      </trkpt>
      <trkpt lat="51.28859" lon="6.72592">
        <ele>77.396543</ele>
        <time>2023-04-30T12:08:23.179Z</time>
      </trkpt>
      <trkpt lat="51.28848" lon="6.72585">
        <ele>77.472747</ele>
        <time>2023-04-30T12:08:25.169Z</time>
      </trkpt>
      <trkpt lat="51.28838" lon="6.72579">
        <ele>77.546142</ele>
        <time>2023-04-30T12:08:27.161Z</time>
      </trkpt>
      <trkpt lat="51.28828" lon="6.72572">
        <ele>77.618141</ele>
        <time>2023-04-30T12:08:29.170Z</time>
      </trkpt>
      <trkpt lat="51.28818" lon="6.72566">
        <ele>77.690789</ele>
        <time>2023-04-30T12:08:31.171Z</time>
      </trkpt>
      <trkpt lat="51.28809" lon="6.72559">
        <ele>77.722541</ele>
        <time>2023-04-30T12:08:33.162Z</time>
      </trkpt>
      <trkpt lat="51.28799" lon="6.72551">
        <ele>77.747129</ele>
        <time>2023-04-30T12:08:35.171Z</time>
      </trkpt>
      <trkpt lat="51.2879" lon="6.72543">
        <ele>77.771313</ele>
        <time>2023-04-30T12:08:37.184Z</time>
      </trkpt>
      <trkpt lat="51.2878" lon="6.72534">
        <ele>77.797461</ele>
        <time>2023-04-30T12:08:39.173Z</time>
      </trkpt>
      <trkpt lat="51.2877" lon="6.72526">
        <ele>77.82313</ele>
        <time>2023-04-30T12:08:41.170Z</time>
      </trkpt>
      <trkpt lat="51.28761" lon="6.72518">
        <ele>77.847707</ele>
        <time>2023-04-30T12:08:43.188Z</time>
      </trkpt>
      <trkpt lat="51.28752" lon="6.7251">
        <ele>77.871874</ele>
        <time>2023-04-30T12:08:45.163Z</time>
      </trkpt>
      <trkpt lat="51.28742" lon="6.72503">
        <ele>77.896063</ele>
        <time>2023-04-30T12:08:47.173Z</time>
      </trkpt>
      <trkpt lat="51.28733" lon="6.72494">
        <ele>77.920851</ele>
        <time>2023-04-30T12:08:49.170Z</time>
      </trkpt>
      <trkpt lat="51.28723" lon="6.72486">
        <ele>77.946656</ele>
        <time>2023-04-30T12:08:51.165Z</time>
      </trkpt>
      <trkpt lat="51.28714" lon="6.72477">
        <ele>77.972539</ele>
        <time>2023-04-30T12:08:53.170Z</time>
      </trkpt>
      <trkpt lat="51.28704" lon="6.72469">
        <ele>77.998139</ele>
        <time>2023-04-30T12:08:55.169Z</time>
      </trkpt>
      <trkpt lat="51.28695" lon="6.7246">
        <ele>78.022525</ele>
        <time>2023-04-30T12:08:57.170Z</time>
      </trkpt>
      <trkpt lat="51.28685" lon="6.72452">
        <ele>78.0484</ele>
        <time>2023-04-30T12:08:59.176Z</time>
      </trkpt>
      <trkpt lat="51.28676" lon="6.72444">
        <ele>78.072095</ele>
        <time>2023-04-30T12:09:01.183Z</time>
      </trkpt>
      <trkpt lat="51.28667" lon="6.72437">
        <ele>78.096061</ele>
        <time>2023-04-30T12:09:03.183Z</time>
      </trkpt>
      <trkpt lat="51.28658" lon="6.72429">
        <ele>78.11899</ele>
        <time>2023-04-30T12:09:05.174Z</time>
      </trkpt>
      <trkpt lat="51.28649" lon="6.7242">
        <ele>78.115652</ele>
        <time>2023-04-30T12:09:07.171Z</time>
      </trkpt>
      <trkpt lat="51.2864" lon="6.72412">
        <ele>78.112141</ele>
        <time>2023-04-30T12:09:09.172Z</time>
      </trkpt>
      <trkpt lat="51.2863" lon="6.72403">
        <ele>78.108723</ele>
        <time>2023-04-30T12:09:11.184Z</time>
      </trkpt>
      <trkpt lat="51.28621" lon="6.72395">
        <ele>78.105173</ele>
        <time>2023-04-30T12:09:13.171Z</time>
      </trkpt>
      <trkpt lat="51.28611" lon="6.72387">
        <ele>78.101803</ele>
        <time>2023-04-30T12:09:15.174Z</time>
      </trkpt>
      <trkpt lat="51.28602" lon="6.7238">
        <ele>78.098443</ele>
        <time>2023-04-30T12:09:17.170Z</time>
      </trkpt>
      <trkpt lat="51.28592" lon="6.72371">
        <ele>78.094865</ele>
        <time>2023-04-30T12:09:19.189Z</time>
      </trkpt>
      <trkpt lat="51.28583" lon="6.72363">
        <ele>78.091334</ele>
        <time>2023-04-30T12:09:21.187Z</time>
      </trkpt>
      <trkpt lat="51.28573" lon="6.72355">
        <ele>78.087774</ele>
        <time>2023-04-30T12:09:23.180Z</time>
      </trkpt>
      <trkpt lat="51.28564" lon="6.72346">
        <ele>78.084318</ele>
        <time>2023-04-30T12:09:25.169Z</time>
      </trkpt>
      <trkpt lat="51.28554" lon="6.72338">
        <ele>78.080816</ele>
        <time>2023-04-30T12:09:27.176Z</time>
      </trkpt>
      <trkpt lat="51.28545" lon="6.7233">
        <ele>78.077378</ele>
        <time>2023-04-30T12:09:29.170Z</time>
      </trkpt>
      <trkpt lat="51.28535" lon="6.72322">
        <ele>78.073865</ele>
        <time>2023-04-30T12:09:31.172Z</time>
      </trkpt>
      <trkpt lat="51.28526" lon="6.72314">
        <ele>78.07043</ele>
        <time>2023-04-30T12:09:33.172Z</time>
      </trkpt>
      <trkpt lat="51.28516" lon="6.72305">
        <ele>78.06687</ele>
        <time>2023-04-30T12:09:35.185Z</time>
      </trkpt>
      <trkpt lat="51.28507" lon="6.72297">
        <ele>78.063367</ele>
        <time>2023-04-30T12:09:37.193Z</time>
      </trkpt>
      <trkpt lat="51.28496" lon="6.72288">
        <ele>78.058172</ele>
        <time>2023-04-30T12:09:39.181Z</time>
      </trkpt>
      <trkpt lat="51.28487" lon="6.7228">
        <ele>78.050798</ele>
        <time>2023-04-30T12:09:41.173Z</time>
      </trkpt>
      <trkpt lat="51.28477" lon="6.72271">
        <ele>78.042948</ele>
        <time>2023-04-30T12:09:43.178Z</time>
      </trkpt>
      <trkpt lat="51.28466" lon="6.72264">
        <ele>78.035303</ele>
        <time>2023-04-30T12:09:45.168Z</time>
      </trkpt>
      <trkpt lat="51.28457" lon="6.72256">
        <ele>78.028148</ele>
        <time>2023-04-30T12:09:47.184Z</time>
      </trkpt>
      <trkpt lat="51.28448" lon="6.72247">
        <ele>78.020915</ele>
        <time>2023-04-30T12:09:49.172Z</time>
      </trkpt>
      <trkpt lat="51.28438" lon="6.72238">
        <ele>78.013422</ele>
        <time>2023-04-30T12:09:51.178Z</time>
      </trkpt>
      <trkpt lat="51.28428" lon="6.7223">
        <ele>78.006147</ele>
        <time>2023-04-30T12:09:53.167Z</time>
      </trkpt>
      <trkpt lat="51.28419" lon="6.72222">
        <ele>77.999045</ele>
        <time>2023-04-30T12:09:55.176Z</time>
      </trkpt>
      <trkpt lat="51.2841" lon="6.72214">
        <ele>77.991632</ele>
        <time>2023-04-30T12:09:57.175Z</time>
      </trkpt>
      <trkpt lat="51.284" lon="6.72205">
        <ele>77.984355</ele>
        <time>2023-04-30T12:09:59.168Z</time>
      </trkpt>
      <trkpt lat="51.2839" lon="6.72197">
        <ele>77.976862</ele>
        <time>2023-04-30T12:10:01.190Z</time>
      </trkpt>
      <trkpt lat="51.2838" lon="6.72189">
        <ele>77.969248</ele>
        <time>2023-04-30T12:10:03.182Z</time>
      </trkpt>
      <trkpt lat="51.2837" lon="6.7218">
        <ele>77.961615</ele>
        <time>2023-04-30T12:10:05.173Z</time>
      </trkpt>
      <trkpt lat="51.28361" lon="6.72172">
        <ele>77.954275</ele>
        <time>2023-04-30T12:10:07.171Z</time>
      </trkpt>
      <trkpt lat="51.28351" lon="6.72164">
        <ele>77.947001</ele>
        <time>2023-04-30T12:10:09.169Z</time>
      </trkpt>
      <trkpt lat="51.28341" lon="6.72156">
        <ele>77.938926</ele>
        <time>2023-04-30T12:10:11.167Z</time>
      </trkpt>
      <trkpt lat="51.28333" lon="6.72148">
        <ele>77.895532</ele>
        <time>2023-04-30T12:10:13.171Z</time>
      </trkpt>
      <trkpt lat="51.28324" lon="6.7214">
        <ele>77.854768</ele>
        <time>2023-04-30T12:10:15.168Z</time>
      </trkpt>
      <trkpt lat="51.28316" lon="6.72133">
        <ele>77.814874</ele>
        <time>2023-04-30T12:10:17.170Z</time>
      </trkpt>
      <trkpt lat="51.28307" lon="6.72124">
        <ele>77.773896</ele>
        <time>2023-04-30T12:10:19.168Z</time>
      </trkpt>
      <trkpt lat="51.28299" lon="6.72117">
        <ele>77.733754</ele>
        <time>2023-04-30T12:10:21.170Z</time>
      </trkpt>
      <trkpt lat="51.28291" lon="6.72109">
        <ele>77.693108</ele>
        <time>2023-04-30T12:10:23.173Z</time>
      </trkpt>
      <trkpt lat="51.28283" lon="6.721">
        <ele>77.651276</ele>
        <time>2023-04-30T12:10:25.178Z</time>
      </trkpt>
      <trkpt lat="51.28275" lon="6.72091">
        <ele>77.611214</ele>
        <time>2023-04-30T12:10:27.176Z</time>
      </trkpt>
      <trkpt lat="51.28266" lon="6.72084">
        <ele>77.571769</ele>
        <time>2023-04-30T12:10:29.167Z</time>
      </trkpt>
      <trkpt lat="51.28259" lon="6.72076">
        <ele>77.5342</ele>
        <time>2023-04-30T12:10:31.176Z</time>
      </trkpt>
      <trkpt lat="51.28248" lon="6.72065">
        <ele>77.4806</ele>
        <time>2023-04-30T12:10:34.142Z</time>
      </trkpt>
      <trkpt lat="51.28238" lon="6.72055">
        <ele>77.429042</ele>
        <time>2023-04-30T12:10:37.179Z</time>
      </trkpt>
      <trkpt lat="51.28227" lon="6.72043">
        <ele>77.374872</ele>
        <time>2023-04-30T12:10:40.167Z</time>
      </trkpt>
      <trkpt lat="51.28219" lon="6.72035">
        <ele>77.336434</ele>
        <time>2023-04-30T12:10:42.173Z</time>
      </trkpt>
      <trkpt lat="51.28208" lon="6.72023">
        <ele>77.281726</ele>
        <time>2023-04-30T12:10:45.178Z</time>
      </trkpt>
      <trkpt lat="51.28198" lon="6.72012">
        <ele>77.230276</ele>
        <time>2023-04-30T12:10:48.169Z</time>
      </trkpt>
      <trkpt lat="51.2819" lon="6.72004">
        <ele>77.190146</ele>
        <time>2023-04-30T12:10:50.181Z</time>
      </trkpt>
      <trkpt lat="51.28182" lon="6.71995">
        <ele>77.219071</ele>
        <time>2023-04-30T12:10:52.190Z</time>
      </trkpt>
      <trkpt lat="51.28173" lon="6.71986">
        <ele>77.257075</ele>
        <time>2023-04-30T12:10:54.168Z</time>
      </trkpt>
      <trkpt lat="51.28164" lon="6.71976">
        <ele>77.297089</ele>
        <time>2023-04-30T12:10:56.165Z</time>
      </trkpt>
      <trkpt lat="51.28155" lon="6.71964">
        <ele>77.336218</ele>
        <time>2023-04-30T12:10:58.161Z</time>
      </trkpt>
      <trkpt lat="51.28147" lon="6.71953">
        <ele>77.376569</ele>
        <time>2023-04-30T12:11:00.170Z</time>
      </trkpt>
      <trkpt lat="51.28138" lon="6.71941">
        <ele>77.417903</ele>
        <time>2023-04-30T12:11:02.169Z</time>
      </trkpt>
      <trkpt lat="51.28129" lon="6.71932">
        <ele>77.454724</ele>
        <time>2023-04-30T12:11:04.168Z</time>
      </trkpt>
      <trkpt lat="51.28121" lon="6.71923">
        <ele>77.491589</ele>
        <time>2023-04-30T12:11:06.171Z</time>
      </trkpt>
      <trkpt lat="51.28113" lon="6.71911">
        <ele>77.529541</ele>
        <time>2023-04-30T12:11:08.171Z</time>
      </trkpt>
      <trkpt lat="51.28104" lon="6.71901">
        <ele>77.56712</ele>
        <time>2023-04-30T12:11:10.165Z</time>
      </trkpt>
      <trkpt lat="51.28096" lon="6.71891">
        <ele>77.603906</ele>
        <time>2023-04-30T12:11:12.162Z</time>
      </trkpt>
      <trkpt lat="51.28088" lon="6.71882">
        <ele>77.640692</ele>
        <time>2023-04-30T12:11:14.167Z</time>
      </trkpt>
      <trkpt lat="51.28079" lon="6.71872">
        <ele>77.677221</ele>
        <time>2023-04-30T12:11:16.162Z</time>
      </trkpt>
      <trkpt lat="51.28071" lon="6.71861">
        <ele>77.714524</ele>
        <time>2023-04-30T12:11:18.170Z</time>
      </trkpt>
      <trkpt lat="51.28063" lon="6.7185">
        <ele>77.752261</ele>
        <time>2023-04-30T12:11:20.167Z</time>
      </trkpt>
      <trkpt lat="51.28055" lon="6.7184">
        <ele>77.791231</ele>
        <time>2023-04-30T12:11:22.168Z</time>
      </trkpt>
      <trkpt lat="51.28046" lon="6.7183">
        <ele>77.827128</ele>
        <time>2023-04-30T12:11:24.170Z</time>
      </trkpt>
      <trkpt lat="51.28037" lon="6.71821">
        <ele>77.805905</ele>
        <time>2023-04-30T12:11:26.154Z</time>
      </trkpt>
      <trkpt lat="51.28028" lon="6.71811">
        <ele>77.784794</ele>
        <time>2023-04-30T12:11:28.167Z</time>
      </trkpt>
      <trkpt lat="51.2802" lon="6.71801">
        <ele>77.76471</ele>
        <time>2023-04-30T12:11:30.170Z</time>
      </trkpt>
      <trkpt lat="51.28012" lon="6.71791">
        <ele>77.743841</ele>
        <time>2023-04-30T12:11:32.157Z</time>
      </trkpt>
      <trkpt lat="51.28004" lon="6.7178">
        <ele>77.724092</ele>
        <time>2023-04-30T12:11:34.161Z</time>
      </trkpt>
      <trkpt lat="51.27996" lon="6.71771">
        <ele>77.704231</ele>
        <time>2023-04-30T12:11:36.170Z</time>
      </trkpt>
      <trkpt lat="51.27988" lon="6.71761">
        <ele>77.683521</ele>
        <time>2023-04-30T12:11:38.167Z</time>
      </trkpt>
      <trkpt lat="51.2798" lon="6.7175">
        <ele>77.662738</ele>
        <time>2023-04-30T12:11:40.170Z</time>
      </trkpt>
      <trkpt lat="51.27972" lon="6.7174">
        <ele>77.642572</ele>
        <time>2023-04-30T12:11:42.181Z</time>
      </trkpt>
      <trkpt lat="51.27964" lon="6.7173">
        <ele>77.62153</ele>
        <time>2023-04-30T12:11:44.170Z</time>
      </trkpt>
      <trkpt lat="51.27955" lon="6.71719">
        <ele>77.600515</ele>
        <time>2023-04-30T12:11:46.168Z</time>
      </trkpt>
      <trkpt lat="51.27947" lon="6.7171">
        <ele>77.579617</ele>
        <time>2023-04-30T12:11:48.172Z</time>
      </trkpt>
      <trkpt lat="51.27938" lon="6.717">
        <ele>77.558018</ele>
        <time>2023-04-30T12:11:50.168Z</time>
      </trkpt>
      <trkpt lat="51.27929" lon="6.71689">
        <ele>77.536148</ele>
        <time>2023-04-30T12:11:52.167Z</time>
      </trkpt>
      <trkpt lat="51.2792" lon="6.71679">
        <ele>77.51366</ele>
        <time>2023-04-30T12:11:54.171Z</time>
      </trkpt>
      <trkpt lat="51.27911" lon="6.71669">
        <ele>77.492239</ele>
        <time>2023-04-30T12:11:56.182Z</time>
      </trkpt>
      <trkpt lat="51.27902" lon="6.71658">
        <ele>77.470722</ele>
        <time>2023-04-30T12:11:58.176Z</time>
      </trkpt>
      <trkpt lat="51.27894" lon="6.71648">
        <ele>77.499981</ele>
        <time>2023-04-30T12:12:00.155Z</time>
      </trkpt>
      <trkpt lat="51.27885" lon="6.71637">
        <ele>77.529652</ele>
        <time>2023-04-30T12:12:02.179Z</time>
      </trkpt>
      <trkpt lat="51.27877" lon="6.71626">
        <ele>77.559334</ele>
        <time>2023-04-30T12:12:04.171Z</time>
      </trkpt>
      <trkpt lat="51.27868" lon="6.71616">
        <ele>77.589352</ele>
        <time>2023-04-30T12:12:06.191Z</time>
      </trkpt>
      <trkpt lat="51.27858" lon="6.71607">
        <ele>77.618633</ele>
        <time>2023-04-30T12:12:08.179Z</time>
      </trkpt>
      <trkpt lat="51.27849" lon="6.71598">
        <ele>77.648412</ele>
        <time>2023-04-30T12:12:10.179Z</time>
      </trkpt>
      <trkpt lat="51.27841" lon="6.71587">
        <ele>77.678296</ele>
        <time>2023-04-30T12:12:12.184Z</time>
      </trkpt>
      <trkpt lat="51.27832" lon="6.71576">
        <ele>77.708214</ele>
        <time>2023-04-30T12:12:14.171Z</time>
      </trkpt>
      <trkpt lat="51.27823" lon="6.71566">
        <ele>77.737462</ele>
        <time>2023-04-30T12:12:16.194Z</time>
      </trkpt>
      <trkpt lat="51.27815" lon="6.71555">
        <ele>77.767247</ele>
        <time>2023-04-30T12:12:18.173Z</time>
      </trkpt>
      <trkpt lat="51.27806" lon="6.71545">
        <ele>77.79597</ele>
        <time>2023-04-30T12:12:20.186Z</time>
      </trkpt>
      <trkpt lat="51.27797" lon="6.71535">
        <ele>77.825467</ele>
        <time>2023-04-30T12:12:22.176Z</time>
      </trkpt>
      <trkpt lat="51.27789" lon="6.71524">
        <ele>77.855165</ele>
        <time>2023-04-30T12:12:24.164Z</time>
      </trkpt>
      <trkpt lat="51.2778" lon="6.71514">
        <ele>77.884425</ele>
        <time>2023-04-30T12:12:26.157Z</time>
      </trkpt>
      <trkpt lat="51.27772" lon="6.71503">
        <ele>77.913459</ele>
        <time>2023-04-30T12:12:28.165Z</time>
      </trkpt>
      <trkpt lat="51.27763" lon="6.71493">
        <ele>77.942195</ele>
        <time>2023-04-30T12:12:30.173Z</time>
      </trkpt>
      <trkpt lat="51.27755" lon="6.71483">
        <ele>77.954929</ele>
        <time>2023-04-30T12:12:32.168Z</time>
      </trkpt>
      <trkpt lat="51.27747" lon="6.71473">
        <ele>77.93969</ele>
        <time>2023-04-30T12:12:34.166Z</time>
      </trkpt>
      <trkpt lat="51.27738" lon="6.71464">
        <ele>77.924946</ele>
        <time>2023-04-30T12:12:36.161Z</time>
      </trkpt>
      <trkpt lat="51.2773" lon="6.71453">
        <ele>77.909933</ele>
        <time>2023-04-30T12:12:38.165Z</time>
      </trkpt>
      <trkpt lat="51.27721" lon="6.71443">
        <ele>77.894342</ele>
        <time>2023-04-30T12:12:40.167Z</time>
      </trkpt>
      <trkpt lat="51.27712" lon="6.71433">
        <ele>77.878722</ele>
        <time>2023-04-30T12:12:42.185Z</time>
      </trkpt>
      <trkpt lat="51.27703" lon="6.71424">
        <ele>77.862915</ele>
        <time>2023-04-30T12:12:44.166Z</time>
      </trkpt>
      <trkpt lat="51.27693" lon="6.71414">
        <ele>77.84649</ele>
        <time>2023-04-30T12:12:46.174Z</time>
      </trkpt>
      <trkpt lat="51.27683" lon="6.71406">
        <ele>77.831257</ele>
        <time>2023-04-30T12:12:48.153Z</time>
      </trkpt>
      <trkpt lat="51.27674" lon="6.71398">
        <ele>77.815517</ele>
        <time>2023-04-30T12:12:50.173Z</time>
      </trkpt>
      <trkpt lat="51.27664" lon="6.71391">
        <ele>77.799581</ele>
        <time>2023-04-30T12:12:52.168Z</time>
      </trkpt>
      <trkpt lat="51.27654" lon="6.71384">
        <ele>77.784195</ele>
        <time>2023-04-30T12:12:54.169Z</time>
      </trkpt>
      <trkpt lat="51.27645" lon="6.71375">
        <ele>77.769202</ele>
        <time>2023-04-30T12:12:56.167Z</time>
      </trkpt>
      <trkpt lat="51.27636" lon="6.71368">
        <ele>77.754729</ele>
        <time>2023-04-30T12:12:58.191Z</time>
      </trkpt>
      <trkpt lat="51.27626" lon="6.71363">
        <ele>77.739275</ele>
        <time>2023-04-30T12:13:00.165Z</time>
      </trkpt>
      <trkpt lat="51.27615" lon="6.71363">
        <ele>77.72407</ele>
        <time>2023-04-30T12:13:02.171Z</time>
      </trkpt>
      <trkpt lat="51.27605" lon="6.71363">
        <ele>77.709143</ele>
        <time>2023-04-30T12:13:04.168Z</time>
      </trkpt>
      <trkpt lat="51.27594" lon="6.7136">
        <ele>77.740086</ele>
        <time>2023-04-30T12:13:06.169Z</time>
      </trkpt>
      <trkpt lat="51.27583" lon="6.71356">
        <ele>77.809405</ele>
        <time>2023-04-30T12:13:08.162Z</time>
      </trkpt>
      <trkpt lat="51.27572" lon="6.71353">
        <ele>77.883185</ele>
        <time>2023-04-30T12:13:10.171Z</time>
      </trkpt>
      <trkpt lat="51.27558" lon="6.71347">
        <ele>77.972312</ele>
        <time>2023-04-30T12:13:12.175Z</time>
      </trkpt>
      <trkpt lat="51.27545" lon="6.71339">
        <ele>78.061538</ele>
        <time>2023-04-30T12:13:14.169Z</time>
      </trkpt>
      <trkpt lat="51.27533" lon="6.71329">
        <ele>78.149919</ele>
        <time>2023-04-30T12:13:16.160Z</time>
      </trkpt>
      <trkpt lat="51.27519" lon="6.71321">
        <ele>78.240915</ele>
        <time>2023-04-30T12:13:18.170Z</time>
      </trkpt>
      <trkpt lat="51.27506" lon="6.71314">
        <ele>78.329454</ele>
        <time>2023-04-30T12:13:20.181Z</time>
      </trkpt>
      <trkpt lat="51.27494" lon="6.71308">
        <ele>78.410655</ele>
        <time>2023-04-30T12:13:22.171Z</time>
      </trkpt>
      <trkpt lat="51.27482" lon="6.71301">
        <ele>78.48817</ele>
        <time>2023-04-30T12:13:24.173Z</time>
      </trkpt>
      <trkpt lat="51.27472" lon="6.71293">
        <ele>78.557454</ele>
        <time>2023-04-30T12:13:26.158Z</time>
      </trkpt>
      <trkpt lat="51.27464" lon="6.71287">
        <ele>78.61786</ele>
        <time>2023-04-30T12:13:28.182Z</time>
      </trkpt>
      <trkpt lat="51.27455" lon="6.71271">
        <ele>78.700106</ele>
        <time>2023-04-30T12:13:31.160Z</time>
      </trkpt>
      <trkpt lat="51.27447" lon="6.71261">
        <ele>78.765443</ele>
        <time>2023-04-30T12:13:33.165Z</time>
      </trkpt>
      <trkpt lat="51.27437" lon="6.71256">
        <ele>78.831427</ele>
        <time>2023-04-30T12:13:35.170Z</time>
      </trkpt>
      <trkpt lat="51.27427" lon="6.71252">
        <ele>78.838307</ele>
        <time>2023-04-30T12:13:37.166Z</time>
      </trkpt>
      <trkpt lat="51.27418" lon="6.71247">
        <ele>78.835012</ele>
        <time>2023-04-30T12:13:39.192Z</time>
      </trkpt>
      <trkpt lat="51.27409" lon="6.71241">
        <ele>78.831567</ele>
        <time>2023-04-30T12:13:41.164Z</time>
      </trkpt>
      <trkpt lat="51.27399" lon="6.71237">
        <ele>78.828021</ele>
        <time>2023-04-30T12:13:43.174Z</time>
      </trkpt>
      <trkpt lat="51.2739" lon="6.71231">
        <ele>78.824584</ele>
        <time>2023-04-30T12:13:45.171Z</time>
      </trkpt>
      <trkpt lat="51.27381" lon="6.71225">
        <ele>78.821138</ele>
        <time>2023-04-30T12:13:47.179Z</time>
      </trkpt>
      <trkpt lat="51.27372" lon="6.7122">
        <ele>78.817697</ele>
        <time>2023-04-30T12:13:49.174Z</time>
      </trkpt>
      <trkpt lat="51.27363" lon="6.71215">
        <ele>78.814303</ele>
        <time>2023-04-30T12:13:51.171Z</time>
      </trkpt>
      <trkpt lat="51.27354" lon="6.7121">
        <ele>78.811092</ele>
        <time>2023-04-30T12:13:53.171Z</time>
      </trkpt>
      <trkpt lat="51.27345" lon="6.71205">
        <ele>78.807702</ele>
        <time>2023-04-30T12:13:55.170Z</time>
      </trkpt>
      <trkpt lat="51.27336" lon="6.712">
        <ele>78.804235</ele>
        <time>2023-04-30T12:13:57.174Z</time>
      </trkpt>
      <trkpt lat="51.27326" lon="6.71195">
        <ele>78.800827</ele>
        <time>2023-04-30T12:13:59.167Z</time>
      </trkpt>
      <trkpt lat="51.27317" lon="6.71189">
        <ele>78.797257</ele>
        <time>2023-04-30T12:14:01.179Z</time>
      </trkpt>
      <trkpt lat="51.27307" lon="6.71183">
        <ele>78.793617</ele>
        <time>2023-04-30T12:14:03.173Z</time>
      </trkpt>
      <trkpt lat="51.27297" lon="6.71178">
        <ele>78.789875</ele>
        <time>2023-04-30T12:14:05.182Z</time>
      </trkpt>
      <trkpt lat="51.27287" lon="6.71173">
        <ele>78.786166</ele>
        <time>2023-04-30T12:14:07.178Z</time>
      </trkpt>
      <trkpt lat="51.27277" lon="6.71167">
        <ele>78.78246</ele>
        <time>2023-04-30T12:14:09.191Z</time>
      </trkpt>
      <trkpt lat="51.27267" lon="6.71162">
        <ele>78.778798</ele>
        <time>2023-04-30T12:14:11.175Z</time>
      </trkpt>
      <trkpt lat="51.27257" lon="6.71157">
        <ele>78.755445</ele>
        <time>2023-04-30T12:14:13.176Z</time>
      </trkpt>
      <trkpt lat="51.27248" lon="6.71153">
        <ele>78.730626</ele>
        <time>2023-04-30T12:14:15.185Z</time>
      </trkpt>
      <trkpt lat="51.2724" lon="6.71148">
        <ele>78.707119</ele>
        <time>2023-04-30T12:14:17.174Z</time>
      </trkpt>
      <trkpt lat="51.27227" lon="6.71143">
        <ele>78.673244</ele>
        <time>2023-04-30T12:14:20.174Z</time>
      </trkpt>
      <trkpt lat="51.27218" lon="6.71139">
        <ele>78.64949</ele>
        <time>2023-04-30T12:14:22.176Z</time>
      </trkpt>
      <trkpt lat="51.27209" lon="6.71135">
        <ele>78.624036</ele>
        <time>2023-04-30T12:14:24.164Z</time>
      </trkpt>
      <trkpt lat="51.27199" lon="6.71131">
        <ele>78.598543</ele>
        <time>2023-04-30T12:14:26.162Z</time>
      </trkpt>
      <trkpt lat="51.2719" lon="6.71126">
        <ele>78.572704</ele>
        <time>2023-04-30T12:14:28.184Z</time>
      </trkpt>
      <trkpt lat="51.2718" lon="6.71123">
        <ele>78.54573</ele>
        <time>2023-04-30T12:14:30.170Z</time>
      </trkpt>
      <trkpt lat="51.2717" lon="6.71119">
        <ele>78.519187</ele>
        <time>2023-04-30T12:14:32.176Z</time>
      </trkpt>
      <trkpt lat="51.2716" lon="6.71115">
        <ele>78.49225</ele>
        <time>2023-04-30T12:14:34.189Z</time>
      </trkpt>
      <trkpt lat="51.2715" lon="6.71112">
        <ele>78.465565</ele>
        <time>2023-04-30T12:14:36.170Z</time>
      </trkpt>
      <trkpt lat="51.2714" lon="6.7111">
        <ele>78.439217</ele>
        <time>2023-04-30T12:14:38.184Z</time>
      </trkpt>
      <trkpt lat="51.2713" lon="6.71108">
        <ele>78.412744</ele>
        <time>2023-04-30T12:14:40.176Z</time>
      </trkpt>
      <trkpt lat="51.27119" lon="6.71107">
        <ele>78.385328</ele>
        <time>2023-04-30T12:14:42.183Z</time>
      </trkpt>
      <trkpt lat="51.27109" lon="6.71106">
        <ele>78.358986</ele>
        <time>2023-04-30T12:14:44.182Z</time>
      </trkpt>
      <trkpt lat="51.27099" lon="6.71104">
        <ele>78.332031</ele>
        <time>2023-04-30T12:14:46.183Z</time>
      </trkpt>
      <trkpt lat="51.27088" lon="6.71102">
        <ele>78.309805</ele>
        <time>2023-04-30T12:14:48.189Z</time>
      </trkpt>
      <trkpt lat="51.27077" lon="6.71101">
        <ele>78.308029</ele>
        <time>2023-04-30T12:14:50.167Z</time>
      </trkpt>
      <trkpt lat="51.27067" lon="6.711">
        <ele>78.306291</ele>
        <time>2023-04-30T12:14:52.171Z</time>
      </trkpt>
      <trkpt lat="51.27056" lon="6.71098">
        <ele>78.304545</ele>
        <time>2023-04-30T12:14:54.158Z</time>
      </trkpt>
      <trkpt lat="51.27045" lon="6.71096">
        <ele>78.302717</ele>
        <time>2023-04-30T12:14:56.171Z</time>
      </trkpt>
      <trkpt lat="51.27034" lon="6.71095">
        <ele>78.300892</ele>
        <time>2023-04-30T12:14:58.178Z</time>
      </trkpt>
      <trkpt lat="51.27023" lon="6.71094">
        <ele>78.299136</ele>
        <time>2023-04-30T12:15:00.157Z</time>
      </trkpt>
      <trkpt lat="51.27013" lon="6.71091">
        <ele>78.297387</ele>
        <time>2023-04-30T12:15:02.172Z</time>
      </trkpt>
      <trkpt lat="51.27002" lon="6.7109">
        <ele>78.295674</ele>
        <time>2023-04-30T12:15:04.167Z</time>
      </trkpt>
      <trkpt lat="51.26992" lon="6.71089">
        <ele>78.293967</ele>
        <time>2023-04-30T12:15:06.178Z</time>
      </trkpt>
      <trkpt lat="51.26981" lon="6.71087">
        <ele>78.292242</ele>
        <time>2023-04-30T12:15:08.172Z</time>
      </trkpt>
      <trkpt lat="51.26971" lon="6.71086">
        <ele>78.290567</ele>
        <time>2023-04-30T12:15:10.168Z</time>
      </trkpt>
      <trkpt lat="51.26961" lon="6.71085">
        <ele>78.288812</ele>
        <time>2023-04-30T12:15:12.170Z</time>
      </trkpt>
      <trkpt lat="51.2695" lon="6.71084">
        <ele>78.287103</ele>
        <time>2023-04-30T12:15:14.170Z</time>
      </trkpt>
      <trkpt lat="51.2694" lon="6.71083">
        <ele>78.285397</ele>
        <time>2023-04-30T12:15:16.171Z</time>
      </trkpt>
      <trkpt lat="51.26929" lon="6.71082">
        <ele>78.283691</ele>
        <time>2023-04-30T12:15:18.185Z</time>
      </trkpt>
      <trkpt lat="51.26919" lon="6.71082">
        <ele>78.282004</ele>
        <time>2023-04-30T12:15:20.180Z</time>
      </trkpt>
      <trkpt lat="51.26909" lon="6.71083">
        <ele>78.289606</ele>
        <time>2023-04-30T12:15:22.167Z</time>
      </trkpt>
      <trkpt lat="51.26898" lon="6.71083">
        <ele>78.331199</ele>
        <time>2023-04-30T12:15:24.174Z</time>
      </trkpt>
      <trkpt lat="51.26888" lon="6.71083">
        <ele>78.373994</ele>
        <time>2023-04-30T12:15:26.167Z</time>
      </trkpt>
      <trkpt lat="51.26877" lon="6.71083">
        <ele>78.414793</ele>
        <time>2023-04-30T12:15:28.177Z</time>
      </trkpt>
      <trkpt lat="51.26867" lon="6.71084">
        <ele>78.455316</ele>
        <time>2023-04-30T12:15:30.155Z</time>
      </trkpt>
      <trkpt lat="51.26857" lon="6.71086">
        <ele>78.497498</ele>
        <time>2023-04-30T12:15:32.175Z</time>
      </trkpt>
      <trkpt lat="51.26846" lon="6.71088">
        <ele>78.541322</ele>
        <time>2023-04-30T12:15:34.172Z</time>
      </trkpt>
      <trkpt lat="51.26835" lon="6.71089">
        <ele>78.58435</ele>
        <time>2023-04-30T12:15:36.157Z</time>
      </trkpt>
      <trkpt lat="51.26825" lon="6.71092">
        <ele>78.626669</ele>
        <time>2023-04-30T12:15:38.169Z</time>
      </trkpt>
      <trkpt lat="51.26814" lon="6.71094">
        <ele>78.66902</ele>
        <time>2023-04-30T12:15:40.179Z</time>
      </trkpt>
      <trkpt lat="51.26804" lon="6.71096">
        <ele>78.710684</ele>
        <time>2023-04-30T12:15:42.167Z</time>
      </trkpt>
      <trkpt lat="51.26793" lon="6.71099">
        <ele>78.753216</ele>
        <time>2023-04-30T12:15:44.168Z</time>
      </trkpt>
      <trkpt lat="51.26783" lon="6.71102">
        <ele>78.796104</ele>
        <time>2023-04-30T12:15:46.165Z</time>
      </trkpt>
      <trkpt lat="51.26773" lon="6.71105">
        <ele>78.838166</ele>
        <time>2023-04-30T12:15:48.178Z</time>
      </trkpt>
      <trkpt lat="51.26762" lon="6.71109">
        <ele>78.880831</ele>
        <time>2023-04-30T12:15:50.162Z</time>
      </trkpt>
      <trkpt lat="51.26751" lon="6.71112">
        <ele>78.924952</ele>
        <time>2023-04-30T12:15:52.190Z</time>
      </trkpt>
      <trkpt lat="51.26741" lon="6.71117">
        <ele>78.968363</ele>
        <time>2023-04-30T12:15:54.167Z</time>
      </trkpt>
      <trkpt lat="51.26731" lon="6.71121">
        <ele>78.999215</ele>
        <time>2023-04-30T12:15:56.166Z</time>
      </trkpt>
      <trkpt lat="51.2672" lon="6.71127">
        <ele>78.99558</ele>
        <time>2023-04-30T12:15:58.171Z</time>
      </trkpt>
      <trkpt lat="51.2671" lon="6.71131">
        <ele>78.992102</ele>
        <time>2023-04-30T12:16:00.157Z</time>
      </trkpt>
      <trkpt lat="51.267" lon="6.71135">
        <ele>78.988675</ele>
        <time>2023-04-30T12:16:02.180Z</time>
      </trkpt>
      <trkpt lat="51.2669" lon="6.71139">
        <ele>78.985259</ele>
        <time>2023-04-30T12:16:04.170Z</time>
      </trkpt>
      <trkpt lat="51.2668" lon="6.71145">
        <ele>78.981874</ele>
        <time>2023-04-30T12:16:06.165Z</time>
      </trkpt>
      <trkpt lat="51.26671" lon="6.71151">
        <ele>78.978569</ele>
        <time>2023-04-30T12:16:08.180Z</time>
      </trkpt>
      <trkpt lat="51.26661" lon="6.71156">
        <ele>78.975146</ele>
        <time>2023-04-30T12:16:10.170Z</time>
      </trkpt>
      <trkpt lat="51.26651" lon="6.71161">
        <ele>78.971755</ele>
        <time>2023-04-30T12:16:12.168Z</time>
      </trkpt>
      <trkpt lat="51.26641" lon="6.71167">
        <ele>78.968274</ele>
        <time>2023-04-30T12:16:14.171Z</time>
      </trkpt>
      <trkpt lat="51.26631" lon="6.71174">
        <ele>78.964775</ele>
        <time>2023-04-30T12:16:16.171Z</time>
      </trkpt>
      <trkpt lat="51.26622" lon="6.71181">
        <ele>78.96145</ele>
        <time>2023-04-30T12:16:18.171Z</time>
      </trkpt>
      <trkpt lat="51.26612" lon="6.71187">
        <ele>78.958047</ele>
        <time>2023-04-30T12:16:20.170Z</time>
      </trkpt>
      <trkpt lat="51.26603" lon="6.71193">
        <ele>78.954711</ele>
        <time>2023-04-30T12:16:22.187Z</time>
      </trkpt>
      <trkpt lat="51.26594" lon="6.712">
        <ele>78.951327</ele>
        <time>2023-04-30T12:16:24.178Z</time>
      </trkpt>
      <trkpt lat="51.26585" lon="6.71207">
        <ele>78.948187</ele>
        <time>2023-04-30T12:16:26.173Z</time>
      </trkpt>
      <trkpt lat="51.26576" lon="6.71214">
        <ele>78.944982</ele>
        <time>2023-04-30T12:16:28.170Z</time>
      </trkpt>
      <trkpt lat="51.26568" lon="6.71222">
        <ele>78.941785</ele>
        <time>2023-04-30T12:16:30.187Z</time>
      </trkpt>
      <trkpt lat="51.26559" lon="6.7123">
        <ele>78.943882</ele>
        <time>2023-04-30T12:16:32.190Z</time>
      </trkpt>
      <trkpt lat="51.26549" lon="6.71239">
        <ele>78.947439</ele>
        <time>2023-04-30T12:16:34.188Z</time>
      </trkpt>
      <trkpt lat="51.26541" lon="6.71247">
        <ele>78.950703</ele>
        <time>2023-04-30T12:16:36.172Z</time>
      </trkpt>
      <trkpt lat="51.26532" lon="6.71255">
        <ele>78.953951</ele>
        <time>2023-04-30T12:16:38.174Z</time>
      </trkpt>
      <trkpt lat="51.26524" lon="6.71263">
        <ele>78.957067</ele>
        <time>2023-04-30T12:16:40.174Z</time>
      </trkpt>
      <trkpt lat="51.26516" lon="6.71272">
        <ele>78.960199</ele>
        <time>2023-04-30T12:16:42.167Z</time>
      </trkpt>
      <trkpt lat="51.26506" lon="6.71283">
        <ele>78.964453</ele>
        <time>2023-04-30T12:16:45.169Z</time>
      </trkpt>
      <trkpt lat="51.26494" lon="6.71294">
        <ele>78.968843</ele>
        <time>2023-04-30T12:16:48.180Z</time>
      </trkpt>
      <trkpt lat="51.26486" lon="6.71303">
        <ele>78.971888</ele>
        <time>2023-04-30T12:16:50.173Z</time>
      </trkpt>
      <trkpt lat="51.26476" lon="6.71316">
        <ele>78.976272</ele>
        <time>2023-04-30T12:16:53.174Z</time>
      </trkpt>
      <trkpt lat="51.26468" lon="6.71324">
        <ele>78.979242</ele>
        <time>2023-04-30T12:16:55.169Z</time>
      </trkpt>
      <trkpt lat="51.26461" lon="6.71333">
        <ele>78.982248</ele>
        <time>2023-04-30T12:16:57.172Z</time>
      </trkpt>
      <trkpt lat="51.26454" lon="6.71342">
        <ele>78.985341</ele>
        <time>2023-04-30T12:16:59.182Z</time>
      </trkpt>
      <trkpt lat="51.26446" lon="6.71353">
        <ele>78.988541</ele>
        <time>2023-04-30T12:17:01.178Z</time>
      </trkpt>
      <trkpt lat="51.26439" lon="6.71363">
        <ele>78.991673</ele>
        <time>2023-04-30T12:17:03.176Z</time>
      </trkpt>
      <trkpt lat="51.26432" lon="6.71373">
        <ele>78.994735</ele>
        <time>2023-04-30T12:17:05.159Z</time>
      </trkpt>
      <trkpt lat="51.26424" lon="6.71383">
        <ele>78.998009</ele>
        <time>2023-04-30T12:17:07.167Z</time>
      </trkpt>
      <trkpt lat="51.26418" lon="6.71393">
        <ele>78.993003</ele>
        <time>2023-04-30T12:17:09.167Z</time>
      </trkpt>
      <trkpt lat="51.26411" lon="6.71403">
        <ele>78.97129</ele>
        <time>2023-04-30T12:17:11.175Z</time>
      </trkpt>
      <trkpt lat="51.26404" lon="6.71414">
        <ele>78.948522</ele>
        <time>2023-04-30T12:17:13.172Z</time>
      </trkpt>
      <trkpt lat="51.26397" lon="6.71425">
        <ele>78.927093</ele>
        <time>2023-04-30T12:17:15.178Z</time>
      </trkpt>
      <trkpt lat="51.26391" lon="6.71436">
        <ele>78.905285</ele>
        <time>2023-04-30T12:17:17.178Z</time>
      </trkpt>
      <trkpt lat="51.26384" lon="6.71447">
        <ele>78.883306</ele>
        <time>2023-04-30T12:17:19.188Z</time>
      </trkpt>
      <trkpt lat="51.26378" lon="6.71458">
        <ele>78.862034</ele>
        <time>2023-04-30T12:17:21.177Z</time>
      </trkpt>
      <trkpt lat="51.26371" lon="6.71469">
        <ele>78.839595</ele>
        <time>2023-04-30T12:17:23.151Z</time>
      </trkpt>
      <trkpt lat="51.26364" lon="6.71479">
        <ele>78.817856</ele>
        <time>2023-04-30T12:17:25.170Z</time>
      </trkpt>
      <trkpt lat="51.26357" lon="6.71491">
        <ele>78.794956</ele>
        <time>2023-04-30T12:17:27.170Z</time>
      </trkpt>
      <trkpt lat="51.26351" lon="6.71503">
        <ele>78.771352</ele>
        <time>2023-04-30T12:17:29.162Z</time>
      </trkpt>
      <trkpt lat="51.26345" lon="6.71515">
        <ele>78.75026</ele>
        <time>2023-04-30T12:17:31.173Z</time>
      </trkpt>
      <trkpt lat="51.26339" lon="6.71527">
        <ele>78.728597</ele>
        <time>2023-04-30T12:17:33.167Z</time>
      </trkpt>
      <trkpt lat="51.26334" lon="6.71539">
        <ele>78.706891</ele>
        <time>2023-04-30T12:17:35.174Z</time>
      </trkpt>
      <trkpt lat="51.26328" lon="6.71551">
        <ele>78.684626</ele>
        <time>2023-04-30T12:17:37.168Z</time>
      </trkpt>
      <trkpt lat="51.26321" lon="6.71569">
        <ele>78.653957</ele>
        <time>2023-04-30T12:17:40.165Z</time>
      </trkpt>
      <trkpt lat="51.26315" lon="6.71581">
        <ele>78.632895</ele>
        <time>2023-04-30T12:17:42.180Z</time>
      </trkpt>
      <trkpt lat="51.26308" lon="6.71599">
        <ele>78.601838</ele>
        <time>2023-04-30T12:17:45.175Z</time>
      </trkpt>
      <trkpt lat="51.263" lon="6.71616">
        <ele>78.607089</ele>
        <time>2023-04-30T12:17:48.189Z</time>
      </trkpt>
      <trkpt lat="51.26292" lon="6.71634">
        <ele>78.651005</ele>
        <time>2023-04-30T12:17:51.169Z</time>
      </trkpt>
      <trkpt lat="51.26288" lon="6.71648">
        <ele>78.681558</ele>
        <time>2023-04-30T12:17:53.180Z</time>
      </trkpt>
      <trkpt lat="51.26283" lon="6.7166">
        <ele>78.710728</ele>
        <time>2023-04-30T12:17:55.174Z</time>
      </trkpt>
      <trkpt lat="51.26274" lon="6.71676">
        <ele>78.754194</ele>
        <time>2023-04-30T12:17:58.165Z</time>
      </trkpt>
      <trkpt lat="51.26266" lon="6.71693">
        <ele>78.797997</ele>
        <time>2023-04-30T12:18:01.174Z</time>
      </trkpt>
      <trkpt lat="51.26261" lon="6.71705">
        <ele>78.827336</ele>
        <time>2023-04-30T12:18:03.170Z</time>
      </trkpt>
      <trkpt lat="51.26256" lon="6.71718">
        <ele>78.857737</ele>
        <time>2023-04-30T12:18:05.172Z</time>
      </trkpt>
      <trkpt lat="51.2625" lon="6.7173">
        <ele>78.888108</ele>
        <time>2023-04-30T12:18:07.179Z</time>
      </trkpt>
      <trkpt lat="51.26244" lon="6.71748">
        <ele>78.930172</ele>
        <time>2023-04-30T12:18:10.159Z</time>
      </trkpt>
      <trkpt lat="51.26239" lon="6.71761">
        <ele>78.959339</ele>
        <time>2023-04-30T12:18:12.170Z</time>
      </trkpt>
      <trkpt lat="51.26234" lon="6.71774">
        <ele>78.991073</ele>
        <time>2023-04-30T12:18:14.181Z</time>
      </trkpt>
      <trkpt lat="51.2623" lon="6.71787">
        <ele>79.020978</ele>
        <time>2023-04-30T12:18:16.155Z</time>
      </trkpt>
      <trkpt lat="51.26226" lon="6.71801">
        <ele>79.052316</ele>
        <time>2023-04-30T12:18:18.169Z</time>
      </trkpt>
      <trkpt lat="51.26221" lon="6.71814">
        <ele>79.082577</ele>
        <time>2023-04-30T12:18:20.190Z</time>
      </trkpt>
      <trkpt lat="51.26215" lon="6.71833">
        <ele>79.126181</ele>
        <time>2023-04-30T12:18:23.187Z</time>
      </trkpt>
      <trkpt lat="51.26211" lon="6.71846">
        <ele>79.155554</ele>
        <time>2023-04-30T12:18:25.185Z</time>
      </trkpt>
      <trkpt lat="51.26207" lon="6.71859">
        <ele>79.207615</ele>
        <time>2023-04-30T12:18:27.185Z</time>
      </trkpt>
      <trkpt lat="51.26203" lon="6.71872">
        <ele>79.277496</ele>
        <time>2023-04-30T12:18:29.184Z</time>
      </trkpt>
      <trkpt lat="51.26199" lon="6.71885">
        <ele>79.3461</ele>
        <time>2023-04-30T12:18:31.173Z</time>
      </trkpt>
      <trkpt lat="51.26193" lon="6.71904">
        <ele>79.446417</ele>
        <time>2023-04-30T12:18:34.176Z</time>
      </trkpt>
      <trkpt lat="51.26189" lon="6.71917">
        <ele>79.51502</ele>
        <time>2023-04-30T12:18:36.160Z</time>
      </trkpt>
      <trkpt lat="51.26185" lon="6.7193">
        <ele>79.584726</ele>
        <time>2023-04-30T12:18:38.178Z</time>
      </trkpt>
      <trkpt lat="51.26181" lon="6.71944">
        <ele>79.654608</ele>
        <time>2023-04-30T12:18:40.170Z</time>
      </trkpt>
      <trkpt lat="51.26177" lon="6.71957">
        <ele>79.725158</ele>
        <time>2023-04-30T12:18:42.182Z</time>
      </trkpt>
      <trkpt lat="51.2617" lon="6.71976">
        <ele>79.826636</ele>
        <time>2023-04-30T12:18:45.181Z</time>
      </trkpt>
      <trkpt lat="51.26166" lon="6.71989">
        <ele>79.894733</ele>
        <time>2023-04-30T12:18:47.154Z</time>
      </trkpt>
      <trkpt lat="51.26162" lon="6.72002">
        <ele>79.964309</ele>
        <time>2023-04-30T12:18:49.168Z</time>
      </trkpt>
      <trkpt lat="51.26158" lon="6.72015">
        <ele>80.036469</ele>
        <time>2023-04-30T12:18:51.188Z</time>
      </trkpt>
      <trkpt lat="51.26154" lon="6.72029">
        <ele>80.106456</ele>
        <time>2023-04-30T12:18:53.180Z</time>
      </trkpt>
      <trkpt lat="51.26148" lon="6.72047">
        <ele>80.205904</ele>
        <time>2023-04-30T12:18:56.169Z</time>
      </trkpt>
      <trkpt lat="51.26144" lon="6.7206">
        <ele>80.274084</ele>
        <time>2023-04-30T12:18:58.170Z</time>
      </trkpt>
      <trkpt lat="51.2614" lon="6.72074">
        <ele>80.343966</ele>
        <time>2023-04-30T12:19:00.156Z</time>
      </trkpt>
      <trkpt lat="51.26134" lon="6.72092">
        <ele>80.441289</ele>
        <time>2023-04-30T12:19:03.174Z</time>
      </trkpt>
      <trkpt lat="51.26128" lon="6.7211">
        <ele>80.531848</ele>
        <time>2023-04-30T12:19:06.153Z</time>
      </trkpt>
      <trkpt lat="51.26122" lon="6.72128">
        <ele>80.56496</ele>
        <time>2023-04-30T12:19:09.172Z</time>
      </trkpt>
      <trkpt lat="51.26117" lon="6.72147">
        <ele>80.598655</ele>
        <time>2023-04-30T12:19:12.144Z</time>
      </trkpt>
      <trkpt lat="51.26111" lon="6.72166">
        <ele>80.63246</ele>
        <time>2023-04-30T12:19:15.170Z</time>
      </trkpt>
      <trkpt lat="51.26105" lon="6.72185">
        <ele>80.666288</ele>
        <time>2023-04-30T12:19:18.177Z</time>
      </trkpt>
      <trkpt lat="51.26099" lon="6.72204">
        <ele>80.699947</ele>
        <time>2023-04-30T12:19:21.178Z</time>
      </trkpt>
      <trkpt lat="51.26093" lon="6.72222">
        <ele>80.733752</ele>
        <time>2023-04-30T12:19:24.169Z</time>
      </trkpt>
      <trkpt lat="51.26087" lon="6.72241">
        <ele>80.768735</ele>
        <time>2023-04-30T12:19:27.161Z</time>
      </trkpt>
      <trkpt lat="51.26082" lon="6.7226">
        <ele>80.80236</ele>
        <time>2023-04-30T12:19:30.168Z</time>
      </trkpt>
      <trkpt lat="51.26076" lon="6.72279">
        <ele>80.835551</ele>
        <time>2023-04-30T12:19:33.171Z</time>
      </trkpt>
      <trkpt lat="51.2607" lon="6.72297">
        <ele>80.869031</ele>
        <time>2023-04-30T12:19:36.167Z</time>
      </trkpt>
      <trkpt lat="51.26064" lon="6.72315">
        <ele>80.90188</ele>
        <time>2023-04-30T12:19:39.158Z</time>
      </trkpt>
      <trkpt lat="51.26058" lon="6.72334">
        <ele>80.93652</ele>
        <time>2023-04-30T12:19:42.169Z</time>
      </trkpt>
      <trkpt lat="51.26052" lon="6.72353">
        <ele>80.970437</ele>
        <time>2023-04-30T12:19:45.172Z</time>
      </trkpt>
      <trkpt lat="51.26048" lon="6.72366">
        <ele>80.991986</ele>
        <time>2023-04-30T12:19:47.176Z</time>
      </trkpt>
      <trkpt lat="51.26044" lon="6.72379">
        <ele>80.95253</ele>
        <time>2023-04-30T12:19:49.171Z</time>
      </trkpt>
      <trkpt lat="51.26038" lon="6.72398">
        <ele>80.898683</ele>
        <time>2023-04-30T12:19:52.183Z</time>
      </trkpt>
      <trkpt lat="51.26033" lon="6.72415">
        <ele>80.848118</ele>
        <time>2023-04-30T12:19:55.172Z</time>
      </trkpt>
      <trkpt lat="51.26027" lon="6.72433">
        <ele>80.796556</ele>
        <time>2023-04-30T12:19:58.176Z</time>
      </trkpt>
      <trkpt lat="51.26023" lon="6.72446">
        <ele>80.757694</ele>
        <time>2023-04-30T12:20:00.158Z</time>
      </trkpt>
      <trkpt lat="51.26017" lon="6.72465">
        <ele>80.702612</ele>
        <time>2023-04-30T12:20:03.185Z</time>
      </trkpt>
      <trkpt lat="51.26011" lon="6.72485">
        <ele>80.645577</ele>
        <time>2023-04-30T12:20:06.170Z</time>
      </trkpt>
      <trkpt lat="51.26005" lon="6.72504">
        <ele>80.589885</ele>
        <time>2023-04-30T12:20:09.170Z</time>
      </trkpt>
      <trkpt lat="51.25999" lon="6.72523">
        <ele>80.534389</ele>
        <time>2023-04-30T12:20:12.172Z</time>
      </trkpt>
      <trkpt lat="51.25995" lon="6.72535">
        <ele>80.49668</ele>
        <time>2023-04-30T12:20:14.175Z</time>
      </trkpt>
      <trkpt lat="51.25991" lon="6.72548">
        <ele>80.458848</ele>
        <time>2023-04-30T12:20:16.201Z</time>
      </trkpt>
      <trkpt lat="51.25987" lon="6.72561">
        <ele>80.420448</ele>
        <time>2023-04-30T12:20:18.188Z</time>
      </trkpt>
      <trkpt lat="51.25982" lon="6.7258">
        <ele>80.368707</ele>
        <time>2023-04-30T12:20:21.178Z</time>
      </trkpt>
      <trkpt lat="51.25975" lon="6.72597">
        <ele>80.315096</ele>
        <time>2023-04-30T12:20:24.171Z</time>
      </trkpt>
      <trkpt lat="51.25973" lon="6.72618">
        <ele>80.2603</ele>
        <time>2023-04-30T12:20:27.165Z</time>
      </trkpt>
      <trkpt lat="51.25969" lon="6.72632">
        <ele>80.206284</ele>
        <time>2023-04-30T12:20:29.157Z</time>
      </trkpt>
      <trkpt lat="51.25965" lon="6.72645">
        <ele>80.141308</ele>
        <time>2023-04-30T12:20:31.174Z</time>
      </trkpt>
      <trkpt lat="51.25962" lon="6.72659">
        <ele>80.072722</ele>
        <time>2023-04-30T12:20:33.186Z</time>
      </trkpt>
      <trkpt lat="51.25959" lon="6.72673">
        <ele>80.007588</ele>
        <time>2023-04-30T12:20:35.177Z</time>
      </trkpt>
      <trkpt lat="51.25956" lon="6.72687">
        <ele>79.941361</ele>
        <time>2023-04-30T12:20:37.186Z</time>
      </trkpt>
      <trkpt lat="51.25952" lon="6.727">
        <ele>79.872514</ele>
        <time>2023-04-30T12:20:39.176Z</time>
      </trkpt>
      <trkpt lat="51.25949" lon="6.72715">
        <ele>79.803749</ele>
        <time>2023-04-30T12:20:41.184Z</time>
      </trkpt>
      <trkpt lat="51.25944" lon="6.72735">
        <ele>79.707356</ele>
        <time>2023-04-30T12:20:44.175Z</time>
      </trkpt>
      <trkpt lat="51.2594" lon="6.72749">
        <ele>79.639244</ele>
        <time>2023-04-30T12:20:46.170Z</time>
      </trkpt>
      <trkpt lat="51.25937" lon="6.72763">
        <ele>79.570519</ele>
        <time>2023-04-30T12:20:48.172Z</time>
      </trkpt>
      <trkpt lat="51.25934" lon="6.72778">
        <ele>79.502101</ele>
        <time>2023-04-30T12:20:50.184Z</time>
      </trkpt>
      <trkpt lat="51.2593" lon="6.72793">
        <ele>79.429638</ele>
        <time>2023-04-30T12:20:52.179Z</time>
      </trkpt>
      <trkpt lat="51.25926" lon="6.72806">
        <ele>79.361608</ele>
        <time>2023-04-30T12:20:54.170Z</time>
      </trkpt>
      <trkpt lat="51.25922" lon="6.72821">
        <ele>79.288773</ele>
        <time>2023-04-30T12:20:56.159Z</time>
      </trkpt>
      <trkpt lat="51.25918" lon="6.72836">
        <ele>79.214412</ele>
        <time>2023-04-30T12:20:58.170Z</time>
      </trkpt>
      <trkpt lat="51.25914" lon="6.72852">
        <ele>79.140068</ele>
        <time>2023-04-30T12:21:00.155Z</time>
      </trkpt>
      <trkpt lat="51.2591" lon="6.72866">
        <ele>79.066529</ele>
        <time>2023-04-30T12:21:02.170Z</time>
      </trkpt>
      <trkpt lat="51.25906" lon="6.72881">
        <ele>78.994395</ele>
        <time>2023-04-30T12:21:04.179Z</time>
      </trkpt>
      <trkpt lat="51.25902" lon="6.72896">
        <ele>78.959807</ele>
        <time>2023-04-30T12:21:06.185Z</time>
      </trkpt>
      <trkpt lat="51.25899" lon="6.72909">
        <ele>78.986883</ele>
        <time>2023-04-30T12:21:08.175Z</time>
      </trkpt>
      <trkpt lat="51.25895" lon="6.72923">
        <ele>79.016282</ele>
        <time>2023-04-30T12:21:10.178Z</time>
      </trkpt>
      <trkpt lat="51.25891" lon="6.72937">
        <ele>79.04505</ele>
        <time>2023-04-30T12:21:12.169Z</time>
      </trkpt>
      <trkpt lat="51.25887" lon="6.72951">
        <ele>79.073228</ele>
        <time>2023-04-30T12:21:14.167Z</time>
      </trkpt>
      <trkpt lat="51.25884" lon="6.72965">
        <ele>79.102325</ele>
        <time>2023-04-30T12:21:16.171Z</time>
      </trkpt>
      <trkpt lat="51.25881" lon="6.7298">
        <ele>79.13122</ele>
        <time>2023-04-30T12:21:18.156Z</time>
      </trkpt>
      <trkpt lat="51.25877" lon="6.72994">
        <ele>79.159647</ele>
        <time>2023-04-30T12:21:20.167Z</time>
      </trkpt>
      <trkpt lat="51.25872" lon="6.73007">
        <ele>79.187996</ele>
        <time>2023-04-30T12:21:22.150Z</time>
      </trkpt>
      <trkpt lat="51.25869" lon="6.73022">
        <ele>79.217616</ele>
        <time>2023-04-30T12:21:24.178Z</time>
      </trkpt>
      <trkpt lat="51.25865" lon="6.73036">
        <ele>79.246205</ele>
        <time>2023-04-30T12:21:26.158Z</time>
      </trkpt>
      <trkpt lat="51.25861" lon="6.73056">
        <ele>79.286045</ele>
        <time>2023-04-30T12:21:29.176Z</time>
      </trkpt>
      <trkpt lat="51.25858" lon="6.7307">
        <ele>79.313234</ele>
        <time>2023-04-30T12:21:31.182Z</time>
      </trkpt>
      <trkpt lat="51.25855" lon="6.73084">
        <ele>79.3425</ele>
        <time>2023-04-30T12:21:33.164Z</time>
      </trkpt>
      <trkpt lat="51.2585" lon="6.73098">
        <ele>79.371901</ele>
        <time>2023-04-30T12:21:35.163Z</time>
      </trkpt>
      <trkpt lat="51.25846" lon="6.73112">
        <ele>79.400424</ele>
        <time>2023-04-30T12:21:37.173Z</time>
      </trkpt>
      <trkpt lat="51.25843" lon="6.73126">
        <ele>79.429189</ele>
        <time>2023-04-30T12:21:39.174Z</time>
      </trkpt>
      <trkpt lat="51.25839" lon="6.7314">
        <ele>79.457644</ele>
        <time>2023-04-30T12:21:41.163Z</time>
      </trkpt>
      <trkpt lat="51.25835" lon="6.73155">
        <ele>79.487169</ele>
        <time>2023-04-30T12:21:43.172Z</time>
      </trkpt>
      <trkpt lat="51.25832" lon="6.73169">
        <ele>79.494496</ele>
        <time>2023-04-30T12:21:45.175Z</time>
      </trkpt>
      <trkpt lat="51.25828" lon="6.73183">
        <ele>79.499444</ele>
        <time>2023-04-30T12:21:47.171Z</time>
      </trkpt>
      <trkpt lat="51.25825" lon="6.73196">
        <ele>79.504271</ele>
        <time>2023-04-30T12:21:49.172Z</time>
      </trkpt>
      <trkpt lat="51.25821" lon="6.73211">
        <ele>79.509443</ele>
        <time>2023-04-30T12:21:51.176Z</time>
      </trkpt>
      <trkpt lat="51.25816" lon="6.7323">
        <ele>79.51627</ele>
        <time>2023-04-30T12:21:54.168Z</time>
      </trkpt>
      <trkpt lat="51.25813" lon="6.73244">
        <ele>79.52128</ele>
        <time>2023-04-30T12:21:56.177Z</time>
      </trkpt>
      <trkpt lat="51.25808" lon="6.73263">
        <ele>79.528118</ele>
        <time>2023-04-30T12:21:59.158Z</time>
      </trkpt>
      <trkpt lat="51.25804" lon="6.73283">
        <ele>79.534906</ele>
        <time>2023-04-30T12:22:02.179Z</time>
      </trkpt>
      <trkpt lat="51.258" lon="6.73301">
        <ele>79.541229</ele>
        <time>2023-04-30T12:22:05.162Z</time>
      </trkpt>
      <trkpt lat="51.25792" lon="6.73314">
        <ele>79.547438</ele>
        <time>2023-04-30T12:22:08.180Z</time>
      </trkpt>
      <trkpt lat="51.25784" lon="6.7333">
        <ele>79.553951</ele>
        <time>2023-04-30T12:22:11.160Z</time>
      </trkpt>
      <trkpt lat="51.25778" lon="6.73346">
        <ele>79.560265</ele>
        <time>2023-04-30T12:22:14.167Z</time>
      </trkpt>
      <trkpt lat="51.25773" lon="6.73363">
        <ele>79.566644</ele>
        <time>2023-04-30T12:22:17.147Z</time>
      </trkpt>
      <trkpt lat="51.25767" lon="6.73383">
        <ele>79.573585</ele>
        <time>2023-04-30T12:22:20.188Z</time>
      </trkpt>
      <trkpt lat="51.25762" lon="6.73402">
        <ele>79.580474</ele>
        <time>2023-04-30T12:22:23.184Z</time>
      </trkpt>
      <trkpt lat="51.25756" lon="6.73421">
        <ele>79.569726</ele>
        <time>2023-04-30T12:22:26.158Z</time>
      </trkpt>
      <trkpt lat="51.25753" lon="6.73434">
        <ele>79.544126</ele>
        <time>2023-04-30T12:22:28.169Z</time>
      </trkpt>
      <trkpt lat="51.25747" lon="6.73452">
        <ele>79.509522</ele>
        <time>2023-04-30T12:22:31.172Z</time>
      </trkpt>
      <trkpt lat="51.25743" lon="6.73471">
        <ele>79.473174</ele>
        <time>2023-04-30T12:22:34.172Z</time>
      </trkpt>
      <trkpt lat="51.25738" lon="6.73491">
        <ele>79.434038</ele>
        <time>2023-04-30T12:22:37.168Z</time>
      </trkpt>
      <trkpt lat="51.25734" lon="6.73504">
        <ele>79.407994</ele>
        <time>2023-04-30T12:22:39.175Z</time>
      </trkpt>
      <trkpt lat="51.25728" lon="6.73522">
        <ele>79.371898</ele>
        <time>2023-04-30T12:22:42.170Z</time>
      </trkpt>
      <trkpt lat="51.25723" lon="6.73541">
        <ele>79.335667</ele>
        <time>2023-04-30T12:22:45.169Z</time>
      </trkpt>
      <trkpt lat="51.25718" lon="6.73558">
        <ele>79.301343</ele>
        <time>2023-04-30T12:22:48.176Z</time>
      </trkpt>
      <trkpt lat="51.25712" lon="6.73577">
        <ele>79.264717</ele>
        <time>2023-04-30T12:22:51.187Z</time>
      </trkpt>
      <trkpt lat="51.25707" lon="6.73596">
        <ele>79.228207</ele>
        <time>2023-04-30T12:22:54.173Z</time>
      </trkpt>
      <trkpt lat="51.25704" lon="6.73609">
        <ele>79.202077</ele>
        <time>2023-04-30T12:22:56.170Z</time>
      </trkpt>
      <trkpt lat="51.25699" lon="6.73627">
        <ele>79.167591</ele>
        <time>2023-04-30T12:22:59.172Z</time>
      </trkpt>
      <trkpt lat="51.25694" lon="6.73644">
        <ele>79.133632</ele>
        <time>2023-04-30T12:23:02.168Z</time>
      </trkpt>
      <trkpt lat="51.25689" lon="6.73657">
        <ele>79.10776</ele>
        <time>2023-04-30T12:23:04.181Z</time>
      </trkpt>
      <trkpt lat="51.25684" lon="6.73673">
        <ele>79.075252</ele>
        <time>2023-04-30T12:23:07.187Z</time>
      </trkpt>
      <trkpt lat="51.2568" lon="6.73692">
        <ele>79.046402</ele>
        <time>2023-04-30T12:23:10.175Z</time>
      </trkpt>
      <trkpt lat="51.25674" lon="6.7371">
        <ele>79.018478</ele>
        <time>2023-04-30T12:23:13.173Z</time>
      </trkpt>
      <trkpt lat="51.25669" lon="6.73726">
        <ele>78.994924</ele>
        <time>2023-04-30T12:23:16.170Z</time>
      </trkpt>
      <trkpt lat="51.25665" lon="6.73743">
        <ele>78.969355</ele>
        <time>2023-04-30T12:23:19.177Z</time>
      </trkpt>
      <trkpt lat="51.25661" lon="6.73757">
        <ele>78.948713</ele>
        <time>2023-04-30T12:23:21.173Z</time>
      </trkpt>
      <trkpt lat="51.25657" lon="6.73771">
        <ele>78.928613</ele>
        <time>2023-04-30T12:23:23.170Z</time>
      </trkpt>
      <trkpt lat="51.25654" lon="6.73784">
        <ele>78.908768</ele>
        <time>2023-04-30T12:23:25.170Z</time>
      </trkpt>
      <trkpt lat="51.25649" lon="6.73802">
        <ele>78.880999</ele>
        <time>2023-04-30T12:23:28.183Z</time>
      </trkpt>
      <trkpt lat="51.25644" lon="6.73819">
        <ele>78.856189</ele>
        <time>2023-04-30T12:23:31.173Z</time>
      </trkpt>
      <trkpt lat="51.25638" lon="6.73836">
        <ele>78.828213</ele>
        <time>2023-04-30T12:23:34.173Z</time>
      </trkpt>
      <trkpt lat="51.25631" lon="6.73853">
        <ele>78.801518</ele>
        <time>2023-04-30T12:23:37.174Z</time>
      </trkpt>
      <trkpt lat="51.25625" lon="6.73871">
        <ele>78.773503</ele>
        <time>2023-04-30T12:23:40.189Z</time>
      </trkpt>
      <trkpt lat="51.25621" lon="6.73889">
        <ele>78.74709</ele>
        <time>2023-04-30T12:23:43.168Z</time>
      </trkpt>
      <trkpt lat="51.25616" lon="6.73907">
        <ele>78.719999</ele>
        <time>2023-04-30T12:23:46.166Z</time>
      </trkpt>
      <trkpt lat="51.25611" lon="6.73926">
        <ele>78.692407</ele>
        <time>2023-04-30T12:23:49.177Z</time>
      </trkpt>
      <trkpt lat="51.25606" lon="6.73943">
        <ele>78.704131</ele>
        <time>2023-04-30T12:23:52.169Z</time>
      </trkpt>
      <trkpt lat="51.25602" lon="6.73959">
        <ele>78.751561</ele>
        <time>2023-04-30T12:23:55.194Z</time>
      </trkpt>
      <trkpt lat="51.25597" lon="6.73976">
        <ele>78.806148</ele>
        <time>2023-04-30T12:23:58.170Z</time>
      </trkpt>
      <trkpt lat="51.2559" lon="6.73988">
        <ele>78.85557</ele>
        <time>2023-04-30T12:24:01.165Z</time>
      </trkpt>
      <trkpt lat="51.25582" lon="6.73996">
        <ele>78.90094</ele>
        <time>2023-04-30T12:24:04.167Z</time>
      </trkpt>
      <trkpt lat="51.25576" lon="6.7401">
        <ele>78.946081</ele>
        <time>2023-04-30T12:24:06.161Z</time>
      </trkpt>
      <trkpt lat="51.25573" lon="6.74023">
        <ele>78.988603</ele>
        <time>2023-04-30T12:24:08.166Z</time>
      </trkpt>
      <trkpt lat="51.25568" lon="6.7404">
        <ele>79.042607</ele>
        <time>2023-04-30T12:24:11.167Z</time>
      </trkpt>
      <trkpt lat="51.25563" lon="6.74057">
        <ele>79.094264</ele>
        <time>2023-04-30T12:24:14.167Z</time>
      </trkpt>
      <trkpt lat="51.25557" lon="6.74074">
        <ele>79.150217</ele>
        <time>2023-04-30T12:24:17.185Z</time>
      </trkpt>
      <trkpt lat="51.25552" lon="6.74092">
        <ele>79.207996</ele>
        <time>2023-04-30T12:24:20.155Z</time>
      </trkpt>
      <trkpt lat="51.25548" lon="6.74109">
        <ele>79.260812</ele>
        <time>2023-04-30T12:24:23.189Z</time>
      </trkpt>
      <trkpt lat="51.25544" lon="6.74125">
        <ele>79.311828</ele>
        <time>2023-04-30T12:24:26.179Z</time>
      </trkpt>
      <trkpt lat="51.25538" lon="6.74143">
        <ele>79.368103</ele>
        <time>2023-04-30T12:24:29.169Z</time>
      </trkpt>
      <trkpt lat="51.25531" lon="6.7416">
        <ele>79.427407</ele>
        <time>2023-04-30T12:24:32.172Z</time>
      </trkpt>
      <trkpt lat="51.25526" lon="6.74178">
        <ele>79.482451</ele>
        <time>2023-04-30T12:24:35.169Z</time>
      </trkpt>
      <trkpt lat="51.25522" lon="6.74193">
        <ele>79.473322</ele>
        <time>2023-04-30T12:24:38.168Z</time>
      </trkpt>
      <trkpt lat="51.25518" lon="6.74209">
        <ele>79.409607</ele>
        <time>2023-04-30T12:24:41.179Z</time>
      </trkpt>
      <trkpt lat="51.25514" lon="6.74226">
        <ele>79.344661</ele>
        <time>2023-04-30T12:24:44.164Z</time>
      </trkpt>
      <trkpt lat="51.25509" lon="6.74241">
        <ele>79.282296</ele>
        <time>2023-04-30T12:24:48.168Z</time>
      </trkpt>
      <trkpt lat="51.25505" lon="6.74257">
        <ele>79.22174</ele>
        <time>2023-04-30T12:24:52.179Z</time>
      </trkpt>
      <trkpt lat="51.25501" lon="6.74271">
        <ele>79.164026</ele>
        <time>2023-04-30T12:24:55.176Z</time>
      </trkpt>
      <trkpt lat="51.25495" lon="6.74284">
        <ele>79.104446</ele>
        <time>2023-04-30T12:24:58.174Z</time>
      </trkpt>
      <trkpt lat="51.2549" lon="6.74299">
        <ele>79.041472</ele>
        <time>2023-04-30T12:25:01.169Z</time>
      </trkpt>
      <trkpt lat="51.25486" lon="6.74315">
        <ele>78.978772</ele>
        <time>2023-04-30T12:25:04.167Z</time>
      </trkpt>
      <trkpt lat="51.25479" lon="6.74326">
        <ele>78.922889</ele>
        <time>2023-04-30T12:25:07.156Z</time>
      </trkpt>
      <trkpt lat="51.25472" lon="6.74335">
        <ele>78.869181</ele>
        <time>2023-04-30T12:25:10.154Z</time>
      </trkpt>
      <trkpt lat="51.25463" lon="6.74343">
        <ele>78.811437</ele>
        <time>2023-04-30T12:25:13.174Z</time>
      </trkpt>
      <trkpt lat="51.25456" lon="6.74353">
        <ele>78.754567</ele>
        <time>2023-04-30T12:25:16.163Z</time>
      </trkpt>
      <trkpt lat="51.25451" lon="6.74367">
        <ele>78.695949</ele>
        <time>2023-04-30T12:25:19.154Z</time>
      </trkpt>
      <trkpt lat="51.25444" lon="6.74383">
        <ele>78.626475</ele>
        <time>2023-04-30T12:25:22.174Z</time>
      </trkpt>
      <trkpt lat="51.25439" lon="6.74401">
        <ele>78.5527</ele>
        <time>2023-04-30T12:25:25.178Z</time>
      </trkpt>
      <trkpt lat="51.25435" lon="6.74417">
        <ele>78.488884</ele>
        <time>2023-04-30T12:25:28.169Z</time>
      </trkpt>
      <trkpt lat="51.2543" lon="6.74436">
        <ele>78.484551</ele>
        <time>2023-04-30T12:25:31.172Z</time>
      </trkpt>
      <trkpt lat="51.25425" lon="6.74454">
        <ele>78.540313</ele>
        <time>2023-04-30T12:25:34.168Z</time>
      </trkpt>
      <trkpt lat="51.25421" lon="6.7447">
        <ele>78.591868</ele>
        <time>2023-04-30T12:25:37.180Z</time>
      </trkpt>
      <trkpt lat="51.25416" lon="6.74486">
        <ele>78.641227</ele>
        <time>2023-04-30T12:25:40.173Z</time>
      </trkpt>
      <trkpt lat="51.25411" lon="6.74502">
        <ele>78.692709</ele>
        <time>2023-04-30T12:25:43.180Z</time>
      </trkpt>
      <trkpt lat="51.25407" lon="6.74519">
        <ele>78.743426</ele>
        <time>2023-04-30T12:25:46.156Z</time>
      </trkpt>
      <trkpt lat="51.25403" lon="6.74538">
        <ele>78.801942</ele>
        <time>2023-04-30T12:25:49.159Z</time>
      </trkpt>
      <trkpt lat="51.25397" lon="6.74558">
        <ele>78.86337</ele>
        <time>2023-04-30T12:25:52.171Z</time>
      </trkpt>
      <trkpt lat="51.25391" lon="6.74577">
        <ele>78.925189</ele>
        <time>2023-04-30T12:25:55.193Z</time>
      </trkpt>
      <trkpt lat="51.25387" lon="6.74591">
        <ele>78.967698</ele>
        <time>2023-04-30T12:25:57.167Z</time>
      </trkpt>
      <trkpt lat="51.25381" lon="6.7461">
        <ele>79.029363</ele>
        <time>2023-04-30T12:26:00.161Z</time>
      </trkpt>
      <trkpt lat="51.25377" lon="6.74624">
        <ele>79.073997</ele>
        <time>2023-04-30T12:26:02.181Z</time>
      </trkpt>
      <trkpt lat="51.25374" lon="6.74638">
        <ele>79.116537</ele>
        <time>2023-04-30T12:26:04.180Z</time>
      </trkpt>
      <trkpt lat="51.25369" lon="6.74658">
        <ele>79.175322</ele>
        <time>2023-04-30T12:26:07.173Z</time>
      </trkpt>
      <trkpt lat="51.25364" lon="6.74676">
        <ele>79.235202</ele>
        <time>2023-04-30T12:26:10.177Z</time>
      </trkpt>
      <trkpt lat="51.2536" lon="6.7469">
        <ele>79.275141</ele>
        <time>2023-04-30T12:26:12.171Z</time>
      </trkpt>
      <trkpt lat="51.25356" lon="6.74703">
        <ele>79.283788</ele>
        <time>2023-04-30T12:26:14.169Z</time>
      </trkpt>
      <trkpt lat="51.25352" lon="6.74717">
        <ele>79.2929</ele>
        <time>2023-04-30T12:26:16.156Z</time>
      </trkpt>
      <trkpt lat="51.25348" lon="6.7473">
        <ele>79.301717</ele>
        <time>2023-04-30T12:26:18.173Z</time>
      </trkpt>
      <trkpt lat="51.25343" lon="6.74743">
        <ele>79.310667</ele>
        <time>2023-04-30T12:26:20.163Z</time>
      </trkpt>
      <trkpt lat="51.25339" lon="6.74759">
        <ele>79.320283</ele>
        <time>2023-04-30T12:26:22.176Z</time>
      </trkpt>
      <trkpt lat="51.25336" lon="6.74772">
        <ele>79.329316</ele>
        <time>2023-04-30T12:26:24.167Z</time>
      </trkpt>
      <trkpt lat="51.25332" lon="6.74786">
        <ele>79.337985</ele>
        <time>2023-04-30T12:26:26.154Z</time>
      </trkpt>
      <trkpt lat="51.25328" lon="6.74799">
        <ele>79.346856</ele>
        <time>2023-04-30T12:26:28.167Z</time>
      </trkpt>
      <trkpt lat="51.25322" lon="6.74819">
        <ele>79.35978</ele>
        <time>2023-04-30T12:26:31.172Z</time>
      </trkpt>
      <trkpt lat="51.25319" lon="6.74833">
        <ele>79.368646</ele>
        <time>2023-04-30T12:26:33.176Z</time>
      </trkpt>
      <trkpt lat="51.25315" lon="6.74847">
        <ele>79.377477</ele>
        <time>2023-04-30T12:26:35.175Z</time>
      </trkpt>
      <trkpt lat="51.2531" lon="6.74866">
        <ele>79.390138</ele>
        <time>2023-04-30T12:26:38.172Z</time>
      </trkpt>
      <trkpt lat="51.25306" lon="6.74879">
        <ele>79.398771</ele>
        <time>2023-04-30T12:26:40.184Z</time>
      </trkpt>
      <trkpt lat="51.25301" lon="6.74899">
        <ele>79.411251</ele>
        <time>2023-04-30T12:26:43.182Z</time>
      </trkpt>
      <trkpt lat="51.25295" lon="6.74919">
        <ele>79.424222</ele>
        <time>2023-04-30T12:26:46.166Z</time>
      </trkpt>
      <trkpt lat="51.25292" lon="6.74932">
        <ele>79.432815</ele>
        <time>2023-04-30T12:26:48.155Z</time>
      </trkpt>
      <trkpt lat="51.25289" lon="6.74947">
        <ele>79.441901</ele>
        <time>2023-04-30T12:26:50.163Z</time>
      </trkpt>
      <trkpt lat="51.25284" lon="6.74967">
        <ele>79.404532</ele>
        <time>2023-04-30T12:26:53.188Z</time>
      </trkpt>
      <trkpt lat="51.25279" lon="6.74988">
        <ele>79.350059</ele>
        <time>2023-04-30T12:26:56.163Z</time>
      </trkpt>
      <trkpt lat="51.25275" lon="6.75001">
        <ele>79.314051</ele>
        <time>2023-04-30T12:26:58.171Z</time>
      </trkpt>
      <trkpt lat="51.25271" lon="6.75015">
        <ele>79.276028</ele>
        <time>2023-04-30T12:27:00.154Z</time>
      </trkpt>
      <trkpt lat="51.25268" lon="6.75029">
        <ele>79.238485</ele>
        <time>2023-04-30T12:27:02.167Z</time>
      </trkpt>
      <trkpt lat="51.25264" lon="6.75043">
        <ele>79.199819</ele>
        <time>2023-04-30T12:27:04.175Z</time>
      </trkpt>
      <trkpt lat="51.2526" lon="6.75058">
        <ele>79.16038</ele>
        <time>2023-04-30T12:27:06.165Z</time>
      </trkpt>
      <trkpt lat="51.25257" lon="6.75072">
        <ele>79.123208</ele>
        <time>2023-04-30T12:27:08.167Z</time>
      </trkpt>
      <trkpt lat="51.25252" lon="6.75085">
        <ele>79.086158</ele>
        <time>2023-04-30T12:27:10.172Z</time>
      </trkpt>
      <trkpt lat="51.25248" lon="6.75098">
        <ele>79.050166</ele>
        <time>2023-04-30T12:27:12.164Z</time>
      </trkpt>
      <trkpt lat="51.25242" lon="6.75118">
        <ele>78.996407</ele>
        <time>2023-04-30T12:27:15.159Z</time>
      </trkpt>
      <trkpt lat="51.25239" lon="6.75132">
        <ele>78.958197</ele>
        <time>2023-04-30T12:27:17.175Z</time>
      </trkpt>
      <trkpt lat="51.25235" lon="6.75145">
        <ele>78.922708</ele>
        <time>2023-04-30T12:27:19.194Z</time>
      </trkpt>
      <trkpt lat="51.2523" lon="6.75165">
        <ele>78.869724</ele>
        <time>2023-04-30T12:27:22.170Z</time>
      </trkpt>
      <trkpt lat="51.25228" lon="6.7518">
        <ele>78.832953</ele>
        <time>2023-04-30T12:27:24.187Z</time>
      </trkpt>
      <trkpt lat="51.25224" lon="6.75194">
        <ele>78.796243</ele>
        <time>2023-04-30T12:27:26.150Z</time>
      </trkpt>
      <trkpt lat="51.2522" lon="6.75214">
        <ele>78.743894</ele>
        <time>2023-04-30T12:27:29.176Z</time>
      </trkpt>
      <trkpt lat="51.25215" lon="6.75227">
        <ele>78.712717</ele>
        <time>2023-04-30T12:27:31.175Z</time>
      </trkpt>
      <trkpt lat="51.25211" lon="6.75241">
        <ele>78.681171</ele>
        <time>2023-04-30T12:27:33.166Z</time>
      </trkpt>
      <trkpt lat="51.25207" lon="6.75261">
        <ele>78.639636</ele>
        <time>2023-04-30T12:27:36.170Z</time>
      </trkpt>
      <trkpt lat="51.25203" lon="6.75275">
        <ele>78.609335</ele>
        <time>2023-04-30T12:27:38.167Z</time>
      </trkpt>
      <trkpt lat="51.25198" lon="6.75294">
        <ele>78.567225</ele>
        <time>2023-04-30T12:27:41.177Z</time>
      </trkpt>
      <trkpt lat="51.25193" lon="6.75315">
        <ele>78.523627</ele>
        <time>2023-04-30T12:27:44.187Z</time>
      </trkpt>
      <trkpt lat="51.25188" lon="6.75335">
        <ele>78.479888</ele>
        <time>2023-04-30T12:27:47.176Z</time>
      </trkpt>
      <trkpt lat="51.25184" lon="6.7535">
        <ele>78.448184</ele>
        <time>2023-04-30T12:27:49.166Z</time>
      </trkpt>
      <trkpt lat="51.2518" lon="6.75365">
        <ele>78.415332</ele>
        <time>2023-04-30T12:27:51.169Z</time>
      </trkpt>
      <trkpt lat="51.25176" lon="6.75379">
        <ele>78.385068</ele>
        <time>2023-04-30T12:27:53.183Z</time>
      </trkpt>
      <trkpt lat="51.25173" lon="6.75394">
        <ele>78.353279</ele>
        <time>2023-04-30T12:27:55.170Z</time>
      </trkpt>
      <trkpt lat="51.25169" lon="6.75409">
        <ele>78.320778</ele>
        <time>2023-04-30T12:27:57.171Z</time>
      </trkpt>
      <trkpt lat="51.25164" lon="6.75423">
        <ele>78.289056</ele>
        <time>2023-04-30T12:27:59.175Z</time>
      </trkpt>
      <trkpt lat="51.25161" lon="6.75437">
        <ele>78.259368</ele>
        <time>2023-04-30T12:28:01.167Z</time>
      </trkpt>
      <trkpt lat="51.25157" lon="6.7545">
        <ele>78.230383</ele>
        <time>2023-04-30T12:28:03.175Z</time>
      </trkpt>
      <trkpt lat="51.25152" lon="6.75469">
        <ele>78.190615</ele>
        <time>2023-04-30T12:28:06.170Z</time>
      </trkpt>
      <trkpt lat="51.25146" lon="6.75488">
        <ele>78.153836</ele>
        <time>2023-04-30T12:28:09.185Z</time>
      </trkpt>
      <trkpt lat="51.25141" lon="6.75506">
        <ele>78.126324</ele>
        <time>2023-04-30T12:28:12.169Z</time>
      </trkpt>
      <trkpt lat="51.25136" lon="6.7552">
        <ele>78.104112</ele>
        <time>2023-04-30T12:28:15.168Z</time>
      </trkpt>
      <trkpt lat="51.25132" lon="6.75535">
        <ele>78.082387</ele>
        <time>2023-04-30T12:28:18.148Z</time>
      </trkpt>
      <trkpt lat="51.25128" lon="6.75549">
        <ele>78.060745</ele>
        <time>2023-04-30T12:28:21.155Z</time>
      </trkpt>
      <trkpt lat="51.25123" lon="6.75565">
        <ele>78.036931</ele>
        <time>2023-04-30T12:28:24.170Z</time>
      </trkpt>
      <trkpt lat="51.25118" lon="6.75582">
        <ele>78.011134</ele>
        <time>2023-04-30T12:28:27.172Z</time>
      </trkpt>
      <trkpt lat="51.25114" lon="6.75598">
        <ele>77.986663</ele>
        <time>2023-04-30T12:28:30.172Z</time>
      </trkpt>
      <trkpt lat="51.2511" lon="6.75616">
        <ele>77.960789</ele>
        <time>2023-04-30T12:28:33.170Z</time>
      </trkpt>
      <trkpt lat="51.25105" lon="6.75631">
        <ele>77.937474</ele>
        <time>2023-04-30T12:28:36.165Z</time>
      </trkpt>
      <trkpt lat="51.25101" lon="6.75647">
        <ele>77.913727</ele>
        <time>2023-04-30T12:28:39.185Z</time>
      </trkpt>
      <trkpt lat="51.25095" lon="6.75664">
        <ele>77.886601</ele>
        <time>2023-04-30T12:28:42.164Z</time>
      </trkpt>
      <trkpt lat="51.25091" lon="6.75683">
        <ele>77.860381</ele>
        <time>2023-04-30T12:28:45.171Z</time>
      </trkpt>
      <trkpt lat="51.25085" lon="6.757">
        <ele>77.832505</ele>
        <time>2023-04-30T12:28:48.164Z</time>
      </trkpt>
      <trkpt lat="51.2508" lon="6.75719">
        <ele>77.80426</ele>
        <time>2023-04-30T12:28:51.165Z</time>
      </trkpt>
      <trkpt lat="51.25076" lon="6.75738">
        <ele>77.777246</ele>
        <time>2023-04-30T12:28:54.169Z</time>
      </trkpt>
      <trkpt lat="51.2507" lon="6.75756">
        <ele>77.848327</ele>
        <time>2023-04-30T12:28:57.171Z</time>
      </trkpt>
      <trkpt lat="51.25065" lon="6.75772">
        <ele>77.942686</ele>
        <time>2023-04-30T12:29:00.140Z</time>
      </trkpt>
      <trkpt lat="51.25058" lon="6.75789">
        <ele>78.041056</ele>
        <time>2023-04-30T12:29:03.167Z</time>
      </trkpt>
      <trkpt lat="51.25053" lon="6.75801">
        <ele>78.117062</ele>
        <time>2023-04-30T12:29:05.172Z</time>
      </trkpt>
      <trkpt lat="51.25045" lon="6.75816">
        <ele>78.214522</ele>
        <time>2023-04-30T12:29:08.165Z</time>
      </trkpt>
      <trkpt lat="51.25037" lon="6.7583">
        <ele>78.307624</ele>
        <time>2023-04-30T12:29:11.169Z</time>
      </trkpt>
      <trkpt lat="51.2503" lon="6.75845">
        <ele>78.400509</ele>
        <time>2023-04-30T12:29:14.163Z</time>
      </trkpt>
      <trkpt lat="51.25023" lon="6.75859">
        <ele>78.490426</ele>
        <time>2023-04-30T12:29:17.171Z</time>
      </trkpt>
      <trkpt lat="51.25017" lon="6.75871">
        <ele>78.569396</ele>
        <time>2023-04-30T12:29:20.149Z</time>
      </trkpt>
      <trkpt lat="51.25011" lon="6.75886">
        <ele>78.658439</ele>
        <time>2023-04-30T12:29:25.165Z</time>
      </trkpt>
      <trkpt lat="51.25004" lon="6.75896">
        <ele>78.735344</ele>
        <time>2023-04-30T12:29:28.164Z</time>
      </trkpt>
      <trkpt lat="51.24998" lon="6.75909">
        <ele>78.815684</ele>
        <time>2023-04-30T12:29:31.160Z</time>
      </trkpt>
      <trkpt lat="51.24993" lon="6.75924">
        <ele>78.902327</ele>
        <time>2023-04-30T12:29:34.163Z</time>
      </trkpt>
      <trkpt lat="51.24988" lon="6.75936">
        <ele>78.977395</ele>
        <time>2023-04-30T12:29:36.168Z</time>
      </trkpt>
      <trkpt lat="51.24981" lon="6.75952">
        <ele>79.072606</ele>
        <time>2023-04-30T12:29:39.168Z</time>
      </trkpt>
      <trkpt lat="51.24973" lon="6.75968">
        <ele>79.174594</ele>
        <time>2023-04-30T12:29:42.171Z</time>
      </trkpt>
      <trkpt lat="51.24965" lon="6.75984">
        <ele>79.261239</ele>
        <time>2023-04-30T12:29:45.173Z</time>
      </trkpt>
      <trkpt lat="51.24957" lon="6.75999">
        <ele>79.334192</ele>
        <time>2023-04-30T12:29:48.169Z</time>
      </trkpt>
      <trkpt lat="51.2495" lon="6.76014">
        <ele>79.402311</ele>
        <time>2023-04-30T12:29:51.187Z</time>
      </trkpt>
      <trkpt lat="51.24942" lon="6.76028">
        <ele>79.469925</ele>
        <time>2023-04-30T12:29:54.182Z</time>
      </trkpt>
      <trkpt lat="51.24936" lon="6.76044">
        <ele>79.539652</ele>
        <time>2023-04-30T12:29:57.177Z</time>
      </trkpt>
      <trkpt lat="51.2493" lon="6.76058">
        <ele>79.604136</ele>
        <time>2023-04-30T12:30:00.178Z</time>
      </trkpt>
      <trkpt lat="51.24923" lon="6.76072">
        <ele>79.66986</ele>
        <time>2023-04-30T12:30:03.184Z</time>
      </trkpt>
      <trkpt lat="51.24915" lon="6.76087">
        <ele>79.739923</ele>
        <time>2023-04-30T12:30:06.158Z</time>
      </trkpt>
      <trkpt lat="51.24908" lon="6.76105">
        <ele>79.817806</ele>
        <time>2023-04-30T12:30:09.173Z</time>
      </trkpt>
      <trkpt lat="51.249" lon="6.7612">
        <ele>79.889513</ele>
        <time>2023-04-30T12:30:12.159Z</time>
      </trkpt>
      <trkpt lat="51.24892" lon="6.76132">
        <ele>79.954071</ele>
        <time>2023-04-30T12:30:15.169Z</time>
      </trkpt>
      <trkpt lat="51.24884" lon="6.76146">
        <ele>80.02324</ele>
        <time>2023-04-30T12:30:18.179Z</time>
      </trkpt>
      <trkpt lat="51.2488" lon="6.76159">
        <ele>80.076262</ele>
        <time>2023-04-30T12:30:20.155Z</time>
      </trkpt>
      <trkpt lat="51.24873" lon="6.76176">
        <ele>80.150987</ele>
        <time>2023-04-30T12:30:23.174Z</time>
      </trkpt>
      <trkpt lat="51.24866" lon="6.76189">
        <ele>80.215786</ele>
        <time>2023-04-30T12:30:26.155Z</time>
      </trkpt>
      <trkpt lat="51.24857" lon="6.762">
        <ele>80.267382</ele>
        <time>2023-04-30T12:30:29.170Z</time>
      </trkpt>
      <trkpt lat="51.24848" lon="6.76213">
        <ele>80.252204</ele>
        <time>2023-04-30T12:30:32.174Z</time>
      </trkpt>
      <trkpt lat="51.24839" lon="6.76224">
        <ele>80.237874</ele>
        <time>2023-04-30T12:30:35.166Z</time>
      </trkpt>
      <trkpt lat="51.24832" lon="6.76236">
        <ele>80.22436</ele>
        <time>2023-04-30T12:30:38.167Z</time>
      </trkpt>
      <trkpt lat="51.24826" lon="6.76248">
        <ele>80.212513</ele>
        <time>2023-04-30T12:30:41.174Z</time>
      </trkpt>
      <trkpt lat="51.24821" lon="6.7626">
        <ele>80.200608</ele>
        <time>2023-04-30T12:30:44.163Z</time>
      </trkpt>
      <trkpt lat="51.24815" lon="6.76274">
        <ele>80.18735</ele>
        <time>2023-04-30T12:30:48.191Z</time>
      </trkpt>
      <trkpt lat="51.24809" lon="6.76264">
        <ele>80.175842</ele>
        <time>2023-04-30T12:30:53.164Z</time>
      </trkpt>
      <trkpt lat="51.24802" lon="6.76248">
        <ele>80.160733</ele>
        <time>2023-04-30T12:30:57.168Z</time>
      </trkpt>
      <trkpt lat="51.24795" lon="6.76237">
        <ele>80.148553</ele>
        <time>2023-04-30T12:31:00.168Z</time>
      </trkpt>
      <trkpt lat="51.24789" lon="6.76226">
        <ele>80.136369</ele>
        <time>2023-04-30T12:31:03.168Z</time>
      </trkpt>
      <trkpt lat="51.24782" lon="6.76213">
        <ele>80.122924</ele>
        <time>2023-04-30T12:31:06.175Z</time>
      </trkpt>
      <trkpt lat="51.24773" lon="6.762">
        <ele>80.107416</ele>
        <time>2023-04-30T12:31:09.173Z</time>
      </trkpt>
      <trkpt lat="51.24764" lon="6.76185">
        <ele>80.090996</ele>
        <time>2023-04-30T12:31:12.172Z</time>
      </trkpt>
      <trkpt lat="51.24756" lon="6.76169">
        <ele>80.07453</ele>
        <time>2023-04-30T12:31:15.182Z</time>
      </trkpt>
      <trkpt lat="51.24749" lon="6.76156">
        <ele>80.06088</ele>
        <time>2023-04-30T12:31:18.172Z</time>
      </trkpt>
      <trkpt lat="51.24741" lon="6.76142">
        <ele>80.045741</ele>
        <time>2023-04-30T12:31:22.168Z</time>
      </trkpt>
      <trkpt lat="51.24734" lon="6.76132">
        <ele>80.004588</ele>
        <time>2023-04-30T12:31:25.188Z</time>
      </trkpt>
      <trkpt lat="51.24722" lon="6.76136">
        <ele>79.930489</ele>
        <time>2023-04-30T12:31:28.174Z</time>
      </trkpt>
      <trkpt lat="51.24711" lon="6.76148">
        <ele>79.851325</ele>
        <time>2023-04-30T12:31:31.178Z</time>
      </trkpt>
      <trkpt lat="51.24703" lon="6.76163">
        <ele>79.775184</ele>
        <time>2023-04-30T12:31:34.162Z</time>
      </trkpt>
      <trkpt lat="51.24694" lon="6.76179">
        <ele>79.695776</ele>
        <time>2023-04-30T12:31:37.191Z</time>
      </trkpt>
      <trkpt lat="51.24688" lon="6.76189">
        <ele>79.639875</ele>
        <time>2023-04-30T12:31:39.167Z</time>
      </trkpt>
      <trkpt lat="51.24678" lon="6.76203">
        <ele>79.558644</ele>
        <time>2023-04-30T12:31:42.151Z</time>
      </trkpt>
      <trkpt lat="51.24668" lon="6.76218">
        <ele>79.47814</ele>
        <time>2023-04-30T12:31:45.178Z</time>
      </trkpt>
      <trkpt lat="51.24659" lon="6.7623">
        <ele>79.406639</ele>
        <time>2023-04-30T12:31:48.179Z</time>
      </trkpt>
      <trkpt lat="51.24651" lon="6.76242">
        <ele>79.336648</ele>
        <time>2023-04-30T12:31:51.184Z</time>
      </trkpt>
      <trkpt lat="51.24641" lon="6.76256">
        <ele>79.25736</ele>
        <time>2023-04-30T12:31:54.161Z</time>
      </trkpt>
      <trkpt lat="51.24632" lon="6.7627">
        <ele>79.18124</ele>
        <time>2023-04-30T12:31:57.170Z</time>
      </trkpt>
      <trkpt lat="51.24623" lon="6.76284">
        <ele>79.101618</ele>
        <time>2023-04-30T12:32:00.155Z</time>
      </trkpt>
      <trkpt lat="51.24612" lon="6.76299">
        <ele>79.017457</ele>
        <time>2023-04-30T12:32:03.185Z</time>
      </trkpt>
      <trkpt lat="51.24606" lon="6.7631">
        <ele>78.960997</ele>
        <time>2023-04-30T12:32:05.176Z</time>
      </trkpt>
      <trkpt lat="51.246" lon="6.76321">
        <ele>78.936351</ele>
        <time>2023-04-30T12:32:07.174Z</time>
      </trkpt>
      <trkpt lat="51.24593" lon="6.76331">
        <ele>78.924208</ele>
        <time>2023-04-30T12:32:09.170Z</time>
      </trkpt>
      <trkpt lat="51.24586" lon="6.7634">
        <ele>78.912506</ele>
        <time>2023-04-30T12:32:11.173Z</time>
      </trkpt>
      <trkpt lat="51.24577" lon="6.76353">
        <ele>78.897212</ele>
        <time>2023-04-30T12:32:14.175Z</time>
      </trkpt>
      <trkpt lat="51.24568" lon="6.76364">
        <ele>78.883222</ele>
        <time>2023-04-30T12:32:17.173Z</time>
      </trkpt>
      <trkpt lat="51.24558" lon="6.76376">
        <ele>78.86693</ele>
        <time>2023-04-30T12:32:20.169Z</time>
      </trkpt>
      <trkpt lat="51.24549" lon="6.76389">
        <ele>78.851143</ele>
        <time>2023-04-30T12:32:23.171Z</time>
      </trkpt>
      <trkpt lat="51.24539" lon="6.76403">
        <ele>78.834347</ele>
        <time>2023-04-30T12:32:26.171Z</time>
      </trkpt>
      <trkpt lat="51.24528" lon="6.76416">
        <ele>78.817802</ele>
        <time>2023-04-30T12:32:29.212Z</time>
      </trkpt>
      <trkpt lat="51.24517" lon="6.76428">
        <ele>78.800723</ele>
        <time>2023-04-30T12:32:32.191Z</time>
      </trkpt>
      <trkpt lat="51.24508" lon="6.7644">
        <ele>78.784639</ele>
        <time>2023-04-30T12:32:35.202Z</time>
      </trkpt>
      <trkpt lat="51.24498" lon="6.76451">
        <ele>78.770334</ele>
        <time>2023-04-30T12:32:38.166Z</time>
      </trkpt>
      <trkpt lat="51.2449" lon="6.76461">
        <ele>78.756433</ele>
        <time>2023-04-30T12:32:41.159Z</time>
      </trkpt>
      <trkpt lat="51.2448" lon="6.76471">
        <ele>78.742451</ele>
        <time>2023-04-30T12:32:44.184Z</time>
      </trkpt>
      <trkpt lat="51.24471" lon="6.76482">
        <ele>78.727267</ele>
        <time>2023-04-30T12:32:47.154Z</time>
      </trkpt>
      <trkpt lat="51.24461" lon="6.76495">
        <ele>78.693129</ele>
        <time>2023-04-30T12:32:50.168Z</time>
      </trkpt>
      <trkpt lat="51.24451" lon="6.76507">
        <ele>78.610496</ele>
        <time>2023-04-30T12:32:53.164Z</time>
      </trkpt>
      <trkpt lat="51.2444" lon="6.7652">
        <ele>78.525603</ele>
        <time>2023-04-30T12:32:56.165Z</time>
      </trkpt>
      <trkpt lat="51.24433" lon="6.76529">
        <ele>78.467477</ele>
        <time>2023-04-30T12:32:58.164Z</time>
      </trkpt>
      <trkpt lat="51.24422" lon="6.76541">
        <ele>78.383813</ele>
        <time>2023-04-30T12:33:01.159Z</time>
      </trkpt>
      <trkpt lat="51.24411" lon="6.76554">
        <ele>78.298795</ele>
        <time>2023-04-30T12:33:04.177Z</time>
      </trkpt>
      <trkpt lat="51.24401" lon="6.76567">
        <ele>78.213415</ele>
        <time>2023-04-30T12:33:07.154Z</time>
      </trkpt>
      <trkpt lat="51.2439" lon="6.7658">
        <ele>78.12904</ele>
        <time>2023-04-30T12:33:10.165Z</time>
      </trkpt>
      <trkpt lat="51.2438" lon="6.76592">
        <ele>78.045752</ele>
        <time>2023-04-30T12:33:13.171Z</time>
      </trkpt>
      <trkpt lat="51.24369" lon="6.76602">
        <ele>77.964663</ele>
        <time>2023-04-30T12:33:16.156Z</time>
      </trkpt>
      <trkpt lat="51.24358" lon="6.76615">
        <ele>77.880681</ele>
        <time>2023-04-30T12:33:19.173Z</time>
      </trkpt>
      <trkpt lat="51.2435" lon="6.76622">
        <ele>77.822887</ele>
        <time>2023-04-30T12:33:21.171Z</time>
      </trkpt>
      <trkpt lat="51.24342" lon="6.7663">
        <ele>77.764544</ele>
        <time>2023-04-30T12:33:23.179Z</time>
      </trkpt>
      <trkpt lat="51.24334" lon="6.76637">
        <ele>77.70549</ele>
        <time>2023-04-30T12:33:25.174Z</time>
      </trkpt>
      <trkpt lat="51.24323" lon="6.76648">
        <ele>77.62269</ele>
        <time>2023-04-30T12:33:28.168Z</time>
      </trkpt>
      <trkpt lat="51.24315" lon="6.76655">
        <ele>77.571249</ele>
        <time>2023-04-30T12:33:30.159Z</time>
      </trkpt>
      <trkpt lat="51.24306" lon="6.76661">
        <ele>77.585523</ele>
        <time>2023-04-30T12:33:32.143Z</time>
      </trkpt>
      <trkpt lat="51.24298" lon="6.76668">
        <ele>77.599234</ele>
        <time>2023-04-30T12:33:34.167Z</time>
      </trkpt>
      <trkpt lat="51.24286" lon="6.76679">
        <ele>77.61951</ele>
        <time>2023-04-30T12:33:37.174Z</time>
      </trkpt>
      <trkpt lat="51.24278" lon="6.76685">
        <ele>77.633537</ele>
        <time>2023-04-30T12:33:39.149Z</time>
      </trkpt>
      <trkpt lat="51.24269" lon="6.76692">
        <ele>77.64782</ele>
        <time>2023-04-30T12:33:41.176Z</time>
      </trkpt>
      <trkpt lat="51.2426" lon="6.76699">
        <ele>77.662235</ele>
        <time>2023-04-30T12:33:43.177Z</time>
      </trkpt>
      <trkpt lat="51.24251" lon="6.76705">
        <ele>77.676703</ele>
        <time>2023-04-30T12:33:45.167Z</time>
      </trkpt>
      <trkpt lat="51.24243" lon="6.76712">
        <ele>77.69072</ele>
        <time>2023-04-30T12:33:47.162Z</time>
      </trkpt>
      <trkpt lat="51.24235" lon="6.7672">
        <ele>77.704231</ele>
        <time>2023-04-30T12:33:49.156Z</time>
      </trkpt>
      <trkpt lat="51.24227" lon="6.76726">
        <ele>77.717829</ele>
        <time>2023-04-30T12:33:51.169Z</time>
      </trkpt>
      <trkpt lat="51.24219" lon="6.76734">
        <ele>77.731724</ele>
        <time>2023-04-30T12:33:53.177Z</time>
      </trkpt>
      <trkpt lat="51.24211" lon="6.76741">
        <ele>77.745222</ele>
        <time>2023-04-30T12:33:55.174Z</time>
      </trkpt>
      <trkpt lat="51.24203" lon="6.76748">
        <ele>77.758804</ele>
        <time>2023-04-30T12:33:57.173Z</time>
      </trkpt>
      <trkpt lat="51.24195" lon="6.76754">
        <ele>77.772521</ele>
        <time>2023-04-30T12:33:59.171Z</time>
      </trkpt>
      <trkpt lat="51.24186" lon="6.76759">
        <ele>77.786579</ele>
        <time>2023-04-30T12:34:01.169Z</time>
      </trkpt>
      <trkpt lat="51.24177" lon="6.76765">
        <ele>77.80057</ele>
        <time>2023-04-30T12:34:03.183Z</time>
      </trkpt>
      <trkpt lat="51.24169" lon="6.76772">
        <ele>77.814422</ele>
        <time>2023-04-30T12:34:05.182Z</time>
      </trkpt>
      <trkpt lat="51.2416" lon="6.76779">
        <ele>77.828745</ele>
        <time>2023-04-30T12:34:07.175Z</time>
      </trkpt>
      <trkpt lat="51.24151" lon="6.76785">
        <ele>77.842249</ele>
        <time>2023-04-30T12:34:09.167Z</time>
      </trkpt>
      <trkpt lat="51.24143" lon="6.76793">
        <ele>77.854765</ele>
        <time>2023-04-30T12:34:11.186Z</time>
      </trkpt>
      <trkpt lat="51.24135" lon="6.768">
        <ele>77.866707</ele>
        <time>2023-04-30T12:34:13.156Z</time>
      </trkpt>
      <trkpt lat="51.24126" lon="6.76806">
        <ele>77.878691</ele>
        <time>2023-04-30T12:34:15.170Z</time>
      </trkpt>
      <trkpt lat="51.24118" lon="6.76814">
        <ele>77.89097</ele>
        <time>2023-04-30T12:34:17.189Z</time>
      </trkpt>
      <trkpt lat="51.24109" lon="6.7682">
        <ele>77.903287</ele>
        <time>2023-04-30T12:34:19.157Z</time>
      </trkpt>
      <trkpt lat="51.241" lon="6.76824">
        <ele>77.915054</ele>
        <time>2023-04-30T12:34:21.144Z</time>
      </trkpt>
      <trkpt lat="51.24091" lon="6.76828">
        <ele>77.927296</ele>
        <time>2023-04-30T12:34:23.187Z</time>
      </trkpt>
      <trkpt lat="51.24082" lon="6.76834">
        <ele>77.939252</ele>
        <time>2023-04-30T12:34:25.183Z</time>
      </trkpt>
      <trkpt lat="51.24073" lon="6.76839">
        <ele>77.951802</ele>
        <time>2023-04-30T12:34:27.146Z</time>
      </trkpt>
      <trkpt lat="51.24064" lon="6.76845">
        <ele>77.964091</ele>
        <time>2023-04-30T12:34:29.176Z</time>
      </trkpt>
      <trkpt lat="51.24056" lon="6.76851">
        <ele>77.976226</ele>
        <time>2023-04-30T12:34:31.171Z</time>
      </trkpt>
      <trkpt lat="51.24047" lon="6.76858">
        <ele>77.988326</ele>
        <time>2023-04-30T12:34:33.161Z</time>
      </trkpt>
      <trkpt lat="51.24036" lon="6.76869">
        <ele>78.005386</ele>
        <time>2023-04-30T12:34:36.158Z</time>
      </trkpt>
      <trkpt lat="51.24028" lon="6.76875">
        <ele>78.01729</ele>
        <time>2023-04-30T12:34:38.162Z</time>
      </trkpt>
      <trkpt lat="51.24016" lon="6.76879">
        <ele>78.032419</ele>
        <time>2023-04-30T12:34:41.162Z</time>
      </trkpt>
      <trkpt lat="51.24005" lon="6.76885">
        <ele>78.047709</ele>
        <time>2023-04-30T12:34:44.138Z</time>
      </trkpt>
      <trkpt lat="51.23994" lon="6.76891">
        <ele>78.062585</ele>
        <time>2023-04-30T12:34:47.174Z</time>
      </trkpt>
      <trkpt lat="51.23981" lon="6.76897">
        <ele>78.117474</ele>
        <time>2023-04-30T12:34:50.166Z</time>
      </trkpt>
      <trkpt lat="51.23973" lon="6.76902">
        <ele>78.167319</ele>
        <time>2023-04-30T12:34:52.164Z</time>
      </trkpt>
      <trkpt lat="51.2396" lon="6.7691">
        <ele>78.238357</ele>
        <time>2023-04-30T12:34:55.177Z</time>
      </trkpt>
      <trkpt lat="51.23948" lon="6.76918">
        <ele>78.311068</ele>
        <time>2023-04-30T12:34:58.157Z</time>
      </trkpt>
      <trkpt lat="51.23939" lon="6.76924">
        <ele>78.363251</ele>
        <time>2023-04-30T12:35:00.152Z</time>
      </trkpt>
      <trkpt lat="51.2393" lon="6.7693">
        <ele>78.415807</ele>
        <time>2023-04-30T12:35:02.165Z</time>
      </trkpt>
      <trkpt lat="51.23918" lon="6.76938">
        <ele>78.489487</ele>
        <time>2023-04-30T12:35:05.170Z</time>
      </trkpt>
      <trkpt lat="51.23909" lon="6.76942">
        <ele>78.539034</ele>
        <time>2023-04-30T12:35:07.190Z</time>
      </trkpt>
      <trkpt lat="51.239" lon="6.76948">
        <ele>78.591258</ele>
        <time>2023-04-30T12:35:09.171Z</time>
      </trkpt>
      <trkpt lat="51.23891" lon="6.76953">
        <ele>78.642034</ele>
        <time>2023-04-30T12:35:11.160Z</time>
      </trkpt>
      <trkpt lat="51.23882" lon="6.76957">
        <ele>78.693206</ele>
        <time>2023-04-30T12:35:13.158Z</time>
      </trkpt>
      <trkpt lat="51.23873" lon="6.76961">
        <ele>78.744078</ele>
        <time>2023-04-30T12:35:15.168Z</time>
      </trkpt>
      <trkpt lat="51.23864" lon="6.76966">
        <ele>78.793601</ele>
        <time>2023-04-30T12:35:17.175Z</time>
      </trkpt>
      <trkpt lat="51.23855" lon="6.7697">
        <ele>78.844473</ele>
        <time>2023-04-30T12:35:19.194Z</time>
      </trkpt>
      <trkpt lat="51.23846" lon="6.76974">
        <ele>78.89402</ele>
        <time>2023-04-30T12:35:21.166Z</time>
      </trkpt>
      <trkpt lat="51.23837" lon="6.76977">
        <ele>78.94448</ele>
        <time>2023-04-30T12:35:23.177Z</time>
      </trkpt>
      <trkpt lat="51.23829" lon="6.76981">
        <ele>78.992987</ele>
        <time>2023-04-30T12:35:25.175Z</time>
      </trkpt>
      <trkpt lat="51.23817" lon="6.76987">
        <ele>79.10525</ele>
        <time>2023-04-30T12:35:28.186Z</time>
      </trkpt>
      <trkpt lat="51.23806" lon="6.76989">
        <ele>79.294189</ele>
        <time>2023-04-30T12:35:32.160Z</time>
      </trkpt>
      <trkpt lat="51.23794" lon="6.76991">
        <ele>79.504338</ele>
        <time>2023-04-30T12:35:36.141Z</time>
      </trkpt>
      <trkpt lat="51.23785" lon="6.76996">
        <ele>79.682543</ele>
        <time>2023-04-30T12:35:39.173Z</time>
      </trkpt>
      <trkpt lat="51.23775" lon="6.77">
        <ele>79.863756</ele>
        <time>2023-04-30T12:35:42.172Z</time>
      </trkpt>
      <trkpt lat="51.23765" lon="6.77004">
        <ele>80.042977</ele>
        <time>2023-04-30T12:35:45.173Z</time>
      </trkpt>
      <trkpt lat="51.23756" lon="6.77008">
        <ele>80.215043</ele>
        <time>2023-04-30T12:35:48.168Z</time>
      </trkpt>
      <trkpt lat="51.23746" lon="6.77011">
        <ele>80.387804</ele>
        <time>2023-04-30T12:35:51.158Z</time>
      </trkpt>
      <trkpt lat="51.23736" lon="6.77014">
        <ele>80.567044</ele>
        <time>2023-04-30T12:35:54.167Z</time>
      </trkpt>
      <trkpt lat="51.23727" lon="6.77019">
        <ele>80.73609</ele>
        <time>2023-04-30T12:35:57.171Z</time>
      </trkpt>
      <trkpt lat="51.23716" lon="6.77024">
        <ele>80.943696</ele>
        <time>2023-04-30T12:36:01.179Z</time>
      </trkpt>
      <trkpt lat="51.23709" lon="6.77036">
        <ele>81.124714</ele>
        <time>2023-04-30T12:36:06.177Z</time>
      </trkpt>
      <trkpt lat="51.23705" lon="6.77052">
        <ele>81.324372</ele>
        <time>2023-04-30T12:36:12.155Z</time>
      </trkpt>
      <trkpt lat="51.23701" lon="6.77066">
        <ele>81.493905</ele>
        <time>2023-04-30T12:36:16.178Z</time>
      </trkpt>
      <trkpt lat="51.23696" lon="6.77083">
        <ele>81.689081</ele>
        <time>2023-04-30T12:36:20.172Z</time>
      </trkpt>
      <trkpt lat="51.23691" lon="6.77098">
        <ele>81.884783</ele>
        <time>2023-04-30T12:36:24.170Z</time>
      </trkpt>
      <trkpt lat="51.23685" lon="6.77115">
        <ele>82.102571</ele>
        <time>2023-04-30T12:36:28.177Z</time>
      </trkpt>
      <trkpt lat="51.23681" lon="6.77128">
        <ele>82.254389</ele>
        <time>2023-04-30T12:36:31.151Z</time>
      </trkpt>
      <trkpt lat="51.23676" lon="6.77141">
        <ele>82.351399</ele>
        <time>2023-04-30T12:36:35.175Z</time>
      </trkpt>
      <trkpt lat="51.23671" lon="6.77155">
        <ele>82.455603</ele>
        <time>2023-04-30T12:36:39.162Z</time>
      </trkpt>
      <trkpt lat="51.23663" lon="6.77164">
        <ele>82.56598</ele>
        <time>2023-04-30T12:36:44.160Z</time>
      </trkpt>
      <trkpt lat="51.23654" lon="6.77161">
        <ele>82.662537</ele>
        <time>2023-04-30T12:36:48.167Z</time>
      </trkpt>
      <trkpt lat="51.23642" lon="6.77157">
        <ele>82.788966</ele>
        <time>2023-04-30T12:36:52.162Z</time>
      </trkpt>
      <trkpt lat="51.23631" lon="6.77155">
        <ele>82.911642</ele>
        <time>2023-04-30T12:36:56.158Z</time>
      </trkpt>
      <trkpt lat="51.2362" lon="6.77149">
        <ele>83.032878</ele>
        <time>2023-04-30T12:37:00.153Z</time>
      </trkpt>
      <trkpt lat="51.23611" lon="6.77147">
        <ele>83.132061</ele>
        <time>2023-04-30T12:37:03.159Z</time>
      </trkpt>
      <trkpt lat="51.23601" lon="6.77147">
        <ele>83.233927</ele>
        <time>2023-04-30T12:37:06.158Z</time>
      </trkpt>
      <trkpt lat="51.2359" lon="6.77146">
        <ele>83.349775</ele>
        <time>2023-04-30T12:37:09.166Z</time>
      </trkpt>
      <trkpt lat="51.23579" lon="6.77146">
        <ele>83.470755</ele>
        <time>2023-04-30T12:37:12.170Z</time>
      </trkpt>
      <trkpt lat="51.23568" lon="6.77145">
        <ele>83.587746</ele>
        <time>2023-04-30T12:37:15.177Z</time>
      </trkpt>
      <trkpt lat="51.23556" lon="6.77145">
        <ele>83.711909</ele>
        <time>2023-04-30T12:37:18.167Z</time>
      </trkpt>
      <trkpt lat="51.23545" lon="6.77149">
        <ele>83.833921</ele>
        <time>2023-04-30T12:37:21.176Z</time>
      </trkpt>
      <trkpt lat="51.23533" lon="6.77149">
        <ele>83.963434</ele>
        <time>2023-04-30T12:37:24.153Z</time>
      </trkpt>
      <trkpt lat="51.2352" lon="6.7715">
        <ele>84.100372</ele>
        <time>2023-04-30T12:37:27.186Z</time>
      </trkpt>
      <trkpt lat="51.23508" lon="6.77152">
        <ele>84.115498</ele>
        <time>2023-04-30T12:37:30.170Z</time>
      </trkpt>
      <trkpt lat="51.23497" lon="6.77153">
        <ele>84.082612</ele>
        <time>2023-04-30T12:37:33.160Z</time>
      </trkpt>
      <trkpt lat="51.23485" lon="6.77155">
        <ele>84.044116</ele>
        <time>2023-04-30T12:37:36.156Z</time>
      </trkpt>
      <trkpt lat="51.23473" lon="6.77155">
        <ele>84.003969</ele>
        <time>2023-04-30T12:37:39.149Z</time>
      </trkpt>
      <trkpt lat="51.23461" lon="6.77154">
        <ele>83.967562</ele>
        <time>2023-04-30T12:37:42.158Z</time>
      </trkpt>
      <trkpt lat="51.2345" lon="6.77154">
        <ele>83.934045</ele>
        <time>2023-04-30T12:37:45.167Z</time>
      </trkpt>
      <trkpt lat="51.23441" lon="6.77154">
        <ele>83.905268</ele>
        <time>2023-04-30T12:37:48.176Z</time>
      </trkpt>
      <trkpt lat="51.23432" lon="6.77153">
        <ele>83.875143</ele>
        <time>2023-04-30T12:37:53.174Z</time>
      </trkpt>
      <trkpt lat="51.23421" lon="6.77154">
        <ele>83.840906</ele>
        <time>2023-04-30T12:37:58.167Z</time>
      </trkpt>
      <trkpt lat="51.23411" lon="6.77152">
        <ele>83.809156</ele>
        <time>2023-04-30T12:38:02.168Z</time>
      </trkpt>
      <trkpt lat="51.234" lon="6.77151">
        <ele>83.772738</ele>
        <time>2023-04-30T12:38:06.146Z</time>
      </trkpt>
      <trkpt lat="51.2339" lon="6.77153">
        <ele>83.741635</ele>
        <time>2023-04-30T12:38:09.187Z</time>
      </trkpt>
      <trkpt lat="51.23378" lon="6.77152">
        <ele>83.704325</ele>
        <time>2023-04-30T12:38:13.173Z</time>
      </trkpt>
      <trkpt lat="51.23367" lon="6.77152">
        <ele>83.67048</ele>
        <time>2023-04-30T12:38:16.165Z</time>
      </trkpt>
      <trkpt lat="51.23356" lon="6.77154">
        <ele>83.63546</ele>
        <time>2023-04-30T12:38:19.166Z</time>
      </trkpt>
      <trkpt lat="51.23345" lon="6.77152">
        <ele>83.600078</ele>
        <time>2023-04-30T12:38:22.161Z</time>
      </trkpt>
      <trkpt lat="51.23334" lon="6.77156">
        <ele>83.559235</ele>
        <time>2023-04-30T12:38:25.163Z</time>
      </trkpt>
      <trkpt lat="51.23322" lon="6.7716">
        <ele>83.496969</ele>
        <time>2023-04-30T12:38:28.160Z</time>
      </trkpt>
      <trkpt lat="51.23312" lon="6.77159">
        <ele>83.449936</ele>
        <time>2023-04-30T12:38:30.169Z</time>
      </trkpt>
      <trkpt lat="51.23302" lon="6.77158">
        <ele>83.402465</ele>
        <time>2023-04-30T12:38:32.154Z</time>
      </trkpt>
      <trkpt lat="51.23293" lon="6.77156">
        <ele>83.355578</ele>
        <time>2023-04-30T12:38:34.171Z</time>
      </trkpt>
      <trkpt lat="51.2328" lon="6.77156">
        <ele>83.292016</ele>
        <time>2023-04-30T12:38:37.187Z</time>
      </trkpt>
      <trkpt lat="51.23267" lon="6.77155">
        <ele>83.229363</ele>
        <time>2023-04-30T12:38:40.185Z</time>
      </trkpt>
      <trkpt lat="51.23254" lon="6.77155">
        <ele>83.1658</ele>
        <time>2023-04-30T12:38:43.157Z</time>
      </trkpt>
      <trkpt lat="51.23245" lon="6.77154">
        <ele>83.121075</ele>
        <time>2023-04-30T12:38:45.187Z</time>
      </trkpt>
      <trkpt lat="51.23232" lon="6.77154">
        <ele>83.056495</ele>
        <time>2023-04-30T12:38:48.168Z</time>
      </trkpt>
      <trkpt lat="51.23218" lon="6.77154">
        <ele>82.99045</ele>
        <time>2023-04-30T12:38:51.167Z</time>
      </trkpt>
      <trkpt lat="51.23209" lon="6.77151">
        <ele>82.944924</ele>
        <time>2023-04-30T12:38:53.165Z</time>
      </trkpt>
      <trkpt lat="51.23196" lon="6.77149">
        <ele>82.880494</ele>
        <time>2023-04-30T12:38:56.153Z</time>
      </trkpt>
      <trkpt lat="51.23183" lon="6.77144">
        <ele>82.815523</ele>
        <time>2023-04-30T12:38:59.167Z</time>
      </trkpt>
      <trkpt lat="51.2317" lon="6.77141">
        <ele>82.749115</ele>
        <time>2023-04-30T12:39:02.162Z</time>
      </trkpt>
      <trkpt lat="51.2316" lon="6.77141">
        <ele>82.700165</ele>
        <time>2023-04-30T12:39:04.160Z</time>
      </trkpt>
      <trkpt lat="51.2315" lon="6.77138">
        <ele>82.634705</ele>
        <time>2023-04-30T12:39:06.164Z</time>
      </trkpt>
      <trkpt lat="51.23137" lon="6.77135">
        <ele>82.548548</ele>
        <time>2023-04-30T12:39:09.179Z</time>
      </trkpt>
      <trkpt lat="51.23124" lon="6.77133">
        <ele>82.461671</ele>
        <time>2023-04-30T12:39:12.171Z</time>
      </trkpt>
      <trkpt lat="51.23113" lon="6.7713">
        <ele>82.384922</ele>
        <time>2023-04-30T12:39:15.184Z</time>
      </trkpt>
      <trkpt lat="51.23101" lon="6.77126">
        <ele>82.302076</ele>
        <time>2023-04-30T12:39:18.170Z</time>
      </trkpt>
      <trkpt lat="51.23089" lon="6.77123">
        <ele>82.219566</ele>
        <time>2023-04-30T12:39:21.175Z</time>
      </trkpt>
      <trkpt lat="51.23077" lon="6.7712">
        <ele>82.138081</ele>
        <time>2023-04-30T12:39:24.146Z</time>
      </trkpt>
      <trkpt lat="51.23066" lon="6.77119">
        <ele>82.064024</ele>
        <time>2023-04-30T12:39:27.169Z</time>
      </trkpt>
      <trkpt lat="51.23054" lon="6.77114">
        <ele>81.981752</ele>
        <time>2023-04-30T12:39:30.158Z</time>
      </trkpt>
      <trkpt lat="51.23043" lon="6.77111">
        <ele>81.907518</ele>
        <time>2023-04-30T12:39:33.173Z</time>
      </trkpt>
      <trkpt lat="51.23032" lon="6.7711">
        <ele>81.830381</ele>
        <time>2023-04-30T12:39:36.173Z</time>
      </trkpt>
      <trkpt lat="51.2302" lon="6.77108">
        <ele>81.749469</ele>
        <time>2023-04-30T12:39:39.198Z</time>
      </trkpt>
      <trkpt lat="51.23007" lon="6.77106">
        <ele>81.662991</ele>
        <time>2023-04-30T12:39:42.164Z</time>
      </trkpt>
      <trkpt lat="51.22995" lon="6.77104">
        <ele>81.576825</ele>
        <time>2023-04-30T12:39:45.186Z</time>
      </trkpt>
      <trkpt lat="51.22985" lon="6.77103">
        <ele>81.509871</ele>
        <time>2023-04-30T12:39:47.185Z</time>
      </trkpt>
      <trkpt lat="51.22975" lon="6.77102">
        <ele>81.496776</ele>
        <time>2023-04-30T12:39:49.172Z</time>
      </trkpt>
      <trkpt lat="51.22965" lon="6.77101">
        <ele>81.533325</ele>
        <time>2023-04-30T12:39:51.184Z</time>
      </trkpt>
      <trkpt lat="51.22956" lon="6.771">
        <ele>81.569471</ele>
        <time>2023-04-30T12:39:53.176Z</time>
      </trkpt>
      <trkpt lat="51.22946" lon="6.77099">
        <ele>81.60602</ele>
        <time>2023-04-30T12:39:55.164Z</time>
      </trkpt>
      <trkpt lat="51.22936" lon="6.77098">
        <ele>81.642872</ele>
        <time>2023-04-30T12:39:57.179Z</time>
      </trkpt>
      <trkpt lat="51.22926" lon="6.77097">
        <ele>81.678636</ele>
        <time>2023-04-30T12:39:59.175Z</time>
      </trkpt>
      <trkpt lat="51.22917" lon="6.77096">
        <ele>81.713259</ele>
        <time>2023-04-30T12:40:01.163Z</time>
      </trkpt>
      <trkpt lat="51.22907" lon="6.77096">
        <ele>81.748225</ele>
        <time>2023-04-30T12:40:03.165Z</time>
      </trkpt>
      <trkpt lat="51.22897" lon="6.77094">
        <ele>81.784637</ele>
        <time>2023-04-30T12:40:05.191Z</time>
      </trkpt>
      <trkpt lat="51.22888" lon="6.77093">
        <ele>81.8193</ele>
        <time>2023-04-30T12:40:07.171Z</time>
      </trkpt>
      <trkpt lat="51.22879" lon="6.77092">
        <ele>81.853556</ele>
        <time>2023-04-30T12:40:09.186Z</time>
      </trkpt>
      <trkpt lat="51.22869" lon="6.7709">
        <ele>81.888783</ele>
        <time>2023-04-30T12:40:11.168Z</time>
      </trkpt>
      <trkpt lat="51.2286" lon="6.77089">
        <ele>81.922786</ele>
        <time>2023-04-30T12:40:13.152Z</time>
      </trkpt>
      <trkpt lat="51.22851" lon="6.77089">
        <ele>81.956637</ele>
        <time>2023-04-30T12:40:15.168Z</time>
      </trkpt>
      <trkpt lat="51.22838" lon="6.77087">
        <ele>82.002837</ele>
        <time>2023-04-30T12:40:18.170Z</time>
      </trkpt>
      <trkpt lat="51.22826" lon="6.77086">
        <ele>82.045974</ele>
        <time>2023-04-30T12:40:21.163Z</time>
      </trkpt>
      <trkpt lat="51.22815" lon="6.77086">
        <ele>82.089025</ele>
        <time>2023-04-30T12:40:24.170Z</time>
      </trkpt>
      <trkpt lat="51.22804" lon="6.77084">
        <ele>82.128271</ele>
        <time>2023-04-30T12:40:27.158Z</time>
      </trkpt>
      <trkpt lat="51.22795" lon="6.77083">
        <ele>82.141926</ele>
        <time>2023-04-30T12:40:30.155Z</time>
      </trkpt>
      <trkpt lat="51.22784" lon="6.77086">
        <ele>82.144696</ele>
        <time>2023-04-30T12:40:34.161Z</time>
      </trkpt>
      <trkpt lat="51.22777" lon="6.77098">
        <ele>82.14729</ele>
        <time>2023-04-30T12:40:39.143Z</time>
      </trkpt>
      <trkpt lat="51.22781" lon="6.77108">
        <ele>82.14913</ele>
        <time>2023-04-30T12:40:52.371Z</time>
      </trkpt>
      <trkpt lat="51.22778" lon="6.77087">
        <ele>82.152674</ele>
        <time>2023-04-30T12:45:41.167Z</time>
      </trkpt>
      <trkpt lat="51.22769" lon="6.77081">
        <ele>82.155115</ele>
        <time>2023-04-30T12:45:46.154Z</time>
      </trkpt>
      <trkpt lat="51.22759" lon="6.77083">
        <ele>82.15783</ele>
        <time>2023-04-30T12:45:51.181Z</time>
      </trkpt>
      <trkpt lat="51.2275" lon="6.77083">
        <ele>82.160233</ele>
        <time>2023-04-30T12:45:59.158Z</time>
      </trkpt>
      <trkpt lat="51.2274" lon="6.77081">
        <ele>82.162842</ele>
        <time>2023-04-30T12:46:04.154Z</time>
      </trkpt>
      <trkpt lat="51.2273" lon="6.77082">
        <ele>82.165433</ele>
        <time>2023-04-30T12:46:10.148Z</time>
      </trkpt>
      <trkpt lat="51.22721" lon="6.77089">
        <ele>82.168142</ele>
        <time>2023-04-30T12:46:15.159Z</time>
      </trkpt>
      <trkpt lat="51.22712" lon="6.77085">
        <ele>82.17057</ele>
        <time>2023-04-30T12:46:19.143Z</time>
      </trkpt>
      <trkpt lat="51.22702" lon="6.77084">
        <ele>82.173116</ele>
        <time>2023-04-30T12:46:23.163Z</time>
      </trkpt>
      <trkpt lat="51.22692" lon="6.77081">
        <ele>82.175768</ele>
        <time>2023-04-30T12:46:27.172Z</time>
      </trkpt>
      <trkpt lat="51.22682" lon="6.77078">
        <ele>82.178378</ele>
        <time>2023-04-30T12:46:31.159Z</time>
      </trkpt>
      <trkpt lat="51.2267" lon="6.77077">
        <ele>82.181565</ele>
        <time>2023-04-30T12:46:35.168Z</time>
      </trkpt>
      <trkpt lat="51.2266" lon="6.77078">
        <ele>82.184099</ele>
        <time>2023-04-30T12:46:38.172Z</time>
      </trkpt>
      <trkpt lat="51.2265" lon="6.77074">
        <ele>82.186868</ele>
        <time>2023-04-30T12:46:41.170Z</time>
      </trkpt>
      <trkpt lat="51.2264" lon="6.7707">
        <ele>82.234758</ele>
        <time>2023-04-30T12:46:44.162Z</time>
      </trkpt>
      <trkpt lat="51.22629" lon="6.77067">
        <ele>82.295602</ele>
        <time>2023-04-30T12:46:47.161Z</time>
      </trkpt>
      <trkpt lat="51.22618" lon="6.77064">
        <ele>82.354469</ele>
        <time>2023-04-30T12:46:50.152Z</time>
      </trkpt>
      <trkpt lat="51.22606" lon="6.7706">
        <ele>82.420338</ele>
        <time>2023-04-30T12:46:53.174Z</time>
      </trkpt>
      <trkpt lat="51.22595" lon="6.77056">
        <ele>82.484578</ele>
        <time>2023-04-30T12:46:56.155Z</time>
      </trkpt>
      <trkpt lat="51.22583" lon="6.77051">
        <ele>82.549511</ele>
        <time>2023-04-30T12:46:59.180Z</time>
      </trkpt>
      <trkpt lat="51.22571" lon="6.77046">
        <ele>82.616544</ele>
        <time>2023-04-30T12:47:02.165Z</time>
      </trkpt>
      <trkpt lat="51.22559" lon="6.7704">
        <ele>82.684063</ele>
        <time>2023-04-30T12:47:05.169Z</time>
      </trkpt>
      <trkpt lat="51.22547" lon="6.77034">
        <ele>82.752922</ele>
        <time>2023-04-30T12:47:08.161Z</time>
      </trkpt>
      <trkpt lat="51.22535" lon="6.77029">
        <ele>82.821707</ele>
        <time>2023-04-30T12:47:11.166Z</time>
      </trkpt>
      <trkpt lat="51.22523" lon="6.77023">
        <ele>82.889226</ele>
        <time>2023-04-30T12:47:14.176Z</time>
      </trkpt>
      <trkpt lat="51.22511" lon="6.77017">
        <ele>82.95593</ele>
        <time>2023-04-30T12:47:17.171Z</time>
      </trkpt>
      <trkpt lat="51.22501" lon="6.7701">
        <ele>83.015232</ele>
        <time>2023-04-30T12:47:20.160Z</time>
      </trkpt>
      <trkpt lat="51.22492" lon="6.77004">
        <ele>83.069113</ele>
        <time>2023-04-30T12:47:23.163Z</time>
      </trkpt>
      <trkpt lat="51.22482" lon="6.76996">
        <ele>83.129904</ele>
        <time>2023-04-30T12:47:26.159Z</time>
      </trkpt>
      <trkpt lat="51.2247" lon="6.76989">
        <ele>83.125668</ele>
        <time>2023-04-30T12:47:29.167Z</time>
      </trkpt>
      <trkpt lat="51.22459" lon="6.76984">
        <ele>83.058795</ele>
        <time>2023-04-30T12:47:32.146Z</time>
      </trkpt>
      <trkpt lat="51.22449" lon="6.76977">
        <ele>82.993262</ele>
        <time>2023-04-30T12:47:35.167Z</time>
      </trkpt>
      <trkpt lat="51.22437" lon="6.76971">
        <ele>82.925935</ele>
        <time>2023-04-30T12:47:38.165Z</time>
      </trkpt>
      <trkpt lat="51.22427" lon="6.76964">
        <ele>82.858099</ele>
        <time>2023-04-30T12:47:41.162Z</time>
      </trkpt>
      <trkpt lat="51.22416" lon="6.76955">
        <ele>82.788047</ele>
        <time>2023-04-30T12:47:44.163Z</time>
      </trkpt>
      <trkpt lat="51.22407" lon="6.76949">
        <ele>82.735977</ele>
        <time>2023-04-30T12:47:46.156Z</time>
      </trkpt>
      <trkpt lat="51.22395" lon="6.76944">
        <ele>82.664172</ele>
        <time>2023-04-30T12:47:49.164Z</time>
      </trkpt>
      <trkpt lat="51.22383" lon="6.76937">
        <ele>82.5894</ele>
        <time>2023-04-30T12:47:52.142Z</time>
      </trkpt>
      <trkpt lat="51.22375" lon="6.76929">
        <ele>82.53705</ele>
        <time>2023-04-30T12:47:54.213Z</time>
      </trkpt>
      <trkpt lat="51.22362" lon="6.76921">
        <ele>82.458616</ele>
        <time>2023-04-30T12:47:57.193Z</time>
      </trkpt>
      <trkpt lat="51.22354" lon="6.76916">
        <ele>82.406014</ele>
        <time>2023-04-30T12:47:59.156Z</time>
      </trkpt>
      <trkpt lat="51.22342" lon="6.76908">
        <ele>82.330508</ele>
        <time>2023-04-30T12:48:02.170Z</time>
      </trkpt>
      <trkpt lat="51.22329" lon="6.769">
        <ele>82.253795</ele>
        <time>2023-04-30T12:48:05.165Z</time>
      </trkpt>
      <trkpt lat="51.2232" lon="6.76894">
        <ele>82.196266</ele>
        <time>2023-04-30T12:48:07.172Z</time>
      </trkpt>
      <trkpt lat="51.22311" lon="6.76889">
        <ele>82.141532</ele>
        <time>2023-04-30T12:48:09.158Z</time>
      </trkpt>
      <trkpt lat="51.22302" lon="6.76883">
        <ele>82.105509</ele>
        <time>2023-04-30T12:48:11.159Z</time>
      </trkpt>
      <trkpt lat="51.22293" lon="6.76878">
        <ele>82.074215</ele>
        <time>2023-04-30T12:48:13.171Z</time>
      </trkpt>
      <trkpt lat="51.22284" lon="6.76872">
        <ele>82.043314</ele>
        <time>2023-04-30T12:48:15.181Z</time>
      </trkpt>
      <trkpt lat="51.22275" lon="6.76865">
        <ele>82.01166</ele>
        <time>2023-04-30T12:48:17.184Z</time>
      </trkpt>
      <trkpt lat="51.22266" lon="6.7686">
        <ele>81.980312</ele>
        <time>2023-04-30T12:48:19.148Z</time>
      </trkpt>
      <trkpt lat="51.22257" lon="6.76854">
        <ele>81.948132</ele>
        <time>2023-04-30T12:48:21.153Z</time>
      </trkpt>
      <trkpt lat="51.22248" lon="6.76847">
        <ele>81.917149</ele>
        <time>2023-04-30T12:48:23.145Z</time>
      </trkpt>
      <trkpt lat="51.2224" lon="6.76842">
        <ele>81.886698</ele>
        <time>2023-04-30T12:48:25.164Z</time>
      </trkpt>
      <trkpt lat="51.22231" lon="6.76837">
        <ele>81.855845</ele>
        <time>2023-04-30T12:48:27.141Z</time>
      </trkpt>
      <trkpt lat="51.22221" lon="6.76831">
        <ele>81.823272</ele>
        <time>2023-04-30T12:48:29.167Z</time>
      </trkpt>
      <trkpt lat="51.22212" lon="6.76825">
        <ele>81.791321</ele>
        <time>2023-04-30T12:48:31.175Z</time>
      </trkpt>
      <trkpt lat="51.22203" lon="6.76819">
        <ele>81.758837</ele>
        <time>2023-04-30T12:48:33.169Z</time>
      </trkpt>
      <trkpt lat="51.22194" lon="6.76814">
        <ele>81.727306</ele>
        <time>2023-04-30T12:48:35.187Z</time>
      </trkpt>
      <trkpt lat="51.22184" lon="6.76809">
        <ele>81.693061</ele>
        <time>2023-04-30T12:48:37.149Z</time>
      </trkpt>
      <trkpt lat="51.22174" lon="6.76802">
        <ele>81.659379</ele>
        <time>2023-04-30T12:48:39.155Z</time>
      </trkpt>
      <trkpt lat="51.22165" lon="6.76795">
        <ele>81.625882</ele>
        <time>2023-04-30T12:48:41.163Z</time>
      </trkpt>
      <trkpt lat="51.22155" lon="6.7679">
        <ele>81.593468</ele>
        <time>2023-04-30T12:48:43.164Z</time>
      </trkpt>
      <trkpt lat="51.22146" lon="6.76784">
        <ele>81.560766</ele>
        <time>2023-04-30T12:48:45.166Z</time>
      </trkpt>
      <trkpt lat="51.22137" lon="6.76778">
        <ele>81.638538</ele>
        <time>2023-04-30T12:48:47.168Z</time>
      </trkpt>
      <trkpt lat="51.22129" lon="6.76772">
        <ele>81.781303</ele>
        <time>2023-04-30T12:48:49.173Z</time>
      </trkpt>
      <trkpt lat="51.2212" lon="6.76767">
        <ele>81.926208</ele>
        <time>2023-04-30T12:48:51.183Z</time>
      </trkpt>
      <trkpt lat="51.22111" lon="6.76762">
        <ele>82.073615</ele>
        <time>2023-04-30T12:48:53.169Z</time>
      </trkpt>
      <trkpt lat="51.22103" lon="6.76756">
        <ele>82.220275</ele>
        <time>2023-04-30T12:48:55.163Z</time>
      </trkpt>
      <trkpt lat="51.22094" lon="6.76751">
        <ele>82.367005</ele>
        <time>2023-04-30T12:48:57.196Z</time>
      </trkpt>
      <trkpt lat="51.22085" lon="6.76744">
        <ele>82.515692</ele>
        <time>2023-04-30T12:48:59.172Z</time>
      </trkpt>
      <trkpt lat="51.22077" lon="6.76737">
        <ele>82.661379</ele>
        <time>2023-04-30T12:49:01.159Z</time>
      </trkpt>
      <trkpt lat="51.22064" lon="6.76734">
        <ele>82.868956</ele>
        <time>2023-04-30T12:49:04.166Z</time>
      </trkpt>
      <trkpt lat="51.22054" lon="6.76726">
        <ele>83.05521</ele>
        <time>2023-04-30T12:49:07.160Z</time>
      </trkpt>
      <trkpt lat="51.22042" lon="6.7672">
        <ele>83.247349</ele>
        <time>2023-04-30T12:49:10.177Z</time>
      </trkpt>
      <trkpt lat="51.22033" lon="6.76716">
        <ele>83.391453</ele>
        <time>2023-04-30T12:49:12.170Z</time>
      </trkpt>
      <trkpt lat="51.22024" lon="6.76711">
        <ele>83.537987</ele>
        <time>2023-04-30T12:49:14.194Z</time>
      </trkpt>
      <trkpt lat="51.22013" lon="6.76702">
        <ele>83.743628</ele>
        <time>2023-04-30T12:49:17.166Z</time>
      </trkpt>
      <trkpt lat="51.22001" lon="6.76694">
        <ele>83.948922</ele>
        <time>2023-04-30T12:49:20.170Z</time>
      </trkpt>
      <trkpt lat="51.21987" lon="6.7669">
        <ele>84.16101</ele>
        <time>2023-04-30T12:49:23.163Z</time>
      </trkpt>
      <trkpt lat="51.21976" lon="6.76682">
        <ele>84.356445</ele>
        <time>2023-04-30T12:49:26.162Z</time>
      </trkpt>
      <trkpt lat="51.21965" lon="6.76671">
        <ele>84.245342</ele>
        <time>2023-04-30T12:49:29.182Z</time>
      </trkpt>
      <trkpt lat="51.21955" lon="6.7666">
        <ele>84.094965</ele>
        <time>2023-04-30T12:49:32.166Z</time>
      </trkpt>
      <trkpt lat="51.21947" lon="6.76649">
        <ele>83.962897</ele>
        <time>2023-04-30T12:49:35.172Z</time>
      </trkpt>
      <trkpt lat="51.21939" lon="6.7664">
        <ele>83.84027</ele>
        <time>2023-04-30T12:49:38.174Z</time>
      </trkpt>
      <trkpt lat="51.21929" lon="6.76632">
        <ele>83.70719</ele>
        <time>2023-04-30T12:49:42.176Z</time>
      </trkpt>
      <trkpt lat="51.21921" lon="6.76624">
        <ele>83.591438</ele>
        <time>2023-04-30T12:49:46.179Z</time>
      </trkpt>
      <trkpt lat="51.21914" lon="6.76612">
        <ele>83.46268</ele>
        <time>2023-04-30T12:49:51.167Z</time>
      </trkpt>
      <trkpt lat="51.21909" lon="6.76597">
        <ele>83.327872</ele>
        <time>2023-04-30T12:49:56.154Z</time>
      </trkpt>
      <trkpt lat="51.21907" lon="6.7658">
        <ele>83.198026</ele>
        <time>2023-04-30T12:50:01.172Z</time>
      </trkpt>
      <trkpt lat="51.219" lon="6.7657">
        <ele>83.080887</ele>
        <time>2023-04-30T12:50:05.173Z</time>
      </trkpt>
      <trkpt lat="51.21899" lon="6.76552">
        <ele>82.943433</ele>
        <time>2023-04-30T12:50:09.162Z</time>
      </trkpt>
      <trkpt lat="51.21904" lon="6.76538">
        <ele>82.826492</ele>
        <time>2023-04-30T12:50:12.175Z</time>
      </trkpt>
      <trkpt lat="51.21909" lon="6.76526">
        <ele>82.711507</ele>
        <time>2023-04-30T12:50:15.165Z</time>
      </trkpt>
      <trkpt lat="51.21918" lon="6.76517">
        <ele>82.583081</ele>
        <time>2023-04-30T12:50:18.167Z</time>
      </trkpt>
      <trkpt lat="51.21927" lon="6.76511">
        <ele>82.455763</ele>
        <time>2023-04-30T12:50:21.178Z</time>
      </trkpt>
      <trkpt lat="51.21935" lon="6.76503">
        <ele>82.3437</ele>
        <time>2023-04-30T12:50:24.151Z</time>
      </trkpt>
      <trkpt lat="51.21943" lon="6.7649">
        <ele>82.208754</ele>
        <time>2023-04-30T12:50:28.164Z</time>
      </trkpt>
      <trkpt lat="51.21949" lon="6.76474">
        <ele>82.015544</ele>
        <time>2023-04-30T12:50:32.162Z</time>
      </trkpt>
      <trkpt lat="51.21951" lon="6.76458">
        <ele>81.845477</ele>
        <time>2023-04-30T12:50:35.183Z</time>
      </trkpt>
      <trkpt lat="51.21952" lon="6.76444">
        <ele>81.69209</ele>
        <time>2023-04-30T12:50:38.186Z</time>
      </trkpt>
      <trkpt lat="51.21947" lon="6.76427">
        <ele>81.495228</ele>
        <time>2023-04-30T12:50:41.188Z</time>
      </trkpt>
      <trkpt lat="51.21941" lon="6.7641">
        <ele>81.281295</ele>
        <time>2023-04-30T12:50:44.180Z</time>
      </trkpt>
      <trkpt lat="51.21937" lon="6.76396">
        <ele>81.123421</ele>
        <time>2023-04-30T12:50:46.186Z</time>
      </trkpt>
      <trkpt lat="51.21931" lon="6.7638">
        <ele>80.925886</ele>
        <time>2023-04-30T12:50:49.180Z</time>
      </trkpt>
      <trkpt lat="51.21927" lon="6.76364">
        <ele>80.741983</ele>
        <time>2023-04-30T12:50:53.183Z</time>
      </trkpt>
      <trkpt lat="51.21922" lon="6.76351">
        <ele>80.580615</ele>
        <time>2023-04-30T12:50:58.192Z</time>
      </trkpt>
      <trkpt lat="51.21918" lon="6.76335">
        <ele>80.389218</ele>
        <time>2023-04-30T12:51:03.172Z</time>
      </trkpt>
      <trkpt lat="51.21913" lon="6.76318">
        <ele>80.201419</ele>
        <time>2023-04-30T12:51:07.156Z</time>
      </trkpt>
      <trkpt lat="51.21909" lon="6.76305">
        <ele>80.044006</ele>
        <time>2023-04-30T12:51:10.630Z</time>
      </trkpt>
      <trkpt lat="51.21903" lon="6.76291">
        <ele>79.866099</ele>
        <time>2023-04-30T12:51:14.127Z</time>
      </trkpt>
      <trkpt lat="51.21899" lon="6.76277">
        <ele>79.69856</ele>
        <time>2023-04-30T12:51:18.163Z</time>
      </trkpt>
      <trkpt lat="51.21896" lon="6.76262">
        <ele>79.531476</ele>
        <time>2023-04-30T12:51:22.216Z</time>
      </trkpt>
      <trkpt lat="51.21891" lon="6.76248">
        <ele>79.358365</ele>
        <time>2023-04-30T12:51:27.162Z</time>
      </trkpt>
      <trkpt lat="51.21887" lon="6.76234">
        <ele>79.189853</ele>
        <time>2023-04-30T12:51:33.158Z</time>
      </trkpt>
      <trkpt lat="51.21885" lon="6.76222">
        <ele>79.107523</ele>
        <time>2023-04-30T12:52:51.107Z</time>
      </trkpt>
      <trkpt lat="51.2188" lon="6.76207">
        <ele>79.077618</ele>
        <time>2023-04-30T12:53:30.149Z</time>
      </trkpt>
      <trkpt lat="51.21877" lon="6.76191">
        <ele>79.048775</ele>
        <time>2023-04-30T12:53:34.150Z</time>
      </trkpt>
      <trkpt lat="51.21875" lon="6.76174">
        <ele>79.017672</ele>
        <time>2023-04-30T12:53:39.173Z</time>
      </trkpt>
      <trkpt lat="51.21872" lon="6.7616">
        <ele>78.991689</ele>
        <time>2023-04-30T12:53:43.161Z</time>
      </trkpt>
      <trkpt lat="51.2187" lon="6.76144">
        <ele>78.961972</ele>
        <time>2023-04-30T12:53:48.156Z</time>
      </trkpt>
      <trkpt lat="51.2187" lon="6.76127">
        <ele>78.931629</ele>
        <time>2023-04-30T12:53:52.164Z</time>
      </trkpt>
      <trkpt lat="51.21868" lon="6.76112">
        <ele>78.90358</ele>
        <time>2023-04-30T12:53:55.161Z</time>
      </trkpt>
      <trkpt lat="51.21866" lon="6.76096">
        <ele>78.875916</ele>
        <time>2023-04-30T12:53:58.180Z</time>
      </trkpt>
      <trkpt lat="51.21862" lon="6.7608">
        <ele>78.844036</ele>
        <time>2023-04-30T12:54:01.165Z</time>
      </trkpt>
      <trkpt lat="51.21859" lon="6.76064">
        <ele>78.815246</ele>
        <time>2023-04-30T12:54:04.170Z</time>
      </trkpt>
      <trkpt lat="51.21855" lon="6.76049">
        <ele>78.786576</ele>
        <time>2023-04-30T12:54:07.164Z</time>
      </trkpt>
      <trkpt lat="51.2185" lon="6.76037">
        <ele>78.760401</ele>
        <time>2023-04-30T12:54:10.173Z</time>
      </trkpt>
      <trkpt lat="51.21848" lon="6.7602">
        <ele>78.730579</ele>
        <time>2023-04-30T12:54:13.220Z</time>
      </trkpt>
      <trkpt lat="51.21846" lon="6.76004">
        <ele>78.700645</ele>
        <time>2023-04-30T12:54:16.168Z</time>
      </trkpt>
      <trkpt lat="51.21843" lon="6.75988">
        <ele>78.670478</ele>
        <time>2023-04-30T12:54:19.179Z</time>
      </trkpt>
      <trkpt lat="51.2184" lon="6.75972">
        <ele>78.640972</ele>
        <time>2023-04-30T12:54:22.164Z</time>
      </trkpt>
      <trkpt lat="51.21837" lon="6.75956">
        <ele>78.611757</ele>
        <time>2023-04-30T12:54:25.161Z</time>
      </trkpt>
      <trkpt lat="51.21833" lon="6.75939">
        <ele>78.958755</ele>
        <time>2023-04-30T12:54:28.166Z</time>
      </trkpt>
      <trkpt lat="51.21829" lon="6.75922">
        <ele>79.398997</ele>
        <time>2023-04-30T12:54:31.163Z</time>
      </trkpt>
      <trkpt lat="51.21826" lon="6.75905">
        <ele>79.832314</ele>
        <time>2023-04-30T12:54:34.144Z</time>
      </trkpt>
      <trkpt lat="51.21822" lon="6.75892">
        <ele>80.208151</ele>
        <time>2023-04-30T12:54:37.168Z</time>
      </trkpt>
      <trkpt lat="51.21818" lon="6.75878">
        <ele>80.571262</ele>
        <time>2023-04-30T12:54:40.157Z</time>
      </trkpt>
      <trkpt lat="51.21812" lon="6.75862">
        <ele>81.017479</ele>
        <time>2023-04-30T12:54:44.173Z</time>
      </trkpt>
      <trkpt lat="51.21807" lon="6.75845">
        <ele>81.469177</ele>
        <time>2023-04-30T12:54:48.177Z</time>
      </trkpt>
      <trkpt lat="51.21803" lon="6.75831">
        <ele>81.8489</ele>
        <time>2023-04-30T12:54:52.183Z</time>
      </trkpt>
      <trkpt lat="51.21799" lon="6.75818">
        <ele>82.21035</ele>
        <time>2023-04-30T12:54:56.153Z</time>
      </trkpt>
      <trkpt lat="51.21795" lon="6.75803">
        <ele>82.626634</ele>
        <time>2023-04-30T12:55:01.183Z</time>
      </trkpt>
      <trkpt lat="51.21791" lon="6.75788">
        <ele>83.002121</ele>
        <time>2023-04-30T12:55:07.159Z</time>
      </trkpt>
      <trkpt lat="51.21787" lon="6.75774">
        <ele>83.392358</ele>
        <time>2023-04-30T12:55:12.152Z</time>
      </trkpt>
      <trkpt lat="51.21782" lon="6.7576">
        <ele>83.784292</ele>
        <time>2023-04-30T12:55:16.257Z</time>
      </trkpt>
      <trkpt lat="51.21778" lon="6.75743">
        <ele>84.207455</ele>
        <time>2023-04-30T12:55:20.156Z</time>
      </trkpt>
      <trkpt lat="51.21773" lon="6.75728">
        <ele>84.633586</ele>
        <time>2023-04-30T12:55:25.162Z</time>
      </trkpt>
      <trkpt lat="51.21775" lon="6.75712">
        <ele>85.018063</ele>
        <time>2023-04-30T12:55:32.153Z</time>
      </trkpt>
      <trkpt lat="51.21781" lon="6.75703">
        <ele>85.37257</ele>
        <time>2023-04-30T12:55:39.157Z</time>
      </trkpt>
      <trkpt lat="51.2179" lon="6.75691">
        <ele>85.503881</ele>
        <time>2023-04-30T12:55:44.178Z</time>
      </trkpt>
      <trkpt lat="51.21798" lon="6.75681">
        <ele>85.239963</ele>
        <time>2023-04-30T12:55:48.158Z</time>
      </trkpt>
      <trkpt lat="51.21806" lon="6.75669">
        <ele>84.958758</ele>
        <time>2023-04-30T12:55:52.167Z</time>
      </trkpt>
      <trkpt lat="51.21813" lon="6.75657">
        <ele>84.680508</ele>
        <time>2023-04-30T12:55:56.178Z</time>
      </trkpt>
      <trkpt lat="51.2182" lon="6.75645">
        <ele>84.398118</ele>
        <time>2023-04-30T12:56:00.164Z</time>
      </trkpt>
      <trkpt lat="51.21828" lon="6.75636">
        <ele>84.144615</ele>
        <time>2023-04-30T12:56:04.161Z</time>
      </trkpt>
      <trkpt lat="51.21837" lon="6.75629">
        <ele>83.884506</ele>
        <time>2023-04-30T12:56:08.153Z</time>
      </trkpt>
      <trkpt lat="51.2184" lon="6.75615">
        <ele>83.640859</ele>
        <time>2023-04-30T12:56:16.148Z</time>
      </trkpt>
      <trkpt lat="51.21838" lon="6.75599">
        <ele>83.380852</ele>
        <time>2023-04-30T12:56:22.151Z</time>
      </trkpt>
      <trkpt lat="51.21838" lon="6.75583">
        <ele>83.116362</ele>
        <time>2023-04-30T12:56:26.164Z</time>
      </trkpt>
      <trkpt lat="51.21837" lon="6.75569">
        <ele>82.871416</ele>
        <time>2023-04-30T12:56:37.167Z</time>
      </trkpt>
      <trkpt lat="51.21836" lon="6.75553">
        <ele>82.607031</ele>
        <time>2023-04-30T12:56:42.149Z</time>
      </trkpt>
      <trkpt lat="51.21836" lon="6.75536">
        <ele>82.329428</ele>
        <time>2023-04-30T12:56:57.149Z</time>
      </trkpt>
      <trkpt lat="51.21836" lon="6.75521">
        <ele>82.086536</ele>
        <time>2023-04-30T12:57:02.181Z</time>
      </trkpt>
      <trkpt lat="51.21837" lon="6.75505">
        <ele>81.826907</ele>
        <time>2023-04-30T12:57:12.152Z</time>
      </trkpt>
      <trkpt lat="51.21836" lon="6.75485">
        <ele>81.496179</ele>
        <time>2023-04-30T12:57:16.186Z</time>
      </trkpt>
      <trkpt lat="51.21837" lon="6.75464">
        <ele>81.135625</ele>
        <time>2023-04-30T12:57:19.173Z</time>
      </trkpt>
      <trkpt lat="51.2184" lon="6.75445">
        <ele>80.869395</ele>
        <time>2023-04-30T12:57:21.157Z</time>
      </trkpt>
      <trkpt lat="51.21843" lon="6.75427">
        <ele>80.782212</ele>
        <time>2023-04-30T12:57:23.165Z</time>
      </trkpt>
      <trkpt lat="51.21845" lon="6.7541">
        <ele>80.702968</ele>
        <time>2023-04-30T12:57:25.178Z</time>
      </trkpt>
      <trkpt lat="51.21848" lon="6.75394">
        <ele>80.631462</ele>
        <time>2023-04-30T12:57:28.152Z</time>
      </trkpt>
      <trkpt lat="51.2185" lon="6.7538">
        <ele>80.564925</ele>
        <time>2023-04-30T12:57:34.147Z</time>
      </trkpt>
      <trkpt lat="51.21852" lon="6.75366">
        <ele>80.500027</ele>
        <time>2023-04-30T12:57:41.154Z</time>
      </trkpt>
      <trkpt lat="51.21854" lon="6.75348">
        <ele>80.419557</ele>
        <time>2023-04-30T12:57:46.146Z</time>
      </trkpt>
      <trkpt lat="51.21857" lon="6.75334">
        <ele>80.352285</ele>
        <time>2023-04-30T12:57:49.159Z</time>
      </trkpt>
      <trkpt lat="51.21863" lon="6.7532">
        <ele>80.276943</ele>
        <time>2023-04-30T12:57:53.165Z</time>
      </trkpt>
      <trkpt lat="51.21868" lon="6.75304">
        <ele>80.200128</ele>
        <time>2023-04-30T12:57:58.178Z</time>
      </trkpt>
      <trkpt lat="51.21872" lon="6.7529">
        <ele>80.125711</ele>
        <time>2023-04-30T12:58:03.149Z</time>
      </trkpt>
      <trkpt lat="51.21878" lon="6.75274">
        <ele>80.045438</ele>
        <time>2023-04-30T12:58:07.157Z</time>
      </trkpt>
      <trkpt lat="51.21884" lon="6.75262">
        <ele>79.975758</ele>
        <time>2023-04-30T12:58:14.150Z</time>
      </trkpt>
      <trkpt lat="51.2189" lon="6.7525">
        <ele>79.908777</ele>
        <time>2023-04-30T12:58:18.152Z</time>
      </trkpt>
      <trkpt lat="51.21895" lon="6.75236">
        <ele>79.833831</ele>
        <time>2023-04-30T12:58:22.147Z</time>
      </trkpt>
      <trkpt lat="51.219" lon="6.75223">
        <ele>79.768384</ele>
        <time>2023-04-30T12:58:28.153Z</time>
      </trkpt>
      <trkpt lat="51.21904" lon="6.7521">
        <ele>79.703183</ele>
        <time>2023-04-30T12:58:34.144Z</time>
      </trkpt>
      <trkpt lat="51.21909" lon="6.75197">
        <ele>79.631657</ele>
        <time>2023-04-30T12:58:38.163Z</time>
      </trkpt>
      <trkpt lat="51.21915" lon="6.75185">
        <ele>79.595213</ele>
        <time>2023-04-30T12:58:41.168Z</time>
      </trkpt>
      <trkpt lat="51.21922" lon="6.75172">
        <ele>79.594058</ele>
        <time>2023-04-30T12:58:44.170Z</time>
      </trkpt>
      <trkpt lat="51.21928" lon="6.75156">
        <ele>79.592805</ele>
        <time>2023-04-30T12:58:47.139Z</time>
      </trkpt>
      <trkpt lat="51.21935" lon="6.75142">
        <ele>79.591654</ele>
        <time>2023-04-30T12:58:50.182Z</time>
      </trkpt>
      <trkpt lat="51.21942" lon="6.75128">
        <ele>79.590441</ele>
        <time>2023-04-30T12:58:53.176Z</time>
      </trkpt>
      <trkpt lat="51.21948" lon="6.75112">
        <ele>79.589226</ele>
        <time>2023-04-30T12:58:56.159Z</time>
      </trkpt>
      <trkpt lat="51.21956" lon="6.75097">
        <ele>79.587947</ele>
        <time>2023-04-30T12:58:59.165Z</time>
      </trkpt>
      <trkpt lat="51.2196" lon="6.75085">
        <ele>79.586982</ele>
        <time>2023-04-30T12:59:01.150Z</time>
      </trkpt>
      <trkpt lat="51.21968" lon="6.75067">
        <ele>79.585552</ele>
        <time>2023-04-30T12:59:04.149Z</time>
      </trkpt>
      <trkpt lat="51.21975" lon="6.75051">
        <ele>79.5842</ele>
        <time>2023-04-30T12:59:07.162Z</time>
      </trkpt>
      <trkpt lat="51.21982" lon="6.75033">
        <ele>79.58284</ele>
        <time>2023-04-30T12:59:10.194Z</time>
      </trkpt>
      <trkpt lat="51.21989" lon="6.75018">
        <ele>79.581592</ele>
        <time>2023-04-30T12:59:13.163Z</time>
      </trkpt>
      <trkpt lat="51.21996" lon="6.75001">
        <ele>79.580209</ele>
        <time>2023-04-30T12:59:16.169Z</time>
      </trkpt>
      <trkpt lat="51.22003" lon="6.74983">
        <ele>79.578791</ele>
        <time>2023-04-30T12:59:19.165Z</time>
      </trkpt>
      <trkpt lat="51.2201" lon="6.74966">
        <ele>79.57747</ele>
        <time>2023-04-30T12:59:22.186Z</time>
      </trkpt>
      <trkpt lat="51.22017" lon="6.74949">
        <ele>79.520049</ele>
        <time>2023-04-30T12:59:25.162Z</time>
      </trkpt>
      <trkpt lat="51.22023" lon="6.74931">
        <ele>79.336246</ele>
        <time>2023-04-30T12:59:28.139Z</time>
      </trkpt>
      <trkpt lat="51.22031" lon="6.74914">
        <ele>79.152341</ele>
        <time>2023-04-30T12:59:31.163Z</time>
      </trkpt>
      <trkpt lat="51.22037" lon="6.74898">
        <ele>78.982863</ele>
        <time>2023-04-30T12:59:34.167Z</time>
      </trkpt>
      <trkpt lat="51.22043" lon="6.74885">
        <ele>78.846117</ele>
        <time>2023-04-30T12:59:37.157Z</time>
      </trkpt>
      <trkpt lat="51.22048" lon="6.74869">
        <ele>78.688222</ele>
        <time>2023-04-30T12:59:40.170Z</time>
      </trkpt>
      <trkpt lat="51.22054" lon="6.74851">
        <ele>78.507687</ele>
        <time>2023-04-30T12:59:43.163Z</time>
      </trkpt>
      <trkpt lat="51.22059" lon="6.74838">
        <ele>78.373916</ele>
        <time>2023-04-30T12:59:45.163Z</time>
      </trkpt>
      <trkpt lat="51.22064" lon="6.74825">
        <ele>78.232794</ele>
        <time>2023-04-30T12:59:47.166Z</time>
      </trkpt>
      <trkpt lat="51.22071" lon="6.74812">
        <ele>78.089197</ele>
        <time>2023-04-30T12:59:49.172Z</time>
      </trkpt>
      <trkpt lat="51.22076" lon="6.74799">
        <ele>77.949476</ele>
        <time>2023-04-30T12:59:51.158Z</time>
      </trkpt>
      <trkpt lat="51.22082" lon="6.74785">
        <ele>77.806049</ele>
        <time>2023-04-30T12:59:53.156Z</time>
      </trkpt>
      <trkpt lat="51.22087" lon="6.7477">
        <ele>77.655098</ele>
        <time>2023-04-30T12:59:55.178Z</time>
      </trkpt>
      <trkpt lat="51.22092" lon="6.74756">
        <ele>77.511961</ele>
        <time>2023-04-30T12:59:57.166Z</time>
      </trkpt>
      <trkpt lat="51.22096" lon="6.74742">
        <ele>77.374901</ele>
        <time>2023-04-30T12:59:59.163Z</time>
      </trkpt>
      <trkpt lat="51.22101" lon="6.74728">
        <ele>77.235978</ele>
        <time>2023-04-30T13:00:01.164Z</time>
      </trkpt>
      <trkpt lat="51.22106" lon="6.74715">
        <ele>77.099143</ele>
        <time>2023-04-30T13:00:03.163Z</time>
      </trkpt>
      <trkpt lat="51.22111" lon="6.747">
        <ele>77.067741</ele>
        <time>2023-04-30T13:00:05.173Z</time>
      </trkpt>
      <trkpt lat="51.22116" lon="6.74687">
        <ele>77.098771</ele>
        <time>2023-04-30T13:00:07.166Z</time>
      </trkpt>
      <trkpt lat="51.2212" lon="6.74673">
        <ele>77.129737</ele>
        <time>2023-04-30T13:00:09.164Z</time>
      </trkpt>
      <trkpt lat="51.22125" lon="6.7466">
        <ele>77.160096</ele>
        <time>2023-04-30T13:00:11.175Z</time>
      </trkpt>
      <trkpt lat="51.2213" lon="6.74647">
        <ele>77.189115</ele>
        <time>2023-04-30T13:00:13.152Z</time>
      </trkpt>
      <trkpt lat="51.22135" lon="6.74634">
        <ele>77.219481</ele>
        <time>2023-04-30T13:00:15.163Z</time>
      </trkpt>
      <trkpt lat="51.2214" lon="6.7462">
        <ele>77.25102</ele>
        <time>2023-04-30T13:00:17.154Z</time>
      </trkpt>
      <trkpt lat="51.22145" lon="6.74607">
        <ele>77.282048</ele>
        <time>2023-04-30T13:00:19.171Z</time>
      </trkpt>
      <trkpt lat="51.22151" lon="6.74594">
        <ele>77.312574</ele>
        <time>2023-04-30T13:00:21.169Z</time>
      </trkpt>
      <trkpt lat="51.22156" lon="6.74579">
        <ele>77.345852</ele>
        <time>2023-04-30T13:00:23.154Z</time>
      </trkpt>
      <trkpt lat="51.2216" lon="6.74566">
        <ele>77.3749</ele>
        <time>2023-04-30T13:00:25.165Z</time>
      </trkpt>
      <trkpt lat="51.22165" lon="6.74552">
        <ele>77.407458</ele>
        <time>2023-04-30T13:00:27.157Z</time>
      </trkpt>
      <trkpt lat="51.22169" lon="6.74539">
        <ele>77.437493</ele>
        <time>2023-04-30T13:00:29.173Z</time>
      </trkpt>
      <trkpt lat="51.22175" lon="6.74519">
        <ele>77.480885</ele>
        <time>2023-04-30T13:00:32.154Z</time>
      </trkpt>
      <trkpt lat="51.2218" lon="6.74505">
        <ele>77.511472</ele>
        <time>2023-04-30T13:00:34.169Z</time>
      </trkpt>
      <trkpt lat="51.22184" lon="6.74491">
        <ele>77.543143</ele>
        <time>2023-04-30T13:00:36.168Z</time>
      </trkpt>
      <trkpt lat="51.22188" lon="6.74477">
        <ele>77.572489</ele>
        <time>2023-04-30T13:00:38.171Z</time>
      </trkpt>
      <trkpt lat="51.22191" lon="6.74462">
        <ele>77.603578</ele>
        <time>2023-04-30T13:00:40.164Z</time>
      </trkpt>
      <trkpt lat="51.22194" lon="6.74448">
        <ele>77.616258</ele>
        <time>2023-04-30T13:00:42.190Z</time>
      </trkpt>
      <trkpt lat="51.22197" lon="6.74433">
        <ele>77.618246</ele>
        <time>2023-04-30T13:00:44.151Z</time>
      </trkpt>
      <trkpt lat="51.22201" lon="6.74414">
        <ele>77.620895</ele>
        <time>2023-04-30T13:00:47.159Z</time>
      </trkpt>
      <trkpt lat="51.22204" lon="6.74397">
        <ele>77.623207</ele>
        <time>2023-04-30T13:00:50.182Z</time>
      </trkpt>
      <trkpt lat="51.22209" lon="6.74379">
        <ele>77.625726</ele>
        <time>2023-04-30T13:00:53.153Z</time>
      </trkpt>
      <trkpt lat="51.22212" lon="6.74363">
        <ele>77.62797</ele>
        <time>2023-04-30T13:00:57.163Z</time>
      </trkpt>
      <trkpt lat="51.22214" lon="6.74348">
        <ele>77.630011</ele>
        <time>2023-04-30T13:01:01.162Z</time>
      </trkpt>
      <trkpt lat="51.22216" lon="6.74332">
        <ele>77.632036</ele>
        <time>2023-04-30T13:01:04.168Z</time>
      </trkpt>
      <trkpt lat="51.2222" lon="6.74316">
        <ele>77.634367</ele>
        <time>2023-04-30T13:01:07.157Z</time>
      </trkpt>
      <trkpt lat="51.22224" lon="6.74297">
        <ele>77.636982</ele>
        <time>2023-04-30T13:01:10.179Z</time>
      </trkpt>
      <trkpt lat="51.22226" lon="6.74281">
        <ele>77.63917</ele>
        <time>2023-04-30T13:01:13.154Z</time>
      </trkpt>
      <trkpt lat="51.2223" lon="6.74264">
        <ele>77.641495</ele>
        <time>2023-04-30T13:01:16.169Z</time>
      </trkpt>
      <trkpt lat="51.22234" lon="6.7425">
        <ele>77.643484</ele>
        <time>2023-04-30T13:01:18.147Z</time>
      </trkpt>
      <trkpt lat="51.22238" lon="6.74232">
        <ele>77.646011</ele>
        <time>2023-04-30T13:01:21.146Z</time>
      </trkpt>
      <trkpt lat="51.22243" lon="6.74214">
        <ele>77.648571</ele>
        <time>2023-04-30T13:01:24.158Z</time>
      </trkpt>
      <trkpt lat="51.22246" lon="6.742">
        <ele>77.650515</ele>
        <time>2023-04-30T13:01:26.152Z</time>
      </trkpt>
      <trkpt lat="51.22248" lon="6.74186">
        <ele>77.652397</ele>
        <time>2023-04-30T13:01:28.172Z</time>
      </trkpt>
      <trkpt lat="51.22251" lon="6.74172">
        <ele>77.508232</ele>
        <time>2023-04-30T13:01:30.160Z</time>
      </trkpt>
      <trkpt lat="51.22254" lon="6.74157">
        <ele>77.345367</ele>
        <time>2023-04-30T13:01:32.154Z</time>
      </trkpt>
      <trkpt lat="51.22257" lon="6.74137">
        <ele>77.124084</ele>
        <time>2023-04-30T13:01:35.181Z</time>
      </trkpt>
      <trkpt lat="51.22262" lon="6.74118">
        <ele>76.916104</ele>
        <time>2023-04-30T13:01:38.151Z</time>
      </trkpt>
      <trkpt lat="51.22265" lon="6.74105">
        <ele>76.762539</ele>
        <time>2023-04-30T13:01:40.162Z</time>
      </trkpt>
      <trkpt lat="51.22268" lon="6.74091">
        <ele>76.609729</ele>
        <time>2023-04-30T13:01:42.164Z</time>
      </trkpt>
      <trkpt lat="51.22272" lon="6.74072">
        <ele>76.39571</ele>
        <time>2023-04-30T13:01:45.171Z</time>
      </trkpt>
      <trkpt lat="51.22276" lon="6.74053">
        <ele>76.190638</ele>
        <time>2023-04-30T13:01:48.158Z</time>
      </trkpt>
      <trkpt lat="51.2228" lon="6.74034">
        <ele>75.97506</ele>
        <time>2023-04-30T13:01:51.172Z</time>
      </trkpt>
      <trkpt lat="51.22283" lon="6.74013">
        <ele>75.748722</ele>
        <time>2023-04-30T13:01:54.168Z</time>
      </trkpt>
      <trkpt lat="51.22286" lon="6.73999">
        <ele>75.594705</ele>
        <time>2023-04-30T13:01:56.160Z</time>
      </trkpt>
      <trkpt lat="51.2229" lon="6.73981">
        <ele>75.398964</ele>
        <time>2023-04-30T13:01:59.171Z</time>
      </trkpt>
      <trkpt lat="51.22293" lon="6.73963">
        <ele>75.191477</ele>
        <time>2023-04-30T13:02:02.165Z</time>
      </trkpt>
      <trkpt lat="51.22298" lon="6.73943">
        <ele>74.973244</ele>
        <time>2023-04-30T13:02:05.169Z</time>
      </trkpt>
      <trkpt lat="51.22301" lon="6.73925">
        <ele>74.769767</ele>
        <time>2023-04-30T13:02:08.173Z</time>
      </trkpt>
      <trkpt lat="51.22304" lon="6.73909">
        <ele>74.654062</ele>
        <time>2023-04-30T13:02:11.171Z</time>
      </trkpt>
      <trkpt lat="51.22309" lon="6.73894">
        <ele>74.779837</ele>
        <time>2023-04-30T13:02:15.168Z</time>
      </trkpt>
      <trkpt lat="51.22312" lon="6.73876">
        <ele>74.923737</ele>
        <time>2023-04-30T13:02:19.175Z</time>
      </trkpt>
      <trkpt lat="51.22305" lon="6.73866">
        <ele>75.048382</ele>
        <time>2023-04-30T13:02:23.167Z</time>
      </trkpt>
      <trkpt lat="51.22295" lon="6.73858">
        <ele>75.180094</ele>
        <time>2023-04-30T13:02:27.186Z</time>
      </trkpt>
      <trkpt lat="51.22294" lon="6.73842">
        <ele>75.302856</ele>
        <time>2023-04-30T13:02:31.183Z</time>
      </trkpt>
      <trkpt lat="51.22299" lon="6.73829">
        <ele>75.418987</ele>
        <time>2023-04-30T13:02:34.169Z</time>
      </trkpt>
      <trkpt lat="51.22303" lon="6.73815">
        <ele>75.538335</ele>
        <time>2023-04-30T13:02:37.144Z</time>
      </trkpt>
      <trkpt lat="51.22308" lon="6.73801">
        <ele>75.65631</ele>
        <time>2023-04-30T13:02:40.178Z</time>
      </trkpt>
      <trkpt lat="51.22312" lon="6.73786">
        <ele>75.784301</ele>
        <time>2023-04-30T13:02:44.159Z</time>
      </trkpt>
      <trkpt lat="51.22316" lon="6.73772">
        <ele>75.905572</ele>
        <time>2023-04-30T13:02:48.160Z</time>
      </trkpt>
      <trkpt lat="51.22322" lon="6.73755">
        <ele>76.052835</ele>
        <time>2023-04-30T13:02:52.163Z</time>
      </trkpt>
      <trkpt lat="51.22325" lon="6.7374">
        <ele>76.168478</ele>
        <time>2023-04-30T13:02:55.161Z</time>
      </trkpt>
      <trkpt lat="51.22329" lon="6.73727">
        <ele>76.28316</ele>
        <time>2023-04-30T13:02:58.165Z</time>
      </trkpt>
      <trkpt lat="51.22331" lon="6.73712">
        <ele>76.399305</ele>
        <time>2023-04-30T13:03:01.166Z</time>
      </trkpt>
      <trkpt lat="51.22333" lon="6.73694">
        <ele>76.539338</ele>
        <time>2023-04-30T13:03:05.168Z</time>
      </trkpt>
      <trkpt lat="51.22336" lon="6.7368">
        <ele>76.653656</ele>
        <time>2023-04-30T13:03:09.161Z</time>
      </trkpt>
      <trkpt lat="51.2234" lon="6.73664">
        <ele>76.780904</ele>
        <time>2023-04-30T13:03:14.162Z</time>
      </trkpt>
      <trkpt lat="51.22345" lon="6.73649">
        <ele>77.042075</ele>
        <time>2023-04-30T13:03:19.180Z</time>
      </trkpt>
      <trkpt lat="51.22349" lon="6.73634">
        <ele>77.351159</ele>
        <time>2023-04-30T13:03:23.157Z</time>
      </trkpt>
      <trkpt lat="51.22356" lon="6.7362">
        <ele>77.686644</ele>
        <time>2023-04-30T13:03:27.150Z</time>
      </trkpt>
      <trkpt lat="51.22363" lon="6.73604">
        <ele>78.041505</ele>
        <time>2023-04-30T13:03:31.162Z</time>
      </trkpt>
      <trkpt lat="51.22367" lon="6.73589">
        <ele>78.354384</ele>
        <time>2023-04-30T13:03:34.156Z</time>
      </trkpt>
      <trkpt lat="51.22371" lon="6.73572">
        <ele>78.689891</ele>
        <time>2023-04-30T13:03:37.156Z</time>
      </trkpt>
      <trkpt lat="51.22374" lon="6.73555">
        <ele>79.015499</ele>
        <time>2023-04-30T13:03:40.179Z</time>
      </trkpt>
      <trkpt lat="51.22377" lon="6.73538">
        <ele>79.340328</ele>
        <time>2023-04-30T13:03:43.175Z</time>
      </trkpt>
      <trkpt lat="51.22379" lon="6.73521">
        <ele>79.676385</ele>
        <time>2023-04-30T13:03:46.180Z</time>
      </trkpt>
      <trkpt lat="51.22383" lon="6.73501">
        <ele>80.047398</ele>
        <time>2023-04-30T13:03:49.163Z</time>
      </trkpt>
      <trkpt lat="51.22385" lon="6.73487">
        <ele>80.323827</ele>
        <time>2023-04-30T13:03:51.160Z</time>
      </trkpt>
      <trkpt lat="51.22386" lon="6.73472">
        <ele>80.61158</ele>
        <time>2023-04-30T13:03:53.163Z</time>
      </trkpt>
      <trkpt lat="51.22387" lon="6.73451">
        <ele>81.000404</ele>
        <time>2023-04-30T13:03:56.175Z</time>
      </trkpt>
      <trkpt lat="51.22385" lon="6.73431">
        <ele>81.382334</ele>
        <time>2023-04-30T13:03:59.183Z</time>
      </trkpt>
      <trkpt lat="51.22384" lon="6.73411">
        <ele>81.76361</ele>
        <time>2023-04-30T13:04:02.163Z</time>
      </trkpt>
      <trkpt lat="51.22383" lon="6.73392">
        <ele>82.114843</ele>
        <time>2023-04-30T13:04:05.146Z</time>
      </trkpt>
      <trkpt lat="51.22382" lon="6.73373">
        <ele>82.297719</ele>
        <time>2023-04-30T13:04:08.170Z</time>
      </trkpt>
      <trkpt lat="51.22381" lon="6.73355">
        <ele>82.426135</ele>
        <time>2023-04-30T13:04:11.184Z</time>
      </trkpt>
      <trkpt lat="51.22379" lon="6.73339">
        <ele>82.543825</ele>
        <time>2023-04-30T13:04:17.150Z</time>
      </trkpt>
      <trkpt lat="51.22379" lon="6.73325">
        <ele>82.648942</ele>
        <time>2023-04-30T13:04:21.153Z</time>
      </trkpt>
      <trkpt lat="51.22376" lon="6.73308">
        <ele>82.771281</ele>
        <time>2023-04-30T13:04:24.138Z</time>
      </trkpt>
      <trkpt lat="51.22374" lon="6.7329">
        <ele>82.906374</ele>
        <time>2023-04-30T13:04:27.166Z</time>
      </trkpt>
      <trkpt lat="51.22372" lon="6.73271">
        <ele>83.04333</ele>
        <time>2023-04-30T13:04:30.165Z</time>
      </trkpt>
      <trkpt lat="51.22369" lon="6.73251">
        <ele>83.189395</ele>
        <time>2023-04-30T13:04:33.168Z</time>
      </trkpt>
      <trkpt lat="51.22366" lon="6.73231">
        <ele>83.337655</ele>
        <time>2023-04-30T13:04:36.183Z</time>
      </trkpt>
      <trkpt lat="51.22361" lon="6.73212">
        <ele>83.485451</ele>
        <time>2023-04-30T13:04:39.165Z</time>
      </trkpt>
      <trkpt lat="51.22357" lon="6.73199">
        <ele>83.592919</ele>
        <time>2023-04-30T13:04:41.182Z</time>
      </trkpt>
      <trkpt lat="51.22352" lon="6.7318">
        <ele>83.744676</ele>
        <time>2023-04-30T13:04:44.303Z</time>
      </trkpt>
      <trkpt lat="51.22346" lon="6.73162">
        <ele>83.887373</ele>
        <time>2023-04-30T13:04:47.176Z</time>
      </trkpt>
      <trkpt lat="51.22338" lon="6.73145">
        <ele>84.039125</ele>
        <time>2023-04-30T13:04:50.153Z</time>
      </trkpt>
      <trkpt lat="51.22333" lon="6.73133">
        <ele>84.146812</ele>
        <time>2023-04-30T13:04:52.177Z</time>
      </trkpt>
      <trkpt lat="51.22325" lon="6.73115">
        <ele>84.194988</ele>
        <time>2023-04-30T13:04:55.150Z</time>
      </trkpt>
      <trkpt lat="51.2232" lon="6.73102">
        <ele>84.036476</ele>
        <time>2023-04-30T13:04:57.151Z</time>
      </trkpt>
      <trkpt lat="51.22315" lon="6.7309">
        <ele>83.881944</ele>
        <time>2023-04-30T13:04:59.251Z</time>
      </trkpt>
      <trkpt lat="51.22307" lon="6.73075">
        <ele>83.676085</ele>
        <time>2023-04-30T13:05:02.169Z</time>
      </trkpt>
      <trkpt lat="51.22297" lon="6.73059">
        <ele>83.449052</ele>
        <time>2023-04-30T13:05:05.160Z</time>
      </trkpt>
      <trkpt lat="51.2229" lon="6.73049">
        <ele>83.293614</ele>
        <time>2023-04-30T13:05:07.182Z</time>
      </trkpt>
      <trkpt lat="51.22283" lon="6.73038">
        <ele>83.123313</ele>
        <time>2023-04-30T13:05:09.171Z</time>
      </trkpt>
      <trkpt lat="51.22274" lon="6.73028">
        <ele>82.951092</ele>
        <time>2023-04-30T13:05:11.149Z</time>
      </trkpt>
      <trkpt lat="51.22267" lon="6.7302">
        <ele>82.79849</ele>
        <time>2023-04-30T13:05:13.148Z</time>
      </trkpt>
      <trkpt lat="51.22256" lon="6.73008">
        <ele>82.579133</ele>
        <time>2023-04-30T13:05:16.163Z</time>
      </trkpt>
      <trkpt lat="51.22245" lon="6.72998">
        <ele>82.361532</ele>
        <time>2023-04-30T13:05:19.149Z</time>
      </trkpt>
      <trkpt lat="51.22234" lon="6.72987">
        <ele>82.150577</ele>
        <time>2023-04-30T13:05:22.178Z</time>
      </trkpt>
      <trkpt lat="51.22222" lon="6.72975">
        <ele>81.921109</ele>
        <time>2023-04-30T13:05:25.163Z</time>
      </trkpt>
      <trkpt lat="51.22211" lon="6.72965">
        <ele>81.7036</ele>
        <time>2023-04-30T13:05:28.157Z</time>
      </trkpt>
      <trkpt lat="51.22199" lon="6.72956">
        <ele>81.482175</ele>
        <time>2023-04-30T13:05:31.166Z</time>
      </trkpt>
      <trkpt lat="51.22191" lon="6.72949">
        <ele>81.327343</ele>
        <time>2023-04-30T13:05:33.165Z</time>
      </trkpt>
      <trkpt lat="51.22179" lon="6.72941">
        <ele>81.30108</ele>
        <time>2023-04-30T13:05:36.173Z</time>
      </trkpt>
      <trkpt lat="51.22166" lon="6.72936">
        <ele>81.361088</ele>
        <time>2023-04-30T13:05:39.161Z</time>
      </trkpt>
      <trkpt lat="51.22153" lon="6.72932">
        <ele>81.420468</ele>
        <time>2023-04-30T13:05:42.170Z</time>
      </trkpt>
      <trkpt lat="51.22141" lon="6.72929">
        <ele>81.478437</ele>
        <time>2023-04-30T13:05:45.157Z</time>
      </trkpt>
      <trkpt lat="51.22132" lon="6.72927">
        <ele>81.522197</ele>
        <time>2023-04-30T13:05:47.163Z</time>
      </trkpt>
      <trkpt lat="51.22123" lon="6.72925">
        <ele>81.563824</ele>
        <time>2023-04-30T13:05:49.176Z</time>
      </trkpt>
      <trkpt lat="51.2211" lon="6.72923">
        <ele>81.624191</ele>
        <time>2023-04-30T13:05:52.164Z</time>
      </trkpt>
      <trkpt lat="51.22096" lon="6.72922">
        <ele>81.685699</ele>
        <time>2023-04-30T13:05:55.171Z</time>
      </trkpt>
      <trkpt lat="51.22087" lon="6.72921">
        <ele>81.727929</ele>
        <time>2023-04-30T13:05:57.172Z</time>
      </trkpt>
      <trkpt lat="51.22078" lon="6.72921">
        <ele>81.772303</ele>
        <time>2023-04-30T13:05:59.154Z</time>
      </trkpt>
      <trkpt lat="51.22069" lon="6.72921">
        <ele>81.814828</ele>
        <time>2023-04-30T13:06:01.176Z</time>
      </trkpt>
      <trkpt lat="51.22059" lon="6.72919">
        <ele>81.860532</ele>
        <time>2023-04-30T13:06:03.157Z</time>
      </trkpt>
      <trkpt lat="51.22049" lon="6.72917">
        <ele>81.903868</ele>
        <time>2023-04-30T13:06:05.166Z</time>
      </trkpt>
      <trkpt lat="51.2204" lon="6.72916">
        <ele>81.948763</ele>
        <time>2023-04-30T13:06:07.168Z</time>
      </trkpt>
      <trkpt lat="51.2203" lon="6.72915">
        <ele>81.991847</ele>
        <time>2023-04-30T13:06:09.186Z</time>
      </trkpt>
      <trkpt lat="51.22021" lon="6.72914">
        <ele>82.037167</ele>
        <time>2023-04-30T13:06:11.172Z</time>
      </trkpt>
      <trkpt lat="51.22011" lon="6.72914">
        <ele>82.080202</ele>
        <time>2023-04-30T13:06:13.145Z</time>
      </trkpt>
      <trkpt lat="51.21998" lon="6.72913">
        <ele>82.02371</ele>
        <time>2023-04-30T13:06:16.164Z</time>
      </trkpt>
      <trkpt lat="51.21988" lon="6.72913">
        <ele>81.965646</ele>
        <time>2023-04-30T13:06:18.167Z</time>
      </trkpt>
      <trkpt lat="51.21979" lon="6.72912">
        <ele>81.909212</ele>
        <time>2023-04-30T13:06:20.175Z</time>
      </trkpt>
      <trkpt lat="51.21969" lon="6.72912">
        <ele>81.853499</ele>
        <time>2023-04-30T13:06:22.169Z</time>
      </trkpt>
      <trkpt lat="51.21959" lon="6.72913">
        <ele>81.794156</ele>
        <time>2023-04-30T13:06:24.169Z</time>
      </trkpt>
      <trkpt lat="51.21949" lon="6.72914">
        <ele>81.73363</ele>
        <time>2023-04-30T13:06:26.163Z</time>
      </trkpt>
      <trkpt lat="51.21938" lon="6.72914">
        <ele>81.667246</ele>
        <time>2023-04-30T13:06:28.168Z</time>
      </trkpt>
      <trkpt lat="51.21926" lon="6.72914">
        <ele>81.597324</ele>
        <time>2023-04-30T13:06:30.163Z</time>
      </trkpt>
      <trkpt lat="51.21914" lon="6.72914">
        <ele>81.528592</ele>
        <time>2023-04-30T13:06:32.159Z</time>
      </trkpt>
      <trkpt lat="51.21904" lon="6.72913">
        <ele>81.465126</ele>
        <time>2023-04-30T13:06:34.169Z</time>
      </trkpt>
      <trkpt lat="51.21895" lon="6.72913">
        <ele>81.410597</ele>
        <time>2023-04-30T13:06:36.177Z</time>
      </trkpt>
      <trkpt lat="51.21884" lon="6.72914">
        <ele>81.350091</ele>
        <time>2023-04-30T13:06:38.172Z</time>
      </trkpt>
      <trkpt lat="51.21874" lon="6.72915">
        <ele>81.286587</ele>
        <time>2023-04-30T13:06:40.155Z</time>
      </trkpt>
      <trkpt lat="51.21863" lon="6.72916">
        <ele>81.223121</ele>
        <time>2023-04-30T13:06:42.167Z</time>
      </trkpt>
      <trkpt lat="51.21852" lon="6.72917">
        <ele>81.159003</ele>
        <time>2023-04-30T13:06:44.180Z</time>
      </trkpt>
      <trkpt lat="51.21841" lon="6.72917">
        <ele>81.093236</ele>
        <time>2023-04-30T13:06:46.180Z</time>
      </trkpt>
      <trkpt lat="51.2183" lon="6.72918">
        <ele>81.02684</ele>
        <time>2023-04-30T13:06:48.175Z</time>
      </trkpt>
      <trkpt lat="51.21819" lon="6.72918">
        <ele>81.083892</ele>
        <time>2023-04-30T13:06:50.178Z</time>
      </trkpt>
      <trkpt lat="51.21809" lon="6.72918">
        <ele>81.146033</ele>
        <time>2023-04-30T13:06:52.166Z</time>
      </trkpt>
      <trkpt lat="51.21797" lon="6.72919">
        <ele>81.210652</ele>
        <time>2023-04-30T13:06:54.168Z</time>
      </trkpt>
      <trkpt lat="51.21786" lon="6.7292">
        <ele>81.275115</ele>
        <time>2023-04-30T13:06:56.152Z</time>
      </trkpt>
      <trkpt lat="51.21775" lon="6.7292">
        <ele>81.339578</ele>
        <time>2023-04-30T13:06:58.160Z</time>
      </trkpt>
      <trkpt lat="51.21764" lon="6.72922">
        <ele>81.40432</ele>
        <time>2023-04-30T13:07:00.170Z</time>
      </trkpt>
      <trkpt lat="51.21754" lon="6.72925">
        <ele>81.466188</ele>
        <time>2023-04-30T13:07:02.147Z</time>
      </trkpt>
      <trkpt lat="51.21743" lon="6.72927">
        <ele>81.530697</ele>
        <time>2023-04-30T13:07:04.166Z</time>
      </trkpt>
      <trkpt lat="51.21732" lon="6.72929">
        <ele>81.590747</ele>
        <time>2023-04-30T13:07:06.170Z</time>
      </trkpt>
      <trkpt lat="51.21722" lon="6.72931">
        <ele>81.653792</ele>
        <time>2023-04-30T13:07:08.168Z</time>
      </trkpt>
      <trkpt lat="51.21711" lon="6.72933">
        <ele>81.71795</ele>
        <time>2023-04-30T13:07:10.166Z</time>
      </trkpt>
      <trkpt lat="51.217" lon="6.72936">
        <ele>81.781118</ele>
        <time>2023-04-30T13:07:12.163Z</time>
      </trkpt>
      <trkpt lat="51.21689" lon="6.72937">
        <ele>81.84467</ele>
        <time>2023-04-30T13:07:14.166Z</time>
      </trkpt>
      <trkpt lat="51.21678" lon="6.7294">
        <ele>81.907874</ele>
        <time>2023-04-30T13:07:16.159Z</time>
      </trkpt>
      <trkpt lat="51.21667" lon="6.72943">
        <ele>81.975211</ele>
        <time>2023-04-30T13:07:18.162Z</time>
      </trkpt>
      <trkpt lat="51.21656" lon="6.72946">
        <ele>82.041615</ele>
        <time>2023-04-30T13:07:20.157Z</time>
      </trkpt>
      <trkpt lat="51.21644" lon="6.7295">
        <ele>82.066273</ele>
        <time>2023-04-30T13:07:22.163Z</time>
      </trkpt>
      <trkpt lat="51.21633" lon="6.72953">
        <ele>82.061846</ele>
        <time>2023-04-30T13:07:24.161Z</time>
      </trkpt>
      <trkpt lat="51.21621" lon="6.72956">
        <ele>82.057331</ele>
        <time>2023-04-30T13:07:26.148Z</time>
      </trkpt>
      <trkpt lat="51.21609" lon="6.72959">
        <ele>82.052664</ele>
        <time>2023-04-30T13:07:28.168Z</time>
      </trkpt>
      <trkpt lat="51.21597" lon="6.72962">
        <ele>82.047866</ele>
        <time>2023-04-30T13:07:30.180Z</time>
      </trkpt>
      <trkpt lat="51.21585" lon="6.72964">
        <ele>82.043426</ele>
        <time>2023-04-30T13:07:32.165Z</time>
      </trkpt>
      <trkpt lat="51.21574" lon="6.72966">
        <ele>82.0389</ele>
        <time>2023-04-30T13:07:34.186Z</time>
      </trkpt>
      <trkpt lat="51.21562" lon="6.72969">
        <ele>82.034473</ele>
        <time>2023-04-30T13:07:36.165Z</time>
      </trkpt>
      <trkpt lat="51.21551" lon="6.72972">
        <ele>82.029969</ele>
        <time>2023-04-30T13:07:38.166Z</time>
      </trkpt>
      <trkpt lat="51.21539" lon="6.72977">
        <ele>82.025403</ele>
        <time>2023-04-30T13:07:40.168Z</time>
      </trkpt>
      <trkpt lat="51.21528" lon="6.72981">
        <ele>82.02081</ele>
        <time>2023-04-30T13:07:42.166Z</time>
      </trkpt>
      <trkpt lat="51.21517" lon="6.72985">
        <ele>82.016445</ele>
        <time>2023-04-30T13:07:44.156Z</time>
      </trkpt>
      <trkpt lat="51.21506" lon="6.72986">
        <ele>82.012366</ele>
        <time>2023-04-30T13:07:46.157Z</time>
      </trkpt>
      <trkpt lat="51.21496" lon="6.72988">
        <ele>82.008359</ele>
        <time>2023-04-30T13:07:48.157Z</time>
      </trkpt>
      <trkpt lat="51.21486" lon="6.72992">
        <ele>82.004402</ele>
        <time>2023-04-30T13:07:50.163Z</time>
      </trkpt>
      <trkpt lat="51.21475" lon="6.72996">
        <ele>82.000352</ele>
        <time>2023-04-30T13:07:52.161Z</time>
      </trkpt>
      <trkpt lat="51.21465" lon="6.73001">
        <ele>81.998238</ele>
        <time>2023-04-30T13:07:54.166Z</time>
      </trkpt>
      <trkpt lat="51.21455" lon="6.73006">
        <ele>81.996413</ele>
        <time>2023-04-30T13:07:56.172Z</time>
      </trkpt>
      <trkpt lat="51.21445" lon="6.73011">
        <ele>81.994597</ele>
        <time>2023-04-30T13:07:58.161Z</time>
      </trkpt>
      <trkpt lat="51.21435" lon="6.73015">
        <ele>81.99278</ele>
        <time>2023-04-30T13:08:00.154Z</time>
      </trkpt>
      <trkpt lat="51.21426" lon="6.73019">
        <ele>81.991098</ele>
        <time>2023-04-30T13:08:02.164Z</time>
      </trkpt>
      <trkpt lat="51.21417" lon="6.73022">
        <ele>81.98951</ele>
        <time>2023-04-30T13:08:04.183Z</time>
      </trkpt>
      <trkpt lat="51.21409" lon="6.73028">
        <ele>81.987877</ele>
        <time>2023-04-30T13:08:06.160Z</time>
      </trkpt>
      <trkpt lat="51.21399" lon="6.73031">
        <ele>81.986199</ele>
        <time>2023-04-30T13:08:08.157Z</time>
      </trkpt>
      <trkpt lat="51.21389" lon="6.73037">
        <ele>81.984341</ele>
        <time>2023-04-30T13:08:10.160Z</time>
      </trkpt>
      <trkpt lat="51.21379" lon="6.73043">
        <ele>81.982468</ele>
        <time>2023-04-30T13:08:12.165Z</time>
      </trkpt>
      <trkpt lat="51.21369" lon="6.73048">
        <ele>81.980619</ele>
        <time>2023-04-30T13:08:14.168Z</time>
      </trkpt>
      <trkpt lat="51.21359" lon="6.73052">
        <ele>81.978769</ele>
        <time>2023-04-30T13:08:16.161Z</time>
      </trkpt>
      <trkpt lat="51.21349" lon="6.73058">
        <ele>81.976936</ele>
        <time>2023-04-30T13:08:18.169Z</time>
      </trkpt>
      <trkpt lat="51.21339" lon="6.73063">
        <ele>81.975091</ele>
        <time>2023-04-30T13:08:20.160Z</time>
      </trkpt>
      <trkpt lat="51.21329" lon="6.73068">
        <ele>81.973252</ele>
        <time>2023-04-30T13:08:22.158Z</time>
      </trkpt>
      <trkpt lat="51.21318" lon="6.73073">
        <ele>81.971383</ele>
        <time>2023-04-30T13:08:24.162Z</time>
      </trkpt>
      <trkpt lat="51.21308" lon="6.73078">
        <ele>81.969487</ele>
        <time>2023-04-30T13:08:26.159Z</time>
      </trkpt>
      <trkpt lat="51.21298" lon="6.73084">
        <ele>81.96999</ele>
        <time>2023-04-30T13:08:28.177Z</time>
      </trkpt>
      <trkpt lat="51.21288" lon="6.7309">
        <ele>81.973418</ele>
        <time>2023-04-30T13:08:30.182Z</time>
      </trkpt>
      <trkpt lat="51.21278" lon="6.73096">
        <ele>81.976776</ele>
        <time>2023-04-30T13:08:32.160Z</time>
      </trkpt>
      <trkpt lat="51.21267" lon="6.73101">
        <ele>81.980217</ele>
        <time>2023-04-30T13:08:34.163Z</time>
      </trkpt>
      <trkpt lat="51.21257" lon="6.73106">
        <ele>81.983627</ele>
        <time>2023-04-30T13:08:36.166Z</time>
      </trkpt>
      <trkpt lat="51.21247" lon="6.73111">
        <ele>81.987038</ele>
        <time>2023-04-30T13:08:38.167Z</time>
      </trkpt>
      <trkpt lat="51.21237" lon="6.73116">
        <ele>81.990393</ele>
        <time>2023-04-30T13:08:40.166Z</time>
      </trkpt>
      <trkpt lat="51.21227" lon="6.73121">
        <ele>81.99362</ele>
        <time>2023-04-30T13:08:42.163Z</time>
      </trkpt>
      <trkpt lat="51.21218" lon="6.73126">
        <ele>81.996825</ele>
        <time>2023-04-30T13:08:44.152Z</time>
      </trkpt>
      <trkpt lat="51.21208" lon="6.73132">
        <ele>82.000249</ele>
        <time>2023-04-30T13:08:46.180Z</time>
      </trkpt>
      <trkpt lat="51.21198" lon="6.73137">
        <ele>82.003501</ele>
        <time>2023-04-30T13:08:48.172Z</time>
      </trkpt>
      <trkpt lat="51.21188" lon="6.73143">
        <ele>82.00682</ele>
        <time>2023-04-30T13:08:50.164Z</time>
      </trkpt>
      <trkpt lat="51.21178" lon="6.73148">
        <ele>82.010132</ele>
        <time>2023-04-30T13:08:52.165Z</time>
      </trkpt>
      <trkpt lat="51.21169" lon="6.73153">
        <ele>82.013341</ele>
        <time>2023-04-30T13:08:54.172Z</time>
      </trkpt>
      <trkpt lat="51.21159" lon="6.73158">
        <ele>82.016492</ele>
        <time>2023-04-30T13:08:56.167Z</time>
      </trkpt>
      <trkpt lat="51.2115" lon="6.73163">
        <ele>82.019598</ele>
        <time>2023-04-30T13:08:58.174Z</time>
      </trkpt>
      <trkpt lat="51.2114" lon="6.73168">
        <ele>82.02286</ele>
        <time>2023-04-30T13:09:00.175Z</time>
      </trkpt>
      <trkpt lat="51.21131" lon="6.73174">
        <ele>82.022246</ele>
        <time>2023-04-30T13:09:02.174Z</time>
      </trkpt>
      <trkpt lat="51.21121" lon="6.73179">
        <ele>81.993074</ele>
        <time>2023-04-30T13:09:04.168Z</time>
      </trkpt>
      <trkpt lat="51.21111" lon="6.73185">
        <ele>81.964524</ele>
        <time>2023-04-30T13:09:06.158Z</time>
      </trkpt>
      <trkpt lat="51.21102" lon="6.7319">
        <ele>81.936312</ele>
        <time>2023-04-30T13:09:08.149Z</time>
      </trkpt>
      <trkpt lat="51.21091" lon="6.73197">
        <ele>81.903928</ele>
        <time>2023-04-30T13:09:11.162Z</time>
      </trkpt>
      <trkpt lat="51.2108" lon="6.73202">
        <ele>81.871962</ele>
        <time>2023-04-30T13:09:14.175Z</time>
      </trkpt>
      <trkpt lat="51.21069" lon="6.7321">
        <ele>81.836706</ele>
        <time>2023-04-30T13:09:17.168Z</time>
      </trkpt>
      <trkpt lat="51.2106" lon="6.73214">
        <ele>81.811583</ele>
        <time>2023-04-30T13:09:19.169Z</time>
      </trkpt>
      <trkpt lat="51.21051" lon="6.73218">
        <ele>81.785116</ele>
        <time>2023-04-30T13:09:21.162Z</time>
      </trkpt>
      <trkpt lat="51.21042" lon="6.73222">
        <ele>81.759236</ele>
        <time>2023-04-30T13:09:23.173Z</time>
      </trkpt>
      <trkpt lat="51.21033" lon="6.73227">
        <ele>81.73369</ele>
        <time>2023-04-30T13:09:25.176Z</time>
      </trkpt>
      <trkpt lat="51.2102" lon="6.73231">
        <ele>81.696692</ele>
        <time>2023-04-30T13:09:28.163Z</time>
      </trkpt>
      <trkpt lat="51.21009" lon="6.73239">
        <ele>81.662529</ele>
        <time>2023-04-30T13:09:31.162Z</time>
      </trkpt>
      <trkpt lat="51.20999" lon="6.73243">
        <ele>81.63319</ele>
        <time>2023-04-30T13:09:34.146Z</time>
      </trkpt>
      <trkpt lat="51.20987" lon="6.73248">
        <ele>81.598701</ele>
        <time>2023-04-30T13:09:37.155Z</time>
      </trkpt>
      <trkpt lat="51.20975" lon="6.73254">
        <ele>81.56253</ele>
        <time>2023-04-30T13:09:40.151Z</time>
      </trkpt>
      <trkpt lat="51.20963" lon="6.73259">
        <ele>81.527441</ele>
        <time>2023-04-30T13:09:43.147Z</time>
      </trkpt>
      <trkpt lat="51.20954" lon="6.73264">
        <ele>81.588937</ele>
        <time>2023-04-30T13:09:45.182Z</time>
      </trkpt>
      <trkpt lat="51.20942" lon="6.73271">
        <ele>81.71007</ele>
        <time>2023-04-30T13:09:48.174Z</time>
      </trkpt>
      <trkpt lat="51.20933" lon="6.73274">
        <ele>81.792734</ele>
        <time>2023-04-30T13:09:50.161Z</time>
      </trkpt>
      <trkpt lat="51.20924" lon="6.73278">
        <ele>81.879811</ele>
        <time>2023-04-30T13:09:52.161Z</time>
      </trkpt>
      <trkpt lat="51.20911" lon="6.73284">
        <ele>82.004483</ele>
        <time>2023-04-30T13:09:55.196Z</time>
      </trkpt>
      <trkpt lat="51.20901" lon="6.73287">
        <ele>82.092289</ele>
        <time>2023-04-30T13:09:57.257Z</time>
      </trkpt>
      <trkpt lat="51.2089" lon="6.73292">
        <ele>82.193658</ele>
        <time>2023-04-30T13:09:59.148Z</time>
      </trkpt>
      <trkpt lat="51.2088" lon="6.73293">
        <ele>82.287263</ele>
        <time>2023-04-30T13:10:01.166Z</time>
      </trkpt>
      <trkpt lat="51.20871" lon="6.73298">
        <ele>82.376852</ele>
        <time>2023-04-30T13:10:03.163Z</time>
      </trkpt>
      <trkpt lat="51.20861" lon="6.73302">
        <ele>82.469386</ele>
        <time>2023-04-30T13:10:05.155Z</time>
      </trkpt>
      <trkpt lat="51.20852" lon="6.73307">
        <ele>82.56054</ele>
        <time>2023-04-30T13:10:07.169Z</time>
      </trkpt>
      <trkpt lat="51.20842" lon="6.73311">
        <ele>82.648969</ele>
        <time>2023-04-30T13:10:09.169Z</time>
      </trkpt>
      <trkpt lat="51.20833" lon="6.73314">
        <ele>82.739312</ele>
        <time>2023-04-30T13:10:11.173Z</time>
      </trkpt>
      <trkpt lat="51.20823" lon="6.7332">
        <ele>82.828593</ele>
        <time>2023-04-30T13:10:13.162Z</time>
      </trkpt>
      <trkpt lat="51.20814" lon="6.73325">
        <ele>82.920783</ele>
        <time>2023-04-30T13:10:15.187Z</time>
      </trkpt>
      <trkpt lat="51.20805" lon="6.73331">
        <ele>83.010633</ele>
        <time>2023-04-30T13:10:17.148Z</time>
      </trkpt>
      <trkpt lat="51.20796" lon="6.73337">
        <ele>83.097559</ele>
        <time>2023-04-30T13:10:19.172Z</time>
      </trkpt>
      <trkpt lat="51.20788" lon="6.73343">
        <ele>83.179237</ele>
        <time>2023-04-30T13:10:21.170Z</time>
      </trkpt>
      <trkpt lat="51.20779" lon="6.7335">
        <ele>83.259005</ele>
        <time>2023-04-30T13:10:23.188Z</time>
      </trkpt>
      <trkpt lat="51.20771" lon="6.73357">
        <ele>83.336735</ele>
        <time>2023-04-30T13:10:25.173Z</time>
      </trkpt>
      <trkpt lat="51.20763" lon="6.73364">
        <ele>83.416294</ele>
        <time>2023-04-30T13:10:27.155Z</time>
      </trkpt>
      <trkpt lat="51.20755" lon="6.73372">
        <ele>83.494323</ele>
        <time>2023-04-30T13:10:29.164Z</time>
      </trkpt>
      <trkpt lat="51.20747" lon="6.73378">
        <ele>83.5731</ele>
        <time>2023-04-30T13:10:31.165Z</time>
      </trkpt>
      <trkpt lat="51.20739" lon="6.73386">
        <ele>83.648783</ele>
        <time>2023-04-30T13:10:33.159Z</time>
      </trkpt>
      <trkpt lat="51.20731" lon="6.73394">
        <ele>83.730333</ele>
        <time>2023-04-30T13:10:35.190Z</time>
      </trkpt>
      <trkpt lat="51.20722" lon="6.73401">
        <ele>83.815022</ele>
        <time>2023-04-30T13:10:37.179Z</time>
      </trkpt>
      <trkpt lat="51.20713" lon="6.7341">
        <ele>83.900017</ele>
        <time>2023-04-30T13:10:39.153Z</time>
      </trkpt>
      <trkpt lat="51.20706" lon="6.73418">
        <ele>83.980417</ele>
        <time>2023-04-30T13:10:41.167Z</time>
      </trkpt>
      <trkpt lat="51.20697" lon="6.73426">
        <ele>84.064152</ele>
        <time>2023-04-30T13:10:43.151Z</time>
      </trkpt>
      <trkpt lat="51.20689" lon="6.73433">
        <ele>84.141633</ele>
        <time>2023-04-30T13:10:45.180Z</time>
      </trkpt>
      <trkpt lat="51.2068" lon="6.73439">
        <ele>84.220719</ele>
        <time>2023-04-30T13:10:47.171Z</time>
      </trkpt>
      <trkpt lat="51.20668" lon="6.73448">
        <ele>84.331725</ele>
        <time>2023-04-30T13:10:50.165Z</time>
      </trkpt>
      <trkpt lat="51.20657" lon="6.73458">
        <ele>84.440076</ele>
        <time>2023-04-30T13:10:53.160Z</time>
      </trkpt>
      <trkpt lat="51.20647" lon="6.73468">
        <ele>84.544182</ele>
        <time>2023-04-30T13:10:56.169Z</time>
      </trkpt>
      <trkpt lat="51.20635" lon="6.73476">
        <ele>84.652016</ele>
        <time>2023-04-30T13:10:59.162Z</time>
      </trkpt>
      <trkpt lat="51.20624" lon="6.73485">
        <ele>84.666157</ele>
        <time>2023-04-30T13:11:02.171Z</time>
      </trkpt>
      <trkpt lat="51.20612" lon="6.73495">
        <ele>84.636056</ele>
        <time>2023-04-30T13:11:05.177Z</time>
      </trkpt>
      <trkpt lat="51.20604" lon="6.73505">
        <ele>84.614519</ele>
        <time>2023-04-30T13:11:07.161Z</time>
      </trkpt>
      <trkpt lat="51.20594" lon="6.73516">
        <ele>84.58627</ele>
        <time>2023-04-30T13:11:10.161Z</time>
      </trkpt>
      <trkpt lat="51.20586" lon="6.73525">
        <ele>84.56396</ele>
        <time>2023-04-30T13:11:14.154Z</time>
      </trkpt>
      <trkpt lat="51.20577" lon="6.7353">
        <ele>84.543295</ele>
        <time>2023-04-30T13:11:17.161Z</time>
      </trkpt>
      <trkpt lat="51.20569" lon="6.73537">
        <ele>84.521254</ele>
        <time>2023-04-30T13:11:20.165Z</time>
      </trkpt>
      <trkpt lat="51.20558" lon="6.73545">
        <ele>84.49425</ele>
        <time>2023-04-30T13:11:23.181Z</time>
      </trkpt>
      <trkpt lat="51.20548" lon="6.73556">
        <ele>84.467933</ele>
        <time>2023-04-30T13:11:26.144Z</time>
      </trkpt>
      <trkpt lat="51.20538" lon="6.73565">
        <ele>84.441605</ele>
        <time>2023-04-30T13:11:29.172Z</time>
      </trkpt>
      <trkpt lat="51.20527" lon="6.73574">
        <ele>84.413724</ele>
        <time>2023-04-30T13:11:32.183Z</time>
      </trkpt>
      <trkpt lat="51.20516" lon="6.73583">
        <ele>84.384752</ele>
        <time>2023-04-30T13:11:35.178Z</time>
      </trkpt>
      <trkpt lat="51.20505" lon="6.73592">
        <ele>84.357175</ele>
        <time>2023-04-30T13:11:38.156Z</time>
      </trkpt>
      <trkpt lat="51.20493" lon="6.73602">
        <ele>84.327275</ele>
        <time>2023-04-30T13:11:41.181Z</time>
      </trkpt>
      <trkpt lat="51.20482" lon="6.7361">
        <ele>84.300418</ele>
        <time>2023-04-30T13:11:44.157Z</time>
      </trkpt>
      <trkpt lat="51.20472" lon="6.73619">
        <ele>84.262396</ele>
        <time>2023-04-30T13:11:47.158Z</time>
      </trkpt>
      <trkpt lat="51.20462" lon="6.73627">
        <ele>84.170121</ele>
        <time>2023-04-30T13:11:50.165Z</time>
      </trkpt>
      <trkpt lat="51.20451" lon="6.73635">
        <ele>84.077278</ele>
        <time>2023-04-30T13:11:53.169Z</time>
      </trkpt>
      <trkpt lat="51.20439" lon="6.73625">
        <ele>83.979144</ele>
        <time>2023-04-30T13:11:56.147Z</time>
      </trkpt>
      <trkpt lat="51.20432" lon="6.73616">
        <ele>83.909199</ele>
        <time>2023-04-30T13:11:58.156Z</time>
      </trkpt>
      <trkpt lat="51.20425" lon="6.73607">
        <ele>83.837159</ele>
        <time>2023-04-30T13:12:00.161Z</time>
      </trkpt>
      <trkpt lat="51.20415" lon="6.73594">
        <ele>83.737771</ele>
        <time>2023-04-30T13:12:03.167Z</time>
      </trkpt>
      <trkpt lat="51.20406" lon="6.73589">
        <ele>83.666651</ele>
        <time>2023-04-30T13:12:05.175Z</time>
      </trkpt>
      <trkpt lat="51.20396" lon="6.73586">
        <ele>83.587656</ele>
        <time>2023-04-30T13:12:07.143Z</time>
      </trkpt>
      <trkpt lat="51.20387" lon="6.73579">
        <ele>83.509089</ele>
        <time>2023-04-30T13:12:09.164Z</time>
      </trkpt>
      <trkpt lat="51.20376" lon="6.73565">
        <ele>83.404283</ele>
        <time>2023-04-30T13:12:12.148Z</time>
      </trkpt>
      <trkpt lat="51.20369" lon="6.73555">
        <ele>83.328016</ele>
        <time>2023-04-30T13:12:14.186Z</time>
      </trkpt>
      <trkpt lat="51.20361" lon="6.73544">
        <ele>83.249021</ele>
        <time>2023-04-30T13:12:16.165Z</time>
      </trkpt>
      <trkpt lat="51.20353" lon="6.73533">
        <ele>83.169005</ele>
        <time>2023-04-30T13:12:18.163Z</time>
      </trkpt>
      <trkpt lat="51.20345" lon="6.73522">
        <ele>83.087008</ele>
        <time>2023-04-30T13:12:20.163Z</time>
      </trkpt>
      <trkpt lat="51.20337" lon="6.73511">
        <ele>83.006841</ele>
        <time>2023-04-30T13:12:22.154Z</time>
      </trkpt>
      <trkpt lat="51.20331" lon="6.73497">
        <ele>82.925568</ele>
        <time>2023-04-30T13:12:24.156Z</time>
      </trkpt>
      <trkpt lat="51.20325" lon="6.73485">
        <ele>82.90179</ele>
        <time>2023-04-30T13:12:26.156Z</time>
      </trkpt>
      <trkpt lat="51.20317" lon="6.73473">
        <ele>82.90889</ele>
        <time>2023-04-30T13:12:28.158Z</time>
      </trkpt>
      <trkpt lat="51.20309" lon="6.73462">
        <ele>82.915451</ele>
        <time>2023-04-30T13:12:30.166Z</time>
      </trkpt>
      <trkpt lat="51.20299" lon="6.73454">
        <ele>82.92241</ele>
        <time>2023-04-30T13:12:32.158Z</time>
      </trkpt>
      <trkpt lat="51.20288" lon="6.73451">
        <ele>82.929462</ele>
        <time>2023-04-30T13:12:34.142Z</time>
      </trkpt>
      <trkpt lat="51.20277" lon="6.73455">
        <ele>82.936327</ele>
        <time>2023-04-30T13:12:36.204Z</time>
      </trkpt>
      <trkpt lat="51.20267" lon="6.73461">
        <ele>82.942969</ele>
        <time>2023-04-30T13:12:38.154Z</time>
      </trkpt>
      <trkpt lat="51.20258" lon="6.73468">
        <ele>82.94964</ele>
        <time>2023-04-30T13:12:40.162Z</time>
      </trkpt>
      <trkpt lat="51.20248" lon="6.73474">
        <ele>82.956062</ele>
        <time>2023-04-30T13:12:42.161Z</time>
      </trkpt>
      <trkpt lat="51.20239" lon="6.73479">
        <ele>82.962411</ele>
        <time>2023-04-30T13:12:44.156Z</time>
      </trkpt>
      <trkpt lat="51.2023" lon="6.73485">
        <ele>82.968353</ele>
        <time>2023-04-30T13:12:46.160Z</time>
      </trkpt>
      <trkpt lat="51.20221" lon="6.73491">
        <ele>82.974425</ele>
        <time>2023-04-30T13:12:48.171Z</time>
      </trkpt>
      <trkpt lat="51.20209" lon="6.73499">
        <ele>82.982719</ele>
        <time>2023-04-30T13:12:51.167Z</time>
      </trkpt>
      <trkpt lat="51.20197" lon="6.73506">
        <ele>82.990455</ele>
        <time>2023-04-30T13:12:54.163Z</time>
      </trkpt>
      <trkpt lat="51.20188" lon="6.73513">
        <ele>82.996968</ele>
        <time>2023-04-30T13:12:57.180Z</time>
      </trkpt>
      <trkpt lat="51.20178" lon="6.73522">
        <ele>83.004344</ele>
        <time>2023-04-30T13:13:00.152Z</time>
      </trkpt>
      <trkpt lat="51.20167" lon="6.73533">
        <ele>83.01446</ele>
        <time>2023-04-30T13:13:03.170Z</time>
      </trkpt>
      <trkpt lat="51.20159" lon="6.7354">
        <ele>83.027101</ele>
        <time>2023-04-30T13:13:05.163Z</time>
      </trkpt>
      <trkpt lat="51.20148" lon="6.73552">
        <ele>83.045237</ele>
        <time>2023-04-30T13:13:08.158Z</time>
      </trkpt>
      <trkpt lat="51.20137" lon="6.73562">
        <ele>83.063065</ele>
        <time>2023-04-30T13:13:11.166Z</time>
      </trkpt>
      <trkpt lat="51.20125" lon="6.73571">
        <ele>83.081237</ele>
        <time>2023-04-30T13:13:14.161Z</time>
      </trkpt>
      <trkpt lat="51.20113" lon="6.73576">
        <ele>83.098739</ele>
        <time>2023-04-30T13:13:17.164Z</time>
      </trkpt>
      <trkpt lat="51.20101" lon="6.73576">
        <ele>83.114995</ele>
        <time>2023-04-30T13:13:20.150Z</time>
      </trkpt>
      <trkpt lat="51.2009" lon="6.73578">
        <ele>83.130824</ele>
        <time>2023-04-30T13:13:23.168Z</time>
      </trkpt>
      <trkpt lat="51.20078" lon="6.73582">
        <ele>83.14709</ele>
        <time>2023-04-30T13:13:26.150Z</time>
      </trkpt>
      <trkpt lat="51.20066" lon="6.73583">
        <ele>83.164213</ele>
        <time>2023-04-30T13:13:29.171Z</time>
      </trkpt>
      <trkpt lat="51.20055" lon="6.73586">
        <ele>83.179964</ele>
        <time>2023-04-30T13:13:32.155Z</time>
      </trkpt>
      <trkpt lat="51.20044" lon="6.73589">
        <ele>83.194512</ele>
        <time>2023-04-30T13:13:35.148Z</time>
      </trkpt>
      <trkpt lat="51.20034" lon="6.73591">
        <ele>83.208741</ele>
        <time>2023-04-30T13:13:38.158Z</time>
      </trkpt>
      <trkpt lat="51.20023" lon="6.73594">
        <ele>83.224455</ele>
        <time>2023-04-30T13:13:41.144Z</time>
      </trkpt>
      <trkpt lat="51.20011" lon="6.73595">
        <ele>83.24145</ele>
        <time>2023-04-30T13:13:44.154Z</time>
      </trkpt>
      <trkpt lat="51.19999" lon="6.73598">
        <ele>83.258203</ele>
        <time>2023-04-30T13:13:47.171Z</time>
      </trkpt>
      <trkpt lat="51.19987" lon="6.73601">
        <ele>83.423337</ele>
        <time>2023-04-30T13:13:50.131Z</time>
      </trkpt>
      <trkpt lat="51.19975" lon="6.73605">
        <ele>83.615987</ele>
        <time>2023-04-30T13:13:53.153Z</time>
      </trkpt>
      <trkpt lat="51.19963" lon="6.73608">
        <ele>83.811416</ele>
        <time>2023-04-30T13:13:56.157Z</time>
      </trkpt>
      <trkpt lat="51.1995" lon="6.7361">
        <ele>84.01648</ele>
        <time>2023-04-30T13:13:59.161Z</time>
      </trkpt>
      <trkpt lat="51.19936" lon="6.73612">
        <ele>84.224768</ele>
        <time>2023-04-30T13:14:02.172Z</time>
      </trkpt>
      <trkpt lat="51.19927" lon="6.73614">
        <ele>84.36611</ele>
        <time>2023-04-30T13:14:04.167Z</time>
      </trkpt>
      <trkpt lat="51.19915" lon="6.73617">
        <ele>84.569933</ele>
        <time>2023-04-30T13:14:07.199Z</time>
      </trkpt>
      <trkpt lat="51.19902" lon="6.73619">
        <ele>84.769324</ele>
        <time>2023-04-30T13:14:10.163Z</time>
      </trkpt>
      <trkpt lat="51.1989" lon="6.73622">
        <ele>84.959949</ele>
        <time>2023-04-30T13:14:13.165Z</time>
      </trkpt>
      <trkpt lat="51.19879" lon="6.73627">
        <ele>85.142037</ele>
        <time>2023-04-30T13:14:16.169Z</time>
      </trkpt>
      <trkpt lat="51.19869" lon="6.73635">
        <ele>85.312004</ele>
        <time>2023-04-30T13:14:19.168Z</time>
      </trkpt>
      <trkpt lat="51.19868" lon="6.73652">
        <ele>85.487397</ele>
        <time>2023-04-30T13:14:22.162Z</time>
      </trkpt>
      <trkpt lat="51.19868" lon="6.7367">
        <ele>85.663541</ele>
        <time>2023-04-30T13:14:25.199Z</time>
      </trkpt>
      <trkpt lat="51.19867" lon="6.73685">
        <ele>85.810107</ele>
        <time>2023-04-30T13:14:28.161Z</time>
      </trkpt>
      <trkpt lat="51.19866" lon="6.737">
        <ele>85.959024</ele>
        <time>2023-04-30T13:14:31.163Z</time>
      </trkpt>
      <trkpt lat="51.19863" lon="6.73714">
        <ele>86.112079</ele>
        <time>2023-04-30T13:14:34.165Z</time>
      </trkpt>
      <trkpt lat="51.19861" lon="6.73696">
        <ele>86.399973</ele>
        <time>2023-04-30T13:14:49.155Z</time>
      </trkpt>
      <trkpt lat="51.19862" lon="6.73681">
        <ele>86.641317</ele>
        <time>2023-04-30T13:14:53.148Z</time>
      </trkpt>
      <trkpt lat="51.19859" lon="6.73667">
        <ele>86.880354</ele>
        <time>2023-04-30T13:14:57.167Z</time>
      </trkpt>
      <trkpt lat="51.19858" lon="6.73652">
        <ele>87.111145</ele>
        <time>2023-04-30T13:15:01.158Z</time>
      </trkpt>
      <trkpt lat="51.19858" lon="6.73634">
        <ele>87.399384</ele>
        <time>2023-04-30T13:15:05.154Z</time>
      </trkpt>
      <trkpt lat="51.19859" lon="6.73616">
        <ele>87.685262</ele>
        <time>2023-04-30T13:15:09.154Z</time>
      </trkpt>
      <trkpt lat="51.1986" lon="6.73599">
        <ele>87.959401</ele>
        <time>2023-04-30T13:15:13.164Z</time>
      </trkpt>
      <trkpt lat="51.19861" lon="6.7358">
        <ele>88.257505</ele>
        <time>2023-04-30T13:15:17.176Z</time>
      </trkpt>
      <trkpt lat="51.19862" lon="6.73561">
        <ele>88.563533</ele>
        <time>2023-04-30T13:15:21.188Z</time>
      </trkpt>
      <trkpt lat="51.19863" lon="6.73545">
        <ele>88.818083</ele>
        <time>2023-04-30T13:15:24.163Z</time>
      </trkpt>
      <trkpt lat="51.19864" lon="6.7353">
        <ele>89.063921</ele>
        <time>2023-04-30T13:15:27.179Z</time>
      </trkpt>
      <trkpt lat="51.19865" lon="6.73515">
        <ele>89.308427</ele>
        <time>2023-04-30T13:15:30.164Z</time>
      </trkpt>
      <trkpt lat="51.19866" lon="6.73499">
        <ele>89.564002</ele>
        <time>2023-04-30T13:15:33.154Z</time>
      </trkpt>
      <trkpt lat="51.19867" lon="6.73483">
        <ele>89.811007</ele>
        <time>2023-04-30T13:15:36.163Z</time>
      </trkpt>
      <trkpt lat="51.19867" lon="6.73467">
        <ele>90.063781</ele>
        <time>2023-04-30T13:15:39.161Z</time>
      </trkpt>
      <trkpt lat="51.19868" lon="6.73452">
        <ele>90.310785</ele>
        <time>2023-04-30T13:15:42.164Z</time>
      </trkpt>
      <trkpt lat="51.19868" lon="6.73437">
        <ele>90.540355</ele>
        <time>2023-04-30T13:15:45.173Z</time>
      </trkpt>
      <trkpt lat="51.19869" lon="6.73422">
        <ele>90.675157</ele>
        <time>2023-04-30T13:15:48.161Z</time>
      </trkpt>
      <trkpt lat="51.19869" lon="6.73407">
        <ele>90.728476</ele>
        <time>2023-04-30T13:15:51.173Z</time>
      </trkpt>
      <trkpt lat="51.1987" lon="6.73392">
        <ele>90.781503</ele>
        <time>2023-04-30T13:15:54.168Z</time>
      </trkpt>
      <trkpt lat="51.1987" lon="6.73378">
        <ele>90.833764</ele>
        <time>2023-04-30T13:15:57.161Z</time>
      </trkpt>
      <trkpt lat="51.1987" lon="6.73362">
        <ele>90.887063</ele>
        <time>2023-04-30T13:16:00.174Z</time>
      </trkpt>
      <trkpt lat="51.19872" lon="6.73347">
        <ele>90.941044</ele>
        <time>2023-04-30T13:16:03.167Z</time>
      </trkpt>
      <trkpt lat="51.19872" lon="6.73332">
        <ele>90.995258</ele>
        <time>2023-04-30T13:16:06.160Z</time>
      </trkpt>
      <trkpt lat="51.19873" lon="6.73317">
        <ele>91.049177</ele>
        <time>2023-04-30T13:16:09.164Z</time>
      </trkpt>
      <trkpt lat="51.19874" lon="6.73301">
        <ele>91.104705</ele>
        <time>2023-04-30T13:16:12.163Z</time>
      </trkpt>
      <trkpt lat="51.19875" lon="6.73285">
        <ele>91.161905</ele>
        <time>2023-04-30T13:16:15.166Z</time>
      </trkpt>
      <trkpt lat="51.19876" lon="6.73269">
        <ele>91.220036</ele>
        <time>2023-04-30T13:16:18.180Z</time>
      </trkpt>
      <trkpt lat="51.19877" lon="6.73253">
        <ele>91.273415</ele>
        <time>2023-04-30T13:16:21.170Z</time>
      </trkpt>
      <trkpt lat="51.19878" lon="6.73238">
        <ele>91.329439</ele>
        <time>2023-04-30T13:16:24.178Z</time>
      </trkpt>
      <trkpt lat="51.19879" lon="6.73222">
        <ele>91.38356</ele>
        <time>2023-04-30T13:16:27.164Z</time>
      </trkpt>
      <trkpt lat="51.1988" lon="6.73207">
        <ele>91.439531</ele>
        <time>2023-04-30T13:16:32.156Z</time>
      </trkpt>
      <trkpt lat="51.19881" lon="6.73192">
        <ele>91.49211</ele>
        <time>2023-04-30T13:17:55.153Z</time>
      </trkpt>
      <trkpt lat="51.19882" lon="6.73175">
        <ele>91.55354</ele>
        <time>2023-04-30T13:18:00.148Z</time>
      </trkpt>
      <trkpt lat="51.19884" lon="6.73157">
        <ele>91.615853</ele>
        <time>2023-04-30T13:18:04.156Z</time>
      </trkpt>
      <trkpt lat="51.19885" lon="6.73142">
        <ele>91.663321</ele>
        <time>2023-04-30T13:18:07.166Z</time>
      </trkpt>
      <trkpt lat="51.19886" lon="6.73126">
        <ele>91.685882</ele>
        <time>2023-04-30T13:18:10.155Z</time>
      </trkpt>
      <trkpt lat="51.19886" lon="6.73109">
        <ele>91.710942</ele>
        <time>2023-04-30T13:18:14.160Z</time>
      </trkpt>
      <trkpt lat="51.19886" lon="6.73091">
        <ele>91.735831</ele>
        <time>2023-04-30T13:18:18.182Z</time>
      </trkpt>
      <trkpt lat="51.19887" lon="6.73076">
        <ele>91.757586</ele>
        <time>2023-04-30T13:18:22.170Z</time>
      </trkpt>
      <trkpt lat="51.19887" lon="6.73061">
        <ele>91.780328</ele>
        <time>2023-04-30T13:18:27.169Z</time>
      </trkpt>
      <trkpt lat="51.19889" lon="6.7304">
        <ele>91.810716</ele>
        <time>2023-04-30T13:19:29.159Z</time>
      </trkpt>
      <trkpt lat="51.1989" lon="6.73023">
        <ele>91.835471</ele>
        <time>2023-04-30T13:19:36.149Z</time>
      </trkpt>
      <trkpt lat="51.19891" lon="6.73008">
        <ele>91.857115</ele>
        <time>2023-04-30T13:19:41.166Z</time>
      </trkpt>
      <trkpt lat="51.19892" lon="6.72992">
        <ele>91.880129</ele>
        <time>2023-04-30T13:19:46.160Z</time>
      </trkpt>
      <trkpt lat="51.19892" lon="6.72969">
        <ele>91.913219</ele>
        <time>2023-04-30T13:20:28.153Z</time>
      </trkpt>
      <trkpt lat="51.19893" lon="6.72953">
        <ele>91.935861</ele>
        <time>2023-04-30T13:20:32.157Z</time>
      </trkpt>
      <trkpt lat="51.19895" lon="6.72935">
        <ele>91.96231</ele>
        <time>2023-04-30T13:20:36.186Z</time>
      </trkpt>
      <trkpt lat="51.19896" lon="6.72919">
        <ele>91.985444</ele>
        <time>2023-04-30T13:20:39.168Z</time>
      </trkpt>
      <trkpt lat="51.19897" lon="6.729">
        <ele>92.012302</ele>
        <time>2023-04-30T13:20:42.178Z</time>
      </trkpt>
      <trkpt lat="51.19898" lon="6.7288">
        <ele>92.041482</ele>
        <time>2023-04-30T13:20:45.162Z</time>
      </trkpt>
      <trkpt lat="51.199" lon="6.7286">
        <ele>92.070578</ele>
        <time>2023-04-30T13:20:48.152Z</time>
      </trkpt>
      <trkpt lat="51.19901" lon="6.72839">
        <ele>91.755453</ele>
        <time>2023-04-30T13:20:51.177Z</time>
      </trkpt>
      <trkpt lat="51.19902" lon="6.72824">
        <ele>91.529083</ele>
        <time>2023-04-30T13:20:53.170Z</time>
      </trkpt>
      <trkpt lat="51.19902" lon="6.72809">
        <ele>91.297923</ele>
        <time>2023-04-30T13:20:55.167Z</time>
      </trkpt>
      <trkpt lat="51.19904" lon="6.72795">
        <ele>91.073649</ele>
        <time>2023-04-30T13:20:57.180Z</time>
      </trkpt>
      <trkpt lat="51.19904" lon="6.7278">
        <ele>90.850785</ele>
        <time>2023-04-30T13:20:59.174Z</time>
      </trkpt>
      <trkpt lat="51.19904" lon="6.72765">
        <ele>90.623318</ele>
        <time>2023-04-30T13:21:01.163Z</time>
      </trkpt>
      <trkpt lat="51.19904" lon="6.72751">
        <ele>90.396749</ele>
        <time>2023-04-30T13:21:03.163Z</time>
      </trkpt>
      <trkpt lat="51.19906" lon="6.72736">
        <ele>90.171832</ele>
        <time>2023-04-30T13:21:05.163Z</time>
      </trkpt>
      <trkpt lat="51.19907" lon="6.72721">
        <ele>89.939934</ele>
        <time>2023-04-30T13:21:07.180Z</time>
      </trkpt>
      <trkpt lat="51.19908" lon="6.72707">
        <ele>89.714895</ele>
        <time>2023-04-30T13:21:09.199Z</time>
      </trkpt>
      <trkpt lat="51.19908" lon="6.72691">
        <ele>89.478376</ele>
        <time>2023-04-30T13:21:11.166Z</time>
      </trkpt>
      <trkpt lat="51.19909" lon="6.72675">
        <ele>89.229694</ele>
        <time>2023-04-30T13:21:13.170Z</time>
      </trkpt>
      <trkpt lat="51.1991" lon="6.72659">
        <ele>88.987711</ele>
        <time>2023-04-30T13:21:15.174Z</time>
      </trkpt>
      <trkpt lat="51.19911" lon="6.72644">
        <ele>88.747898</ele>
        <time>2023-04-30T13:21:17.167Z</time>
      </trkpt>
      <trkpt lat="51.19912" lon="6.72628">
        <ele>88.49817</ele>
        <time>2023-04-30T13:21:19.165Z</time>
      </trkpt>
      <trkpt lat="51.19913" lon="6.72613">
        <ele>88.263733</ele>
        <time>2023-04-30T13:21:21.176Z</time>
      </trkpt>
      <trkpt lat="51.19914" lon="6.72597">
        <ele>88.02392</ele>
        <time>2023-04-30T13:21:23.157Z</time>
      </trkpt>
      <trkpt lat="51.19915" lon="6.72582">
        <ele>87.786642</ele>
        <time>2023-04-30T13:21:25.178Z</time>
      </trkpt>
      <trkpt lat="51.19916" lon="6.72566">
        <ele>87.476979</ele>
        <time>2023-04-30T13:21:27.178Z</time>
      </trkpt>
      <trkpt lat="51.19917" lon="6.72551">
        <ele>87.093848</ele>
        <time>2023-04-30T13:21:29.165Z</time>
      </trkpt>
      <trkpt lat="51.19918" lon="6.72536">
        <ele>86.695881</ele>
        <time>2023-04-30T13:21:31.176Z</time>
      </trkpt>
      <trkpt lat="51.19919" lon="6.72516">
        <ele>86.183737</ele>
        <time>2023-04-30T13:21:34.164Z</time>
      </trkpt>
      <trkpt lat="51.1992" lon="6.72498">
        <ele>85.729688</ele>
        <time>2023-04-30T13:21:37.178Z</time>
      </trkpt>
      <trkpt lat="51.19923" lon="6.72482">
        <ele>85.31475</ele>
        <time>2023-04-30T13:21:41.165Z</time>
      </trkpt>
      <trkpt lat="51.19928" lon="6.72495">
        <ele>84.935345</ele>
        <time>2023-04-30T13:21:50.165Z</time>
      </trkpt>
      <trkpt lat="51.19931" lon="6.72512">
        <ele>84.489831</ele>
        <time>2023-04-30T13:21:54.159Z</time>
      </trkpt>
      <trkpt lat="51.19932" lon="6.72528">
        <ele>84.089143</ele>
        <time>2023-04-30T13:21:59.167Z</time>
      </trkpt>
      <trkpt lat="51.19944" lon="6.7253">
        <ele>83.618543</ele>
        <time>2023-04-30T13:22:06.156Z</time>
      </trkpt>
      <trkpt lat="51.19955" lon="6.72522">
        <ele>83.110561</ele>
        <time>2023-04-30T13:22:09.162Z</time>
      </trkpt>
      <trkpt lat="51.19965" lon="6.7252">
        <ele>82.709674</ele>
        <time>2023-04-30T13:22:11.153Z</time>
      </trkpt>
      <trkpt lat="51.19975" lon="6.72517">
        <ele>82.295702</ele>
        <time>2023-04-30T13:22:13.165Z</time>
      </trkpt>
      <trkpt lat="51.19985" lon="6.72514">
        <ele>81.893268</ele>
        <time>2023-04-30T13:22:15.174Z</time>
      </trkpt>
      <trkpt lat="51.19994" lon="6.72511">
        <ele>81.493291</ele>
        <time>2023-04-30T13:22:17.168Z</time>
      </trkpt>
      <trkpt lat="51.20004" lon="6.72508">
        <ele>81.094825</ele>
        <time>2023-04-30T13:22:19.166Z</time>
      </trkpt>
      <trkpt lat="51.20014" lon="6.72504">
        <ele>80.679168</ele>
        <time>2023-04-30T13:22:21.158Z</time>
      </trkpt>
      <trkpt lat="51.20024" lon="6.72501">
        <ele>80.365841</ele>
        <time>2023-04-30T13:22:23.166Z</time>
      </trkpt>
      <trkpt lat="51.20034" lon="6.72498">
        <ele>80.365841</ele>
        <time>2023-04-30T13:22:25.153Z</time>
      </trkpt>
      <trkpt lat="51.20043" lon="6.72495">
        <ele>80.365841</ele>
        <time>2023-04-30T13:22:27.172Z</time>
      </trkpt>
      <trkpt lat="51.20052" lon="6.72492">
        <ele>80.365841</ele>
        <time>2023-04-30T13:22:29.161Z</time>
      </trkpt>
      <trkpt lat="51.20066" lon="6.72488">
        <ele>80.365841</ele>
        <time>2023-04-30T13:22:32.167Z</time>
      </trkpt>
      <trkpt lat="51.20075" lon="6.72485">
        <ele>80.365841</ele>
        <time>2023-04-30T13:22:34.167Z</time>
      </trkpt>
      <trkpt lat="51.20084" lon="6.7248">
        <ele>80.365841</ele>
        <time>2023-04-30T13:22:36.169Z</time>
      </trkpt>
      <trkpt lat="51.20094" lon="6.72473">
        <ele>80.365841</ele>
        <time>2023-04-30T13:22:38.174Z</time>
      </trkpt>
      <trkpt lat="51.20103" lon="6.72466">
        <ele>80.365841</ele>
        <time>2023-04-30T13:22:40.176Z</time>
      </trkpt>
      <trkpt lat="51.20111" lon="6.72458">
        <ele>80.365841</ele>
        <time>2023-04-30T13:22:42.172Z</time>
      </trkpt>
      <trkpt lat="51.2012" lon="6.72454">
        <ele>80.365841</ele>
        <time>2023-04-30T13:22:44.172Z</time>
      </trkpt>
      <trkpt lat="51.20133" lon="6.72447">
        <ele>80.365841</ele>
        <time>2023-04-30T13:22:47.177Z</time>
      </trkpt>
      <trkpt lat="51.20145" lon="6.72441">
        <ele>80.365841</ele>
        <time>2023-04-30T13:22:50.165Z</time>
      </trkpt>
      <trkpt lat="51.20154" lon="6.72438">
        <ele>80.365841</ele>
        <time>2023-04-30T13:22:52.162Z</time>
      </trkpt>
      <trkpt lat="51.20166" lon="6.72431">
        <ele>80.365841</ele>
        <time>2023-04-30T13:22:55.151Z</time>
      </trkpt>
      <trkpt lat="51.20179" lon="6.72425">
        <ele>80.365841</ele>
        <time>2023-04-30T13:22:58.160Z</time>
      </trkpt>
      <trkpt lat="51.2019" lon="6.72418">
        <ele>80.365841</ele>
        <time>2023-04-30T13:23:01.170Z</time>
      </trkpt>
      <trkpt lat="51.20201" lon="6.72413">
        <ele>80.365841</ele>
        <time>2023-04-30T13:23:04.172Z</time>
      </trkpt>
      <trkpt lat="51.2021" lon="6.72409">
        <ele>80.365841</ele>
        <time>2023-04-30T13:23:07.176Z</time>
      </trkpt>
      <trkpt lat="51.2022" lon="6.72405">
        <ele>80.365841</ele>
        <time>2023-04-30T13:23:10.173Z</time>
      </trkpt>
      <trkpt lat="51.20231" lon="6.72399">
        <ele>80.365841</ele>
        <time>2023-04-30T13:23:14.154Z</time>
      </trkpt>
      <trkpt lat="51.20239" lon="6.72404">
        <ele>80.365841</ele>
        <time>2023-04-30T13:23:54.454Z</time>
      </trkpt>
    </trkseg>
  </trk>
</gpx>